<?xml version="1.0" encoding="UTF-8" standalone="no" ?>
<gpx xmlns="http://www.topografix.com/GPX/1/1" xmlns:xsi="http://www.w3.org/2001/XMLSchema-instance" xsi:schemaLocation="http://www.topografix.com/GPX/1/1 http://www.topografix.com/GPX/1/1/gpx.xsd" version="1.1" creator="VisuGPX - https://www.visugpx.com">
  <metadata>
    <name>Balade hivernale</name>
    <desc><![CDATA[Balade effectuée du 9 décembre 2022 au 7 janvier 2023.]]></desc>
  </metadata>
  <trk>
    <name><![CDATA[Pontivy - Quilly]]></name>
    <extensions>
      <line xmlns="http://www.topografix.com/GPX/gpx_style/0/2">
        <color>0000ff</color>
        <width>4</width>
      </line>
    </extensions>
    <trkseg>
      <trkpt lat="48.07455" lon="-2.96171">
        <ele>104.153575</ele>
        <time>2022-12-13T13:19:54.765Z</time>
      </trkpt>
      <trkpt lat="48.0746" lon="-2.96154">
        <ele>104.153575</ele>
        <time>2022-12-13T13:20:45.213Z</time>
      </trkpt>
      <trkpt lat="48.07463" lon="-2.96141">
        <ele>104.153575</ele>
        <time>2022-12-13T13:20:49.219Z</time>
      </trkpt>
      <trkpt lat="48.07467" lon="-2.96126">
        <ele>104.153575</ele>
        <time>2022-12-13T13:20:53.218Z</time>
      </trkpt>
      <trkpt lat="48.07472" lon="-2.96111">
        <ele>104.153575</ele>
        <time>2022-12-13T13:20:57.228Z</time>
      </trkpt>
      <trkpt lat="48.07475" lon="-2.96098">
        <ele>104.153575</ele>
        <time>2022-12-13T13:21:00.203Z</time>
      </trkpt>
      <trkpt lat="48.07479" lon="-2.96085">
        <ele>104.153575</ele>
        <time>2022-12-13T13:21:03.208Z</time>
      </trkpt>
      <trkpt lat="48.07482" lon="-2.96071">
        <ele>104.153575</ele>
        <time>2022-12-13T13:21:06.207Z</time>
      </trkpt>
      <trkpt lat="48.07486" lon="-2.96057">
        <ele>104.153575</ele>
        <time>2022-12-13T13:21:09.209Z</time>
      </trkpt>
      <trkpt lat="48.0749" lon="-2.96042">
        <ele>104.158218</ele>
        <time>2022-12-13T13:21:12.222Z</time>
      </trkpt>
      <trkpt lat="48.07494" lon="-2.96027">
        <ele>104.174158</ele>
        <time>2022-12-13T13:21:15.215Z</time>
      </trkpt>
      <trkpt lat="48.07499" lon="-2.96013">
        <ele>104.190016</ele>
        <time>2022-12-13T13:21:18.222Z</time>
      </trkpt>
      <trkpt lat="48.07504" lon="-2.95997">
        <ele>104.207052</ele>
        <time>2022-12-13T13:21:21.224Z</time>
      </trkpt>
      <trkpt lat="48.07508" lon="-2.95981">
        <ele>104.224416</ele>
        <time>2022-12-13T13:21:24.224Z</time>
      </trkpt>
      <trkpt lat="48.07513" lon="-2.95965">
        <ele>104.241537</ele>
        <time>2022-12-13T13:21:27.219Z</time>
      </trkpt>
      <trkpt lat="48.07518" lon="-2.95948">
        <ele>104.259648</ele>
        <time>2022-12-13T13:21:30.202Z</time>
      </trkpt>
      <trkpt lat="48.07522" lon="-2.95933">
        <ele>104.275724</ele>
        <time>2022-12-13T13:21:33.202Z</time>
      </trkpt>
      <trkpt lat="48.07527" lon="-2.95918">
        <ele>104.291451</ele>
        <time>2022-12-13T13:21:36.217Z</time>
      </trkpt>
      <trkpt lat="48.07532" lon="-2.95903">
        <ele>104.308121</ele>
        <time>2022-12-13T13:21:39.209Z</time>
      </trkpt>
      <trkpt lat="48.07538" lon="-2.95888">
        <ele>104.325421</ele>
        <time>2022-12-13T13:21:42.216Z</time>
      </trkpt>
      <trkpt lat="48.07545" lon="-2.95875">
        <ele>104.341837</ele>
        <time>2022-12-13T13:21:45.212Z</time>
      </trkpt>
      <trkpt lat="48.07552" lon="-2.95863">
        <ele>104.357103</ele>
        <time>2022-12-13T13:21:48.201Z</time>
      </trkpt>
      <trkpt lat="48.07559" lon="-2.95853">
        <ele>104.371594</ele>
        <time>2022-12-13T13:21:51.211Z</time>
      </trkpt>
      <trkpt lat="48.07567" lon="-2.95842">
        <ele>104.386982</ele>
        <time>2022-12-13T13:21:54.211Z</time>
      </trkpt>
      <trkpt lat="48.07576" lon="-2.95832">
        <ele>104.403917</ele>
        <time>2022-12-13T13:21:57.219Z</time>
      </trkpt>
      <trkpt lat="48.07585" lon="-2.95821">
        <ele>104.521205</ele>
        <time>2022-12-13T13:22:00.220Z</time>
      </trkpt>
      <trkpt lat="48.07596" lon="-2.95813">
        <ele>105.021456</ele>
        <time>2022-12-13T13:22:03.220Z</time>
      </trkpt>
      <trkpt lat="48.07605" lon="-2.95804">
        <ele>105.499386</ele>
        <time>2022-12-13T13:22:06.224Z</time>
      </trkpt>
      <trkpt lat="48.07616" lon="-2.95796">
        <ele>105.989809</ele>
        <time>2022-12-13T13:22:10.210Z</time>
      </trkpt>
      <trkpt lat="48.07623" lon="-2.95787">
        <ele>106.382892</ele>
        <time>2022-12-13T13:22:13.216Z</time>
      </trkpt>
      <trkpt lat="48.07631" lon="-2.9578">
        <ele>106.784205</ele>
        <time>2022-12-13T13:22:16.200Z</time>
      </trkpt>
      <trkpt lat="48.07639" lon="-2.95773">
        <ele>107.204793</ele>
        <time>2022-12-13T13:22:19.227Z</time>
      </trkpt>
      <trkpt lat="48.07648" lon="-2.95765">
        <ele>107.638178</ele>
        <time>2022-12-13T13:22:22.219Z</time>
      </trkpt>
      <trkpt lat="48.07656" lon="-2.95757">
        <ele>108.041881</ele>
        <time>2022-12-13T13:22:25.208Z</time>
      </trkpt>
      <trkpt lat="48.07665" lon="-2.9575">
        <ele>108.459248</ele>
        <time>2022-12-13T13:22:28.203Z</time>
      </trkpt>
      <trkpt lat="48.07673" lon="-2.95742">
        <ele>108.886287</ele>
        <time>2022-12-13T13:22:31.227Z</time>
      </trkpt>
      <trkpt lat="48.07683" lon="-2.95732">
        <ele>109.391083</ele>
        <time>2022-12-13T13:22:35.204Z</time>
      </trkpt>
      <trkpt lat="48.07692" lon="-2.95725">
        <ele>109.828296</ele>
        <time>2022-12-13T13:22:43.213Z</time>
      </trkpt>
      <trkpt lat="48.07701" lon="-2.95716">
        <ele>110.269779</ele>
        <time>2022-12-13T13:22:48.202Z</time>
      </trkpt>
      <trkpt lat="48.07709" lon="-2.95708">
        <ele>110.69314</ele>
        <time>2022-12-13T13:22:52.221Z</time>
      </trkpt>
      <trkpt lat="48.07718" lon="-2.957">
        <ele>111.15127</ele>
        <time>2022-12-13T13:22:56.219Z</time>
      </trkpt>
      <trkpt lat="48.07727" lon="-2.95692">
        <ele>111.572977</ele>
        <time>2022-12-13T13:22:59.206Z</time>
      </trkpt>
      <trkpt lat="48.07735" lon="-2.95684">
        <ele>111.971574</ele>
        <time>2022-12-13T13:23:02.202Z</time>
      </trkpt>
      <trkpt lat="48.07743" lon="-2.95677">
        <ele>112.216234</ele>
        <time>2022-12-13T13:23:05.203Z</time>
      </trkpt>
      <trkpt lat="48.07751" lon="-2.95669">
        <ele>112.409034</ele>
        <time>2022-12-13T13:23:08.220Z</time>
      </trkpt>
      <trkpt lat="48.07759" lon="-2.95661">
        <ele>112.620749</ele>
        <time>2022-12-13T13:23:11.206Z</time>
      </trkpt>
      <trkpt lat="48.07768" lon="-2.95654">
        <ele>112.829561</ele>
        <time>2022-12-13T13:23:14.212Z</time>
      </trkpt>
      <trkpt lat="48.07775" lon="-2.95646">
        <ele>113.030812</ele>
        <time>2022-12-13T13:23:17.234Z</time>
      </trkpt>
      <trkpt lat="48.07784" lon="-2.95636">
        <ele>113.252352</ele>
        <time>2022-12-13T13:23:20.225Z</time>
      </trkpt>
      <trkpt lat="48.07793" lon="-2.95627">
        <ele>113.49324</ele>
        <time>2022-12-13T13:23:23.220Z</time>
      </trkpt>
      <trkpt lat="48.07803" lon="-2.95617">
        <ele>113.747223</ele>
        <time>2022-12-13T13:23:26.227Z</time>
      </trkpt>
      <trkpt lat="48.07813" lon="-2.95608">
        <ele>113.984161</ele>
        <time>2022-12-13T13:23:29.224Z</time>
      </trkpt>
      <trkpt lat="48.07822" lon="-2.95598">
        <ele>114.225397</ele>
        <time>2022-12-13T13:23:32.203Z</time>
      </trkpt>
      <trkpt lat="48.07832" lon="-2.95589">
        <ele>114.474973</ele>
        <time>2022-12-13T13:23:35.223Z</time>
      </trkpt>
      <trkpt lat="48.07841" lon="-2.9558">
        <ele>114.709525</ele>
        <time>2022-12-13T13:23:38.233Z</time>
      </trkpt>
      <trkpt lat="48.0785" lon="-2.95572">
        <ele>114.922357</ele>
        <time>2022-12-13T13:23:41.217Z</time>
      </trkpt>
      <trkpt lat="48.07858" lon="-2.95563">
        <ele>115.143074</ele>
        <time>2022-12-13T13:23:44.221Z</time>
      </trkpt>
      <trkpt lat="48.07868" lon="-2.95554">
        <ele>115.380978</ele>
        <time>2022-12-13T13:23:47.226Z</time>
      </trkpt>
      <trkpt lat="48.07878" lon="-2.95546">
        <ele>115.618984</ele>
        <time>2022-12-13T13:23:50.218Z</time>
      </trkpt>
      <trkpt lat="48.07886" lon="-2.95539">
        <ele>115.815859</ele>
        <time>2022-12-13T13:23:53.218Z</time>
      </trkpt>
      <trkpt lat="48.07894" lon="-2.95532">
        <ele>115.81078</ele>
        <time>2022-12-13T13:23:56.217Z</time>
      </trkpt>
      <trkpt lat="48.07902" lon="-2.95523">
        <ele>115.733161</ele>
        <time>2022-12-13T13:23:59.231Z</time>
      </trkpt>
      <trkpt lat="48.07912" lon="-2.95513">
        <ele>115.642319</ele>
        <time>2022-12-13T13:24:02.220Z</time>
      </trkpt>
      <trkpt lat="48.07922" lon="-2.95502">
        <ele>115.54391</ele>
        <time>2022-12-13T13:24:05.233Z</time>
      </trkpt>
      <trkpt lat="48.07932" lon="-2.95492">
        <ele>115.457096</ele>
        <time>2022-12-13T13:24:08.219Z</time>
      </trkpt>
      <trkpt lat="48.07943" lon="-2.95482">
        <ele>115.358206</ele>
        <time>2022-12-13T13:24:11.217Z</time>
      </trkpt>
      <trkpt lat="48.07954" lon="-2.95472">
        <ele>115.259583</ele>
        <time>2022-12-13T13:24:14.212Z</time>
      </trkpt>
      <trkpt lat="48.07964" lon="-2.95462">
        <ele>115.166851</ele>
        <time>2022-12-13T13:24:17.218Z</time>
      </trkpt>
      <trkpt lat="48.07973" lon="-2.95452">
        <ele>115.080958</ele>
        <time>2022-12-13T13:24:20.203Z</time>
      </trkpt>
      <trkpt lat="48.07981" lon="-2.95443">
        <ele>115.001128</ele>
        <time>2022-12-13T13:24:23.231Z</time>
      </trkpt>
      <trkpt lat="48.07991" lon="-2.95434">
        <ele>114.916166</ele>
        <time>2022-12-13T13:24:26.226Z</time>
      </trkpt>
      <trkpt lat="48.08001" lon="-2.95424">
        <ele>114.816278</ele>
        <time>2022-12-13T13:24:29.220Z</time>
      </trkpt>
      <trkpt lat="48.08013" lon="-2.95413">
        <ele>114.714626</ele>
        <time>2022-12-13T13:24:32.224Z</time>
      </trkpt>
      <trkpt lat="48.08024" lon="-2.95404">
        <ele>114.617451</ele>
        <time>2022-12-13T13:24:35.223Z</time>
      </trkpt>
      <trkpt lat="48.08033" lon="-2.95394">
        <ele>114.530822</ele>
        <time>2022-12-13T13:24:38.222Z</time>
      </trkpt>
      <trkpt lat="48.08042" lon="-2.95385">
        <ele>114.360411</ele>
        <time>2022-12-13T13:24:41.227Z</time>
      </trkpt>
      <trkpt lat="48.08051" lon="-2.95376">
        <ele>114.106525</ele>
        <time>2022-12-13T13:24:44.210Z</time>
      </trkpt>
      <trkpt lat="48.08059" lon="-2.95367">
        <ele>113.871399</ele>
        <time>2022-12-13T13:24:47.221Z</time>
      </trkpt>
      <trkpt lat="48.08069" lon="-2.95358">
        <ele>113.604397</ele>
        <time>2022-12-13T13:24:50.226Z</time>
      </trkpt>
      <trkpt lat="48.08077" lon="-2.95349">
        <ele>113.370543</ele>
        <time>2022-12-13T13:24:53.235Z</time>
      </trkpt>
      <trkpt lat="48.08084" lon="-2.95341">
        <ele>113.153284</ele>
        <time>2022-12-13T13:24:56.237Z</time>
      </trkpt>
      <trkpt lat="48.08093" lon="-2.95334">
        <ele>112.923999</ele>
        <time>2022-12-13T13:24:59.210Z</time>
      </trkpt>
      <trkpt lat="48.08101" lon="-2.95326">
        <ele>112.692797</ele>
        <time>2022-12-13T13:25:02.218Z</time>
      </trkpt>
      <trkpt lat="48.08111" lon="-2.95317">
        <ele>112.412961</ele>
        <time>2022-12-13T13:25:05.233Z</time>
      </trkpt>
      <trkpt lat="48.08122" lon="-2.95307">
        <ele>112.117821</ele>
        <time>2022-12-13T13:25:08.210Z</time>
      </trkpt>
      <trkpt lat="48.08133" lon="-2.95296">
        <ele>111.814473</ele>
        <time>2022-12-13T13:25:11.229Z</time>
      </trkpt>
      <trkpt lat="48.08143" lon="-2.95287">
        <ele>111.525849</ele>
        <time>2022-12-13T13:25:14.203Z</time>
      </trkpt>
      <trkpt lat="48.08154" lon="-2.95277">
        <ele>111.223511</ele>
        <time>2022-12-13T13:25:17.225Z</time>
      </trkpt>
      <trkpt lat="48.08165" lon="-2.95266">
        <ele>110.922639</ele>
        <time>2022-12-13T13:25:20.226Z</time>
      </trkpt>
      <trkpt lat="48.08175" lon="-2.95255">
        <ele>110.628341</ele>
        <time>2022-12-13T13:25:23.222Z</time>
      </trkpt>
      <trkpt lat="48.08185" lon="-2.95245">
        <ele>110.334344</ele>
        <time>2022-12-13T13:25:26.222Z</time>
      </trkpt>
      <trkpt lat="48.08194" lon="-2.95236">
        <ele>110.259815</ele>
        <time>2022-12-13T13:25:29.220Z</time>
      </trkpt>
      <trkpt lat="48.08204" lon="-2.95226">
        <ele>110.275634</ele>
        <time>2022-12-13T13:25:32.222Z</time>
      </trkpt>
      <trkpt lat="48.08213" lon="-2.95217">
        <ele>110.290523</ele>
        <time>2022-12-13T13:25:35.225Z</time>
      </trkpt>
      <trkpt lat="48.08221" lon="-2.95208">
        <ele>110.305413</ele>
        <time>2022-12-13T13:25:38.235Z</time>
      </trkpt>
      <trkpt lat="48.0823" lon="-2.952">
        <ele>110.319541</ele>
        <time>2022-12-13T13:25:41.215Z</time>
      </trkpt>
      <trkpt lat="48.08238" lon="-2.95192">
        <ele>110.333101</ele>
        <time>2022-12-13T13:25:44.208Z</time>
      </trkpt>
      <trkpt lat="48.08247" lon="-2.95183">
        <ele>110.347538</ele>
        <time>2022-12-13T13:25:47.220Z</time>
      </trkpt>
      <trkpt lat="48.08256" lon="-2.95173">
        <ele>110.362812</ele>
        <time>2022-12-13T13:25:50.223Z</time>
      </trkpt>
      <trkpt lat="48.08265" lon="-2.95163">
        <ele>110.378464</ele>
        <time>2022-12-13T13:25:53.223Z</time>
      </trkpt>
      <trkpt lat="48.08276" lon="-2.95152">
        <ele>110.396501</ele>
        <time>2022-12-13T13:25:56.209Z</time>
      </trkpt>
      <trkpt lat="48.08285" lon="-2.95141">
        <ele>110.413013</ele>
        <time>2022-12-13T13:25:59.229Z</time>
      </trkpt>
      <trkpt lat="48.08293" lon="-2.95129">
        <ele>110.428072</ele>
        <time>2022-12-13T13:26:02.220Z</time>
      </trkpt>
      <trkpt lat="48.08301" lon="-2.95117">
        <ele>110.444251</ele>
        <time>2022-12-13T13:26:05.237Z</time>
      </trkpt>
      <trkpt lat="48.08308" lon="-2.95104">
        <ele>110.459615</ele>
        <time>2022-12-13T13:26:08.221Z</time>
      </trkpt>
      <trkpt lat="48.08315" lon="-2.95091">
        <ele>110.475098</ele>
        <time>2022-12-13T13:26:11.217Z</time>
      </trkpt>
      <trkpt lat="48.08323" lon="-2.95079">
        <ele>110.490374</ele>
        <time>2022-12-13T13:26:14.224Z</time>
      </trkpt>
      <trkpt lat="48.08329" lon="-2.95067">
        <ele>110.52186</ele>
        <time>2022-12-13T13:26:17.227Z</time>
      </trkpt>
      <trkpt lat="48.08336" lon="-2.95055">
        <ele>110.58221</ele>
        <time>2022-12-13T13:26:20.225Z</time>
      </trkpt>
      <trkpt lat="48.08344" lon="-2.95041">
        <ele>110.645918</ele>
        <time>2022-12-13T13:26:23.221Z</time>
      </trkpt>
      <trkpt lat="48.08351" lon="-2.95028">
        <ele>110.707738</ele>
        <time>2022-12-13T13:26:26.209Z</time>
      </trkpt>
      <trkpt lat="48.08359" lon="-2.95015">
        <ele>110.775079</ele>
        <time>2022-12-13T13:26:29.205Z</time>
      </trkpt>
      <trkpt lat="48.08368" lon="-2.95001">
        <ele>110.843126</ele>
        <time>2022-12-13T13:26:32.216Z</time>
      </trkpt>
      <trkpt lat="48.08375" lon="-2.94987">
        <ele>110.905511</ele>
        <time>2022-12-13T13:26:35.215Z</time>
      </trkpt>
      <trkpt lat="48.08382" lon="-2.94976">
        <ele>110.962309</ele>
        <time>2022-12-13T13:26:38.219Z</time>
      </trkpt>
      <trkpt lat="48.08389" lon="-2.94963">
        <ele>111.022457</ele>
        <time>2022-12-13T13:26:41.231Z</time>
      </trkpt>
      <trkpt lat="48.08396" lon="-2.94951">
        <ele>111.08278</ele>
        <time>2022-12-13T13:26:44.216Z</time>
      </trkpt>
      <trkpt lat="48.08404" lon="-2.94939">
        <ele>111.142562</ele>
        <time>2022-12-13T13:26:47.220Z</time>
      </trkpt>
      <trkpt lat="48.0841" lon="-2.94926">
        <ele>111.200577</ele>
        <time>2022-12-13T13:26:50.206Z</time>
      </trkpt>
      <trkpt lat="48.08417" lon="-2.94916">
        <ele>111.255415</ele>
        <time>2022-12-13T13:26:53.208Z</time>
      </trkpt>
      <trkpt lat="48.08423" lon="-2.94905">
        <ele>111.30486</ele>
        <time>2022-12-13T13:26:56.211Z</time>
      </trkpt>
      <trkpt lat="48.0843" lon="-2.94895">
        <ele>111.358154</ele>
        <time>2022-12-13T13:26:59.228Z</time>
      </trkpt>
      <trkpt lat="48.08437" lon="-2.94884">
        <ele>111.413142</ele>
        <time>2022-12-13T13:27:02.229Z</time>
      </trkpt>
      <trkpt lat="48.08444" lon="-2.94872">
        <ele>111.470841</ele>
        <time>2022-12-13T13:27:05.226Z</time>
      </trkpt>
      <trkpt lat="48.08451" lon="-2.94859">
        <ele>111.398446</ele>
        <time>2022-12-13T13:27:08.234Z</time>
      </trkpt>
      <trkpt lat="48.08458" lon="-2.94846">
        <ele>111.305595</ele>
        <time>2022-12-13T13:27:11.221Z</time>
      </trkpt>
      <trkpt lat="48.08467" lon="-2.94833">
        <ele>111.199764</ele>
        <time>2022-12-13T13:27:14.225Z</time>
      </trkpt>
      <trkpt lat="48.08476" lon="-2.9482">
        <ele>111.098605</ele>
        <time>2022-12-13T13:27:17.233Z</time>
      </trkpt>
      <trkpt lat="48.08483" lon="-2.94807">
        <ele>111.008404</ele>
        <time>2022-12-13T13:27:20.233Z</time>
      </trkpt>
      <trkpt lat="48.0849" lon="-2.94795">
        <ele>110.919456</ele>
        <time>2022-12-13T13:27:23.220Z</time>
      </trkpt>
      <trkpt lat="48.08498" lon="-2.94783">
        <ele>110.828503</ele>
        <time>2022-12-13T13:27:26.222Z</time>
      </trkpt>
      <trkpt lat="48.08506" lon="-2.9477">
        <ele>110.726846</ele>
        <time>2022-12-13T13:27:29.233Z</time>
      </trkpt>
      <trkpt lat="48.08514" lon="-2.94755">
        <ele>110.619508</ele>
        <time>2022-12-13T13:27:32.219Z</time>
      </trkpt>
      <trkpt lat="48.08522" lon="-2.94742">
        <ele>110.522809</ele>
        <time>2022-12-13T13:27:35.221Z</time>
      </trkpt>
      <trkpt lat="48.08529" lon="-2.9473">
        <ele>110.438038</ele>
        <time>2022-12-13T13:27:38.229Z</time>
      </trkpt>
      <trkpt lat="48.08535" lon="-2.94716">
        <ele>110.342979</ele>
        <time>2022-12-13T13:27:41.227Z</time>
      </trkpt>
      <trkpt lat="48.08541" lon="-2.94701">
        <ele>110.242678</ele>
        <time>2022-12-13T13:27:44.237Z</time>
      </trkpt>
      <trkpt lat="48.08546" lon="-2.94685">
        <ele>110.146201</ele>
        <time>2022-12-13T13:27:47.212Z</time>
      </trkpt>
      <trkpt lat="48.08549" lon="-2.94669">
        <ele>110.055359</ele>
        <time>2022-12-13T13:27:50.220Z</time>
      </trkpt>
      <trkpt lat="48.08551" lon="-2.94653">
        <ele>110.044627</ele>
        <time>2022-12-13T13:27:53.213Z</time>
      </trkpt>
      <trkpt lat="48.08554" lon="-2.94636">
        <ele>110.317318</ele>
        <time>2022-12-13T13:27:56.225Z</time>
      </trkpt>
      <trkpt lat="48.08555" lon="-2.94619">
        <ele>110.603727</ele>
        <time>2022-12-13T13:27:59.224Z</time>
      </trkpt>
      <trkpt lat="48.08557" lon="-2.94602">
        <ele>110.878141</ele>
        <time>2022-12-13T13:28:02.228Z</time>
      </trkpt>
      <trkpt lat="48.08558" lon="-2.94585">
        <ele>111.149394</ele>
        <time>2022-12-13T13:28:05.218Z</time>
      </trkpt>
      <trkpt lat="48.0856" lon="-2.94569">
        <ele>111.407107</ele>
        <time>2022-12-13T13:28:08.229Z</time>
      </trkpt>
      <trkpt lat="48.08562" lon="-2.94553">
        <ele>111.661689</ele>
        <time>2022-12-13T13:28:11.218Z</time>
      </trkpt>
      <trkpt lat="48.08564" lon="-2.94537">
        <ele>111.923447</ele>
        <time>2022-12-13T13:28:14.230Z</time>
      </trkpt>
      <trkpt lat="48.08566" lon="-2.94521">
        <ele>112.179566</ele>
        <time>2022-12-13T13:28:17.216Z</time>
      </trkpt>
      <trkpt lat="48.08567" lon="-2.94507">
        <ele>112.41043</ele>
        <time>2022-12-13T13:28:20.213Z</time>
      </trkpt>
      <trkpt lat="48.08569" lon="-2.94492">
        <ele>112.645793</ele>
        <time>2022-12-13T13:28:23.223Z</time>
      </trkpt>
      <trkpt lat="48.08571" lon="-2.94476">
        <ele>112.909349</ele>
        <time>2022-12-13T13:28:27.217Z</time>
      </trkpt>
      <trkpt lat="48.08572" lon="-2.94462">
        <ele>113.137335</ele>
        <time>2022-12-13T13:28:31.218Z</time>
      </trkpt>
      <trkpt lat="48.08575" lon="-2.94445">
        <ele>113.413571</ele>
        <time>2022-12-13T13:28:35.232Z</time>
      </trkpt>
      <trkpt lat="48.08576" lon="-2.94429">
        <ele>113.66654</ele>
        <time>2022-12-13T13:28:39.216Z</time>
      </trkpt>
      <trkpt lat="48.08577" lon="-2.94415">
        <ele>113.892656</ele>
        <time>2022-12-13T13:28:42.232Z</time>
      </trkpt>
      <trkpt lat="48.08578" lon="-2.94399">
        <ele>114.139833</ele>
        <time>2022-12-13T13:28:46.229Z</time>
      </trkpt>
      <trkpt lat="48.08579" lon="-2.94384">
        <ele>114.255989</ele>
        <time>2022-12-13T13:28:50.212Z</time>
      </trkpt>
      <trkpt lat="48.08582" lon="-2.94367">
        <ele>114.212976</ele>
        <time>2022-12-13T13:28:53.219Z</time>
      </trkpt>
      <trkpt lat="48.08583" lon="-2.9435">
        <ele>114.17098</ele>
        <time>2022-12-13T13:28:56.225Z</time>
      </trkpt>
      <trkpt lat="48.08585" lon="-2.94336">
        <ele>114.134197</ele>
        <time>2022-12-13T13:28:59.229Z</time>
      </trkpt>
      <trkpt lat="48.08587" lon="-2.94321">
        <ele>114.097797</ele>
        <time>2022-12-13T13:29:02.211Z</time>
      </trkpt>
      <trkpt lat="48.08591" lon="-2.94304">
        <ele>114.052464</ele>
        <time>2022-12-13T13:29:06.200Z</time>
      </trkpt>
      <trkpt lat="48.08595" lon="-2.9429">
        <ele>114.014715</ele>
        <time>2022-12-13T13:29:09.220Z</time>
      </trkpt>
      <trkpt lat="48.086" lon="-2.94275">
        <ele>113.972092</ele>
        <time>2022-12-13T13:29:12.223Z</time>
      </trkpt>
      <trkpt lat="48.08606" lon="-2.94259">
        <ele>113.927393</ele>
        <time>2022-12-13T13:29:15.221Z</time>
      </trkpt>
      <trkpt lat="48.08612" lon="-2.94246">
        <ele>113.886324</ele>
        <time>2022-12-13T13:29:18.221Z</time>
      </trkpt>
      <trkpt lat="48.08617" lon="-2.94235">
        <ele>113.852377</ele>
        <time>2022-12-13T13:29:21.215Z</time>
      </trkpt>
      <trkpt lat="48.08624" lon="-2.94224">
        <ele>113.815756</ele>
        <time>2022-12-13T13:29:25.214Z</time>
      </trkpt>
      <trkpt lat="48.08633" lon="-2.94211">
        <ele>113.770741</ele>
        <time>2022-12-13T13:29:29.218Z</time>
      </trkpt>
      <trkpt lat="48.08639" lon="-2.942">
        <ele>113.733432</ele>
        <time>2022-12-13T13:29:32.224Z</time>
      </trkpt>
      <trkpt lat="48.08647" lon="-2.94188">
        <ele>113.691048</ele>
        <time>2022-12-13T13:29:35.223Z</time>
      </trkpt>
      <trkpt lat="48.08656" lon="-2.94175">
        <ele>113.646821</ele>
        <time>2022-12-13T13:29:38.220Z</time>
      </trkpt>
      <trkpt lat="48.08664" lon="-2.94162">
        <ele>113.618887</ele>
        <time>2022-12-13T13:29:41.228Z</time>
      </trkpt>
      <trkpt lat="48.08671" lon="-2.9415">
        <ele>113.797788</ele>
        <time>2022-12-13T13:29:44.218Z</time>
      </trkpt>
      <trkpt lat="48.08679" lon="-2.94139">
        <ele>113.976821</ele>
        <time>2022-12-13T13:29:47.221Z</time>
      </trkpt>
      <trkpt lat="48.08687" lon="-2.94126">
        <ele>114.163323</ele>
        <time>2022-12-13T13:29:50.205Z</time>
      </trkpt>
      <trkpt lat="48.08696" lon="-2.94114">
        <ele>114.36595</ele>
        <time>2022-12-13T13:29:53.227Z</time>
      </trkpt>
      <trkpt lat="48.08703" lon="-2.94102">
        <ele>114.549268</ele>
        <time>2022-12-13T13:29:56.224Z</time>
      </trkpt>
      <trkpt lat="48.08712" lon="-2.94088">
        <ele>114.757985</ele>
        <time>2022-12-13T13:29:59.233Z</time>
      </trkpt>
      <trkpt lat="48.08719" lon="-2.94075">
        <ele>114.939645</ele>
        <time>2022-12-13T13:30:02.214Z</time>
      </trkpt>
      <trkpt lat="48.08727" lon="-2.94061">
        <ele>115.150996</ele>
        <time>2022-12-13T13:30:05.227Z</time>
      </trkpt>
      <trkpt lat="48.08734" lon="-2.94047">
        <ele>115.333868</ele>
        <time>2022-12-13T13:30:08.235Z</time>
      </trkpt>
      <trkpt lat="48.08742" lon="-2.94035">
        <ele>115.525435</ele>
        <time>2022-12-13T13:30:11.232Z</time>
      </trkpt>
      <trkpt lat="48.08751" lon="-2.94024">
        <ele>115.717646</ele>
        <time>2022-12-13T13:30:14.236Z</time>
      </trkpt>
      <trkpt lat="48.0876" lon="-2.94011">
        <ele>115.933507</ele>
        <time>2022-12-13T13:30:17.231Z</time>
      </trkpt>
      <trkpt lat="48.08769" lon="-2.93998">
        <ele>116.137602</ele>
        <time>2022-12-13T13:30:20.229Z</time>
      </trkpt>
      <trkpt lat="48.08775" lon="-2.93986">
        <ele>116.310447</ele>
        <time>2022-12-13T13:30:23.229Z</time>
      </trkpt>
      <trkpt lat="48.08782" lon="-2.93974">
        <ele>116.48548</ele>
        <time>2022-12-13T13:30:26.296Z</time>
      </trkpt>
      <trkpt lat="48.0879" lon="-2.93961">
        <ele>116.697001</ele>
        <time>2022-12-13T13:30:29.233Z</time>
      </trkpt>
      <trkpt lat="48.08798" lon="-2.93949">
        <ele>116.926637</ele>
        <time>2022-12-13T13:30:32.222Z</time>
      </trkpt>
      <trkpt lat="48.08805" lon="-2.93939">
        <ele>117.115658</ele>
        <time>2022-12-13T13:30:35.232Z</time>
      </trkpt>
      <trkpt lat="48.08812" lon="-2.93928">
        <ele>117.327874</ele>
        <time>2022-12-13T13:30:38.234Z</time>
      </trkpt>
      <trkpt lat="48.0882" lon="-2.93916">
        <ele>117.542439</ele>
        <time>2022-12-13T13:30:41.233Z</time>
      </trkpt>
      <trkpt lat="48.08827" lon="-2.93903">
        <ele>117.766564</ele>
        <time>2022-12-13T13:30:44.233Z</time>
      </trkpt>
      <trkpt lat="48.08836" lon="-2.93888">
        <ele>118.02969</ele>
        <time>2022-12-13T13:30:47.237Z</time>
      </trkpt>
      <trkpt lat="48.08845" lon="-2.93875">
        <ele>118.285775</ele>
        <time>2022-12-13T13:30:50.238Z</time>
      </trkpt>
      <trkpt lat="48.08853" lon="-2.93861">
        <ele>118.543337</ele>
        <time>2022-12-13T13:30:53.233Z</time>
      </trkpt>
      <trkpt lat="48.08862" lon="-2.93848">
        <ele>118.777695</ele>
        <time>2022-12-13T13:30:56.228Z</time>
      </trkpt>
      <trkpt lat="48.08869" lon="-2.93835">
        <ele>119.012441</ele>
        <time>2022-12-13T13:30:59.233Z</time>
      </trkpt>
      <trkpt lat="48.08878" lon="-2.93822">
        <ele>119.26712</ele>
        <time>2022-12-13T13:31:02.212Z</time>
      </trkpt>
      <trkpt lat="48.08885" lon="-2.93812">
        <ele>119.449059</ele>
        <time>2022-12-13T13:31:04.234Z</time>
      </trkpt>
      <trkpt lat="48.08893" lon="-2.93799">
        <ele>119.687264</ele>
        <time>2022-12-13T13:31:07.233Z</time>
      </trkpt>
      <trkpt lat="48.089" lon="-2.93785">
        <ele>119.923984</ele>
        <time>2022-12-13T13:31:10.222Z</time>
      </trkpt>
      <trkpt lat="48.08908" lon="-2.93774">
        <ele>120.144794</ele>
        <time>2022-12-13T13:31:13.233Z</time>
      </trkpt>
      <trkpt lat="48.08916" lon="-2.93763">
        <ele>120.213797</ele>
        <time>2022-12-13T13:31:16.239Z</time>
      </trkpt>
      <trkpt lat="48.08923" lon="-2.93752">
        <ele>120.242375</ele>
        <time>2022-12-13T13:31:19.234Z</time>
      </trkpt>
      <trkpt lat="48.08932" lon="-2.93741">
        <ele>120.273222</ele>
        <time>2022-12-13T13:31:22.277Z</time>
      </trkpt>
      <trkpt lat="48.08941" lon="-2.93732">
        <ele>120.304622</ele>
        <time>2022-12-13T13:31:25.235Z</time>
      </trkpt>
      <trkpt lat="48.08951" lon="-2.93725">
        <ele>120.334598</ele>
        <time>2022-12-13T13:31:28.238Z</time>
      </trkpt>
      <trkpt lat="48.08962" lon="-2.93719">
        <ele>120.366373</ele>
        <time>2022-12-13T13:31:31.241Z</time>
      </trkpt>
      <trkpt lat="48.08973" lon="-2.93715">
        <ele>120.397413</ele>
        <time>2022-12-13T13:31:34.240Z</time>
      </trkpt>
      <trkpt lat="48.08983" lon="-2.93713">
        <ele>120.425867</ele>
        <time>2022-12-13T13:31:38.235Z</time>
      </trkpt>
      <trkpt lat="48.08994" lon="-2.93711">
        <ele>120.454642</ele>
        <time>2022-12-13T13:31:42.212Z</time>
      </trkpt>
      <trkpt lat="48.09004" lon="-2.93709">
        <ele>120.48364</ele>
        <time>2022-12-13T13:31:46.235Z</time>
      </trkpt>
      <trkpt lat="48.09016" lon="-2.93707">
        <ele>120.515179</ele>
        <time>2022-12-13T13:31:50.223Z</time>
      </trkpt>
      <trkpt lat="48.09025" lon="-2.93706">
        <ele>120.540724</ele>
        <time>2022-12-13T13:31:53.233Z</time>
      </trkpt>
      <trkpt lat="48.09034" lon="-2.93704">
        <ele>120.565895</ele>
        <time>2022-12-13T13:31:56.224Z</time>
      </trkpt>
      <trkpt lat="48.09046" lon="-2.93701">
        <ele>120.598029</ele>
        <time>2022-12-13T13:31:59.277Z</time>
      </trkpt>
      <trkpt lat="48.09057" lon="-2.93699">
        <ele>120.628093</ele>
        <time>2022-12-13T13:32:02.210Z</time>
      </trkpt>
      <trkpt lat="48.09069" lon="-2.93697">
        <ele>120.661311</ele>
        <time>2022-12-13T13:32:05.214Z</time>
      </trkpt>
      <trkpt lat="48.0908" lon="-2.93696">
        <ele>120.698422</ele>
        <time>2022-12-13T13:32:08.226Z</time>
      </trkpt>
      <trkpt lat="48.0909" lon="-2.93694">
        <ele>120.738108</ele>
        <time>2022-12-13T13:32:10.207Z</time>
      </trkpt>
      <trkpt lat="48.09101" lon="-2.93691">
        <ele>120.784448</ele>
        <time>2022-12-13T13:32:13.224Z</time>
      </trkpt>
      <trkpt lat="48.09111" lon="-2.93689">
        <ele>120.828494</ele>
        <time>2022-12-13T13:32:16.230Z</time>
      </trkpt>
      <trkpt lat="48.09123" lon="-2.93687">
        <ele>120.880188</ele>
        <time>2022-12-13T13:32:19.210Z</time>
      </trkpt>
      <trkpt lat="48.09135" lon="-2.93684">
        <ele>120.928626</ele>
        <time>2022-12-13T13:32:22.219Z</time>
      </trkpt>
      <trkpt lat="48.09147" lon="-2.93682">
        <ele>120.981893</ele>
        <time>2022-12-13T13:32:25.204Z</time>
      </trkpt>
      <trkpt lat="48.0916" lon="-2.9368">
        <ele>121.037252</ele>
        <time>2022-12-13T13:32:28.236Z</time>
      </trkpt>
      <trkpt lat="48.09173" lon="-2.93678">
        <ele>121.089399</ele>
        <time>2022-12-13T13:32:31.214Z</time>
      </trkpt>
      <trkpt lat="48.09186" lon="-2.93675">
        <ele>121.145408</ele>
        <time>2022-12-13T13:32:34.229Z</time>
      </trkpt>
      <trkpt lat="48.09198" lon="-2.93673">
        <ele>121.197453</ele>
        <time>2022-12-13T13:32:37.231Z</time>
      </trkpt>
      <trkpt lat="48.09209" lon="-2.9367">
        <ele>121.241827</ele>
        <time>2022-12-13T13:32:40.228Z</time>
      </trkpt>
      <trkpt lat="48.09219" lon="-2.93669">
        <ele>121.285809</ele>
        <time>2022-12-13T13:32:43.232Z</time>
      </trkpt>
      <trkpt lat="48.0923" lon="-2.93666">
        <ele>121.334746</ele>
        <time>2022-12-13T13:32:46.216Z</time>
      </trkpt>
      <trkpt lat="48.09242" lon="-2.93665">
        <ele>121.382811</ele>
        <time>2022-12-13T13:32:49.280Z</time>
      </trkpt>
      <trkpt lat="48.09253" lon="-2.93662">
        <ele>121.431748</ele>
        <time>2022-12-13T13:32:52.235Z</time>
      </trkpt>
      <trkpt lat="48.09265" lon="-2.9366">
        <ele>121.615117</ele>
        <time>2022-12-13T13:32:55.213Z</time>
      </trkpt>
      <trkpt lat="48.09275" lon="-2.93658">
        <ele>121.816358</ele>
        <time>2022-12-13T13:32:58.232Z</time>
      </trkpt>
      <trkpt lat="48.09287" lon="-2.93656">
        <ele>122.042036</ele>
        <time>2022-12-13T13:33:01.230Z</time>
      </trkpt>
      <trkpt lat="48.09299" lon="-2.93655">
        <ele>122.279119</ele>
        <time>2022-12-13T13:33:04.232Z</time>
      </trkpt>
      <trkpt lat="48.09311" lon="-2.93653">
        <ele>122.498604</ele>
        <time>2022-12-13T13:33:07.234Z</time>
      </trkpt>
      <trkpt lat="48.09321" lon="-2.9365">
        <ele>122.707363</ele>
        <time>2022-12-13T13:33:10.233Z</time>
      </trkpt>
      <trkpt lat="48.0933" lon="-2.93648">
        <ele>122.879343</ele>
        <time>2022-12-13T13:33:12.215Z</time>
      </trkpt>
      <trkpt lat="48.09339" lon="-2.93646">
        <ele>123.050401</ele>
        <time>2022-12-13T13:33:14.233Z</time>
      </trkpt>
      <trkpt lat="48.09349" lon="-2.93644">
        <ele>123.230325</ele>
        <time>2022-12-13T13:33:16.234Z</time>
      </trkpt>
      <trkpt lat="48.09361" lon="-2.93641">
        <ele>123.476774</ele>
        <time>2022-12-13T13:33:19.233Z</time>
      </trkpt>
      <trkpt lat="48.09371" lon="-2.93639">
        <ele>123.667067</ele>
        <time>2022-12-13T13:33:21.238Z</time>
      </trkpt>
      <trkpt lat="48.09382" lon="-2.93638">
        <ele>123.878832</ele>
        <time>2022-12-13T13:33:24.233Z</time>
      </trkpt>
      <trkpt lat="48.09393" lon="-2.9364">
        <ele>124.089667</ele>
        <time>2022-12-13T13:33:27.233Z</time>
      </trkpt>
      <trkpt lat="48.09402" lon="-2.93643">
        <ele>124.263055</ele>
        <time>2022-12-13T13:33:30.235Z</time>
      </trkpt>
      <trkpt lat="48.09412" lon="-2.93643">
        <ele>124.449937</ele>
        <time>2022-12-13T13:33:33.232Z</time>
      </trkpt>
      <trkpt lat="48.09422" lon="-2.93643">
        <ele>124.648418</ele>
        <time>2022-12-13T13:33:36.229Z</time>
      </trkpt>
      <trkpt lat="48.09434" lon="-2.93643">
        <ele>124.871465</ele>
        <time>2022-12-13T13:33:39.213Z</time>
      </trkpt>
      <trkpt lat="48.09446" lon="-2.93643">
        <ele>124.909726</ele>
        <time>2022-12-13T13:33:42.231Z</time>
      </trkpt>
      <trkpt lat="48.09457" lon="-2.93644">
        <ele>124.946698</ele>
        <time>2022-12-13T13:33:45.232Z</time>
      </trkpt>
      <trkpt lat="48.09468" lon="-2.93644">
        <ele>124.981363</ele>
        <time>2022-12-13T13:33:48.234Z</time>
      </trkpt>
      <trkpt lat="48.09479" lon="-2.93644">
        <ele>125.018345</ele>
        <time>2022-12-13T13:33:52.237Z</time>
      </trkpt>
      <trkpt lat="48.09488" lon="-2.93644">
        <ele>125.049068</ele>
        <time>2022-12-13T13:33:55.266Z</time>
      </trkpt>
      <trkpt lat="48.095" lon="-2.93645">
        <ele>125.086348</ele>
        <time>2022-12-13T13:33:59.236Z</time>
      </trkpt>
      <trkpt lat="48.09512" lon="-2.93645">
        <ele>125.126918</ele>
        <time>2022-12-13T13:34:03.229Z</time>
      </trkpt>
      <trkpt lat="48.09522" lon="-2.93646">
        <ele>125.161978</ele>
        <time>2022-12-13T13:34:06.284Z</time>
      </trkpt>
      <trkpt lat="48.09532" lon="-2.93647">
        <ele>125.193373</ele>
        <time>2022-12-13T13:34:09.214Z</time>
      </trkpt>
      <trkpt lat="48.09541" lon="-2.93648">
        <ele>125.223077</ele>
        <time>2022-12-13T13:34:12.276Z</time>
      </trkpt>
      <trkpt lat="48.09551" lon="-2.93648">
        <ele>125.257384</ele>
        <time>2022-12-13T13:34:15.247Z</time>
      </trkpt>
      <trkpt lat="48.09564" lon="-2.93649">
        <ele>125.299713</ele>
        <time>2022-12-13T13:34:19.234Z</time>
      </trkpt>
      <trkpt lat="48.09575" lon="-2.9365">
        <ele>125.334369</ele>
        <time>2022-12-13T13:34:22.238Z</time>
      </trkpt>
      <trkpt lat="48.09585" lon="-2.93651">
        <ele>125.367167</ele>
        <time>2022-12-13T13:34:25.234Z</time>
      </trkpt>
      <trkpt lat="48.09596" lon="-2.93651">
        <ele>125.403793</ele>
        <time>2022-12-13T13:34:28.233Z</time>
      </trkpt>
      <trkpt lat="48.09606" lon="-2.93652">
        <ele>125.437538</ele>
        <time>2022-12-13T13:34:31.237Z</time>
      </trkpt>
      <trkpt lat="48.09616" lon="-2.93653">
        <ele>125.415208</ele>
        <time>2022-12-13T13:34:34.275Z</time>
      </trkpt>
      <trkpt lat="48.09626" lon="-2.93654">
        <ele>125.208655</ele>
        <time>2022-12-13T13:34:37.229Z</time>
      </trkpt>
      <trkpt lat="48.09638" lon="-2.93654">
        <ele>124.97201</ele>
        <time>2022-12-13T13:34:40.235Z</time>
      </trkpt>
      <trkpt lat="48.0965" lon="-2.93655">
        <ele>124.710494</ele>
        <time>2022-12-13T13:34:43.232Z</time>
      </trkpt>
      <trkpt lat="48.09663" lon="-2.93656">
        <ele>124.448635</ele>
        <time>2022-12-13T13:34:46.228Z</time>
      </trkpt>
      <trkpt lat="48.09676" lon="-2.93658">
        <ele>124.183947</ele>
        <time>2022-12-13T13:34:49.240Z</time>
      </trkpt>
      <trkpt lat="48.09686" lon="-2.93663">
        <ele>123.961554</ele>
        <time>2022-12-13T13:34:52.235Z</time>
      </trkpt>
      <trkpt lat="48.09696" lon="-2.93668">
        <ele>123.75146</ele>
        <time>2022-12-13T13:34:55.236Z</time>
      </trkpt>
      <trkpt lat="48.09706" lon="-2.93675">
        <ele>123.522438</ele>
        <time>2022-12-13T13:34:58.231Z</time>
      </trkpt>
      <trkpt lat="48.09716" lon="-2.93682">
        <ele>123.295118</ele>
        <time>2022-12-13T13:35:01.282Z</time>
      </trkpt>
      <trkpt lat="48.09725" lon="-2.93689">
        <ele>123.076992</ele>
        <time>2022-12-13T13:35:04.235Z</time>
      </trkpt>
      <trkpt lat="48.09734" lon="-2.93694">
        <ele>122.881807</ele>
        <time>2022-12-13T13:35:07.229Z</time>
      </trkpt>
      <trkpt lat="48.09743" lon="-2.93699">
        <ele>122.681774</ele>
        <time>2022-12-13T13:35:10.231Z</time>
      </trkpt>
      <trkpt lat="48.09752" lon="-2.93706">
        <ele>122.477996</ele>
        <time>2022-12-13T13:35:13.236Z</time>
      </trkpt>
      <trkpt lat="48.09762" lon="-2.93711">
        <ele>122.267064</ele>
        <time>2022-12-13T13:35:16.232Z</time>
      </trkpt>
      <trkpt lat="48.0977" lon="-2.93715">
        <ele>122.08134</ele>
        <time>2022-12-13T13:35:19.234Z</time>
      </trkpt>
      <trkpt lat="48.09781" lon="-2.93722">
        <ele>121.849142</ele>
        <time>2022-12-13T13:35:23.293Z</time>
      </trkpt>
      <trkpt lat="48.0979" lon="-2.93727">
        <ele>121.958403</ele>
        <time>2022-12-13T13:35:26.235Z</time>
      </trkpt>
      <trkpt lat="48.098" lon="-2.93732">
        <ele>122.343996</ele>
        <time>2022-12-13T13:35:29.216Z</time>
      </trkpt>
      <trkpt lat="48.0981" lon="-2.93737">
        <ele>122.719314</ele>
        <time>2022-12-13T13:35:32.231Z</time>
      </trkpt>
      <trkpt lat="48.09819" lon="-2.93743">
        <ele>123.07385</ele>
        <time>2022-12-13T13:35:35.214Z</time>
      </trkpt>
      <trkpt lat="48.09829" lon="-2.93747">
        <ele>123.418597</ele>
        <time>2022-12-13T13:35:38.232Z</time>
      </trkpt>
      <trkpt lat="48.09838" lon="-2.93753">
        <ele>123.786424</ele>
        <time>2022-12-13T13:35:41.230Z</time>
      </trkpt>
      <trkpt lat="48.09849" lon="-2.93759">
        <ele>124.195861</ele>
        <time>2022-12-13T13:35:44.237Z</time>
      </trkpt>
      <trkpt lat="48.0986" lon="-2.93766">
        <ele>124.617947</ele>
        <time>2022-12-13T13:35:47.232Z</time>
      </trkpt>
      <trkpt lat="48.09872" lon="-2.93772">
        <ele>125.065662</ele>
        <time>2022-12-13T13:35:50.224Z</time>
      </trkpt>
      <trkpt lat="48.09883" lon="-2.93778">
        <ele>125.482748</ele>
        <time>2022-12-13T13:35:53.232Z</time>
      </trkpt>
      <trkpt lat="48.09894" lon="-2.93783">
        <ele>125.88115</ele>
        <time>2022-12-13T13:35:56.284Z</time>
      </trkpt>
      <trkpt lat="48.09905" lon="-2.93791">
        <ele>126.340174</ele>
        <time>2022-12-13T13:35:59.233Z</time>
      </trkpt>
      <trkpt lat="48.09917" lon="-2.93799">
        <ele>126.786009</ele>
        <time>2022-12-13T13:36:02.231Z</time>
      </trkpt>
      <trkpt lat="48.09929" lon="-2.93805">
        <ele>127.24039</ele>
        <time>2022-12-13T13:36:05.233Z</time>
      </trkpt>
      <trkpt lat="48.09941" lon="-2.93811">
        <ele>127.695313</ele>
        <time>2022-12-13T13:36:08.232Z</time>
      </trkpt>
      <trkpt lat="48.09953" lon="-2.93817">
        <ele>128.138049</ele>
        <time>2022-12-13T13:36:11.232Z</time>
      </trkpt>
      <trkpt lat="48.09963" lon="-2.93824">
        <ele>127.992016</ele>
        <time>2022-12-13T13:36:14.215Z</time>
      </trkpt>
      <trkpt lat="48.09974" lon="-2.93831">
        <ele>127.813557</ele>
        <time>2022-12-13T13:36:17.230Z</time>
      </trkpt>
      <trkpt lat="48.09986" lon="-2.93839">
        <ele>127.625463</ele>
        <time>2022-12-13T13:36:20.235Z</time>
      </trkpt>
      <trkpt lat="48.09997" lon="-2.93846">
        <ele>127.440337</ele>
        <time>2022-12-13T13:36:23.236Z</time>
      </trkpt>
      <trkpt lat="48.10008" lon="-2.93853">
        <ele>127.262455</ele>
        <time>2022-12-13T13:36:26.238Z</time>
      </trkpt>
      <trkpt lat="48.10019" lon="-2.93859">
        <ele>127.085564</ele>
        <time>2022-12-13T13:36:29.290Z</time>
      </trkpt>
      <trkpt lat="48.1003" lon="-2.93867">
        <ele>126.906454</ele>
        <time>2022-12-13T13:36:32.232Z</time>
      </trkpt>
      <trkpt lat="48.10042" lon="-2.93871">
        <ele>126.729945</ele>
        <time>2022-12-13T13:36:35.216Z</time>
      </trkpt>
      <trkpt lat="48.10053" lon="-2.93878">
        <ele>126.550496</ele>
        <time>2022-12-13T13:36:38.236Z</time>
      </trkpt>
      <trkpt lat="48.10064" lon="-2.93884">
        <ele>126.370783</ele>
        <time>2022-12-13T13:36:41.236Z</time>
      </trkpt>
      <trkpt lat="48.10076" lon="-2.93892">
        <ele>126.18153</ele>
        <time>2022-12-13T13:36:44.233Z</time>
      </trkpt>
      <trkpt lat="48.10088" lon="-2.93898">
        <ele>125.985694</ele>
        <time>2022-12-13T13:36:47.232Z</time>
      </trkpt>
      <trkpt lat="48.101" lon="-2.93905">
        <ele>125.794057</ele>
        <time>2022-12-13T13:36:50.234Z</time>
      </trkpt>
      <trkpt lat="48.10111" lon="-2.93914">
        <ele>125.601679</ele>
        <time>2022-12-13T13:36:53.237Z</time>
      </trkpt>
      <trkpt lat="48.1012" lon="-2.93919">
        <ele>125.470041</ele>
        <time>2022-12-13T13:36:55.232Z</time>
      </trkpt>
      <trkpt lat="48.10131" lon="-2.93926">
        <ele>125.492734</ele>
        <time>2022-12-13T13:36:58.232Z</time>
      </trkpt>
      <trkpt lat="48.10141" lon="-2.93932">
        <ele>125.512159</ele>
        <time>2022-12-13T13:37:01.236Z</time>
      </trkpt>
      <trkpt lat="48.10151" lon="-2.93937">
        <ele>125.531255</ele>
        <time>2022-12-13T13:37:04.232Z</time>
      </trkpt>
      <trkpt lat="48.10161" lon="-2.93943">
        <ele>125.550116</ele>
        <time>2022-12-13T13:37:07.272Z</time>
      </trkpt>
      <trkpt lat="48.10171" lon="-2.93948">
        <ele>125.568893</ele>
        <time>2022-12-13T13:37:10.233Z</time>
      </trkpt>
      <trkpt lat="48.1018" lon="-2.93953">
        <ele>125.587779</ele>
        <time>2022-12-13T13:37:13.239Z</time>
      </trkpt>
      <trkpt lat="48.10193" lon="-2.93957">
        <ele>125.610775</ele>
        <time>2022-12-13T13:37:16.235Z</time>
      </trkpt>
      <trkpt lat="48.10205" lon="-2.93961">
        <ele>125.633308</ele>
        <time>2022-12-13T13:37:19.232Z</time>
      </trkpt>
      <trkpt lat="48.10216" lon="-2.93965">
        <ele>125.653486</ele>
        <time>2022-12-13T13:37:22.233Z</time>
      </trkpt>
      <trkpt lat="48.10227" lon="-2.9397">
        <ele>125.675371</ele>
        <time>2022-12-13T13:37:25.233Z</time>
      </trkpt>
      <trkpt lat="48.10236" lon="-2.93972">
        <ele>125.691736</ele>
        <time>2022-12-13T13:37:27.212Z</time>
      </trkpt>
      <trkpt lat="48.10248" lon="-2.93978">
        <ele>125.715164</ele>
        <time>2022-12-13T13:37:30.234Z</time>
      </trkpt>
      <trkpt lat="48.10262" lon="-2.93983">
        <ele>125.740659</ele>
        <time>2022-12-13T13:37:33.213Z</time>
      </trkpt>
      <trkpt lat="48.10271" lon="-2.93988">
        <ele>125.757569</ele>
        <time>2022-12-13T13:37:35.228Z</time>
      </trkpt>
      <trkpt lat="48.10284" lon="-2.93991">
        <ele>125.781409</ele>
        <time>2022-12-13T13:37:38.234Z</time>
      </trkpt>
      <trkpt lat="48.10296" lon="-2.93995">
        <ele>125.889218</ele>
        <time>2022-12-13T13:37:41.228Z</time>
      </trkpt>
      <trkpt lat="48.10306" lon="-2.93998">
        <ele>126.144648</ele>
        <time>2022-12-13T13:37:44.290Z</time>
      </trkpt>
      <trkpt lat="48.10315" lon="-2.94002">
        <ele>126.378258</ele>
        <time>2022-12-13T13:37:47.232Z</time>
      </trkpt>
      <trkpt lat="48.10327" lon="-2.94005">
        <ele>126.656341</ele>
        <time>2022-12-13T13:37:51.211Z</time>
      </trkpt>
      <trkpt lat="48.10338" lon="-2.94009">
        <ele>126.931736</ele>
        <time>2022-12-13T13:37:55.209Z</time>
      </trkpt>
      <trkpt lat="48.10348" lon="-2.94011">
        <ele>127.180284</ele>
        <time>2022-12-13T13:37:59.212Z</time>
      </trkpt>
      <trkpt lat="48.10358" lon="-2.94015">
        <ele>127.427373</ele>
        <time>2022-12-13T13:38:03.215Z</time>
      </trkpt>
      <trkpt lat="48.10371" lon="-2.9402">
        <ele>127.747295</ele>
        <time>2022-12-13T13:38:06.238Z</time>
      </trkpt>
      <trkpt lat="48.1038" lon="-2.94023">
        <ele>127.963047</ele>
        <time>2022-12-13T13:38:08.220Z</time>
      </trkpt>
      <trkpt lat="48.10389" lon="-2.94024">
        <ele>128.189133</ele>
        <time>2022-12-13T13:38:10.232Z</time>
      </trkpt>
      <trkpt lat="48.10403" lon="-2.94028">
        <ele>128.510472</ele>
        <time>2022-12-13T13:38:13.230Z</time>
      </trkpt>
      <trkpt lat="48.10415" lon="-2.94032">
        <ele>128.80456</ele>
        <time>2022-12-13T13:38:16.276Z</time>
      </trkpt>
      <trkpt lat="48.10426" lon="-2.94035">
        <ele>129.078577</ele>
        <time>2022-12-13T13:38:19.230Z</time>
      </trkpt>
      <trkpt lat="48.10437" lon="-2.94039">
        <ele>129.362965</ele>
        <time>2022-12-13T13:38:22.216Z</time>
      </trkpt>
      <trkpt lat="48.10449" lon="-2.94043">
        <ele>129.658109</ele>
        <time>2022-12-13T13:38:25.232Z</time>
      </trkpt>
      <trkpt lat="48.10462" lon="-2.94047">
        <ele>129.973943</ele>
        <time>2022-12-13T13:38:28.230Z</time>
      </trkpt>
      <trkpt lat="48.10474" lon="-2.94052">
        <ele>129.901302</ele>
        <time>2022-12-13T13:38:31.219Z</time>
      </trkpt>
      <trkpt lat="48.10486" lon="-2.94057">
        <ele>129.543995</ele>
        <time>2022-12-13T13:38:34.234Z</time>
      </trkpt>
      <trkpt lat="48.10496" lon="-2.9406">
        <ele>129.227379</ele>
        <time>2022-12-13T13:38:37.281Z</time>
      </trkpt>
      <trkpt lat="48.10505" lon="-2.94064">
        <ele>128.949312</ele>
        <time>2022-12-13T13:38:40.224Z</time>
      </trkpt>
      <trkpt lat="48.10514" lon="-2.94068">
        <ele>128.680126</ele>
        <time>2022-12-13T13:38:43.212Z</time>
      </trkpt>
      <trkpt lat="48.10525" lon="-2.94072">
        <ele>128.337918</ele>
        <time>2022-12-13T13:38:47.223Z</time>
      </trkpt>
      <trkpt lat="48.10536" lon="-2.94077">
        <ele>128.011569</ele>
        <time>2022-12-13T13:38:51.228Z</time>
      </trkpt>
      <trkpt lat="48.10548" lon="-2.94091">
        <ele>127.553679</ele>
        <time>2022-12-13T13:41:28.264Z</time>
      </trkpt>
      <trkpt lat="48.10557" lon="-2.94092">
        <ele>127.285867</ele>
        <time>2022-12-13T13:41:31.229Z</time>
      </trkpt>
      <trkpt lat="48.10567" lon="-2.94095">
        <ele>126.989984</ele>
        <time>2022-12-13T13:41:34.228Z</time>
      </trkpt>
      <trkpt lat="48.10577" lon="-2.94098">
        <ele>126.698679</ele>
        <time>2022-12-13T13:41:37.231Z</time>
      </trkpt>
      <trkpt lat="48.10587" lon="-2.94101">
        <ele>126.405702</ele>
        <time>2022-12-13T13:41:40.207Z</time>
      </trkpt>
      <trkpt lat="48.10596" lon="-2.94102">
        <ele>126.111803</ele>
        <time>2022-12-13T13:41:43.222Z</time>
      </trkpt>
      <trkpt lat="48.10607" lon="-2.941">
        <ele>125.790541</ele>
        <time>2022-12-13T13:41:46.207Z</time>
      </trkpt>
      <trkpt lat="48.10617" lon="-2.94098">
        <ele>125.487946</ele>
        <time>2022-12-13T13:41:49.213Z</time>
      </trkpt>
      <trkpt lat="48.10628" lon="-2.94093">
        <ele>125.159114</ele>
        <time>2022-12-13T13:41:52.213Z</time>
      </trkpt>
      <trkpt lat="48.10638" lon="-2.94085">
        <ele>124.826609</ele>
        <time>2022-12-13T13:41:55.226Z</time>
      </trkpt>
      <trkpt lat="48.10648" lon="-2.94074">
        <ele>125.224441</ele>
        <time>2022-12-13T13:41:58.231Z</time>
      </trkpt>
      <trkpt lat="48.10657" lon="-2.94061">
        <ele>125.777117</ele>
        <time>2022-12-13T13:42:01.234Z</time>
      </trkpt>
      <trkpt lat="48.10664" lon="-2.94052">
        <ele>126.163842</ele>
        <time>2022-12-13T13:42:03.219Z</time>
      </trkpt>
      <trkpt lat="48.1067" lon="-2.9404">
        <ele>126.586087</ele>
        <time>2022-12-13T13:42:05.237Z</time>
      </trkpt>
      <trkpt lat="48.10676" lon="-2.94025">
        <ele>127.081722</ele>
        <time>2022-12-13T13:42:08.214Z</time>
      </trkpt>
      <trkpt lat="48.10679" lon="-2.9401">
        <ele>127.540178</ele>
        <time>2022-12-13T13:42:11.232Z</time>
      </trkpt>
      <trkpt lat="48.10682" lon="-2.93993">
        <ele>128.033102</ele>
        <time>2022-12-13T13:42:15.226Z</time>
      </trkpt>
      <trkpt lat="48.10683" lon="-2.93979">
        <ele>128.414062</ele>
        <time>2022-12-13T13:42:18.212Z</time>
      </trkpt>
      <trkpt lat="48.10684" lon="-2.93964">
        <ele>128.85146</ele>
        <time>2022-12-13T13:42:22.231Z</time>
      </trkpt>
      <trkpt lat="48.10683" lon="-2.93947">
        <ele>129.318862</ele>
        <time>2022-12-13T13:42:27.208Z</time>
      </trkpt>
      <trkpt lat="48.10682" lon="-2.93931">
        <ele>129.793652</ele>
        <time>2022-12-13T13:42:32.211Z</time>
      </trkpt>
      <trkpt lat="48.10682" lon="-2.93917">
        <ele>130.178762</ele>
        <time>2022-12-13T13:42:36.225Z</time>
      </trkpt>
      <trkpt lat="48.10682" lon="-2.93902">
        <ele>130.606684</ele>
        <time>2022-12-13T13:42:41.222Z</time>
      </trkpt>
      <trkpt lat="48.1068" lon="-2.93888">
        <ele>130.997012</ele>
        <time>2022-12-13T13:42:45.220Z</time>
      </trkpt>
      <trkpt lat="48.1068" lon="-2.93874">
        <ele>131.410787</ele>
        <time>2022-12-13T13:42:50.219Z</time>
      </trkpt>
      <trkpt lat="48.10679" lon="-2.93859">
        <ele>131.836577</ele>
        <time>2022-12-13T13:42:55.229Z</time>
      </trkpt>
      <trkpt lat="48.10677" lon="-2.93844">
        <ele>132.268905</ele>
        <time>2022-12-13T13:42:59.221Z</time>
      </trkpt>
      <trkpt lat="48.10676" lon="-2.9383">
        <ele>132.617234</ele>
        <time>2022-12-13T13:43:03.230Z</time>
      </trkpt>
      <trkpt lat="48.10673" lon="-2.93816">
        <ele>132.981354</ele>
        <time>2022-12-13T13:43:08.214Z</time>
      </trkpt>
      <trkpt lat="48.10672" lon="-2.938">
        <ele>133.363665</ele>
        <time>2022-12-13T13:43:13.234Z</time>
      </trkpt>
      <trkpt lat="48.10672" lon="-2.93785">
        <ele>133.714234</ele>
        <time>2022-12-13T13:43:18.229Z</time>
      </trkpt>
      <trkpt lat="48.10671" lon="-2.93771">
        <ele>134.057875</ele>
        <time>2022-12-13T13:43:23.231Z</time>
      </trkpt>
      <trkpt lat="48.1067" lon="-2.93757">
        <ele>134.394539</ele>
        <time>2022-12-13T13:43:28.207Z</time>
      </trkpt>
      <trkpt lat="48.1067" lon="-2.93738">
        <ele>134.831106</ele>
        <time>2022-12-13T13:43:32.212Z</time>
      </trkpt>
      <trkpt lat="48.1067" lon="-2.93725">
        <ele>135.157779</ele>
        <time>2022-12-13T13:43:35.211Z</time>
      </trkpt>
      <trkpt lat="48.10669" lon="-2.93709">
        <ele>135.523018</ele>
        <time>2022-12-13T13:43:38.210Z</time>
      </trkpt>
      <trkpt lat="48.10669" lon="-2.93695">
        <ele>135.874169</ele>
        <time>2022-12-13T13:43:41.222Z</time>
      </trkpt>
      <trkpt lat="48.10667" lon="-2.93678">
        <ele>136.282154</ele>
        <time>2022-12-13T13:43:44.229Z</time>
      </trkpt>
      <trkpt lat="48.10667" lon="-2.93663">
        <ele>136.622251</ele>
        <time>2022-12-13T13:43:48.203Z</time>
      </trkpt>
      <trkpt lat="48.10667" lon="-2.93647">
        <ele>137.006146</ele>
        <time>2022-12-13T13:43:52.207Z</time>
      </trkpt>
      <trkpt lat="48.10667" lon="-2.93631">
        <ele>137.390438</ele>
        <time>2022-12-13T13:43:56.230Z</time>
      </trkpt>
      <trkpt lat="48.10667" lon="-2.93614">
        <ele>137.810627</ele>
        <time>2022-12-13T13:44:00.225Z</time>
      </trkpt>
      <trkpt lat="48.10667" lon="-2.93595">
        <ele>138.251786</ele>
        <time>2022-12-13T13:44:04.214Z</time>
      </trkpt>
      <trkpt lat="48.10667" lon="-2.93581">
        <ele>138.585669</ele>
        <time>2022-12-13T13:44:07.230Z</time>
      </trkpt>
      <trkpt lat="48.10668" lon="-2.93567">
        <ele>138.800501</ele>
        <time>2022-12-13T13:44:10.232Z</time>
      </trkpt>
      <trkpt lat="48.1067" lon="-2.9355">
        <ele>138.672733</ele>
        <time>2022-12-13T13:44:14.226Z</time>
      </trkpt>
      <trkpt lat="48.10671" lon="-2.93534">
        <ele>138.548523</ele>
        <time>2022-12-13T13:44:18.230Z</time>
      </trkpt>
      <trkpt lat="48.10672" lon="-2.93517">
        <ele>138.421715</ele>
        <time>2022-12-13T13:44:22.230Z</time>
      </trkpt>
      <trkpt lat="48.10674" lon="-2.935">
        <ele>138.29427</ele>
        <time>2022-12-13T13:44:25.229Z</time>
      </trkpt>
      <trkpt lat="48.10676" lon="-2.93484">
        <ele>138.175754</ele>
        <time>2022-12-13T13:44:28.230Z</time>
      </trkpt>
      <trkpt lat="48.10677" lon="-2.93469">
        <ele>138.065531</ele>
        <time>2022-12-13T13:44:31.234Z</time>
      </trkpt>
      <trkpt lat="48.10678" lon="-2.93455">
        <ele>137.961642</ele>
        <time>2022-12-13T13:44:34.221Z</time>
      </trkpt>
      <trkpt lat="48.10678" lon="-2.93442">
        <ele>137.859497</ele>
        <time>2022-12-13T13:44:37.232Z</time>
      </trkpt>
      <trkpt lat="48.10678" lon="-2.93427">
        <ele>137.748471</ele>
        <time>2022-12-13T13:44:41.233Z</time>
      </trkpt>
      <trkpt lat="48.10679" lon="-2.93411">
        <ele>137.630262</ele>
        <time>2022-12-13T13:44:45.232Z</time>
      </trkpt>
      <trkpt lat="48.1068" lon="-2.93394">
        <ele>137.504995</ele>
        <time>2022-12-13T13:44:49.228Z</time>
      </trkpt>
      <trkpt lat="48.10681" lon="-2.93377">
        <ele>137.37794</ele>
        <time>2022-12-13T13:44:53.209Z</time>
      </trkpt>
      <trkpt lat="48.10682" lon="-2.93359">
        <ele>137.245519</ele>
        <time>2022-12-13T13:44:57.226Z</time>
      </trkpt>
      <trkpt lat="48.10683" lon="-2.93345">
        <ele>137.140204</ele>
        <time>2022-12-13T13:45:00.233Z</time>
      </trkpt>
      <trkpt lat="48.10683" lon="-2.9333">
        <ele>137.034359</ele>
        <time>2022-12-13T13:45:03.227Z</time>
      </trkpt>
      <trkpt lat="48.10683" lon="-2.93315">
        <ele>136.924072</ele>
        <time>2022-12-13T13:45:06.233Z</time>
      </trkpt>
      <trkpt lat="48.10682" lon="-2.933">
        <ele>136.874459</ele>
        <time>2022-12-13T13:45:09.210Z</time>
      </trkpt>
      <trkpt lat="48.10681" lon="-2.93286">
        <ele>137.061587</ele>
        <time>2022-12-13T13:45:12.212Z</time>
      </trkpt>
      <trkpt lat="48.1068" lon="-2.93271">
        <ele>137.2756</ele>
        <time>2022-12-13T13:45:16.220Z</time>
      </trkpt>
      <trkpt lat="48.10678" lon="-2.93253">
        <ele>137.521524</ele>
        <time>2022-12-13T13:45:20.232Z</time>
      </trkpt>
      <trkpt lat="48.10677" lon="-2.93237">
        <ele>137.733934</ele>
        <time>2022-12-13T13:45:23.234Z</time>
      </trkpt>
      <trkpt lat="48.10675" lon="-2.93224">
        <ele>137.916776</ele>
        <time>2022-12-13T13:45:26.233Z</time>
      </trkpt>
      <trkpt lat="48.10673" lon="-2.93208">
        <ele>138.138864</ele>
        <time>2022-12-13T13:45:30.229Z</time>
      </trkpt>
      <trkpt lat="48.10671" lon="-2.93192">
        <ele>138.361027</ele>
        <time>2022-12-13T13:45:34.207Z</time>
      </trkpt>
      <trkpt lat="48.1067" lon="-2.93177">
        <ele>138.562935</ele>
        <time>2022-12-13T13:45:38.218Z</time>
      </trkpt>
      <trkpt lat="48.10668" lon="-2.93164">
        <ele>138.748458</ele>
        <time>2022-12-13T13:45:42.214Z</time>
      </trkpt>
      <trkpt lat="48.10665" lon="-2.93148">
        <ele>138.970184</ele>
        <time>2022-12-13T13:45:46.229Z</time>
      </trkpt>
      <trkpt lat="48.10664" lon="-2.93134">
        <ele>139.159999</ele>
        <time>2022-12-13T13:45:49.231Z</time>
      </trkpt>
      <trkpt lat="48.10662" lon="-2.9312">
        <ele>139.348015</ele>
        <time>2022-12-13T13:45:52.233Z</time>
      </trkpt>
      <trkpt lat="48.1066" lon="-2.93106">
        <ele>139.548134</ele>
        <time>2022-12-13T13:45:55.240Z</time>
      </trkpt>
      <trkpt lat="48.10658" lon="-2.93091">
        <ele>139.752242</ele>
        <time>2022-12-13T13:45:58.230Z</time>
      </trkpt>
      <trkpt lat="48.10656" lon="-2.93076">
        <ele>139.956263</ele>
        <time>2022-12-13T13:46:01.221Z</time>
      </trkpt>
      <trkpt lat="48.10654" lon="-2.93062">
        <ele>140.15334</ele>
        <time>2022-12-13T13:46:04.214Z</time>
      </trkpt>
      <trkpt lat="48.10653" lon="-2.93046">
        <ele>140.36679</ele>
        <time>2022-12-13T13:46:07.227Z</time>
      </trkpt>
      <trkpt lat="48.10651" lon="-2.93031">
        <ele>140.597507</ele>
        <time>2022-12-13T13:46:10.220Z</time>
      </trkpt>
      <trkpt lat="48.1065" lon="-2.93017">
        <ele>140.846908</ele>
        <time>2022-12-13T13:46:13.217Z</time>
      </trkpt>
      <trkpt lat="48.10649" lon="-2.93003">
        <ele>141.088833</ele>
        <time>2022-12-13T13:46:16.217Z</time>
      </trkpt>
      <trkpt lat="48.10648" lon="-2.92986">
        <ele>141.384933</ele>
        <time>2022-12-13T13:46:20.233Z</time>
      </trkpt>
      <trkpt lat="48.10645" lon="-2.92971">
        <ele>141.655824</ele>
        <time>2022-12-13T13:46:24.233Z</time>
      </trkpt>
      <trkpt lat="48.10642" lon="-2.92957">
        <ele>141.914347</ele>
        <time>2022-12-13T13:46:28.232Z</time>
      </trkpt>
      <trkpt lat="48.1064" lon="-2.92942">
        <ele>142.172246</ele>
        <time>2022-12-13T13:46:32.231Z</time>
      </trkpt>
      <trkpt lat="48.10637" lon="-2.92928">
        <ele>142.420372</ele>
        <time>2022-12-13T13:46:36.234Z</time>
      </trkpt>
      <trkpt lat="48.10634" lon="-2.92913">
        <ele>142.700334</ele>
        <time>2022-12-13T13:46:40.225Z</time>
      </trkpt>
      <trkpt lat="48.1063" lon="-2.92898">
        <ele>142.979419</ele>
        <time>2022-12-13T13:46:44.236Z</time>
      </trkpt>
      <trkpt lat="48.10626" lon="-2.92883">
        <ele>143.252193</ele>
        <time>2022-12-13T13:46:48.231Z</time>
      </trkpt>
      <trkpt lat="48.10623" lon="-2.92869">
        <ele>143.519764</ele>
        <time>2022-12-13T13:46:52.206Z</time>
      </trkpt>
      <trkpt lat="48.10619" lon="-2.92854">
        <ele>143.795093</ele>
        <time>2022-12-13T13:46:56.227Z</time>
      </trkpt>
      <trkpt lat="48.10615" lon="-2.92839">
        <ele>144.075982</ele>
        <time>2022-12-13T13:47:00.234Z</time>
      </trkpt>
      <trkpt lat="48.10611" lon="-2.92825">
        <ele>144.344273</ele>
        <time>2022-12-13T13:47:04.220Z</time>
      </trkpt>
      <trkpt lat="48.10606" lon="-2.92811">
        <ele>144.613026</ele>
        <time>2022-12-13T13:47:08.235Z</time>
      </trkpt>
      <trkpt lat="48.10602" lon="-2.92795">
        <ele>144.902491</ele>
        <time>2022-12-13T13:47:12.235Z</time>
      </trkpt>
      <trkpt lat="48.10598" lon="-2.9278">
        <ele>145.189277</ele>
        <time>2022-12-13T13:47:16.202Z</time>
      </trkpt>
      <trkpt lat="48.10595" lon="-2.92763">
        <ele>145.518092</ele>
        <time>2022-12-13T13:47:20.227Z</time>
      </trkpt>
      <trkpt lat="48.10591" lon="-2.92746">
        <ele>145.856931</ele>
        <time>2022-12-13T13:47:24.231Z</time>
      </trkpt>
      <trkpt lat="48.10589" lon="-2.92731">
        <ele>146.162501</ele>
        <time>2022-12-13T13:47:28.232Z</time>
      </trkpt>
      <trkpt lat="48.10586" lon="-2.92718">
        <ele>146.420497</ele>
        <time>2022-12-13T13:47:31.224Z</time>
      </trkpt>
      <trkpt lat="48.10585" lon="-2.92701">
        <ele>146.735658</ele>
        <time>2022-12-13T13:47:35.228Z</time>
      </trkpt>
      <trkpt lat="48.10582" lon="-2.92685">
        <ele>147.046146</ele>
        <time>2022-12-13T13:47:39.229Z</time>
      </trkpt>
      <trkpt lat="48.10579" lon="-2.92669">
        <ele>147.364173</ele>
        <time>2022-12-13T13:47:43.225Z</time>
      </trkpt>
      <trkpt lat="48.10577" lon="-2.92652">
        <ele>147.691084</ele>
        <time>2022-12-13T13:47:47.230Z</time>
      </trkpt>
      <trkpt lat="48.10576" lon="-2.92635">
        <ele>148.016197</ele>
        <time>2022-12-13T13:47:51.228Z</time>
      </trkpt>
      <trkpt lat="48.10574" lon="-2.92619">
        <ele>148.341233</ele>
        <time>2022-12-13T13:47:55.234Z</time>
      </trkpt>
      <trkpt lat="48.10573" lon="-2.92601">
        <ele>148.682759</ele>
        <time>2022-12-13T13:47:59.216Z</time>
      </trkpt>
      <trkpt lat="48.10574" lon="-2.92583">
        <ele>149.018581</ele>
        <time>2022-12-13T13:48:03.237Z</time>
      </trkpt>
      <trkpt lat="48.10576" lon="-2.92567">
        <ele>149.323872</ele>
        <time>2022-12-13T13:48:07.230Z</time>
      </trkpt>
      <trkpt lat="48.10577" lon="-2.92551">
        <ele>149.630577</ele>
        <time>2022-12-13T13:48:11.214Z</time>
      </trkpt>
      <trkpt lat="48.1058" lon="-2.92536">
        <ele>149.934296</ele>
        <time>2022-12-13T13:48:15.209Z</time>
      </trkpt>
      <trkpt lat="48.10583" lon="-2.92521">
        <ele>150.234227</ele>
        <time>2022-12-13T13:48:19.222Z</time>
      </trkpt>
      <trkpt lat="48.10585" lon="-2.92505">
        <ele>150.543931</ele>
        <time>2022-12-13T13:48:23.209Z</time>
      </trkpt>
      <trkpt lat="48.10587" lon="-2.92489">
        <ele>150.858381</ele>
        <time>2022-12-13T13:48:27.218Z</time>
      </trkpt>
      <trkpt lat="48.10589" lon="-2.92473">
        <ele>151.176651</ele>
        <time>2022-12-13T13:48:31.233Z</time>
      </trkpt>
      <trkpt lat="48.10591" lon="-2.92456">
        <ele>151.509723</ele>
        <time>2022-12-13T13:48:35.228Z</time>
      </trkpt>
      <trkpt lat="48.10594" lon="-2.9244">
        <ele>151.841775</ele>
        <time>2022-12-13T13:48:39.229Z</time>
      </trkpt>
      <trkpt lat="48.10596" lon="-2.92424">
        <ele>152.161133</ele>
        <time>2022-12-13T13:48:43.222Z</time>
      </trkpt>
      <trkpt lat="48.10598" lon="-2.92409">
        <ele>152.456505</ele>
        <time>2022-12-13T13:48:47.227Z</time>
      </trkpt>
      <trkpt lat="48.106" lon="-2.92396">
        <ele>152.722149</ele>
        <time>2022-12-13T13:48:51.219Z</time>
      </trkpt>
      <trkpt lat="48.10602" lon="-2.92381">
        <ele>153.015001</ele>
        <time>2022-12-13T13:48:55.223Z</time>
      </trkpt>
      <trkpt lat="48.10603" lon="-2.92366">
        <ele>153.307041</ele>
        <time>2022-12-13T13:48:59.211Z</time>
      </trkpt>
      <trkpt lat="48.10606" lon="-2.92351">
        <ele>153.603344</ele>
        <time>2022-12-13T13:49:03.225Z</time>
      </trkpt>
      <trkpt lat="48.10607" lon="-2.92334">
        <ele>153.929306</ele>
        <time>2022-12-13T13:49:07.221Z</time>
      </trkpt>
      <trkpt lat="48.10609" lon="-2.9232">
        <ele>154.225265</ele>
        <time>2022-12-13T13:49:11.234Z</time>
      </trkpt>
      <trkpt lat="48.10612" lon="-2.92304">
        <ele>154.54223</ele>
        <time>2022-12-13T13:49:15.232Z</time>
      </trkpt>
      <trkpt lat="48.10615" lon="-2.92287">
        <ele>154.885498</ele>
        <time>2022-12-13T13:49:19.231Z</time>
      </trkpt>
      <trkpt lat="48.10617" lon="-2.92272">
        <ele>155.169446</ele>
        <time>2022-12-13T13:49:22.233Z</time>
      </trkpt>
      <trkpt lat="48.1062" lon="-2.92258">
        <ele>155.463112</ele>
        <time>2022-12-13T13:49:25.229Z</time>
      </trkpt>
      <trkpt lat="48.10622" lon="-2.92244">
        <ele>155.890713</ele>
        <time>2022-12-13T13:49:28.227Z</time>
      </trkpt>
      <trkpt lat="48.10624" lon="-2.92227">
        <ele>156.412725</ele>
        <time>2022-12-13T13:49:32.241Z</time>
      </trkpt>
      <trkpt lat="48.10627" lon="-2.92212">
        <ele>156.889952</ele>
        <time>2022-12-13T13:49:35.232Z</time>
      </trkpt>
      <trkpt lat="48.10629" lon="-2.92196">
        <ele>157.401043</ele>
        <time>2022-12-13T13:49:38.233Z</time>
      </trkpt>
      <trkpt lat="48.1063" lon="-2.9218">
        <ele>157.927793</ele>
        <time>2022-12-13T13:49:41.232Z</time>
      </trkpt>
      <trkpt lat="48.10632" lon="-2.92164">
        <ele>158.425184</ele>
        <time>2022-12-13T13:49:44.233Z</time>
      </trkpt>
      <trkpt lat="48.10634" lon="-2.92149">
        <ele>158.910043</ele>
        <time>2022-12-13T13:49:47.228Z</time>
      </trkpt>
      <trkpt lat="48.10635" lon="-2.92133">
        <ele>159.402257</ele>
        <time>2022-12-13T13:49:50.207Z</time>
      </trkpt>
      <trkpt lat="48.10636" lon="-2.92119">
        <ele>159.852236</ele>
        <time>2022-12-13T13:49:53.217Z</time>
      </trkpt>
      <trkpt lat="48.10639" lon="-2.92106">
        <ele>160.275329</ele>
        <time>2022-12-13T13:49:56.218Z</time>
      </trkpt>
      <trkpt lat="48.10641" lon="-2.92092">
        <ele>160.728992</ele>
        <time>2022-12-13T13:50:00.232Z</time>
      </trkpt>
      <trkpt lat="48.10637" lon="-2.92075">
        <ele>161.294477</ele>
        <time>2022-12-13T13:50:05.231Z</time>
      </trkpt>
      <trkpt lat="48.10635" lon="-2.92062">
        <ele>161.727729</ele>
        <time>2022-12-13T13:50:08.207Z</time>
      </trkpt>
      <trkpt lat="48.10634" lon="-2.92046">
        <ele>162.21371</ele>
        <time>2022-12-13T13:50:11.231Z</time>
      </trkpt>
      <trkpt lat="48.10634" lon="-2.9203">
        <ele>162.711542</ele>
        <time>2022-12-13T13:50:14.218Z</time>
      </trkpt>
      <trkpt lat="48.10634" lon="-2.92015">
        <ele>163.18054</ele>
        <time>2022-12-13T13:50:17.212Z</time>
      </trkpt>
      <trkpt lat="48.10634" lon="-2.91998">
        <ele>163.712708</ele>
        <time>2022-12-13T13:50:21.232Z</time>
      </trkpt>
      <trkpt lat="48.10634" lon="-2.91983">
        <ele>164.003946</ele>
        <time>2022-12-13T13:50:24.232Z</time>
      </trkpt>
      <trkpt lat="48.10634" lon="-2.91968">
        <ele>164.141996</ele>
        <time>2022-12-13T13:50:27.225Z</time>
      </trkpt>
      <trkpt lat="48.10633" lon="-2.9195">
        <ele>164.310028</ele>
        <time>2022-12-13T13:50:31.222Z</time>
      </trkpt>
      <trkpt lat="48.10632" lon="-2.91933">
        <ele>164.473351</ele>
        <time>2022-12-13T13:50:34.209Z</time>
      </trkpt>
      <trkpt lat="48.10633" lon="-2.91917">
        <ele>164.617172</ele>
        <time>2022-12-13T13:50:37.230Z</time>
      </trkpt>
      <trkpt lat="48.10633" lon="-2.919">
        <ele>164.775629</ele>
        <time>2022-12-13T13:50:40.217Z</time>
      </trkpt>
      <trkpt lat="48.10632" lon="-2.91883">
        <ele>164.938116</ele>
        <time>2022-12-13T13:50:43.230Z</time>
      </trkpt>
      <trkpt lat="48.10632" lon="-2.91865">
        <ele>165.098424</ele>
        <time>2022-12-13T13:50:46.214Z</time>
      </trkpt>
      <trkpt lat="48.10632" lon="-2.91848">
        <ele>165.25797</ele>
        <time>2022-12-13T13:50:49.217Z</time>
      </trkpt>
      <trkpt lat="48.10632" lon="-2.91833">
        <ele>165.400624</ele>
        <time>2022-12-13T13:50:52.213Z</time>
      </trkpt>
      <trkpt lat="48.10631" lon="-2.91816">
        <ele>165.552599</ele>
        <time>2022-12-13T13:50:55.214Z</time>
      </trkpt>
      <trkpt lat="48.10631" lon="-2.918">
        <ele>165.699891</ele>
        <time>2022-12-13T13:50:58.223Z</time>
      </trkpt>
      <trkpt lat="48.10631" lon="-2.91785">
        <ele>165.839794</ele>
        <time>2022-12-13T13:51:01.214Z</time>
      </trkpt>
      <trkpt lat="48.10632" lon="-2.9177">
        <ele>165.982476</ele>
        <time>2022-12-13T13:51:04.209Z</time>
      </trkpt>
      <trkpt lat="48.10632" lon="-2.91756">
        <ele>166.115006</ele>
        <time>2022-12-13T13:51:07.216Z</time>
      </trkpt>
      <trkpt lat="48.10632" lon="-2.91738">
        <ele>166.275261</ele>
        <time>2022-12-13T13:51:11.213Z</time>
      </trkpt>
      <trkpt lat="48.10631" lon="-2.91723">
        <ele>166.415383</ele>
        <time>2022-12-13T13:51:14.213Z</time>
      </trkpt>
      <trkpt lat="48.10631" lon="-2.91709">
        <ele>165.789633</ele>
        <time>2022-12-13T13:51:17.214Z</time>
      </trkpt>
      <trkpt lat="48.10632" lon="-2.9169">
        <ele>164.933049</ele>
        <time>2022-12-13T13:51:20.235Z</time>
      </trkpt>
      <trkpt lat="48.10633" lon="-2.91676">
        <ele>164.257039</ele>
        <time>2022-12-13T13:51:23.234Z</time>
      </trkpt>
      <trkpt lat="48.10634" lon="-2.91662">
        <ele>163.617471</ele>
        <time>2022-12-13T13:51:27.234Z</time>
      </trkpt>
      <trkpt lat="48.10631" lon="-2.91649">
        <ele>162.963513</ele>
        <time>2022-12-13T13:51:30.226Z</time>
      </trkpt>
      <trkpt lat="48.10628" lon="-2.91635">
        <ele>162.274912</ele>
        <time>2022-12-13T13:51:33.232Z</time>
      </trkpt>
      <trkpt lat="48.10628" lon="-2.91619">
        <ele>161.528756</ele>
        <time>2022-12-13T13:51:36.219Z</time>
      </trkpt>
      <trkpt lat="48.10629" lon="-2.91601">
        <ele>160.695349</ele>
        <time>2022-12-13T13:51:39.219Z</time>
      </trkpt>
      <trkpt lat="48.10627" lon="-2.91583">
        <ele>159.832622</ele>
        <time>2022-12-13T13:51:42.243Z</time>
      </trkpt>
      <trkpt lat="48.10624" lon="-2.91565">
        <ele>158.982898</ele>
        <time>2022-12-13T13:51:45.223Z</time>
      </trkpt>
      <trkpt lat="48.1062" lon="-2.91548">
        <ele>158.16102</ele>
        <time>2022-12-13T13:51:48.222Z</time>
      </trkpt>
      <trkpt lat="48.10616" lon="-2.91532">
        <ele>157.356554</ele>
        <time>2022-12-13T13:51:51.235Z</time>
      </trkpt>
      <trkpt lat="48.10611" lon="-2.91516">
        <ele>156.547797</ele>
        <time>2022-12-13T13:51:54.234Z</time>
      </trkpt>
      <trkpt lat="48.10607" lon="-2.91501">
        <ele>155.753804</ele>
        <time>2022-12-13T13:51:57.232Z</time>
      </trkpt>
      <trkpt lat="48.10604" lon="-2.91485">
        <ele>155.002637</ele>
        <time>2022-12-13T13:52:00.242Z</time>
      </trkpt>
      <trkpt lat="48.106" lon="-2.91468">
        <ele>154.173922</ele>
        <time>2022-12-13T13:52:03.234Z</time>
      </trkpt>
      <trkpt lat="48.10597" lon="-2.91454">
        <ele>153.792421</ele>
        <time>2022-12-13T13:52:06.212Z</time>
      </trkpt>
      <trkpt lat="48.10594" lon="-2.91437">
        <ele>153.628763</ele>
        <time>2022-12-13T13:52:10.238Z</time>
      </trkpt>
      <trkpt lat="48.10591" lon="-2.91421">
        <ele>153.4773</ele>
        <time>2022-12-13T13:52:13.234Z</time>
      </trkpt>
      <trkpt lat="48.10589" lon="-2.91403">
        <ele>153.3141</ele>
        <time>2022-12-13T13:52:16.235Z</time>
      </trkpt>
      <trkpt lat="48.10588" lon="-2.91385">
        <ele>153.141855</ele>
        <time>2022-12-13T13:52:19.220Z</time>
      </trkpt>
      <trkpt lat="48.10588" lon="-2.91366">
        <ele>152.971817</ele>
        <time>2022-12-13T13:52:22.242Z</time>
      </trkpt>
      <trkpt lat="48.10589" lon="-2.91347">
        <ele>152.789106</ele>
        <time>2022-12-13T13:52:25.245Z</time>
      </trkpt>
      <trkpt lat="48.10591" lon="-2.91327">
        <ele>152.605263</ele>
        <time>2022-12-13T13:52:28.238Z</time>
      </trkpt>
      <trkpt lat="48.10594" lon="-2.91309">
        <ele>152.437144</ele>
        <time>2022-12-13T13:52:31.220Z</time>
      </trkpt>
      <trkpt lat="48.10598" lon="-2.91294">
        <ele>152.286018</ele>
        <time>2022-12-13T13:52:34.221Z</time>
      </trkpt>
      <trkpt lat="48.10602" lon="-2.91279">
        <ele>152.135787</ele>
        <time>2022-12-13T13:52:37.217Z</time>
      </trkpt>
      <trkpt lat="48.10608" lon="-2.91263">
        <ele>151.966971</ele>
        <time>2022-12-13T13:52:40.246Z</time>
      </trkpt>
      <trkpt lat="48.10615" lon="-2.91247">
        <ele>151.792577</ele>
        <time>2022-12-13T13:52:43.220Z</time>
      </trkpt>
      <trkpt lat="48.10623" lon="-2.91232">
        <ele>151.61017</ele>
        <time>2022-12-13T13:52:46.248Z</time>
      </trkpt>
      <trkpt lat="48.1063" lon="-2.91222">
        <ele>151.484221</ele>
        <time>2022-12-13T13:52:48.232Z</time>
      </trkpt>
      <trkpt lat="48.10639" lon="-2.91209">
        <ele>151.532963</ele>
        <time>2022-12-13T13:52:51.213Z</time>
      </trkpt>
      <trkpt lat="48.10647" lon="-2.91198">
        <ele>151.822824</ele>
        <time>2022-12-13T13:52:54.233Z</time>
      </trkpt>
      <trkpt lat="48.10656" lon="-2.91189">
        <ele>152.121298</ele>
        <time>2022-12-13T13:52:57.277Z</time>
      </trkpt>
      <trkpt lat="48.10667" lon="-2.91181">
        <ele>152.431712</ele>
        <time>2022-12-13T13:53:00.215Z</time>
      </trkpt>
      <trkpt lat="48.10678" lon="-2.91173">
        <ele>152.771216</ele>
        <time>2022-12-13T13:53:03.234Z</time>
      </trkpt>
      <trkpt lat="48.10687" lon="-2.91168">
        <ele>153.013517</ele>
        <time>2022-12-13T13:53:05.248Z</time>
      </trkpt>
      <trkpt lat="48.10696" lon="-2.91164">
        <ele>153.271214</ele>
        <time>2022-12-13T13:53:07.224Z</time>
      </trkpt>
      <trkpt lat="48.1071" lon="-2.91159">
        <ele>153.638865</ele>
        <time>2022-12-13T13:53:10.232Z</time>
      </trkpt>
      <trkpt lat="48.10719" lon="-2.91158">
        <ele>153.87591</ele>
        <time>2022-12-13T13:53:12.237Z</time>
      </trkpt>
      <trkpt lat="48.10731" lon="-2.91155">
        <ele>154.209688</ele>
        <time>2022-12-13T13:53:15.214Z</time>
      </trkpt>
      <trkpt lat="48.10742" lon="-2.91154">
        <ele>154.504238</ele>
        <time>2022-12-13T13:53:18.233Z</time>
      </trkpt>
      <trkpt lat="48.10755" lon="-2.91152">
        <ele>154.847676</ele>
        <time>2022-12-13T13:53:21.233Z</time>
      </trkpt>
      <trkpt lat="48.10768" lon="-2.91151">
        <ele>155.189327</ele>
        <time>2022-12-13T13:53:24.233Z</time>
      </trkpt>
      <trkpt lat="48.10782" lon="-2.9115">
        <ele>155.544344</ele>
        <time>2022-12-13T13:53:27.223Z</time>
      </trkpt>
      <trkpt lat="48.10795" lon="-2.91148">
        <ele>155.898128</ele>
        <time>2022-12-13T13:53:30.231Z</time>
      </trkpt>
      <trkpt lat="48.10804" lon="-2.91148">
        <ele>156.141728</ele>
        <time>2022-12-13T13:53:32.244Z</time>
      </trkpt>
      <trkpt lat="48.10814" lon="-2.91146">
        <ele>156.287801</ele>
        <time>2022-12-13T13:53:34.246Z</time>
      </trkpt>
      <trkpt lat="48.10824" lon="-2.91146">
        <ele>156.420476</ele>
        <time>2022-12-13T13:53:36.293Z</time>
      </trkpt>
      <trkpt lat="48.10834" lon="-2.91144">
        <ele>156.570898</ele>
        <time>2022-12-13T13:53:38.231Z</time>
      </trkpt>
      <trkpt lat="48.10846" lon="-2.91142">
        <ele>156.739355</ele>
        <time>2022-12-13T13:53:41.246Z</time>
      </trkpt>
      <trkpt lat="48.10856" lon="-2.91141">
        <ele>156.866612</ele>
        <time>2022-12-13T13:53:43.220Z</time>
      </trkpt>
      <trkpt lat="48.10868" lon="-2.9114">
        <ele>157.047242</ele>
        <time>2022-12-13T13:53:46.243Z</time>
      </trkpt>
      <trkpt lat="48.10878" lon="-2.91139">
        <ele>157.177237</ele>
        <time>2022-12-13T13:53:48.230Z</time>
      </trkpt>
      <trkpt lat="48.1089" lon="-2.91138">
        <ele>157.34374</ele>
        <time>2022-12-13T13:53:51.228Z</time>
      </trkpt>
      <trkpt lat="48.109" lon="-2.91136">
        <ele>157.485431</ele>
        <time>2022-12-13T13:53:53.235Z</time>
      </trkpt>
      <trkpt lat="48.10913" lon="-2.91136">
        <ele>157.668396</ele>
        <time>2022-12-13T13:53:56.239Z</time>
      </trkpt>
      <trkpt lat="48.10926" lon="-2.91134">
        <ele>157.852321</ele>
        <time>2022-12-13T13:53:59.235Z</time>
      </trkpt>
      <trkpt lat="48.10938" lon="-2.91133">
        <ele>158.026983</ele>
        <time>2022-12-13T13:54:02.227Z</time>
      </trkpt>
      <trkpt lat="48.10951" lon="-2.91132">
        <ele>158.196337</ele>
        <time>2022-12-13T13:54:05.219Z</time>
      </trkpt>
      <trkpt lat="48.10961" lon="-2.91131">
        <ele>158.335968</ele>
        <time>2022-12-13T13:54:08.236Z</time>
      </trkpt>
      <trkpt lat="48.10971" lon="-2.91132">
        <ele>158.478391</ele>
        <time>2022-12-13T13:54:11.237Z</time>
      </trkpt>
      <trkpt lat="48.10982" lon="-2.91134">
        <ele>158.63852</ele>
        <time>2022-12-13T13:54:14.230Z</time>
      </trkpt>
      <trkpt lat="48.10994" lon="-2.91136">
        <ele>158.525857</ele>
        <time>2022-12-13T13:54:17.237Z</time>
      </trkpt>
      <trkpt lat="48.11005" lon="-2.9114">
        <ele>158.395007</ele>
        <time>2022-12-13T13:54:20.281Z</time>
      </trkpt>
      <trkpt lat="48.11015" lon="-2.91144">
        <ele>158.266898</ele>
        <time>2022-12-13T13:54:23.232Z</time>
      </trkpt>
      <trkpt lat="48.11023" lon="-2.91148">
        <ele>158.154587</ele>
        <time>2022-12-13T13:54:26.236Z</time>
      </trkpt>
      <trkpt lat="48.11034" lon="-2.91151">
        <ele>158.021365</ele>
        <time>2022-12-13T13:54:30.232Z</time>
      </trkpt>
      <trkpt lat="48.11044" lon="-2.91155">
        <ele>157.896287</ele>
        <time>2022-12-13T13:54:35.245Z</time>
      </trkpt>
      <trkpt lat="48.11053" lon="-2.91155">
        <ele>157.781426</ele>
        <time>2022-12-13T13:54:40.241Z</time>
      </trkpt>
      <trkpt lat="48.11062" lon="-2.91161">
        <ele>157.663284</ele>
        <time>2022-12-13T13:54:45.230Z</time>
      </trkpt>
      <trkpt lat="48.11072" lon="-2.91165">
        <ele>157.537772</ele>
        <time>2022-12-13T13:54:51.229Z</time>
      </trkpt>
      <trkpt lat="48.11081" lon="-2.91166">
        <ele>157.419009</ele>
        <time>2022-12-13T13:54:55.237Z</time>
      </trkpt>
      <trkpt lat="48.1109" lon="-2.91169">
        <ele>157.304578</ele>
        <time>2022-12-13T13:54:59.231Z</time>
      </trkpt>
      <trkpt lat="48.11102" lon="-2.91173">
        <ele>157.155159</ele>
        <time>2022-12-13T13:55:02.234Z</time>
      </trkpt>
      <trkpt lat="48.11113" lon="-2.91177">
        <ele>157.018505</ele>
        <time>2022-12-13T13:55:04.241Z</time>
      </trkpt>
      <trkpt lat="48.11124" lon="-2.91181">
        <ele>156.880997</ele>
        <time>2022-12-13T13:55:06.232Z</time>
      </trkpt>
      <trkpt lat="48.11134" lon="-2.91184">
        <ele>156.747751</ele>
        <time>2022-12-13T13:55:08.234Z</time>
      </trkpt>
      <trkpt lat="48.11145" lon="-2.91187">
        <ele>156.618768</ele>
        <time>2022-12-13T13:55:10.247Z</time>
      </trkpt>
      <trkpt lat="48.11155" lon="-2.91191">
        <ele>156.483672</ele>
        <time>2022-12-13T13:55:12.251Z</time>
      </trkpt>
      <trkpt lat="48.11165" lon="-2.91192">
        <ele>156.3114</ele>
        <time>2022-12-13T13:55:14.295Z</time>
      </trkpt>
      <trkpt lat="48.11176" lon="-2.91192">
        <ele>156.106456</ele>
        <time>2022-12-13T13:55:16.250Z</time>
      </trkpt>
      <trkpt lat="48.11187" lon="-2.91187">
        <ele>155.886351</ele>
        <time>2022-12-13T13:55:18.243Z</time>
      </trkpt>
      <trkpt lat="48.11195" lon="-2.91182">
        <ele>155.702337</ele>
        <time>2022-12-13T13:55:20.230Z</time>
      </trkpt>
      <trkpt lat="48.11204" lon="-2.91175">
        <ele>155.505923</ele>
        <time>2022-12-13T13:55:22.232Z</time>
      </trkpt>
      <trkpt lat="48.11215" lon="-2.91165">
        <ele>155.255144</ele>
        <time>2022-12-13T13:55:25.307Z</time>
      </trkpt>
      <trkpt lat="48.11224" lon="-2.91151">
        <ele>154.994503</ele>
        <time>2022-12-13T13:55:28.238Z</time>
      </trkpt>
      <trkpt lat="48.1123" lon="-2.91138">
        <ele>154.796526</ele>
        <time>2022-12-13T13:55:31.236Z</time>
      </trkpt>
      <trkpt lat="48.11236" lon="-2.91122">
        <ele>154.556161</ele>
        <time>2022-12-13T13:55:35.236Z</time>
      </trkpt>
      <trkpt lat="48.11239" lon="-2.91107">
        <ele>154.345872</ele>
        <time>2022-12-13T13:55:38.227Z</time>
      </trkpt>
      <trkpt lat="48.11242" lon="-2.9109">
        <ele>154.117371</ele>
        <time>2022-12-13T13:55:41.225Z</time>
      </trkpt>
      <trkpt lat="48.11243" lon="-2.91075">
        <ele>153.907353</ele>
        <time>2022-12-13T13:55:44.223Z</time>
      </trkpt>
      <trkpt lat="48.11242" lon="-2.9106">
        <ele>153.712566</ele>
        <time>2022-12-13T13:55:47.297Z</time>
      </trkpt>
      <trkpt lat="48.11242" lon="-2.91044">
        <ele>153.502149</ele>
        <time>2022-12-13T13:55:50.239Z</time>
      </trkpt>
      <trkpt lat="48.11242" lon="-2.91025">
        <ele>153.261495</ele>
        <time>2022-12-13T13:55:53.220Z</time>
      </trkpt>
      <trkpt lat="48.11242" lon="-2.91008">
        <ele>153.028698</ele>
        <time>2022-12-13T13:55:56.234Z</time>
      </trkpt>
      <trkpt lat="48.11241" lon="-2.90989">
        <ele>152.963805</ele>
        <time>2022-12-13T13:55:59.236Z</time>
      </trkpt>
      <trkpt lat="48.11241" lon="-2.90969">
        <ele>153.119537</ele>
        <time>2022-12-13T13:56:02.229Z</time>
      </trkpt>
      <trkpt lat="48.11242" lon="-2.90956">
        <ele>153.224188</ele>
        <time>2022-12-13T13:56:04.222Z</time>
      </trkpt>
      <trkpt lat="48.11243" lon="-2.90937">
        <ele>153.36677</ele>
        <time>2022-12-13T13:56:07.233Z</time>
      </trkpt>
      <trkpt lat="48.11245" lon="-2.90921">
        <ele>153.499367</ele>
        <time>2022-12-13T13:56:10.225Z</time>
      </trkpt>
      <trkpt lat="48.1125" lon="-2.90904">
        <ele>153.636495</ele>
        <time>2022-12-13T13:56:13.226Z</time>
      </trkpt>
      <trkpt lat="48.11255" lon="-2.90887">
        <ele>153.78388</ele>
        <time>2022-12-13T13:56:16.226Z</time>
      </trkpt>
      <trkpt lat="48.11262" lon="-2.90869">
        <ele>153.944222</ele>
        <time>2022-12-13T13:56:19.224Z</time>
      </trkpt>
      <trkpt lat="48.11266" lon="-2.90856">
        <ele>154.055614</ele>
        <time>2022-12-13T13:56:21.230Z</time>
      </trkpt>
      <trkpt lat="48.11271" lon="-2.90844">
        <ele>154.165417</ele>
        <time>2022-12-13T13:56:23.234Z</time>
      </trkpt>
      <trkpt lat="48.11276" lon="-2.90826">
        <ele>154.31527</ele>
        <time>2022-12-13T13:56:26.224Z</time>
      </trkpt>
      <trkpt lat="48.11281" lon="-2.90814">
        <ele>154.421002</ele>
        <time>2022-12-13T13:56:28.226Z</time>
      </trkpt>
      <trkpt lat="48.11287" lon="-2.90798">
        <ele>154.560963</ele>
        <time>2022-12-13T13:56:31.232Z</time>
      </trkpt>
      <trkpt lat="48.11291" lon="-2.90784">
        <ele>154.688439</ele>
        <time>2022-12-13T13:56:34.245Z</time>
      </trkpt>
      <trkpt lat="48.11297" lon="-2.90768">
        <ele>154.825267</ele>
        <time>2022-12-13T13:56:37.247Z</time>
      </trkpt>
      <trkpt lat="48.11303" lon="-2.90751">
        <ele>154.971109</ele>
        <time>2022-12-13T13:56:40.242Z</time>
      </trkpt>
      <trkpt lat="48.11309" lon="-2.90736">
        <ele>154.874837</ele>
        <time>2022-12-13T13:56:43.232Z</time>
      </trkpt>
      <trkpt lat="48.11316" lon="-2.90719">
        <ele>154.739624</ele>
        <time>2022-12-13T13:56:46.240Z</time>
      </trkpt>
      <trkpt lat="48.11321" lon="-2.90707">
        <ele>154.647268</ele>
        <time>2022-12-13T13:56:48.245Z</time>
      </trkpt>
      <trkpt lat="48.11328" lon="-2.9069">
        <ele>154.507073</ele>
        <time>2022-12-13T13:56:51.232Z</time>
      </trkpt>
      <trkpt lat="48.11333" lon="-2.90678">
        <ele>154.409006</ele>
        <time>2022-12-13T13:56:53.236Z</time>
      </trkpt>
      <trkpt lat="48.11338" lon="-2.90666">
        <ele>154.316422</ele>
        <time>2022-12-13T13:56:55.230Z</time>
      </trkpt>
      <trkpt lat="48.11342" lon="-2.90654">
        <ele>154.222657</ele>
        <time>2022-12-13T13:56:57.226Z</time>
      </trkpt>
      <trkpt lat="48.1135" lon="-2.90636">
        <ele>154.080208</ele>
        <time>2022-12-13T13:57:00.236Z</time>
      </trkpt>
      <trkpt lat="48.11354" lon="-2.90622">
        <ele>153.976921</ele>
        <time>2022-12-13T13:57:02.231Z</time>
      </trkpt>
      <trkpt lat="48.1136" lon="-2.90609">
        <ele>153.874381</ele>
        <time>2022-12-13T13:57:04.243Z</time>
      </trkpt>
      <trkpt lat="48.11364" lon="-2.90597">
        <ele>153.774405</ele>
        <time>2022-12-13T13:57:06.246Z</time>
      </trkpt>
      <trkpt lat="48.11369" lon="-2.90583">
        <ele>153.672862</ele>
        <time>2022-12-13T13:57:08.245Z</time>
      </trkpt>
      <trkpt lat="48.11374" lon="-2.90571">
        <ele>153.578012</ele>
        <time>2022-12-13T13:57:10.226Z</time>
      </trkpt>
      <trkpt lat="48.11378" lon="-2.90559">
        <ele>153.483655</ele>
        <time>2022-12-13T13:57:12.244Z</time>
      </trkpt>
      <trkpt lat="48.11384" lon="-2.90542">
        <ele>153.352881</ele>
        <time>2022-12-13T13:57:15.236Z</time>
      </trkpt>
      <trkpt lat="48.1139" lon="-2.90526">
        <ele>153.231411</ele>
        <time>2022-12-13T13:57:18.232Z</time>
      </trkpt>
      <trkpt lat="48.11396" lon="-2.90512">
        <ele>153.166313</ele>
        <time>2022-12-13T13:57:21.245Z</time>
      </trkpt>
      <trkpt lat="48.11402" lon="-2.905">
        <ele>153.179202</ele>
        <time>2022-12-13T13:57:24.232Z</time>
      </trkpt>
      <trkpt lat="48.11409" lon="-2.90488">
        <ele>153.192283</ele>
        <time>2022-12-13T13:57:27.234Z</time>
      </trkpt>
      <trkpt lat="48.11417" lon="-2.90477">
        <ele>153.205341</ele>
        <time>2022-12-13T13:57:30.293Z</time>
      </trkpt>
      <trkpt lat="48.11426" lon="-2.90467">
        <ele>153.219685</ele>
        <time>2022-12-13T13:57:33.230Z</time>
      </trkpt>
      <trkpt lat="48.11436" lon="-2.90458">
        <ele>153.234155</ele>
        <time>2022-12-13T13:57:36.296Z</time>
      </trkpt>
      <trkpt lat="48.11446" lon="-2.90448">
        <ele>153.2495</ele>
        <time>2022-12-13T13:57:39.244Z</time>
      </trkpt>
      <trkpt lat="48.11455" lon="-2.90439">
        <ele>153.262742</ele>
        <time>2022-12-13T13:57:42.288Z</time>
      </trkpt>
      <trkpt lat="48.11463" lon="-2.9043">
        <ele>153.275177</ele>
        <time>2022-12-13T13:57:45.237Z</time>
      </trkpt>
      <trkpt lat="48.11471" lon="-2.90418">
        <ele>153.289832</ele>
        <time>2022-12-13T13:57:48.231Z</time>
      </trkpt>
      <trkpt lat="48.1148" lon="-2.90403">
        <ele>153.306118</ele>
        <time>2022-12-13T13:57:51.234Z</time>
      </trkpt>
      <trkpt lat="48.11487" lon="-2.90388">
        <ele>153.321835</ele>
        <time>2022-12-13T13:57:54.248Z</time>
      </trkpt>
      <trkpt lat="48.11492" lon="-2.90373">
        <ele>153.335906</ele>
        <time>2022-12-13T13:57:57.245Z</time>
      </trkpt>
      <trkpt lat="48.11496" lon="-2.90359">
        <ele>153.348418</ele>
        <time>2022-12-13T13:58:00.246Z</time>
      </trkpt>
      <trkpt lat="48.11497" lon="-2.90345">
        <ele>153.360608</ele>
        <time>2022-12-13T13:58:04.249Z</time>
      </trkpt>
      <trkpt lat="48.115" lon="-2.90329">
        <ele>153.374083</ele>
        <time>2022-12-13T13:58:09.239Z</time>
      </trkpt>
      <trkpt lat="48.11498" lon="-2.90316">
        <ele>153.385362</ele>
        <time>2022-12-13T13:58:14.235Z</time>
      </trkpt>
      <trkpt lat="48.11497" lon="-2.90301">
        <ele>153.419669</ele>
        <time>2022-12-13T13:58:19.227Z</time>
      </trkpt>
      <trkpt lat="48.11494" lon="-2.90285">
        <ele>153.459129</ele>
        <time>2022-12-13T13:58:24.245Z</time>
      </trkpt>
      <trkpt lat="48.11491" lon="-2.9027">
        <ele>153.498741</ele>
        <time>2022-12-13T13:58:29.227Z</time>
      </trkpt>
      <trkpt lat="48.1149" lon="-2.90254">
        <ele>153.537504</ele>
        <time>2022-12-13T13:58:34.244Z</time>
      </trkpt>
      <trkpt lat="48.11499" lon="-2.90247">
        <ele>153.574509</ele>
        <time>2022-12-13T13:58:40.238Z</time>
      </trkpt>
      <trkpt lat="48.11508" lon="-2.90239">
        <ele>153.613362</ele>
        <time>2022-12-13T13:58:46.244Z</time>
      </trkpt>
      <trkpt lat="48.11505" lon="-2.90222">
        <ele>153.654374</ele>
        <time>2022-12-13T13:58:51.218Z</time>
      </trkpt>
      <trkpt lat="48.11503" lon="-2.90207">
        <ele>153.692053</ele>
        <time>2022-12-13T13:58:55.221Z</time>
      </trkpt>
      <trkpt lat="48.11501" lon="-2.9019">
        <ele>153.733311</ele>
        <time>2022-12-13T13:58:59.232Z</time>
      </trkpt>
      <trkpt lat="48.11499" lon="-2.90177">
        <ele>153.766542</ele>
        <time>2022-12-13T13:59:02.235Z</time>
      </trkpt>
      <trkpt lat="48.11496" lon="-2.90159">
        <ele>153.809898</ele>
        <time>2022-12-13T13:59:06.226Z</time>
      </trkpt>
      <trkpt lat="48.11495" lon="-2.90145">
        <ele>153.843911</ele>
        <time>2022-12-13T13:59:09.254Z</time>
      </trkpt>
      <trkpt lat="48.11493" lon="-2.90132">
        <ele>153.877785</ele>
        <time>2022-12-13T13:59:12.216Z</time>
      </trkpt>
      <trkpt lat="48.11491" lon="-2.90119">
        <ele>153.910392</ele>
        <time>2022-12-13T13:59:15.219Z</time>
      </trkpt>
      <trkpt lat="48.11488" lon="-2.90105">
        <ele>153.943948</ele>
        <time>2022-12-13T13:59:18.228Z</time>
      </trkpt>
      <trkpt lat="48.11485" lon="-2.90091">
        <ele>153.97982</ele>
        <time>2022-12-13T13:59:22.223Z</time>
      </trkpt>
      <trkpt lat="48.11483" lon="-2.90075">
        <ele>154.018399</ele>
        <time>2022-12-13T13:59:26.216Z</time>
      </trkpt>
      <trkpt lat="48.11481" lon="-2.90059">
        <ele>154.116596</ele>
        <time>2022-12-13T13:59:30.246Z</time>
      </trkpt>
      <trkpt lat="48.11478" lon="-2.90044">
        <ele>154.245573</ele>
        <time>2022-12-13T13:59:33.235Z</time>
      </trkpt>
      <trkpt lat="48.11475" lon="-2.90029">
        <ele>154.378364</ele>
        <time>2022-12-13T13:59:36.216Z</time>
      </trkpt>
      <trkpt lat="48.11473" lon="-2.90015">
        <ele>154.505877</ele>
        <time>2022-12-13T13:59:39.244Z</time>
      </trkpt>
      <trkpt lat="48.11471" lon="-2.9">
        <ele>154.632604</ele>
        <time>2022-12-13T13:59:42.220Z</time>
      </trkpt>
      <trkpt lat="48.1147" lon="-2.89986">
        <ele>154.758264</ele>
        <time>2022-12-13T13:59:45.246Z</time>
      </trkpt>
      <trkpt lat="48.11467" lon="-2.89972">
        <ele>154.877187</ele>
        <time>2022-12-13T13:59:48.224Z</time>
      </trkpt>
      <trkpt lat="48.11464" lon="-2.89955">
        <ele>155.028101</ele>
        <time>2022-12-13T13:59:52.226Z</time>
      </trkpt>
      <trkpt lat="48.11462" lon="-2.89938">
        <ele>155.17558</ele>
        <time>2022-12-13T13:59:56.217Z</time>
      </trkpt>
      <trkpt lat="48.11459" lon="-2.89924">
        <ele>155.297302</ele>
        <time>2022-12-13T14:00:00.230Z</time>
      </trkpt>
      <trkpt lat="48.11457" lon="-2.89911">
        <ele>155.414503</ele>
        <time>2022-12-13T14:00:04.243Z</time>
      </trkpt>
      <trkpt lat="48.11455" lon="-2.89895">
        <ele>155.549485</ele>
        <time>2022-12-13T14:00:08.212Z</time>
      </trkpt>
      <trkpt lat="48.11453" lon="-2.89878">
        <ele>155.699349</ele>
        <time>2022-12-13T14:00:12.216Z</time>
      </trkpt>
      <trkpt lat="48.11451" lon="-2.89865">
        <ele>155.817383</ele>
        <time>2022-12-13T14:00:15.248Z</time>
      </trkpt>
      <trkpt lat="48.11449" lon="-2.89851">
        <ele>155.934584</ele>
        <time>2022-12-13T14:00:18.279Z</time>
      </trkpt>
      <trkpt lat="48.11447" lon="-2.89837">
        <ele>156.056043</ele>
        <time>2022-12-13T14:00:21.247Z</time>
      </trkpt>
      <trkpt lat="48.11445" lon="-2.89821">
        <ele>156.200185</ele>
        <time>2022-12-13T14:00:25.235Z</time>
      </trkpt>
      <trkpt lat="48.11443" lon="-2.89806">
        <ele>156.331845</ele>
        <time>2022-12-13T14:00:29.235Z</time>
      </trkpt>
      <trkpt lat="48.1144" lon="-2.89789">
        <ele>156.561074</ele>
        <time>2022-12-13T14:00:33.250Z</time>
      </trkpt>
      <trkpt lat="48.11438" lon="-2.89775">
        <ele>156.757322</ele>
        <time>2022-12-13T14:00:36.279Z</time>
      </trkpt>
      <trkpt lat="48.11435" lon="-2.89761">
        <ele>156.949859</ele>
        <time>2022-12-13T14:00:39.246Z</time>
      </trkpt>
      <trkpt lat="48.11433" lon="-2.89748">
        <ele>157.13717</ele>
        <time>2022-12-13T14:00:42.247Z</time>
      </trkpt>
      <trkpt lat="48.1143" lon="-2.89735">
        <ele>157.32057</ele>
        <time>2022-12-13T14:00:45.232Z</time>
      </trkpt>
      <trkpt lat="48.11428" lon="-2.8972">
        <ele>157.527443</ele>
        <time>2022-12-13T14:00:49.248Z</time>
      </trkpt>
      <trkpt lat="48.11427" lon="-2.89706">
        <ele>157.725517</ele>
        <time>2022-12-13T14:00:53.222Z</time>
      </trkpt>
      <trkpt lat="48.11425" lon="-2.89689">
        <ele>157.952344</ele>
        <time>2022-12-13T14:00:57.224Z</time>
      </trkpt>
      <trkpt lat="48.11423" lon="-2.89672">
        <ele>158.183036</ele>
        <time>2022-12-13T14:01:01.229Z</time>
      </trkpt>
      <trkpt lat="48.11421" lon="-2.89658">
        <ele>158.38594</ele>
        <time>2022-12-13T14:01:05.247Z</time>
      </trkpt>
      <trkpt lat="48.11419" lon="-2.89643">
        <ele>158.58493</ele>
        <time>2022-12-13T14:01:09.286Z</time>
      </trkpt>
      <trkpt lat="48.11416" lon="-2.89629">
        <ele>158.793467</ele>
        <time>2022-12-13T14:01:13.222Z</time>
      </trkpt>
      <trkpt lat="48.11413" lon="-2.89614">
        <ele>159.006335</ele>
        <time>2022-12-13T14:01:17.248Z</time>
      </trkpt>
      <trkpt lat="48.11411" lon="-2.89598">
        <ele>159.223292</ele>
        <time>2022-12-13T14:01:21.230Z</time>
      </trkpt>
      <trkpt lat="48.11408" lon="-2.89582">
        <ele>159.451607</ele>
        <time>2022-12-13T14:01:25.214Z</time>
      </trkpt>
      <trkpt lat="48.11406" lon="-2.89567">
        <ele>159.658078</ele>
        <time>2022-12-13T14:01:29.238Z</time>
      </trkpt>
      <trkpt lat="48.11403" lon="-2.89552">
        <ele>159.870687</ele>
        <time>2022-12-13T14:01:33.239Z</time>
      </trkpt>
      <trkpt lat="48.11402" lon="-2.89536">
        <ele>160.100195</ele>
        <time>2022-12-13T14:01:37.219Z</time>
      </trkpt>
      <trkpt lat="48.114" lon="-2.8952">
        <ele>160.338542</ele>
        <time>2022-12-13T14:01:41.292Z</time>
      </trkpt>
      <trkpt lat="48.11398" lon="-2.89504">
        <ele>160.574624</ele>
        <time>2022-12-13T14:01:45.236Z</time>
      </trkpt>
      <trkpt lat="48.11396" lon="-2.89489">
        <ele>160.808163</ele>
        <time>2022-12-13T14:01:49.221Z</time>
      </trkpt>
      <trkpt lat="48.11395" lon="-2.89474">
        <ele>161.030761</ele>
        <time>2022-12-13T14:01:53.244Z</time>
      </trkpt>
      <trkpt lat="48.11394" lon="-2.89457">
        <ele>161.287411</ele>
        <time>2022-12-13T14:01:57.215Z</time>
      </trkpt>
      <trkpt lat="48.11393" lon="-2.8944">
        <ele>161.54636</ele>
        <time>2022-12-13T14:02:01.248Z</time>
      </trkpt>
      <trkpt lat="48.11393" lon="-2.89422">
        <ele>161.804354</ele>
        <time>2022-12-13T14:02:05.237Z</time>
      </trkpt>
      <trkpt lat="48.11392" lon="-2.89406">
        <ele>162.043464</ele>
        <time>2022-12-13T14:02:09.223Z</time>
      </trkpt>
      <trkpt lat="48.11393" lon="-2.8939">
        <ele>162.28074</ele>
        <time>2022-12-13T14:02:13.244Z</time>
      </trkpt>
      <trkpt lat="48.11392" lon="-2.89375">
        <ele>162.512754</ele>
        <time>2022-12-13T14:02:17.226Z</time>
      </trkpt>
      <trkpt lat="48.11391" lon="-2.89357">
        <ele>162.774189</ele>
        <time>2022-12-13T14:02:21.214Z</time>
      </trkpt>
      <trkpt lat="48.11391" lon="-2.89344">
        <ele>162.978794</ele>
        <time>2022-12-13T14:02:24.304Z</time>
      </trkpt>
      <trkpt lat="48.11391" lon="-2.89328">
        <ele>163.213599</ele>
        <time>2022-12-13T14:02:28.224Z</time>
      </trkpt>
      <trkpt lat="48.11392" lon="-2.89314">
        <ele>163.419984</ele>
        <time>2022-12-13T14:02:32.234Z</time>
      </trkpt>
      <trkpt lat="48.11394" lon="-2.89297">
        <ele>163.6791</ele>
        <time>2022-12-13T14:02:36.222Z</time>
      </trkpt>
      <trkpt lat="48.11399" lon="-2.89284">
        <ele>163.901785</ele>
        <time>2022-12-13T14:02:40.227Z</time>
      </trkpt>
      <trkpt lat="48.11403" lon="-2.89271">
        <ele>164.313275</ele>
        <time>2022-12-13T14:02:45.294Z</time>
      </trkpt>
      <trkpt lat="48.11408" lon="-2.89259">
        <ele>164.852147</ele>
        <time>2022-12-13T14:02:54.225Z</time>
      </trkpt>
      <trkpt lat="48.11413" lon="-2.89246">
        <ele>165.429845</ele>
        <time>2022-12-13T14:03:05.242Z</time>
      </trkpt>
      <trkpt lat="48.11418" lon="-2.89232">
        <ele>166.033712</ele>
        <time>2022-12-13T14:03:11.227Z</time>
      </trkpt>
      <trkpt lat="48.11424" lon="-2.8922">
        <ele>166.615734</ele>
        <time>2022-12-13T14:03:16.243Z</time>
      </trkpt>
      <trkpt lat="48.11428" lon="-2.89208">
        <ele>167.150718</ele>
        <time>2022-12-13T14:03:21.232Z</time>
      </trkpt>
      <trkpt lat="48.1143" lon="-2.89195">
        <ele>167.686629</ele>
        <time>2022-12-13T14:03:34.306Z</time>
      </trkpt>
      <trkpt lat="48.11434" lon="-2.89182">
        <ele>168.226253</ele>
        <time>2022-12-13T14:03:44.239Z</time>
      </trkpt>
      <trkpt lat="48.11437" lon="-2.89166">
        <ele>168.877847</ele>
        <time>2022-12-13T14:03:49.234Z</time>
      </trkpt>
      <trkpt lat="48.11439" lon="-2.89153">
        <ele>169.409949</ele>
        <time>2022-12-13T14:03:53.242Z</time>
      </trkpt>
      <trkpt lat="48.11441" lon="-2.89139">
        <ele>169.956073</ele>
        <time>2022-12-13T14:03:57.235Z</time>
      </trkpt>
      <trkpt lat="48.11443" lon="-2.89126">
        <ele>170.493381</ele>
        <time>2022-12-13T14:04:01.224Z</time>
      </trkpt>
      <trkpt lat="48.11445" lon="-2.89109">
        <ele>171.142062</ele>
        <time>2022-12-13T14:04:06.305Z</time>
      </trkpt>
      <trkpt lat="48.11446" lon="-2.89096">
        <ele>171.677203</ele>
        <time>2022-12-13T14:04:10.233Z</time>
      </trkpt>
      <trkpt lat="48.11448" lon="-2.89083">
        <ele>172.206857</ele>
        <time>2022-12-13T14:04:14.219Z</time>
      </trkpt>
      <trkpt lat="48.1145" lon="-2.89066">
        <ele>172.851687</ele>
        <time>2022-12-13T14:04:19.218Z</time>
      </trkpt>
      <trkpt lat="48.11451" lon="-2.8905">
        <ele>173.487232</ele>
        <time>2022-12-13T14:04:24.248Z</time>
      </trkpt>
      <trkpt lat="48.11452" lon="-2.89036">
        <ele>174.048411</ele>
        <time>2022-12-13T14:04:29.232Z</time>
      </trkpt>
      <trkpt lat="48.11451" lon="-2.89021">
        <ele>174.511272</ele>
        <time>2022-12-13T14:04:34.241Z</time>
      </trkpt>
      <trkpt lat="48.11449" lon="-2.89007">
        <ele>174.456408</ele>
        <time>2022-12-13T14:04:40.234Z</time>
      </trkpt>
      <trkpt lat="48.11448" lon="-2.88993">
        <ele>174.404834</ele>
        <time>2022-12-13T14:04:49.246Z</time>
      </trkpt>
      <trkpt lat="48.11445" lon="-2.8898">
        <ele>174.354866</ele>
        <time>2022-12-13T14:05:07.230Z</time>
      </trkpt>
      <trkpt lat="48.11444" lon="-2.88963">
        <ele>174.291414</ele>
        <time>2022-12-13T14:05:12.235Z</time>
      </trkpt>
      <trkpt lat="48.11441" lon="-2.8895">
        <ele>174.239884</ele>
        <time>2022-12-13T14:05:16.243Z</time>
      </trkpt>
      <trkpt lat="48.11438" lon="-2.88934">
        <ele>174.178816</ele>
        <time>2022-12-13T14:05:21.290Z</time>
      </trkpt>
      <trkpt lat="48.11436" lon="-2.88919">
        <ele>174.12099</ele>
        <time>2022-12-13T14:05:25.218Z</time>
      </trkpt>
      <trkpt lat="48.11434" lon="-2.88903">
        <ele>174.063068</ele>
        <time>2022-12-13T14:05:29.229Z</time>
      </trkpt>
      <trkpt lat="48.11433" lon="-2.8889">
        <ele>174.012117</ele>
        <time>2022-12-13T14:05:33.226Z</time>
      </trkpt>
      <trkpt lat="48.11431" lon="-2.88875">
        <ele>173.957984</ele>
        <time>2022-12-13T14:05:38.223Z</time>
      </trkpt>
      <trkpt lat="48.11428" lon="-2.88863">
        <ele>173.90772</ele>
        <time>2022-12-13T14:05:43.238Z</time>
      </trkpt>
      <trkpt lat="48.11427" lon="-2.88862">
        <ele>173.900374</ele>
        <time>2022-12-13T14:06:13.802Z</time>
      </trkpt>
      <trkpt lat="48.11423" lon="-2.88841">
        <ele>173.820552</ele>
        <time>2022-12-13T14:09:08.241Z</time>
      </trkpt>
      <trkpt lat="48.11422" lon="-2.88827">
        <ele>173.769925</ele>
        <time>2022-12-13T14:09:12.238Z</time>
      </trkpt>
      <trkpt lat="48.1142" lon="-2.88814">
        <ele>173.719966</ele>
        <time>2022-12-13T14:09:16.225Z</time>
      </trkpt>
      <trkpt lat="48.1142" lon="-2.88799">
        <ele>173.664689</ele>
        <time>2022-12-13T14:09:20.240Z</time>
      </trkpt>
      <trkpt lat="48.11421" lon="-2.88783">
        <ele>173.604777</ele>
        <time>2022-12-13T14:09:24.215Z</time>
      </trkpt>
      <trkpt lat="48.11423" lon="-2.88767">
        <ele>173.541957</ele>
        <time>2022-12-13T14:09:28.219Z</time>
      </trkpt>
      <trkpt lat="48.11424" lon="-2.8875">
        <ele>173.657976</ele>
        <time>2022-12-13T14:09:32.227Z</time>
      </trkpt>
      <trkpt lat="48.11426" lon="-2.88736">
        <ele>173.849137</ele>
        <time>2022-12-13T14:09:35.228Z</time>
      </trkpt>
      <trkpt lat="48.11427" lon="-2.8872">
        <ele>174.046643</ele>
        <time>2022-12-13T14:09:38.223Z</time>
      </trkpt>
      <trkpt lat="48.11429" lon="-2.88702">
        <ele>174.284644</ele>
        <time>2022-12-13T14:09:42.223Z</time>
      </trkpt>
      <trkpt lat="48.11431" lon="-2.88684">
        <ele>174.515591</ele>
        <time>2022-12-13T14:09:45.226Z</time>
      </trkpt>
      <trkpt lat="48.11433" lon="-2.88667">
        <ele>174.736817</ele>
        <time>2022-12-13T14:09:48.238Z</time>
      </trkpt>
      <trkpt lat="48.11435" lon="-2.8865">
        <ele>174.962248</ele>
        <time>2022-12-13T14:09:51.225Z</time>
      </trkpt>
      <trkpt lat="48.11436" lon="-2.88633">
        <ele>175.18488</ele>
        <time>2022-12-13T14:09:54.238Z</time>
      </trkpt>
      <trkpt lat="48.11437" lon="-2.88616">
        <ele>175.40026</ele>
        <time>2022-12-13T14:09:57.237Z</time>
      </trkpt>
      <trkpt lat="48.11438" lon="-2.88601">
        <ele>175.594834</ele>
        <time>2022-12-13T14:10:00.222Z</time>
      </trkpt>
      <trkpt lat="48.1144" lon="-2.88585">
        <ele>175.806639</ele>
        <time>2022-12-13T14:10:04.237Z</time>
      </trkpt>
      <trkpt lat="48.11443" lon="-2.88568">
        <ele>176.025887</ele>
        <time>2022-12-13T14:10:07.240Z</time>
      </trkpt>
      <trkpt lat="48.11445" lon="-2.88551">
        <ele>176.253545</ele>
        <time>2022-12-13T14:10:10.230Z</time>
      </trkpt>
      <trkpt lat="48.11446" lon="-2.88532">
        <ele>176.495057</ele>
        <time>2022-12-13T14:10:13.239Z</time>
      </trkpt>
      <trkpt lat="48.11449" lon="-2.88513">
        <ele>176.748881</ele>
        <time>2022-12-13T14:10:16.221Z</time>
      </trkpt>
      <trkpt lat="48.1145" lon="-2.88493">
        <ele>176.982678</ele>
        <time>2022-12-13T14:10:19.246Z</time>
      </trkpt>
      <trkpt lat="48.11452" lon="-2.88475">
        <ele>177.028421</ele>
        <time>2022-12-13T14:10:22.228Z</time>
      </trkpt>
      <trkpt lat="48.11455" lon="-2.88458">
        <ele>177.070212</ele>
        <time>2022-12-13T14:10:25.232Z</time>
      </trkpt>
      <trkpt lat="48.11457" lon="-2.88444">
        <ele>177.105261</ele>
        <time>2022-12-13T14:10:28.237Z</time>
      </trkpt>
      <trkpt lat="48.11461" lon="-2.88428">
        <ele>177.145809</ele>
        <time>2022-12-13T14:10:31.240Z</time>
      </trkpt>
      <trkpt lat="48.11466" lon="-2.88413">
        <ele>177.187294</ele>
        <time>2022-12-13T14:10:34.228Z</time>
      </trkpt>
      <trkpt lat="48.11471" lon="-2.88398">
        <ele>177.226648</ele>
        <time>2022-12-13T14:10:37.236Z</time>
      </trkpt>
      <trkpt lat="48.11475" lon="-2.88381">
        <ele>177.270736</ele>
        <time>2022-12-13T14:10:40.236Z</time>
      </trkpt>
      <trkpt lat="48.1148" lon="-2.88364">
        <ele>177.315618</ele>
        <time>2022-12-13T14:10:43.240Z</time>
      </trkpt>
      <trkpt lat="48.11485" lon="-2.88348">
        <ele>177.358578</ele>
        <time>2022-12-13T14:10:46.226Z</time>
      </trkpt>
      <trkpt lat="48.1149" lon="-2.88332">
        <ele>177.402869</ele>
        <time>2022-12-13T14:10:49.246Z</time>
      </trkpt>
      <trkpt lat="48.11495" lon="-2.88315">
        <ele>177.448423</ele>
        <time>2022-12-13T14:10:52.237Z</time>
      </trkpt>
      <trkpt lat="48.11501" lon="-2.88297">
        <ele>177.495323</ele>
        <time>2022-12-13T14:10:55.234Z</time>
      </trkpt>
      <trkpt lat="48.11507" lon="-2.8828">
        <ele>177.541459</ele>
        <time>2022-12-13T14:10:58.239Z</time>
      </trkpt>
      <trkpt lat="48.11512" lon="-2.88264">
        <ele>177.584937</ele>
        <time>2022-12-13T14:11:01.238Z</time>
      </trkpt>
      <trkpt lat="48.11517" lon="-2.88248">
        <ele>177.627219</ele>
        <time>2022-12-13T14:11:04.221Z</time>
      </trkpt>
      <trkpt lat="48.11522" lon="-2.88233">
        <ele>177.674357</ele>
        <time>2022-12-13T14:11:07.224Z</time>
      </trkpt>
      <trkpt lat="48.11526" lon="-2.88218">
        <ele>177.719127</ele>
        <time>2022-12-13T14:11:10.226Z</time>
      </trkpt>
      <trkpt lat="48.1153" lon="-2.88206">
        <ele>177.759077</ele>
        <time>2022-12-13T14:11:13.235Z</time>
      </trkpt>
      <trkpt lat="48.11534" lon="-2.88191">
        <ele>177.803195</ele>
        <time>2022-12-13T14:11:16.218Z</time>
      </trkpt>
      <trkpt lat="48.11539" lon="-2.88176">
        <ele>177.850623</ele>
        <time>2022-12-13T14:11:19.230Z</time>
      </trkpt>
      <trkpt lat="48.11545" lon="-2.88159">
        <ele>177.902364</ele>
        <time>2022-12-13T14:11:22.236Z</time>
      </trkpt>
      <trkpt lat="48.11552" lon="-2.88142">
        <ele>177.958609</ele>
        <time>2022-12-13T14:11:25.225Z</time>
      </trkpt>
      <trkpt lat="48.11558" lon="-2.88128">
        <ele>178.008544</ele>
        <time>2022-12-13T14:11:28.242Z</time>
      </trkpt>
      <trkpt lat="48.11565" lon="-2.88114">
        <ele>178.056759</ele>
        <time>2022-12-13T14:11:31.241Z</time>
      </trkpt>
      <trkpt lat="48.11573" lon="-2.88101">
        <ele>178.105235</ele>
        <time>2022-12-13T14:11:34.233Z</time>
      </trkpt>
      <trkpt lat="48.11582" lon="-2.88088">
        <ele>178.155744</ele>
        <time>2022-12-13T14:11:37.241Z</time>
      </trkpt>
      <trkpt lat="48.11592" lon="-2.88078">
        <ele>178.208764</ele>
        <time>2022-12-13T14:11:40.242Z</time>
      </trkpt>
      <trkpt lat="48.11603" lon="-2.88068">
        <ele>178.26428</ele>
        <time>2022-12-13T14:11:43.225Z</time>
      </trkpt>
      <trkpt lat="48.11615" lon="-2.88058">
        <ele>178.319702</ele>
        <time>2022-12-13T14:11:46.231Z</time>
      </trkpt>
      <trkpt lat="48.11626" lon="-2.88048">
        <ele>178.373269</ele>
        <time>2022-12-13T14:11:49.242Z</time>
      </trkpt>
      <trkpt lat="48.11637" lon="-2.8804">
        <ele>178.191095</ele>
        <time>2022-12-13T14:11:52.233Z</time>
      </trkpt>
      <trkpt lat="48.11647" lon="-2.88031">
        <ele>177.954804</ele>
        <time>2022-12-13T14:11:55.238Z</time>
      </trkpt>
      <trkpt lat="48.11656" lon="-2.88021">
        <ele>177.722104</ele>
        <time>2022-12-13T14:11:58.239Z</time>
      </trkpt>
      <trkpt lat="48.11665" lon="-2.8801">
        <ele>177.476341</ele>
        <time>2022-12-13T14:12:01.234Z</time>
      </trkpt>
      <trkpt lat="48.11674" lon="-2.87998">
        <ele>177.219367</ele>
        <time>2022-12-13T14:12:04.233Z</time>
      </trkpt>
      <trkpt lat="48.11682" lon="-2.87984">
        <ele>176.962572</ele>
        <time>2022-12-13T14:12:07.238Z</time>
      </trkpt>
      <trkpt lat="48.11688" lon="-2.87967">
        <ele>176.680712</ele>
        <time>2022-12-13T14:12:10.216Z</time>
      </trkpt>
      <trkpt lat="48.11695" lon="-2.87949">
        <ele>176.396781</ele>
        <time>2022-12-13T14:12:13.231Z</time>
      </trkpt>
      <trkpt lat="48.117" lon="-2.87932">
        <ele>176.135284</ele>
        <time>2022-12-13T14:12:16.217Z</time>
      </trkpt>
      <trkpt lat="48.11703" lon="-2.87916">
        <ele>175.888008</ele>
        <time>2022-12-13T14:12:19.221Z</time>
      </trkpt>
      <trkpt lat="48.11706" lon="-2.879">
        <ele>175.647654</ele>
        <time>2022-12-13T14:12:22.236Z</time>
      </trkpt>
      <trkpt lat="48.11709" lon="-2.87884">
        <ele>175.419863</ele>
        <time>2022-12-13T14:12:25.227Z</time>
      </trkpt>
      <trkpt lat="48.11712" lon="-2.87869">
        <ele>175.196667</ele>
        <time>2022-12-13T14:12:28.241Z</time>
      </trkpt>
      <trkpt lat="48.11715" lon="-2.87853">
        <ele>174.959859</ele>
        <time>2022-12-13T14:12:31.231Z</time>
      </trkpt>
      <trkpt lat="48.11719" lon="-2.87836">
        <ele>174.705876</ele>
        <time>2022-12-13T14:12:34.227Z</time>
      </trkpt>
      <trkpt lat="48.11722" lon="-2.87818">
        <ele>174.599215</ele>
        <time>2022-12-13T14:12:37.245Z</time>
      </trkpt>
      <trkpt lat="48.11726" lon="-2.87799">
        <ele>174.655947</ele>
        <time>2022-12-13T14:12:40.243Z</time>
      </trkpt>
      <trkpt lat="48.1173" lon="-2.87781">
        <ele>174.710764</ele>
        <time>2022-12-13T14:12:43.246Z</time>
      </trkpt>
      <trkpt lat="48.11733" lon="-2.87762">
        <ele>174.765883</ele>
        <time>2022-12-13T14:12:46.221Z</time>
      </trkpt>
      <trkpt lat="48.11737" lon="-2.87745">
        <ele>174.818363</ele>
        <time>2022-12-13T14:12:49.242Z</time>
      </trkpt>
      <trkpt lat="48.11741" lon="-2.87728">
        <ele>174.87102</ele>
        <time>2022-12-13T14:12:52.237Z</time>
      </trkpt>
      <trkpt lat="48.11744" lon="-2.87709">
        <ele>174.928201</ele>
        <time>2022-12-13T14:12:55.240Z</time>
      </trkpt>
      <trkpt lat="48.11748" lon="-2.87691">
        <ele>174.981907</ele>
        <time>2022-12-13T14:12:58.238Z</time>
      </trkpt>
      <trkpt lat="48.11751" lon="-2.87672">
        <ele>175.037425</ele>
        <time>2022-12-13T14:13:01.225Z</time>
      </trkpt>
      <trkpt lat="48.11755" lon="-2.87655">
        <ele>175.09033</ele>
        <time>2022-12-13T14:13:04.232Z</time>
      </trkpt>
      <trkpt lat="48.11759" lon="-2.87637">
        <ele>175.145296</ele>
        <time>2022-12-13T14:13:07.234Z</time>
      </trkpt>
      <trkpt lat="48.11762" lon="-2.87619">
        <ele>175.199738</ele>
        <time>2022-12-13T14:13:10.226Z</time>
      </trkpt>
      <trkpt lat="48.11766" lon="-2.876">
        <ele>175.254579</ele>
        <time>2022-12-13T14:13:13.240Z</time>
      </trkpt>
      <trkpt lat="48.11768" lon="-2.87585">
        <ele>175.301528</ele>
        <time>2022-12-13T14:13:16.235Z</time>
      </trkpt>
      <trkpt lat="48.11772" lon="-2.87571">
        <ele>175.343461</ele>
        <time>2022-12-13T14:13:19.238Z</time>
      </trkpt>
      <trkpt lat="48.11775" lon="-2.87554">
        <ele>175.306283</ele>
        <time>2022-12-13T14:13:22.246Z</time>
      </trkpt>
      <trkpt lat="48.11778" lon="-2.87537">
        <ele>175.25547</ele>
        <time>2022-12-13T14:13:25.234Z</time>
      </trkpt>
      <trkpt lat="48.11781" lon="-2.87518">
        <ele>175.200183</ele>
        <time>2022-12-13T14:13:28.246Z</time>
      </trkpt>
      <trkpt lat="48.11784" lon="-2.875">
        <ele>175.145704</ele>
        <time>2022-12-13T14:13:31.247Z</time>
      </trkpt>
      <trkpt lat="48.11788" lon="-2.87484">
        <ele>175.096895</ele>
        <time>2022-12-13T14:13:34.233Z</time>
      </trkpt>
      <trkpt lat="48.1179" lon="-2.8747">
        <ele>175.055438</ele>
        <time>2022-12-13T14:13:37.236Z</time>
      </trkpt>
      <trkpt lat="48.11794" lon="-2.87455">
        <ele>175.008387</ele>
        <time>2022-12-13T14:13:41.223Z</time>
      </trkpt>
      <trkpt lat="48.11797" lon="-2.87442">
        <ele>174.969179</ele>
        <time>2022-12-13T14:13:44.238Z</time>
      </trkpt>
      <trkpt lat="48.11799" lon="-2.87428">
        <ele>174.927667</ele>
        <time>2022-12-13T14:13:47.235Z</time>
      </trkpt>
      <trkpt lat="48.118" lon="-2.87412">
        <ele>174.881961</ele>
        <time>2022-12-13T14:13:50.239Z</time>
      </trkpt>
      <trkpt lat="48.11801" lon="-2.87396">
        <ele>174.836739</ele>
        <time>2022-12-13T14:13:53.244Z</time>
      </trkpt>
      <trkpt lat="48.11802" lon="-2.8738">
        <ele>174.789513</ele>
        <time>2022-12-13T14:13:56.252Z</time>
      </trkpt>
      <trkpt lat="48.11802" lon="-2.87363">
        <ele>174.742266</ele>
        <time>2022-12-13T14:13:59.232Z</time>
      </trkpt>
      <trkpt lat="48.11802" lon="-2.87348">
        <ele>174.696426</ele>
        <time>2022-12-13T14:14:02.239Z</time>
      </trkpt>
      <trkpt lat="48.118" lon="-2.87332">
        <ele>174.652093</ele>
        <time>2022-12-13T14:14:05.244Z</time>
      </trkpt>
      <trkpt lat="48.11797" lon="-2.87317">
        <ele>174.606731</ele>
        <time>2022-12-13T14:14:08.229Z</time>
      </trkpt>
      <trkpt lat="48.11795" lon="-2.87304">
        <ele>174.573773</ele>
        <time>2022-12-13T14:14:11.242Z</time>
      </trkpt>
      <trkpt lat="48.11791" lon="-2.87287">
        <ele>174.569646</ele>
        <time>2022-12-13T14:14:15.239Z</time>
      </trkpt>
      <trkpt lat="48.11787" lon="-2.87272">
        <ele>174.565724</ele>
        <time>2022-12-13T14:14:19.244Z</time>
      </trkpt>
      <trkpt lat="48.11783" lon="-2.87259">
        <ele>174.562257</ele>
        <time>2022-12-13T14:14:23.237Z</time>
      </trkpt>
      <trkpt lat="48.11781" lon="-2.87245">
        <ele>174.558779</ele>
        <time>2022-12-13T14:14:31.224Z</time>
      </trkpt>
      <trkpt lat="48.11775" lon="-2.87233">
        <ele>174.555348</ele>
        <time>2022-12-13T14:14:42.223Z</time>
      </trkpt>
      <trkpt lat="48.11773" lon="-2.87219">
        <ele>174.551968</ele>
        <time>2022-12-13T14:14:52.236Z</time>
      </trkpt>
      <trkpt lat="48.11769" lon="-2.87207">
        <ele>174.54872</ele>
        <time>2022-12-13T14:15:07.225Z</time>
      </trkpt>
      <trkpt lat="48.11767" lon="-2.87191">
        <ele>174.544657</ele>
        <time>2022-12-13T14:15:11.238Z</time>
      </trkpt>
      <trkpt lat="48.11765" lon="-2.87174">
        <ele>174.540618</ele>
        <time>2022-12-13T14:15:14.235Z</time>
      </trkpt>
      <trkpt lat="48.11764" lon="-2.87155">
        <ele>174.536033</ele>
        <time>2022-12-13T14:15:17.243Z</time>
      </trkpt>
      <trkpt lat="48.11764" lon="-2.87136">
        <ele>174.531431</ele>
        <time>2022-12-13T14:15:20.239Z</time>
      </trkpt>
      <trkpt lat="48.11765" lon="-2.87119">
        <ele>174.527425</ele>
        <time>2022-12-13T14:15:23.243Z</time>
      </trkpt>
      <trkpt lat="48.11766" lon="-2.87102">
        <ele>174.5234</ele>
        <time>2022-12-13T14:15:26.219Z</time>
      </trkpt>
      <trkpt lat="48.11768" lon="-2.87085">
        <ele>174.519293</ele>
        <time>2022-12-13T14:15:29.239Z</time>
      </trkpt>
      <trkpt lat="48.1177" lon="-2.87069">
        <ele>174.515264</ele>
        <time>2022-12-13T14:15:33.232Z</time>
      </trkpt>
      <trkpt lat="48.11771" lon="-2.87051">
        <ele>174.511044</ele>
        <time>2022-12-13T14:15:37.241Z</time>
      </trkpt>
      <trkpt lat="48.11774" lon="-2.87036">
        <ele>174.558654</ele>
        <time>2022-12-13T14:15:40.247Z</time>
      </trkpt>
      <trkpt lat="48.11775" lon="-2.87017">
        <ele>174.640674</ele>
        <time>2022-12-13T14:15:43.241Z</time>
      </trkpt>
      <trkpt lat="48.11776" lon="-2.87001">
        <ele>174.710307</ele>
        <time>2022-12-13T14:15:46.226Z</time>
      </trkpt>
      <trkpt lat="48.11778" lon="-2.86984">
        <ele>174.783068</ele>
        <time>2022-12-13T14:15:49.240Z</time>
      </trkpt>
      <trkpt lat="48.11781" lon="-2.86968">
        <ele>174.854488</ele>
        <time>2022-12-13T14:15:52.239Z</time>
      </trkpt>
      <trkpt lat="48.11782" lon="-2.8695">
        <ele>174.933974</ele>
        <time>2022-12-13T14:15:55.248Z</time>
      </trkpt>
      <trkpt lat="48.11784" lon="-2.86932">
        <ele>175.010626</ele>
        <time>2022-12-13T14:15:58.253Z</time>
      </trkpt>
      <trkpt lat="48.11786" lon="-2.86916">
        <ele>175.08328</ele>
        <time>2022-12-13T14:16:01.237Z</time>
      </trkpt>
      <trkpt lat="48.11788" lon="-2.86899">
        <ele>175.15864</ele>
        <time>2022-12-13T14:16:04.243Z</time>
      </trkpt>
      <trkpt lat="48.11792" lon="-2.86882">
        <ele>175.234666</ele>
        <time>2022-12-13T14:16:07.239Z</time>
      </trkpt>
      <trkpt lat="48.11794" lon="-2.86864">
        <ele>175.314248</ele>
        <time>2022-12-13T14:16:10.246Z</time>
      </trkpt>
      <trkpt lat="48.11797" lon="-2.86851">
        <ele>175.37408</ele>
        <time>2022-12-13T14:16:12.234Z</time>
      </trkpt>
      <trkpt lat="48.11801" lon="-2.86832">
        <ele>175.459116</ele>
        <time>2022-12-13T14:16:15.239Z</time>
      </trkpt>
      <trkpt lat="48.11805" lon="-2.86814">
        <ele>175.541708</ele>
        <time>2022-12-13T14:16:18.242Z</time>
      </trkpt>
      <trkpt lat="48.11809" lon="-2.86795">
        <ele>175.629206</ele>
        <time>2022-12-13T14:16:21.233Z</time>
      </trkpt>
      <trkpt lat="48.11812" lon="-2.86782">
        <ele>175.651598</ele>
        <time>2022-12-13T14:16:23.232Z</time>
      </trkpt>
      <trkpt lat="48.11816" lon="-2.86769">
        <ele>175.556293</ele>
        <time>2022-12-13T14:16:25.236Z</time>
      </trkpt>
      <trkpt lat="48.1182" lon="-2.86751">
        <ele>175.42918</ele>
        <time>2022-12-13T14:16:28.245Z</time>
      </trkpt>
      <trkpt lat="48.11823" lon="-2.86737">
        <ele>175.331351</ele>
        <time>2022-12-13T14:16:31.244Z</time>
      </trkpt>
      <trkpt lat="48.11829" lon="-2.8672">
        <ele>175.200999</ele>
        <time>2022-12-13T14:16:34.241Z</time>
      </trkpt>
      <trkpt lat="48.11834" lon="-2.86704">
        <ele>175.08537</ele>
        <time>2022-12-13T14:16:37.235Z</time>
      </trkpt>
      <trkpt lat="48.11842" lon="-2.8669">
        <ele>174.957075</ele>
        <time>2022-12-13T14:16:40.236Z</time>
      </trkpt>
      <trkpt lat="48.11848" lon="-2.86679">
        <ele>174.862565</ele>
        <time>2022-12-13T14:16:42.242Z</time>
      </trkpt>
      <trkpt lat="48.11856" lon="-2.86666">
        <ele>174.743434</ele>
        <time>2022-12-13T14:16:45.231Z</time>
      </trkpt>
      <trkpt lat="48.11862" lon="-2.86654">
        <ele>174.640058</ele>
        <time>2022-12-13T14:16:48.233Z</time>
      </trkpt>
      <trkpt lat="48.11869" lon="-2.86641">
        <ele>174.527978</ele>
        <time>2022-12-13T14:16:51.257Z</time>
      </trkpt>
      <trkpt lat="48.11877" lon="-2.86627">
        <ele>174.40588</ele>
        <time>2022-12-13T14:16:54.237Z</time>
      </trkpt>
      <trkpt lat="48.11886" lon="-2.86613">
        <ele>174.280618</ele>
        <time>2022-12-13T14:16:57.239Z</time>
      </trkpt>
      <trkpt lat="48.11894" lon="-2.86599">
        <ele>174.151654</ele>
        <time>2022-12-13T14:17:00.246Z</time>
      </trkpt>
      <trkpt lat="48.11903" lon="-2.86586">
        <ele>174.029202</ele>
        <time>2022-12-13T14:17:03.231Z</time>
      </trkpt>
      <trkpt lat="48.1191" lon="-2.86576">
        <ele>173.930477</ele>
        <time>2022-12-13T14:17:05.240Z</time>
      </trkpt>
      <trkpt lat="48.11918" lon="-2.86563">
        <ele>173.840502</ele>
        <time>2022-12-13T14:17:08.249Z</time>
      </trkpt>
      <trkpt lat="48.11926" lon="-2.86548">
        <ele>173.780655</ele>
        <time>2022-12-13T14:17:11.222Z</time>
      </trkpt>
      <trkpt lat="48.11933" lon="-2.86535">
        <ele>173.730938</ele>
        <time>2022-12-13T14:17:14.242Z</time>
      </trkpt>
      <trkpt lat="48.11941" lon="-2.86522">
        <ele>173.677091</ele>
        <time>2022-12-13T14:17:17.244Z</time>
      </trkpt>
      <trkpt lat="48.11947" lon="-2.8651">
        <ele>173.629507</ele>
        <time>2022-12-13T14:17:20.220Z</time>
      </trkpt>
      <trkpt lat="48.11953" lon="-2.86498">
        <ele>173.584027</ele>
        <time>2022-12-13T14:17:23.245Z</time>
      </trkpt>
      <trkpt lat="48.11959" lon="-2.86485">
        <ele>173.535736</ele>
        <time>2022-12-13T14:17:26.242Z</time>
      </trkpt>
      <trkpt lat="48.11965" lon="-2.8647">
        <ele>173.481783</ele>
        <time>2022-12-13T14:17:29.245Z</time>
      </trkpt>
      <trkpt lat="48.1197" lon="-2.86453">
        <ele>173.423346</ele>
        <time>2022-12-13T14:17:32.245Z</time>
      </trkpt>
      <trkpt lat="48.11974" lon="-2.86435">
        <ele>173.365166</ele>
        <time>2022-12-13T14:17:35.247Z</time>
      </trkpt>
      <trkpt lat="48.11976" lon="-2.86416">
        <ele>173.306884</ele>
        <time>2022-12-13T14:17:38.233Z</time>
      </trkpt>
      <trkpt lat="48.11978" lon="-2.86398">
        <ele>173.249995</ele>
        <time>2022-12-13T14:17:41.238Z</time>
      </trkpt>
      <trkpt lat="48.11979" lon="-2.8638">
        <ele>173.193248</ele>
        <time>2022-12-13T14:17:44.245Z</time>
      </trkpt>
      <trkpt lat="48.1198" lon="-2.86363">
        <ele>173.143477</ele>
        <time>2022-12-13T14:17:47.249Z</time>
      </trkpt>
      <trkpt lat="48.11978" lon="-2.86347">
        <ele>173.090974</ele>
        <time>2022-12-13T14:17:50.250Z</time>
      </trkpt>
      <trkpt lat="48.11975" lon="-2.86329">
        <ele>173.039715</ele>
        <time>2022-12-13T14:17:53.234Z</time>
      </trkpt>
      <trkpt lat="48.11971" lon="-2.86312">
        <ele>173.195587</ele>
        <time>2022-12-13T14:17:56.243Z</time>
      </trkpt>
      <trkpt lat="48.11967" lon="-2.86298">
        <ele>173.331379</ele>
        <time>2022-12-13T14:17:59.241Z</time>
      </trkpt>
      <trkpt lat="48.11963" lon="-2.86283">
        <ele>173.474797</ele>
        <time>2022-12-13T14:18:02.225Z</time>
      </trkpt>
      <trkpt lat="48.1196" lon="-2.86268">
        <ele>173.616687</ele>
        <time>2022-12-13T14:18:05.239Z</time>
      </trkpt>
      <trkpt lat="48.11953" lon="-2.86255">
        <ele>173.770756</ele>
        <time>2022-12-13T14:18:08.238Z</time>
      </trkpt>
      <trkpt lat="48.11946" lon="-2.86241">
        <ele>173.926094</ele>
        <time>2022-12-13T14:18:11.242Z</time>
      </trkpt>
      <trkpt lat="48.11939" lon="-2.86225">
        <ele>174.097691</ele>
        <time>2022-12-13T14:18:14.223Z</time>
      </trkpt>
      <trkpt lat="48.11932" lon="-2.86208">
        <ele>174.27016</ele>
        <time>2022-12-13T14:18:17.241Z</time>
      </trkpt>
      <trkpt lat="48.11927" lon="-2.8619">
        <ele>174.446134</ele>
        <time>2022-12-13T14:18:20.232Z</time>
      </trkpt>
      <trkpt lat="48.11922" lon="-2.86172">
        <ele>174.617423</ele>
        <time>2022-12-13T14:18:23.242Z</time>
      </trkpt>
      <trkpt lat="48.1192" lon="-2.86159">
        <ele>174.739174</ele>
        <time>2022-12-13T14:18:25.241Z</time>
      </trkpt>
      <trkpt lat="48.11918" lon="-2.8614">
        <ele>174.915681</ele>
        <time>2022-12-13T14:18:28.241Z</time>
      </trkpt>
      <trkpt lat="48.11919" lon="-2.86123">
        <ele>175.064843</ele>
        <time>2022-12-13T14:18:31.232Z</time>
      </trkpt>
      <trkpt lat="48.11919" lon="-2.86107">
        <ele>175.203678</ele>
        <time>2022-12-13T14:18:34.246Z</time>
      </trkpt>
      <trkpt lat="48.11921" lon="-2.86091">
        <ele>175.351166</ele>
        <time>2022-12-13T14:18:37.252Z</time>
      </trkpt>
      <trkpt lat="48.11924" lon="-2.86074">
        <ele>175.435937</ele>
        <time>2022-12-13T14:18:40.239Z</time>
      </trkpt>
      <trkpt lat="48.11928" lon="-2.86056">
        <ele>175.417987</ele>
        <time>2022-12-13T14:18:43.230Z</time>
      </trkpt>
      <trkpt lat="48.11932" lon="-2.86037">
        <ele>175.399815</ele>
        <time>2022-12-13T14:18:46.248Z</time>
      </trkpt>
      <trkpt lat="48.11937" lon="-2.86019">
        <ele>175.381534</ele>
        <time>2022-12-13T14:18:49.238Z</time>
      </trkpt>
      <trkpt lat="48.11941" lon="-2.86001">
        <ele>175.363939</ele>
        <time>2022-12-13T14:18:52.227Z</time>
      </trkpt>
      <trkpt lat="48.11945" lon="-2.85984">
        <ele>175.34687</ele>
        <time>2022-12-13T14:18:55.243Z</time>
      </trkpt>
      <trkpt lat="48.11949" lon="-2.85966">
        <ele>175.328835</ele>
        <time>2022-12-13T14:18:58.250Z</time>
      </trkpt>
      <trkpt lat="48.11953" lon="-2.85948">
        <ele>175.311505</ele>
        <time>2022-12-13T14:19:01.243Z</time>
      </trkpt>
      <trkpt lat="48.11957" lon="-2.85932">
        <ele>175.295585</ele>
        <time>2022-12-13T14:19:04.239Z</time>
      </trkpt>
      <trkpt lat="48.1196" lon="-2.85918">
        <ele>175.281908</ele>
        <time>2022-12-13T14:19:07.245Z</time>
      </trkpt>
      <trkpt lat="48.11964" lon="-2.85905">
        <ele>175.268683</ele>
        <time>2022-12-13T14:19:10.249Z</time>
      </trkpt>
      <trkpt lat="48.11968" lon="-2.85889">
        <ele>175.253418</ele>
        <time>2022-12-13T14:19:13.259Z</time>
      </trkpt>
      <trkpt lat="48.11971" lon="-2.85874">
        <ele>175.238201</ele>
        <time>2022-12-13T14:19:16.251Z</time>
      </trkpt>
      <trkpt lat="48.11975" lon="-2.85856">
        <ele>175.221344</ele>
        <time>2022-12-13T14:19:19.252Z</time>
      </trkpt>
      <trkpt lat="48.11979" lon="-2.85839">
        <ele>175.204234</ele>
        <time>2022-12-13T14:19:22.234Z</time>
      </trkpt>
      <trkpt lat="48.11983" lon="-2.85822">
        <ele>175.126323</ele>
        <time>2022-12-13T14:19:25.254Z</time>
      </trkpt>
      <trkpt lat="48.11985" lon="-2.85804">
        <ele>174.90584</ele>
        <time>2022-12-13T14:19:28.240Z</time>
      </trkpt>
      <trkpt lat="48.11987" lon="-2.85788">
        <ele>174.712077</ele>
        <time>2022-12-13T14:19:31.230Z</time>
      </trkpt>
      <trkpt lat="48.11987" lon="-2.85773">
        <ele>174.526199</ele>
        <time>2022-12-13T14:19:34.247Z</time>
      </trkpt>
      <trkpt lat="48.11988" lon="-2.85756">
        <ele>174.324582</ele>
        <time>2022-12-13T14:19:37.252Z</time>
      </trkpt>
      <trkpt lat="48.11987" lon="-2.85739">
        <ele>174.112782</ele>
        <time>2022-12-13T14:19:40.250Z</time>
      </trkpt>
      <trkpt lat="48.11985" lon="-2.85721">
        <ele>173.897725</ele>
        <time>2022-12-13T14:19:43.251Z</time>
      </trkpt>
      <trkpt lat="48.11982" lon="-2.85704">
        <ele>173.682548</ele>
        <time>2022-12-13T14:19:46.249Z</time>
      </trkpt>
      <trkpt lat="48.11977" lon="-2.85687">
        <ele>173.460648</ele>
        <time>2022-12-13T14:19:49.233Z</time>
      </trkpt>
      <trkpt lat="48.11972" lon="-2.8567">
        <ele>173.238734</ele>
        <time>2022-12-13T14:19:52.225Z</time>
      </trkpt>
      <trkpt lat="48.11968" lon="-2.85654">
        <ele>173.014985</ele>
        <time>2022-12-13T14:19:55.249Z</time>
      </trkpt>
      <trkpt lat="48.11963" lon="-2.85636">
        <ele>172.789515</ele>
        <time>2022-12-13T14:19:58.228Z</time>
      </trkpt>
      <trkpt lat="48.1196" lon="-2.85624">
        <ele>172.62467</ele>
        <time>2022-12-13T14:20:00.226Z</time>
      </trkpt>
      <trkpt lat="48.11955" lon="-2.85605">
        <ele>172.380045</ele>
        <time>2022-12-13T14:20:03.277Z</time>
      </trkpt>
      <trkpt lat="48.1195" lon="-2.85586">
        <ele>172.136984</ele>
        <time>2022-12-13T14:20:06.239Z</time>
      </trkpt>
      <trkpt lat="48.11945" lon="-2.85569">
        <ele>171.91824</ele>
        <time>2022-12-13T14:20:09.250Z</time>
      </trkpt>
      <trkpt lat="48.11941" lon="-2.85555">
        <ele>171.841146</ele>
        <time>2022-12-13T14:20:12.253Z</time>
      </trkpt>
      <trkpt lat="48.11937" lon="-2.85539">
        <ele>171.760074</ele>
        <time>2022-12-13T14:20:15.230Z</time>
      </trkpt>
      <trkpt lat="48.11933" lon="-2.85525">
        <ele>171.685029</ele>
        <time>2022-12-13T14:20:18.249Z</time>
      </trkpt>
      <trkpt lat="48.11928" lon="-2.85508">
        <ele>171.599452</ele>
        <time>2022-12-13T14:20:21.246Z</time>
      </trkpt>
      <trkpt lat="48.11924" lon="-2.85496">
        <ele>171.533008</ele>
        <time>2022-12-13T14:20:23.241Z</time>
      </trkpt>
      <trkpt lat="48.11919" lon="-2.85478">
        <ele>171.439079</ele>
        <time>2022-12-13T14:20:26.251Z</time>
      </trkpt>
      <trkpt lat="48.11914" lon="-2.85459">
        <ele>171.340607</ele>
        <time>2022-12-13T14:20:29.248Z</time>
      </trkpt>
      <trkpt lat="48.1191" lon="-2.8544">
        <ele>171.247651</ele>
        <time>2022-12-13T14:20:32.250Z</time>
      </trkpt>
      <trkpt lat="48.11907" lon="-2.85424">
        <ele>171.166802</ele>
        <time>2022-12-13T14:20:35.239Z</time>
      </trkpt>
      <trkpt lat="48.11905" lon="-2.85406">
        <ele>171.078674</ele>
        <time>2022-12-13T14:20:38.238Z</time>
      </trkpt>
      <trkpt lat="48.11903" lon="-2.85386">
        <ele>170.983637</ele>
        <time>2022-12-13T14:20:41.240Z</time>
      </trkpt>
      <trkpt lat="48.11902" lon="-2.85367">
        <ele>170.891961</ele>
        <time>2022-12-13T14:20:44.244Z</time>
      </trkpt>
      <trkpt lat="48.119" lon="-2.85348">
        <ele>170.798149</ele>
        <time>2022-12-13T14:20:47.325Z</time>
      </trkpt>
      <trkpt lat="48.11899" lon="-2.85329">
        <ele>170.705581</ele>
        <time>2022-12-13T14:20:50.250Z</time>
      </trkpt>
      <trkpt lat="48.11898" lon="-2.85311">
        <ele>170.629593</ele>
        <time>2022-12-13T14:20:53.226Z</time>
      </trkpt>
      <trkpt lat="48.11897" lon="-2.85294">
        <ele>170.67404</ele>
        <time>2022-12-13T14:20:56.226Z</time>
      </trkpt>
      <trkpt lat="48.11896" lon="-2.85275">
        <ele>170.72022</ele>
        <time>2022-12-13T14:20:59.231Z</time>
      </trkpt>
      <trkpt lat="48.11895" lon="-2.85257">
        <ele>170.766367</ele>
        <time>2022-12-13T14:21:02.231Z</time>
      </trkpt>
      <trkpt lat="48.11894" lon="-2.85238">
        <ele>170.814794</ele>
        <time>2022-12-13T14:21:05.251Z</time>
      </trkpt>
      <trkpt lat="48.11893" lon="-2.85219">
        <ele>170.864011</ele>
        <time>2022-12-13T14:21:08.251Z</time>
      </trkpt>
      <trkpt lat="48.11892" lon="-2.85199">
        <ele>170.914971</ele>
        <time>2022-12-13T14:21:11.253Z</time>
      </trkpt>
      <trkpt lat="48.1189" lon="-2.8518">
        <ele>170.963631</ele>
        <time>2022-12-13T14:21:14.257Z</time>
      </trkpt>
      <trkpt lat="48.11888" lon="-2.85163">
        <ele>171.006247</ele>
        <time>2022-12-13T14:21:17.239Z</time>
      </trkpt>
      <trkpt lat="48.11886" lon="-2.85146">
        <ele>171.050425</ele>
        <time>2022-12-13T14:21:20.233Z</time>
      </trkpt>
      <trkpt lat="48.11883" lon="-2.85129">
        <ele>171.0955</ele>
        <time>2022-12-13T14:21:23.251Z</time>
      </trkpt>
      <trkpt lat="48.11879" lon="-2.85113">
        <ele>171.138303</ele>
        <time>2022-12-13T14:21:26.264Z</time>
      </trkpt>
      <trkpt lat="48.11874" lon="-2.85097">
        <ele>171.183519</ele>
        <time>2022-12-13T14:21:29.234Z</time>
      </trkpt>
      <trkpt lat="48.1187" lon="-2.85085">
        <ele>171.2179</ele>
        <time>2022-12-13T14:21:31.255Z</time>
      </trkpt>
      <trkpt lat="48.11863" lon="-2.85069">
        <ele>171.266322</ele>
        <time>2022-12-13T14:21:34.240Z</time>
      </trkpt>
      <trkpt lat="48.11854" lon="-2.85055">
        <ele>171.299797</ele>
        <time>2022-12-13T14:21:37.247Z</time>
      </trkpt>
      <trkpt lat="48.11846" lon="-2.85042">
        <ele>171.209686</ele>
        <time>2022-12-13T14:21:40.237Z</time>
      </trkpt>
      <trkpt lat="48.11839" lon="-2.85032">
        <ele>171.131789</ele>
        <time>2022-12-13T14:21:43.250Z</time>
      </trkpt>
      <trkpt lat="48.11831" lon="-2.85022">
        <ele>171.05176</ele>
        <time>2022-12-13T14:21:46.228Z</time>
      </trkpt>
      <trkpt lat="48.11821" lon="-2.85012">
        <ele>170.961211</ele>
        <time>2022-12-13T14:21:49.249Z</time>
      </trkpt>
      <trkpt lat="48.1181" lon="-2.85003">
        <ele>170.867929</ele>
        <time>2022-12-13T14:21:52.250Z</time>
      </trkpt>
      <trkpt lat="48.11799" lon="-2.84995">
        <ele>170.773207</ele>
        <time>2022-12-13T14:21:55.221Z</time>
      </trkpt>
      <trkpt lat="48.11788" lon="-2.8499">
        <ele>170.682732</ele>
        <time>2022-12-13T14:21:58.252Z</time>
      </trkpt>
      <trkpt lat="48.11776" lon="-2.84986">
        <ele>170.586805</ele>
        <time>2022-12-13T14:22:01.227Z</time>
      </trkpt>
      <trkpt lat="48.11763" lon="-2.84983">
        <ele>170.486572</ele>
        <time>2022-12-13T14:22:04.298Z</time>
      </trkpt>
      <trkpt lat="48.1175" lon="-2.84982">
        <ele>170.387036</ele>
        <time>2022-12-13T14:22:07.250Z</time>
      </trkpt>
      <trkpt lat="48.11737" lon="-2.84979">
        <ele>170.282235</ele>
        <time>2022-12-13T14:22:10.244Z</time>
      </trkpt>
      <trkpt lat="48.11724" lon="-2.84976">
        <ele>170.181241</ele>
        <time>2022-12-13T14:22:13.248Z</time>
      </trkpt>
      <trkpt lat="48.1171" lon="-2.84974">
        <ele>170.074577</ele>
        <time>2022-12-13T14:22:16.252Z</time>
      </trkpt>
      <trkpt lat="48.11697" lon="-2.84972">
        <ele>169.978061</ele>
        <time>2022-12-13T14:22:19.252Z</time>
      </trkpt>
      <trkpt lat="48.11685" lon="-2.8497">
        <ele>169.882434</ele>
        <time>2022-12-13T14:22:22.248Z</time>
      </trkpt>
      <trkpt lat="48.11673" lon="-2.84968">
        <ele>169.798833</ele>
        <time>2022-12-13T14:22:25.252Z</time>
      </trkpt>
      <trkpt lat="48.11662" lon="-2.84967">
        <ele>169.712485</ele>
        <time>2022-12-13T14:22:28.245Z</time>
      </trkpt>
      <trkpt lat="48.1165" lon="-2.84965">
        <ele>169.623202</ele>
        <time>2022-12-13T14:22:31.249Z</time>
      </trkpt>
      <trkpt lat="48.11638" lon="-2.84963">
        <ele>169.537355</ele>
        <time>2022-12-13T14:22:34.249Z</time>
      </trkpt>
      <trkpt lat="48.11626" lon="-2.8496">
        <ele>169.444433</ele>
        <time>2022-12-13T14:22:37.320Z</time>
      </trkpt>
      <trkpt lat="48.11615" lon="-2.84956">
        <ele>169.362622</ele>
        <time>2022-12-13T14:22:40.233Z</time>
      </trkpt>
      <trkpt lat="48.11603" lon="-2.84955">
        <ele>169.276966</ele>
        <time>2022-12-13T14:22:43.219Z</time>
      </trkpt>
      <trkpt lat="48.11592" lon="-2.84953">
        <ele>169.195707</ele>
        <time>2022-12-13T14:22:46.250Z</time>
      </trkpt>
      <trkpt lat="48.1158" lon="-2.84952">
        <ele>169.104145</ele>
        <time>2022-12-13T14:22:49.251Z</time>
      </trkpt>
      <trkpt lat="48.11567" lon="-2.8495">
        <ele>169.010199</ele>
        <time>2022-12-13T14:22:52.251Z</time>
      </trkpt>
      <trkpt lat="48.11554" lon="-2.84948">
        <ele>168.916087</ele>
        <time>2022-12-13T14:22:55.235Z</time>
      </trkpt>
      <trkpt lat="48.11544" lon="-2.84946">
        <ele>168.839906</ele>
        <time>2022-12-13T14:22:58.251Z</time>
      </trkpt>
      <trkpt lat="48.11534" lon="-2.84944">
        <ele>168.764749</ele>
        <time>2022-12-13T14:23:01.258Z</time>
      </trkpt>
      <trkpt lat="48.11523" lon="-2.84941">
        <ele>168.683039</ele>
        <time>2022-12-13T14:23:04.301Z</time>
      </trkpt>
      <trkpt lat="48.11511" lon="-2.84939">
        <ele>168.567682</ele>
        <time>2022-12-13T14:23:07.251Z</time>
      </trkpt>
      <trkpt lat="48.11498" lon="-2.84935">
        <ele>168.256814</ele>
        <time>2022-12-13T14:23:10.246Z</time>
      </trkpt>
      <trkpt lat="48.11486" lon="-2.84929">
        <ele>167.956125</ele>
        <time>2022-12-13T14:23:13.251Z</time>
      </trkpt>
      <trkpt lat="48.11475" lon="-2.84922">
        <ele>167.680077</ele>
        <time>2022-12-13T14:23:16.233Z</time>
      </trkpt>
      <trkpt lat="48.11464" lon="-2.84915">
        <ele>167.386616</ele>
        <time>2022-12-13T14:23:19.252Z</time>
      </trkpt>
      <trkpt lat="48.11452" lon="-2.84906">
        <ele>167.073582</ele>
        <time>2022-12-13T14:23:22.251Z</time>
      </trkpt>
      <trkpt lat="48.11441" lon="-2.84897">
        <ele>166.755456</ele>
        <time>2022-12-13T14:23:25.251Z</time>
      </trkpt>
      <trkpt lat="48.1143" lon="-2.84885">
        <ele>166.44325</ele>
        <time>2022-12-13T14:23:28.253Z</time>
      </trkpt>
      <trkpt lat="48.1142" lon="-2.84872">
        <ele>166.131407</ele>
        <time>2022-12-13T14:23:31.308Z</time>
      </trkpt>
      <trkpt lat="48.11411" lon="-2.84858">
        <ele>165.826428</ele>
        <time>2022-12-13T14:23:34.250Z</time>
      </trkpt>
      <trkpt lat="48.11404" lon="-2.84845">
        <ele>165.555541</ele>
        <time>2022-12-13T14:23:37.232Z</time>
      </trkpt>
      <trkpt lat="48.11397" lon="-2.84833">
        <ele>165.306851</ele>
        <time>2022-12-13T14:23:40.254Z</time>
      </trkpt>
      <trkpt lat="48.1139" lon="-2.84821">
        <ele>165.047204</ele>
        <time>2022-12-13T14:23:43.248Z</time>
      </trkpt>
      <trkpt lat="48.11384" lon="-2.84807">
        <ele>164.777083</ele>
        <time>2022-12-13T14:23:46.246Z</time>
      </trkpt>
      <trkpt lat="48.11377" lon="-2.84793">
        <ele>164.510934</ele>
        <time>2022-12-13T14:23:49.250Z</time>
      </trkpt>
      <trkpt lat="48.11373" lon="-2.8478">
        <ele>164.341154</ele>
        <time>2022-12-13T14:23:53.292Z</time>
      </trkpt>
      <trkpt lat="48.11368" lon="-2.84763">
        <ele>164.506872</ele>
        <time>2022-12-13T14:23:56.249Z</time>
      </trkpt>
      <trkpt lat="48.11366" lon="-2.84748">
        <ele>164.641806</ele>
        <time>2022-12-13T14:23:59.228Z</time>
      </trkpt>
      <trkpt lat="48.11363" lon="-2.84733">
        <ele>164.779802</ele>
        <time>2022-12-13T14:24:02.249Z</time>
      </trkpt>
      <trkpt lat="48.11361" lon="-2.84718">
        <ele>164.924973</ele>
        <time>2022-12-13T14:24:05.253Z</time>
      </trkpt>
      <trkpt lat="48.11359" lon="-2.84703">
        <ele>165.057545</ele>
        <time>2022-12-13T14:24:08.251Z</time>
      </trkpt>
      <trkpt lat="48.11359" lon="-2.84688">
        <ele>165.191588</ele>
        <time>2022-12-13T14:24:11.252Z</time>
      </trkpt>
      <trkpt lat="48.11357" lon="-2.84672">
        <ele>165.343529</ele>
        <time>2022-12-13T14:24:14.248Z</time>
      </trkpt>
      <trkpt lat="48.11355" lon="-2.84653">
        <ele>165.509428</ele>
        <time>2022-12-13T14:24:17.246Z</time>
      </trkpt>
      <trkpt lat="48.11353" lon="-2.84636">
        <ele>165.670798</ele>
        <time>2022-12-13T14:24:20.329Z</time>
      </trkpt>
      <trkpt lat="48.11352" lon="-2.84617">
        <ele>165.835164</ele>
        <time>2022-12-13T14:24:23.251Z</time>
      </trkpt>
      <trkpt lat="48.11351" lon="-2.84602">
        <ele>165.976895</ele>
        <time>2022-12-13T14:24:26.229Z</time>
      </trkpt>
      <trkpt lat="48.1135" lon="-2.84583">
        <ele>166.146464</ele>
        <time>2022-12-13T14:24:29.245Z</time>
      </trkpt>
      <trkpt lat="48.11348" lon="-2.84564">
        <ele>166.315507</ele>
        <time>2022-12-13T14:24:32.249Z</time>
      </trkpt>
      <trkpt lat="48.11346" lon="-2.84547">
        <ele>166.478839</ele>
        <time>2022-12-13T14:24:35.250Z</time>
      </trkpt>
      <trkpt lat="48.11343" lon="-2.84529">
        <ele>166.641846</ele>
        <time>2022-12-13T14:24:38.231Z</time>
      </trkpt>
      <trkpt lat="48.11341" lon="-2.84513">
        <ele>166.862483</ele>
        <time>2022-12-13T14:24:41.250Z</time>
      </trkpt>
      <trkpt lat="48.1134" lon="-2.84496">
        <ele>167.230985</ele>
        <time>2022-12-13T14:24:44.246Z</time>
      </trkpt>
      <trkpt lat="48.11338" lon="-2.84478">
        <ele>167.629461</ele>
        <time>2022-12-13T14:24:44.857Z</time>
      </trkpt>
      <trkpt lat="48.11338" lon="-2.84459">
        <ele>168.038529</ele>
        <time>2022-12-13T14:24:47.846Z</time>
      </trkpt>
      <trkpt lat="48.11339" lon="-2.84441">
        <ele>168.437406</ele>
        <time>2022-12-13T14:24:51.018Z</time>
      </trkpt>
      <trkpt lat="48.1134" lon="-2.84428">
        <ele>168.735242</ele>
        <time>2022-12-13T14:24:52.854Z</time>
      </trkpt>
      <trkpt lat="48.11342" lon="-2.84409">
        <ele>169.145087</ele>
        <time>2022-12-13T14:24:55.845Z</time>
      </trkpt>
      <trkpt lat="48.11345" lon="-2.84393">
        <ele>169.50681</ele>
        <time>2022-12-13T14:24:58.854Z</time>
      </trkpt>
      <trkpt lat="48.11348" lon="-2.84377">
        <ele>169.878121</ele>
        <time>2022-12-13T14:25:02.027Z</time>
      </trkpt>
      <trkpt lat="48.11352" lon="-2.8436">
        <ele>170.267167</ele>
        <time>2022-12-13T14:25:04.847Z</time>
      </trkpt>
      <trkpt lat="48.11356" lon="-2.84345">
        <ele>170.618925</ele>
        <time>2022-12-13T14:25:07.850Z</time>
      </trkpt>
      <trkpt lat="48.1136" lon="-2.84332">
        <ele>170.924495</ele>
        <time>2022-12-13T14:25:10.842Z</time>
      </trkpt>
      <trkpt lat="48.11365" lon="-2.84319">
        <ele>171.268869</ele>
        <time>2022-12-13T14:25:13.851Z</time>
      </trkpt>
      <trkpt lat="48.1137" lon="-2.84305">
        <ele>171.614589</ele>
        <time>2022-12-13T14:25:16.866Z</time>
      </trkpt>
      <trkpt lat="48.11377" lon="-2.8429">
        <ele>172.011143</ele>
        <time>2022-12-13T14:25:19.842Z</time>
      </trkpt>
      <trkpt lat="48.11384" lon="-2.84275">
        <ele>172.413156</ele>
        <time>2022-12-13T14:25:22.870Z</time>
      </trkpt>
      <trkpt lat="48.11391" lon="-2.84262">
        <ele>172.664946</ele>
        <time>2022-12-13T14:25:25.878Z</time>
      </trkpt>
      <trkpt lat="48.114" lon="-2.84248">
        <ele>172.757561</ele>
        <time>2022-12-13T14:25:28.848Z</time>
      </trkpt>
      <trkpt lat="48.11407" lon="-2.84234">
        <ele>172.843727</ele>
        <time>2022-12-13T14:25:31.869Z</time>
      </trkpt>
      <trkpt lat="48.11414" lon="-2.8422">
        <ele>172.92858</ele>
        <time>2022-12-13T14:25:34.868Z</time>
      </trkpt>
      <trkpt lat="48.1142" lon="-2.84204">
        <ele>173.018735</ele>
        <time>2022-12-13T14:25:37.869Z</time>
      </trkpt>
      <trkpt lat="48.11427" lon="-2.84188">
        <ele>173.109694</ele>
        <time>2022-12-13T14:25:40.866Z</time>
      </trkpt>
      <trkpt lat="48.11434" lon="-2.84172">
        <ele>173.204698</ele>
        <time>2022-12-13T14:25:43.868Z</time>
      </trkpt>
      <trkpt lat="48.11441" lon="-2.84156">
        <ele>173.296463</ele>
        <time>2022-12-13T14:25:46.842Z</time>
      </trkpt>
      <trkpt lat="48.11447" lon="-2.84142">
        <ele>173.381404</ele>
        <time>2022-12-13T14:25:49.860Z</time>
      </trkpt>
      <trkpt lat="48.11451" lon="-2.84129">
        <ele>173.450267</ele>
        <time>2022-12-13T14:25:51.868Z</time>
      </trkpt>
      <trkpt lat="48.11457" lon="-2.84114">
        <ele>173.534757</ele>
        <time>2022-12-13T14:25:54.867Z</time>
      </trkpt>
      <trkpt lat="48.11463" lon="-2.84101">
        <ele>173.610279</ele>
        <time>2022-12-13T14:25:57.864Z</time>
      </trkpt>
      <trkpt lat="48.11468" lon="-2.84086">
        <ele>173.692183</ele>
        <time>2022-12-13T14:26:00.867Z</time>
      </trkpt>
      <trkpt lat="48.11475" lon="-2.84071">
        <ele>173.780688</ele>
        <time>2022-12-13T14:26:03.870Z</time>
      </trkpt>
      <trkpt lat="48.11481" lon="-2.84056">
        <ele>173.870484</ele>
        <time>2022-12-13T14:26:06.870Z</time>
      </trkpt>
      <trkpt lat="48.11488" lon="-2.84039">
        <ele>173.948672</ele>
        <time>2022-12-13T14:26:09.931Z</time>
      </trkpt>
      <trkpt lat="48.11494" lon="-2.84025">
        <ele>173.964411</ele>
        <time>2022-12-13T14:26:12.846Z</time>
      </trkpt>
      <trkpt lat="48.115" lon="-2.84011">
        <ele>173.979738</ele>
        <time>2022-12-13T14:26:15.873Z</time>
      </trkpt>
      <trkpt lat="48.11506" lon="-2.83997">
        <ele>173.995689</ele>
        <time>2022-12-13T14:26:18.873Z</time>
      </trkpt>
      <trkpt lat="48.11513" lon="-2.83982">
        <ele>174.013439</ele>
        <time>2022-12-13T14:26:21.869Z</time>
      </trkpt>
      <trkpt lat="48.1152" lon="-2.83966">
        <ele>174.031345</ele>
        <time>2022-12-13T14:26:24.865Z</time>
      </trkpt>
      <trkpt lat="48.11527" lon="-2.83949">
        <ele>174.049857</ele>
        <time>2022-12-13T14:26:27.853Z</time>
      </trkpt>
      <trkpt lat="48.11533" lon="-2.83933">
        <ele>174.066621</ele>
        <time>2022-12-13T14:26:30.874Z</time>
      </trkpt>
      <trkpt lat="48.1154" lon="-2.83917">
        <ele>174.084606</ele>
        <time>2022-12-13T14:26:33.867Z</time>
      </trkpt>
      <trkpt lat="48.11547" lon="-2.83901">
        <ele>174.102825</ele>
        <time>2022-12-13T14:26:36.849Z</time>
      </trkpt>
      <trkpt lat="48.11554" lon="-2.83885">
        <ele>174.121046</ele>
        <time>2022-12-13T14:26:39.873Z</time>
      </trkpt>
      <trkpt lat="48.11562" lon="-2.83869">
        <ele>174.139354</ele>
        <time>2022-12-13T14:26:42.860Z</time>
      </trkpt>
      <trkpt lat="48.11567" lon="-2.83858">
        <ele>174.15218</ele>
        <time>2022-12-13T14:26:44.868Z</time>
      </trkpt>
      <trkpt lat="48.11573" lon="-2.83841">
        <ele>174.169748</ele>
        <time>2022-12-13T14:26:47.851Z</time>
      </trkpt>
      <trkpt lat="48.11579" lon="-2.83825">
        <ele>174.187912</ele>
        <time>2022-12-13T14:26:50.863Z</time>
      </trkpt>
      <trkpt lat="48.11586" lon="-2.83811">
        <ele>174.168627</ele>
        <time>2022-12-13T14:26:53.853Z</time>
      </trkpt>
      <trkpt lat="48.11593" lon="-2.83798">
        <ele>174.086189</ele>
        <time>2022-12-13T14:26:56.866Z</time>
      </trkpt>
      <trkpt lat="48.116" lon="-2.83783">
        <ele>174.001263</ele>
        <time>2022-12-13T14:26:59.863Z</time>
      </trkpt>
      <trkpt lat="48.11608" lon="-2.83768">
        <ele>173.911775</ele>
        <time>2022-12-13T14:27:02.867Z</time>
      </trkpt>
      <trkpt lat="48.11615" lon="-2.83753">
        <ele>173.821669</ele>
        <time>2022-12-13T14:27:05.868Z</time>
      </trkpt>
      <trkpt lat="48.11622" lon="-2.83736">
        <ele>173.727164</ele>
        <time>2022-12-13T14:27:08.870Z</time>
      </trkpt>
      <trkpt lat="48.11628" lon="-2.83722">
        <ele>173.643855</ele>
        <time>2022-12-13T14:27:11.866Z</time>
      </trkpt>
      <trkpt lat="48.11635" lon="-2.83707">
        <ele>173.556143</ele>
        <time>2022-12-13T14:27:14.915Z</time>
      </trkpt>
      <trkpt lat="48.11642" lon="-2.83693">
        <ele>173.472263</ele>
        <time>2022-12-13T14:27:17.866Z</time>
      </trkpt>
      <trkpt lat="48.11647" lon="-2.83678">
        <ele>173.391695</ele>
        <time>2022-12-13T14:27:20.871Z</time>
      </trkpt>
      <trkpt lat="48.1165" lon="-2.83661">
        <ele>173.310267</ele>
        <time>2022-12-13T14:27:23.867Z</time>
      </trkpt>
      <trkpt lat="48.11658" lon="-2.83646">
        <ele>173.214732</ele>
        <time>2022-12-13T14:27:26.867Z</time>
      </trkpt>
      <trkpt lat="48.11663" lon="-2.83628">
        <ele>173.126194</ele>
        <time>2022-12-13T14:27:29.866Z</time>
      </trkpt>
      <trkpt lat="48.11667" lon="-2.8361">
        <ele>173.035716</ele>
        <time>2022-12-13T14:27:32.859Z</time>
      </trkpt>
      <trkpt lat="48.11671" lon="-2.83593">
        <ele>172.944943</ele>
        <time>2022-12-13T14:27:35.848Z</time>
      </trkpt>
      <trkpt lat="48.11677" lon="-2.83575">
        <ele>172.719014</ele>
        <time>2022-12-13T14:27:38.866Z</time>
      </trkpt>
      <trkpt lat="48.11678" lon="-2.83558">
        <ele>172.416057</ele>
        <time>2022-12-13T14:27:41.944Z</time>
      </trkpt>
      <trkpt lat="48.11678" lon="-2.83542">
        <ele>172.155568</ele>
        <time>2022-12-13T14:27:44.853Z</time>
      </trkpt>
      <trkpt lat="48.11676" lon="-2.83527">
        <ele>171.894225</ele>
        <time>2022-12-13T14:27:47.869Z</time>
      </trkpt>
      <trkpt lat="48.11672" lon="-2.83511">
        <ele>171.607499</ele>
        <time>2022-12-13T14:27:50.873Z</time>
      </trkpt>
      <trkpt lat="48.11668" lon="-2.83497">
        <ele>171.35739</ele>
        <time>2022-12-13T14:27:53.869Z</time>
      </trkpt>
      <trkpt lat="48.11664" lon="-2.83482">
        <ele>171.08458</ele>
        <time>2022-12-13T14:27:57.917Z</time>
      </trkpt>
      <trkpt lat="48.1166" lon="-2.8347">
        <ele>170.855209</ele>
        <time>2022-12-13T14:28:00.863Z</time>
      </trkpt>
      <trkpt lat="48.11655" lon="-2.83457">
        <ele>170.606536</ele>
        <time>2022-12-13T14:28:03.866Z</time>
      </trkpt>
      <trkpt lat="48.11649" lon="-2.83446">
        <ele>170.364305</ele>
        <time>2022-12-13T14:28:06.870Z</time>
      </trkpt>
      <trkpt lat="48.11642" lon="-2.83434">
        <ele>170.101719</ele>
        <time>2022-12-13T14:28:10.867Z</time>
      </trkpt>
      <trkpt lat="48.11636" lon="-2.83421">
        <ele>169.830592</ele>
        <time>2022-12-13T14:28:13.852Z</time>
      </trkpt>
      <trkpt lat="48.11631" lon="-2.83408">
        <ele>169.587655</ele>
        <time>2022-12-13T14:28:16.869Z</time>
      </trkpt>
      <trkpt lat="48.11624" lon="-2.83394">
        <ele>169.285679</ele>
        <time>2022-12-13T14:28:20.874Z</time>
      </trkpt>
      <trkpt lat="48.11619" lon="-2.8338">
        <ele>169.01877</ele>
        <time>2022-12-13T14:28:23.863Z</time>
      </trkpt>
      <trkpt lat="48.11613" lon="-2.83365">
        <ele>168.720784</ele>
        <time>2022-12-13T14:28:26.869Z</time>
      </trkpt>
      <trkpt lat="48.11606" lon="-2.8335">
        <ele>168.413514</ele>
        <time>2022-12-13T14:28:29.873Z</time>
      </trkpt>
      <trkpt lat="48.116" lon="-2.83337">
        <ele>168.31267</ele>
        <time>2022-12-13T14:28:31.847Z</time>
      </trkpt>
      <trkpt lat="48.11594" lon="-2.83325">
        <ele>168.229597</ele>
        <time>2022-12-13T14:28:33.868Z</time>
      </trkpt>
      <trkpt lat="48.11587" lon="-2.83314">
        <ele>168.146795</ele>
        <time>2022-12-13T14:28:35.876Z</time>
      </trkpt>
      <trkpt lat="48.11581" lon="-2.83301">
        <ele>168.062157</ele>
        <time>2022-12-13T14:28:37.868Z</time>
      </trkpt>
      <trkpt lat="48.11575" lon="-2.8329">
        <ele>167.985494</ele>
        <time>2022-12-13T14:28:39.852Z</time>
      </trkpt>
      <trkpt lat="48.11568" lon="-2.83281">
        <ele>167.910786</ele>
        <time>2022-12-13T14:28:41.901Z</time>
      </trkpt>
      <trkpt lat="48.11559" lon="-2.8327">
        <ele>167.816436</ele>
        <time>2022-12-13T14:28:44.851Z</time>
      </trkpt>
      <trkpt lat="48.1155" lon="-2.8326">
        <ele>167.723619</ele>
        <time>2022-12-13T14:28:47.869Z</time>
      </trkpt>
      <trkpt lat="48.1154" lon="-2.8325">
        <ele>167.631846</ele>
        <time>2022-12-13T14:28:50.869Z</time>
      </trkpt>
      <trkpt lat="48.1153" lon="-2.83238">
        <ele>167.529399</ele>
        <time>2022-12-13T14:28:53.843Z</time>
      </trkpt>
      <trkpt lat="48.11521" lon="-2.83224">
        <ele>167.42176</ele>
        <time>2022-12-13T14:28:56.872Z</time>
      </trkpt>
      <trkpt lat="48.11513" lon="-2.83215">
        <ele>167.344801</ele>
        <time>2022-12-13T14:28:58.863Z</time>
      </trkpt>
      <trkpt lat="48.11506" lon="-2.83205">
        <ele>167.266256</ele>
        <time>2022-12-13T14:29:00.842Z</time>
      </trkpt>
      <trkpt lat="48.11498" lon="-2.83196">
        <ele>167.181561</ele>
        <time>2022-12-13T14:29:02.869Z</time>
      </trkpt>
      <trkpt lat="48.1149" lon="-2.83187">
        <ele>167.098179</ele>
        <time>2022-12-13T14:29:04.868Z</time>
      </trkpt>
      <trkpt lat="48.1148" lon="-2.83174">
        <ele>166.996065</ele>
        <time>2022-12-13T14:29:07.869Z</time>
      </trkpt>
      <trkpt lat="48.11471" lon="-2.83164">
        <ele>166.868566</ele>
        <time>2022-12-13T14:29:10.867Z</time>
      </trkpt>
      <trkpt lat="48.11464" lon="-2.83155">
        <ele>166.682943</ele>
        <time>2022-12-13T14:29:13.869Z</time>
      </trkpt>
      <trkpt lat="48.11456" lon="-2.83147">
        <ele>166.492816</ele>
        <time>2022-12-13T14:29:26.851Z</time>
      </trkpt>
      <trkpt lat="48.11449" lon="-2.83136">
        <ele>166.290884</ele>
        <time>2022-12-13T14:29:36.871Z</time>
      </trkpt>
      <trkpt lat="48.11443" lon="-2.83126">
        <ele>166.102244</ele>
        <time>2022-12-13T14:29:45.858Z</time>
      </trkpt>
      <trkpt lat="48.11436" lon="-2.83114">
        <ele>165.890798</ele>
        <time>2022-12-13T14:29:51.871Z</time>
      </trkpt>
      <trkpt lat="48.11427" lon="-2.83106">
        <ele>165.675964</ele>
        <time>2022-12-13T14:29:55.859Z</time>
      </trkpt>
      <trkpt lat="48.11418" lon="-2.83096">
        <ele>165.461188</ele>
        <time>2022-12-13T14:29:58.851Z</time>
      </trkpt>
      <trkpt lat="48.11408" lon="-2.83084">
        <ele>165.202729</ele>
        <time>2022-12-13T14:30:01.870Z</time>
      </trkpt>
      <trkpt lat="48.11401" lon="-2.83074">
        <ele>165.004247</ele>
        <time>2022-12-13T14:30:03.869Z</time>
      </trkpt>
      <trkpt lat="48.11393" lon="-2.83064">
        <ele>164.793142</ele>
        <time>2022-12-13T14:30:05.868Z</time>
      </trkpt>
      <trkpt lat="48.11385" lon="-2.83054">
        <ele>164.584756</ele>
        <time>2022-12-13T14:30:07.869Z</time>
      </trkpt>
      <trkpt lat="48.11377" lon="-2.83045">
        <ele>164.38202</ele>
        <time>2022-12-13T14:30:09.872Z</time>
      </trkpt>
      <trkpt lat="48.1137" lon="-2.83035">
        <ele>164.18233</ele>
        <time>2022-12-13T14:30:11.857Z</time>
      </trkpt>
      <trkpt lat="48.11361" lon="-2.83027">
        <ele>163.98271</ele>
        <time>2022-12-13T14:30:13.864Z</time>
      </trkpt>
      <trkpt lat="48.11351" lon="-2.83015">
        <ele>163.730966</ele>
        <time>2022-12-13T14:30:16.872Z</time>
      </trkpt>
      <trkpt lat="48.11342" lon="-2.83004">
        <ele>163.486365</ele>
        <time>2022-12-13T14:30:19.917Z</time>
      </trkpt>
      <trkpt lat="48.11333" lon="-2.82993">
        <ele>163.226235</ele>
        <time>2022-12-13T14:30:22.856Z</time>
      </trkpt>
      <trkpt lat="48.11324" lon="-2.82981">
        <ele>162.852742</ele>
        <time>2022-12-13T14:30:25.860Z</time>
      </trkpt>
      <trkpt lat="48.11314" lon="-2.82968">
        <ele>162.449768</ele>
        <time>2022-12-13T14:30:28.852Z</time>
      </trkpt>
      <trkpt lat="48.11307" lon="-2.82957">
        <ele>162.15599</ele>
        <time>2022-12-13T14:30:30.916Z</time>
      </trkpt>
      <trkpt lat="48.113" lon="-2.82946">
        <ele>161.84606</ele>
        <time>2022-12-13T14:30:32.870Z</time>
      </trkpt>
      <trkpt lat="48.11293" lon="-2.82934">
        <ele>161.536614</ele>
        <time>2022-12-13T14:30:34.871Z</time>
      </trkpt>
      <trkpt lat="48.11286" lon="-2.82918">
        <ele>161.132182</ele>
        <time>2022-12-13T14:30:37.869Z</time>
      </trkpt>
      <trkpt lat="48.11281" lon="-2.82906">
        <ele>160.857059</ele>
        <time>2022-12-13T14:30:39.869Z</time>
      </trkpt>
      <trkpt lat="48.11274" lon="-2.82893">
        <ele>160.531582</ele>
        <time>2022-12-13T14:30:42.854Z</time>
      </trkpt>
      <trkpt lat="48.1127" lon="-2.82879">
        <ele>160.222624</ele>
        <time>2022-12-13T14:30:45.865Z</time>
      </trkpt>
      <trkpt lat="48.11266" lon="-2.82866">
        <ele>159.93085</ele>
        <time>2022-12-13T14:30:48.869Z</time>
      </trkpt>
      <trkpt lat="48.11261" lon="-2.82852">
        <ele>159.601286</ele>
        <time>2022-12-13T14:30:51.869Z</time>
      </trkpt>
      <trkpt lat="48.11255" lon="-2.82837">
        <ele>159.258839</ele>
        <time>2022-12-13T14:30:54.870Z</time>
      </trkpt>
      <trkpt lat="48.11249" lon="-2.82821">
        <ele>158.885969</ele>
        <time>2022-12-13T14:30:57.871Z</time>
      </trkpt>
      <trkpt lat="48.11243" lon="-2.82805">
        <ele>158.522149</ele>
        <time>2022-12-13T14:31:00.921Z</time>
      </trkpt>
      <trkpt lat="48.1124" lon="-2.82793">
        <ele>158.243899</ele>
        <time>2022-12-13T14:31:02.875Z</time>
      </trkpt>
      <trkpt lat="48.11235" lon="-2.82778">
        <ele>157.921115</ele>
        <time>2022-12-13T14:31:04.864Z</time>
      </trkpt>
      <trkpt lat="48.11231" lon="-2.82764">
        <ele>157.893838</ele>
        <time>2022-12-13T14:31:06.870Z</time>
      </trkpt>
      <trkpt lat="48.11229" lon="-2.82749">
        <ele>157.906247</ele>
        <time>2022-12-13T14:31:08.872Z</time>
      </trkpt>
      <trkpt lat="48.11226" lon="-2.82734">
        <ele>157.918396</ele>
        <time>2022-12-13T14:31:10.867Z</time>
      </trkpt>
      <trkpt lat="48.11225" lon="-2.8272">
        <ele>157.929667</ele>
        <time>2022-12-13T14:31:12.869Z</time>
      </trkpt>
      <trkpt lat="48.11223" lon="-2.82705">
        <ele>157.941539</ele>
        <time>2022-12-13T14:31:14.867Z</time>
      </trkpt>
      <trkpt lat="48.11221" lon="-2.82691">
        <ele>157.953133</ele>
        <time>2022-12-13T14:31:16.868Z</time>
      </trkpt>
      <trkpt lat="48.11219" lon="-2.82673">
        <ele>157.967747</ele>
        <time>2022-12-13T14:31:19.850Z</time>
      </trkpt>
      <trkpt lat="48.11216" lon="-2.82655">
        <ele>157.982459</ele>
        <time>2022-12-13T14:31:22.868Z</time>
      </trkpt>
      <trkpt lat="48.11215" lon="-2.82638">
        <ele>157.995523</ele>
        <time>2022-12-13T14:31:25.857Z</time>
      </trkpt>
      <trkpt lat="48.11212" lon="-2.82619">
        <ele>158.010958</ele>
        <time>2022-12-13T14:31:28.845Z</time>
      </trkpt>
      <trkpt lat="48.1121" lon="-2.82605">
        <ele>158.022403</ele>
        <time>2022-12-13T14:31:30.868Z</time>
      </trkpt>
      <trkpt lat="48.11208" lon="-2.82591">
        <ele>158.034061</ele>
        <time>2022-12-13T14:31:32.874Z</time>
      </trkpt>
      <trkpt lat="48.11207" lon="-2.82576">
        <ele>158.046289</ele>
        <time>2022-12-13T14:31:34.868Z</time>
      </trkpt>
      <trkpt lat="48.11205" lon="-2.8256">
        <ele>158.058806</ele>
        <time>2022-12-13T14:31:36.869Z</time>
      </trkpt>
      <trkpt lat="48.11204" lon="-2.82546">
        <ele>158.070328</ele>
        <time>2022-12-13T14:31:38.910Z</time>
      </trkpt>
      <trkpt lat="48.11202" lon="-2.8253">
        <ele>158.082826</ele>
        <time>2022-12-13T14:31:40.849Z</time>
      </trkpt>
      <trkpt lat="48.112" lon="-2.82515">
        <ele>158.095128</ele>
        <time>2022-12-13T14:31:42.871Z</time>
      </trkpt>
      <trkpt lat="48.11198" lon="-2.82499">
        <ele>158.279075</ele>
        <time>2022-12-13T14:31:44.857Z</time>
      </trkpt>
      <trkpt lat="48.11195" lon="-2.82483">
        <ele>158.485421</ele>
        <time>2022-12-13T14:31:46.852Z</time>
      </trkpt>
      <trkpt lat="48.11194" lon="-2.82468">
        <ele>158.68463</ele>
        <time>2022-12-13T14:31:48.867Z</time>
      </trkpt>
      <trkpt lat="48.11192" lon="-2.82452">
        <ele>158.890661</ele>
        <time>2022-12-13T14:31:50.870Z</time>
      </trkpt>
      <trkpt lat="48.11191" lon="-2.82438">
        <ele>159.073896</ele>
        <time>2022-12-13T14:31:52.868Z</time>
      </trkpt>
      <trkpt lat="48.11189" lon="-2.82418">
        <ele>159.333429</ele>
        <time>2022-12-13T14:31:55.856Z</time>
      </trkpt>
      <trkpt lat="48.11187" lon="-2.82399">
        <ele>159.580277</ele>
        <time>2022-12-13T14:31:58.858Z</time>
      </trkpt>
      <trkpt lat="48.11185" lon="-2.82383">
        <ele>159.782546</ele>
        <time>2022-12-13T14:32:01.868Z</time>
      </trkpt>
      <trkpt lat="48.11183" lon="-2.82368">
        <ele>159.984655</ele>
        <time>2022-12-13T14:32:04.870Z</time>
      </trkpt>
      <trkpt lat="48.11182" lon="-2.82352">
        <ele>160.195819</ele>
        <time>2022-12-13T14:32:08.870Z</time>
      </trkpt>
      <trkpt lat="48.11179" lon="-2.82337">
        <ele>160.383803</ele>
        <time>2022-12-13T14:32:14.869Z</time>
      </trkpt>
      <trkpt lat="48.11178" lon="-2.82323">
        <ele>160.570841</ele>
        <time>2022-12-13T14:32:25.863Z</time>
      </trkpt>
      <trkpt lat="48.11176" lon="-2.82309">
        <ele>160.749698</ele>
        <time>2022-12-13T14:32:35.875Z</time>
      </trkpt>
      <trkpt lat="48.11175" lon="-2.82294">
        <ele>160.950017</ele>
        <time>2022-12-13T14:32:51.869Z</time>
      </trkpt>
      <trkpt lat="48.11173" lon="-2.82277">
        <ele>161.17189</ele>
        <time>2022-12-13T14:32:55.909Z</time>
      </trkpt>
      <trkpt lat="48.11169" lon="-2.82259">
        <ele>161.414753</ele>
        <time>2022-12-13T14:32:58.871Z</time>
      </trkpt>
      <trkpt lat="48.11165" lon="-2.82244">
        <ele>161.448921</ele>
        <time>2022-12-13T14:33:00.853Z</time>
      </trkpt>
      <trkpt lat="48.11161" lon="-2.8223">
        <ele>161.072754</ele>
        <time>2022-12-13T14:33:02.873Z</time>
      </trkpt>
      <trkpt lat="48.11157" lon="-2.82216">
        <ele>160.714908</ele>
        <time>2022-12-13T14:33:04.872Z</time>
      </trkpt>
      <trkpt lat="48.11152" lon="-2.82202">
        <ele>160.353704</ele>
        <time>2022-12-13T14:33:06.916Z</time>
      </trkpt>
      <trkpt lat="48.11147" lon="-2.8219">
        <ele>160.009204</ele>
        <time>2022-12-13T14:33:08.872Z</time>
      </trkpt>
      <trkpt lat="48.11141" lon="-2.82178">
        <ele>159.65306</ele>
        <time>2022-12-13T14:33:10.869Z</time>
      </trkpt>
      <trkpt lat="48.11134" lon="-2.82161">
        <ele>159.184991</ele>
        <time>2022-12-13T14:33:13.871Z</time>
      </trkpt>
      <trkpt lat="48.11129" lon="-2.8215">
        <ele>158.864495</ele>
        <time>2022-12-13T14:33:15.857Z</time>
      </trkpt>
      <trkpt lat="48.11122" lon="-2.82134">
        <ele>158.416195</ele>
        <time>2022-12-13T14:33:18.870Z</time>
      </trkpt>
      <trkpt lat="48.11116" lon="-2.82116">
        <ele>157.95005</ele>
        <time>2022-12-13T14:33:21.870Z</time>
      </trkpt>
      <trkpt lat="48.1111" lon="-2.82103">
        <ele>157.564665</ele>
        <time>2022-12-13T14:33:23.854Z</time>
      </trkpt>
      <trkpt lat="48.11105" lon="-2.82088">
        <ele>157.171256</ele>
        <time>2022-12-13T14:33:25.887Z</time>
      </trkpt>
      <trkpt lat="48.11098" lon="-2.82074">
        <ele>156.762205</ele>
        <time>2022-12-13T14:33:27.866Z</time>
      </trkpt>
      <trkpt lat="48.11093" lon="-2.82063">
        <ele>156.427878</ele>
        <time>2022-12-13T14:33:29.868Z</time>
      </trkpt>
      <trkpt lat="48.11087" lon="-2.82051">
        <ele>156.086869</ele>
        <time>2022-12-13T14:33:31.870Z</time>
      </trkpt>
      <trkpt lat="48.11082" lon="-2.8204">
        <ele>155.762343</ele>
        <time>2022-12-13T14:33:33.917Z</time>
      </trkpt>
      <trkpt lat="48.11075" lon="-2.82023">
        <ele>155.302153</ele>
        <time>2022-12-13T14:33:36.854Z</time>
      </trkpt>
      <trkpt lat="48.11068" lon="-2.82007">
        <ele>154.696225</ele>
        <time>2022-12-13T14:33:39.869Z</time>
      </trkpt>
      <trkpt lat="48.11061" lon="-2.81989">
        <ele>153.978263</ele>
        <time>2022-12-13T14:33:42.863Z</time>
      </trkpt>
      <trkpt lat="48.11055" lon="-2.81978">
        <ele>153.476109</ele>
        <time>2022-12-13T14:33:44.917Z</time>
      </trkpt>
      <trkpt lat="48.1105" lon="-2.81965">
        <ele>152.936419</ele>
        <time>2022-12-13T14:33:46.865Z</time>
      </trkpt>
      <trkpt lat="48.11044" lon="-2.81952">
        <ele>152.382295</ele>
        <time>2022-12-13T14:33:48.869Z</time>
      </trkpt>
      <trkpt lat="48.11038" lon="-2.81938">
        <ele>151.82168</ele>
        <time>2022-12-13T14:33:50.844Z</time>
      </trkpt>
      <trkpt lat="48.11032" lon="-2.81924">
        <ele>151.221122</ele>
        <time>2022-12-13T14:33:52.868Z</time>
      </trkpt>
      <trkpt lat="48.11025" lon="-2.81908">
        <ele>150.565474</ele>
        <time>2022-12-13T14:33:54.872Z</time>
      </trkpt>
      <trkpt lat="48.11018" lon="-2.81894">
        <ele>149.967461</ele>
        <time>2022-12-13T14:33:56.854Z</time>
      </trkpt>
      <trkpt lat="48.11012" lon="-2.81881">
        <ele>149.407339</ele>
        <time>2022-12-13T14:33:58.873Z</time>
      </trkpt>
      <trkpt lat="48.11007" lon="-2.81868">
        <ele>148.873358</ele>
        <time>2022-12-13T14:34:00.858Z</time>
      </trkpt>
      <trkpt lat="48.11001" lon="-2.81854">
        <ele>148.313022</ele>
        <time>2022-12-13T14:34:02.863Z</time>
      </trkpt>
      <trkpt lat="48.10994" lon="-2.81838">
        <ele>147.631101</ele>
        <time>2022-12-13T14:34:05.870Z</time>
      </trkpt>
      <trkpt lat="48.10989" lon="-2.81826">
        <ele>147.13791</ele>
        <time>2022-12-13T14:34:07.870Z</time>
      </trkpt>
      <trkpt lat="48.10983" lon="-2.81815">
        <ele>146.644632</ele>
        <time>2022-12-13T14:34:09.872Z</time>
      </trkpt>
      <trkpt lat="48.10976" lon="-2.81797">
        <ele>145.922059</ele>
        <time>2022-12-13T14:34:12.870Z</time>
      </trkpt>
      <trkpt lat="48.10971" lon="-2.81784">
        <ele>145.590484</ele>
        <time>2022-12-13T14:34:14.885Z</time>
      </trkpt>
      <trkpt lat="48.10966" lon="-2.81773">
        <ele>145.343759</ele>
        <time>2022-12-13T14:34:16.870Z</time>
      </trkpt>
      <trkpt lat="48.1096" lon="-2.8176">
        <ele>145.063033</ele>
        <time>2022-12-13T14:34:18.871Z</time>
      </trkpt>
      <trkpt lat="48.10953" lon="-2.81746">
        <ele>144.755446</ele>
        <time>2022-12-13T14:34:20.869Z</time>
      </trkpt>
      <trkpt lat="48.10947" lon="-2.81731">
        <ele>144.42835</ele>
        <time>2022-12-13T14:34:22.856Z</time>
      </trkpt>
      <trkpt lat="48.10941" lon="-2.81716">
        <ele>144.114668</ele>
        <time>2022-12-13T14:34:24.870Z</time>
      </trkpt>
      <trkpt lat="48.10934" lon="-2.817">
        <ele>143.77711</ele>
        <time>2022-12-13T14:34:26.870Z</time>
      </trkpt>
      <trkpt lat="48.10928" lon="-2.81686">
        <ele>143.48283</ele>
        <time>2022-12-13T14:34:28.853Z</time>
      </trkpt>
      <trkpt lat="48.10922" lon="-2.81672">
        <ele>143.190071</ele>
        <time>2022-12-13T14:34:30.869Z</time>
      </trkpt>
      <trkpt lat="48.10916" lon="-2.81659">
        <ele>142.907868</ele>
        <time>2022-12-13T14:34:32.868Z</time>
      </trkpt>
      <trkpt lat="48.10911" lon="-2.81647">
        <ele>142.647795</ele>
        <time>2022-12-13T14:34:34.851Z</time>
      </trkpt>
      <trkpt lat="48.10904" lon="-2.8163">
        <ele>142.284829</ele>
        <time>2022-12-13T14:34:37.840Z</time>
      </trkpt>
      <trkpt lat="48.10899" lon="-2.81617">
        <ele>142.019929</ele>
        <time>2022-12-13T14:34:39.871Z</time>
      </trkpt>
      <trkpt lat="48.10894" lon="-2.81606">
        <ele>141.773546</ele>
        <time>2022-12-13T14:34:41.872Z</time>
      </trkpt>
      <trkpt lat="48.10889" lon="-2.81594">
        <ele>141.512171</ele>
        <time>2022-12-13T14:34:43.871Z</time>
      </trkpt>
      <trkpt lat="48.10882" lon="-2.8158">
        <ele>141.214659</ele>
        <time>2022-12-13T14:34:45.852Z</time>
      </trkpt>
      <trkpt lat="48.10877" lon="-2.81567">
        <ele>140.942695</ele>
        <time>2022-12-13T14:34:47.865Z</time>
      </trkpt>
      <trkpt lat="48.1087" lon="-2.81553">
        <ele>140.738809</ele>
        <time>2022-12-13T14:34:49.929Z</time>
      </trkpt>
      <trkpt lat="48.10863" lon="-2.81539">
        <ele>140.522627</ele>
        <time>2022-12-13T14:34:51.864Z</time>
      </trkpt>
      <trkpt lat="48.10856" lon="-2.81524">
        <ele>140.299058</ele>
        <time>2022-12-13T14:34:53.868Z</time>
      </trkpt>
      <trkpt lat="48.10849" lon="-2.81509">
        <ele>140.076889</ele>
        <time>2022-12-13T14:34:55.880Z</time>
      </trkpt>
      <trkpt lat="48.10845" lon="-2.81494">
        <ele>139.873702</ele>
        <time>2022-12-13T14:34:57.868Z</time>
      </trkpt>
      <trkpt lat="48.10839" lon="-2.81482">
        <ele>139.695134</ele>
        <time>2022-12-13T14:34:59.866Z</time>
      </trkpt>
      <trkpt lat="48.10834" lon="-2.81471">
        <ele>139.530434</ele>
        <time>2022-12-13T14:35:01.854Z</time>
      </trkpt>
      <trkpt lat="48.10827" lon="-2.81456">
        <ele>139.304197</ele>
        <time>2022-12-13T14:35:04.847Z</time>
      </trkpt>
      <trkpt lat="48.1082" lon="-2.8144">
        <ele>139.081036</ele>
        <time>2022-12-13T14:35:07.870Z</time>
      </trkpt>
      <trkpt lat="48.10813" lon="-2.81425">
        <ele>138.843525</ele>
        <time>2022-12-13T14:35:10.873Z</time>
      </trkpt>
      <trkpt lat="48.10806" lon="-2.81409">
        <ele>138.613221</ele>
        <time>2022-12-13T14:35:13.870Z</time>
      </trkpt>
      <trkpt lat="48.10799" lon="-2.81392">
        <ele>138.368575</ele>
        <time>2022-12-13T14:35:16.868Z</time>
      </trkpt>
      <trkpt lat="48.10792" lon="-2.81374">
        <ele>138.118282</ele>
        <time>2022-12-13T14:35:19.874Z</time>
      </trkpt>
      <trkpt lat="48.10786" lon="-2.81363">
        <ele>137.948788</ele>
        <time>2022-12-13T14:35:21.868Z</time>
      </trkpt>
      <trkpt lat="48.10779" lon="-2.81349">
        <ele>137.73325</ele>
        <time>2022-12-13T14:35:24.868Z</time>
      </trkpt>
      <trkpt lat="48.10774" lon="-2.81335">
        <ele>137.694144</ele>
        <time>2022-12-13T14:35:27.877Z</time>
      </trkpt>
      <trkpt lat="48.1077" lon="-2.81323">
        <ele>137.729997</ele>
        <time>2022-12-13T14:35:30.875Z</time>
      </trkpt>
      <trkpt lat="48.10762" lon="-2.81309">
        <ele>137.777003</ele>
        <time>2022-12-13T14:35:34.869Z</time>
      </trkpt>
      <trkpt lat="48.10755" lon="-2.81299">
        <ele>137.816695</ele>
        <time>2022-12-13T14:35:37.877Z</time>
      </trkpt>
      <trkpt lat="48.10749" lon="-2.81284">
        <ele>137.862989</ele>
        <time>2022-12-13T14:35:40.871Z</time>
      </trkpt>
      <trkpt lat="48.10743" lon="-2.81272">
        <ele>137.900991</ele>
        <time>2022-12-13T14:35:42.867Z</time>
      </trkpt>
      <trkpt lat="48.10737" lon="-2.8126">
        <ele>137.939422</ele>
        <time>2022-12-13T14:35:44.883Z</time>
      </trkpt>
      <trkpt lat="48.10732" lon="-2.81248">
        <ele>137.976341</ele>
        <time>2022-12-13T14:35:46.855Z</time>
      </trkpt>
      <trkpt lat="48.10726" lon="-2.81236">
        <ele>138.016771</ele>
        <time>2022-12-13T14:35:48.844Z</time>
      </trkpt>
      <trkpt lat="48.10719" lon="-2.81223">
        <ele>138.059363</ele>
        <time>2022-12-13T14:35:50.850Z</time>
      </trkpt>
      <trkpt lat="48.10713" lon="-2.81211">
        <ele>138.098714</ele>
        <time>2022-12-13T14:35:52.863Z</time>
      </trkpt>
      <trkpt lat="48.10707" lon="-2.81201">
        <ele>138.134195</ele>
        <time>2022-12-13T14:35:54.870Z</time>
      </trkpt>
      <trkpt lat="48.107" lon="-2.81185">
        <ele>138.184427</ele>
        <time>2022-12-13T14:35:57.885Z</time>
      </trkpt>
      <trkpt lat="48.10693" lon="-2.81172">
        <ele>138.229824</ele>
        <time>2022-12-13T14:36:00.924Z</time>
      </trkpt>
      <trkpt lat="48.10685" lon="-2.81158">
        <ele>138.276838</ele>
        <time>2022-12-13T14:36:03.879Z</time>
      </trkpt>
      <trkpt lat="48.10678" lon="-2.81141">
        <ele>138.330983</ele>
        <time>2022-12-13T14:36:06.871Z</time>
      </trkpt>
      <trkpt lat="48.10672" lon="-2.81128">
        <ele>138.369625</ele>
        <time>2022-12-13T14:36:08.875Z</time>
      </trkpt>
      <trkpt lat="48.10666" lon="-2.81115">
        <ele>138.085271</ele>
        <time>2022-12-13T14:36:10.873Z</time>
      </trkpt>
      <trkpt lat="48.10658" lon="-2.811">
        <ele>137.703338</ele>
        <time>2022-12-13T14:36:12.862Z</time>
      </trkpt>
      <trkpt lat="48.10652" lon="-2.81086">
        <ele>137.359089</ele>
        <time>2022-12-13T14:36:14.847Z</time>
      </trkpt>
      <trkpt lat="48.10646" lon="-2.81072">
        <ele>137.024883</ele>
        <time>2022-12-13T14:36:16.860Z</time>
      </trkpt>
      <trkpt lat="48.10639" lon="-2.81058">
        <ele>136.672166</ele>
        <time>2022-12-13T14:36:18.852Z</time>
      </trkpt>
      <trkpt lat="48.10633" lon="-2.81045">
        <ele>136.365948</ele>
        <time>2022-12-13T14:36:20.870Z</time>
      </trkpt>
      <trkpt lat="48.10629" lon="-2.81032">
        <ele>136.078855</ele>
        <time>2022-12-13T14:36:22.870Z</time>
      </trkpt>
      <trkpt lat="48.10625" lon="-2.81019">
        <ele>135.807163</ele>
        <time>2022-12-13T14:36:24.879Z</time>
      </trkpt>
      <trkpt lat="48.10623" lon="-2.81005">
        <ele>135.508581</ele>
        <time>2022-12-13T14:36:26.852Z</time>
      </trkpt>
      <trkpt lat="48.10621" lon="-2.80992">
        <ele>135.234647</ele>
        <time>2022-12-13T14:36:28.919Z</time>
      </trkpt>
      <trkpt lat="48.10618" lon="-2.80979">
        <ele>134.960629</ele>
        <time>2022-12-13T14:36:30.869Z</time>
      </trkpt>
      <trkpt lat="48.10615" lon="-2.80966">
        <ele>134.688505</ele>
        <time>2022-12-13T14:36:32.872Z</time>
      </trkpt>
      <trkpt lat="48.10612" lon="-2.80952">
        <ele>134.404987</ele>
        <time>2022-12-13T14:36:34.886Z</time>
      </trkpt>
      <trkpt lat="48.10609" lon="-2.80938">
        <ele>134.10631</ele>
        <time>2022-12-13T14:36:36.879Z</time>
      </trkpt>
      <trkpt lat="48.10606" lon="-2.80922">
        <ele>133.771522</ele>
        <time>2022-12-13T14:36:38.869Z</time>
      </trkpt>
      <trkpt lat="48.10602" lon="-2.80906">
        <ele>133.426358</ele>
        <time>2022-12-13T14:36:40.864Z</time>
      </trkpt>
      <trkpt lat="48.10598" lon="-2.80888">
        <ele>133.061279</ele>
        <time>2022-12-13T14:36:42.867Z</time>
      </trkpt>
      <trkpt lat="48.10597" lon="-2.80872">
        <ele>132.985115</ele>
        <time>2022-12-13T14:36:44.871Z</time>
      </trkpt>
      <trkpt lat="48.10595" lon="-2.80856">
        <ele>132.98059</ele>
        <time>2022-12-13T14:36:46.885Z</time>
      </trkpt>
      <trkpt lat="48.10594" lon="-2.80841">
        <ele>132.976597</ele>
        <time>2022-12-13T14:36:48.872Z</time>
      </trkpt>
      <trkpt lat="48.10594" lon="-2.80826">
        <ele>132.972571</ele>
        <time>2022-12-13T14:36:50.915Z</time>
      </trkpt>
      <trkpt lat="48.10594" lon="-2.80812">
        <ele>132.968626</ele>
        <time>2022-12-13T14:36:52.872Z</time>
      </trkpt>
      <trkpt lat="48.10595" lon="-2.80793">
        <ele>132.963468</ele>
        <time>2022-12-13T14:36:55.859Z</time>
      </trkpt>
      <trkpt lat="48.10596" lon="-2.80776">
        <ele>132.958807</ele>
        <time>2022-12-13T14:36:58.858Z</time>
      </trkpt>
      <trkpt lat="48.10596" lon="-2.8076">
        <ele>132.95456</ele>
        <time>2022-12-13T14:37:01.922Z</time>
      </trkpt>
      <trkpt lat="48.10597" lon="-2.80744">
        <ele>132.950223</ele>
        <time>2022-12-13T14:37:04.871Z</time>
      </trkpt>
      <trkpt lat="48.10598" lon="-2.80727">
        <ele>132.945538</ele>
        <time>2022-12-13T14:37:07.872Z</time>
      </trkpt>
      <trkpt lat="48.10599" lon="-2.80708">
        <ele>132.940361</ele>
        <time>2022-12-13T14:37:10.869Z</time>
      </trkpt>
      <trkpt lat="48.10599" lon="-2.80694">
        <ele>132.936605</ele>
        <time>2022-12-13T14:37:12.913Z</time>
      </trkpt>
      <trkpt lat="48.106" lon="-2.80679">
        <ele>132.932406</ele>
        <time>2022-12-13T14:37:14.869Z</time>
      </trkpt>
      <trkpt lat="48.10601" lon="-2.80658">
        <ele>132.9268</ele>
        <time>2022-12-13T14:37:17.874Z</time>
      </trkpt>
      <trkpt lat="48.10601" lon="-2.80643">
        <ele>132.922714</ele>
        <time>2022-12-13T14:37:19.873Z</time>
      </trkpt>
      <trkpt lat="48.10601" lon="-2.80624">
        <ele>132.917319</ele>
        <time>2022-12-13T14:37:22.855Z</time>
      </trkpt>
      <trkpt lat="48.10602" lon="-2.80604">
        <ele>132.931309</ele>
        <time>2022-12-13T14:37:25.905Z</time>
      </trkpt>
      <trkpt lat="48.10603" lon="-2.80586">
        <ele>132.956331</ele>
        <time>2022-12-13T14:37:28.876Z</time>
      </trkpt>
      <trkpt lat="48.10603" lon="-2.80566">
        <ele>132.983059</ele>
        <time>2022-12-13T14:37:31.848Z</time>
      </trkpt>
      <trkpt lat="48.10603" lon="-2.80552">
        <ele>133.00183</ele>
        <time>2022-12-13T14:37:33.858Z</time>
      </trkpt>
      <trkpt lat="48.10603" lon="-2.80538">
        <ele>133.021141</ele>
        <time>2022-12-13T14:37:35.858Z</time>
      </trkpt>
      <trkpt lat="48.10604" lon="-2.80523">
        <ele>133.040716</ele>
        <time>2022-12-13T14:37:37.870Z</time>
      </trkpt>
      <trkpt lat="48.10605" lon="-2.8051">
        <ele>133.0595</ele>
        <time>2022-12-13T14:37:39.868Z</time>
      </trkpt>
      <trkpt lat="48.10604" lon="-2.80495">
        <ele>133.079896</ele>
        <time>2022-12-13T14:37:41.869Z</time>
      </trkpt>
      <trkpt lat="48.10605" lon="-2.80479">
        <ele>133.1013</ele>
        <time>2022-12-13T14:37:43.859Z</time>
      </trkpt>
      <trkpt lat="48.10607" lon="-2.80465">
        <ele>133.120604</ele>
        <time>2022-12-13T14:37:45.863Z</time>
      </trkpt>
      <trkpt lat="48.10608" lon="-2.80451">
        <ele>133.139339</ele>
        <time>2022-12-13T14:37:47.867Z</time>
      </trkpt>
      <trkpt lat="48.10607" lon="-2.80431">
        <ele>133.165887</ele>
        <time>2022-12-13T14:37:50.869Z</time>
      </trkpt>
      <trkpt lat="48.10608" lon="-2.80412">
        <ele>133.192391</ele>
        <time>2022-12-13T14:37:53.879Z</time>
      </trkpt>
      <trkpt lat="48.10608" lon="-2.80398">
        <ele>133.211222</ele>
        <time>2022-12-13T14:37:55.858Z</time>
      </trkpt>
      <trkpt lat="48.10608" lon="-2.80377">
        <ele>133.238756</ele>
        <time>2022-12-13T14:37:58.876Z</time>
      </trkpt>
      <trkpt lat="48.10609" lon="-2.80364">
        <ele>133.257089</ele>
        <time>2022-12-13T14:38:00.917Z</time>
      </trkpt>
      <trkpt lat="48.10612" lon="-2.80345">
        <ele>133.262555</ele>
        <time>2022-12-13T14:38:03.878Z</time>
      </trkpt>
      <trkpt lat="48.10612" lon="-2.80327">
        <ele>133.163553</ele>
        <time>2022-12-13T14:38:05.868Z</time>
      </trkpt>
      <trkpt lat="48.10611" lon="-2.8031">
        <ele>133.071568</ele>
        <time>2022-12-13T14:38:07.871Z</time>
      </trkpt>
      <trkpt lat="48.10611" lon="-2.80294">
        <ele>132.984476</ele>
        <time>2022-12-13T14:38:09.869Z</time>
      </trkpt>
      <trkpt lat="48.1061" lon="-2.80278">
        <ele>132.899148</ele>
        <time>2022-12-13T14:38:11.916Z</time>
      </trkpt>
      <trkpt lat="48.10608" lon="-2.8026">
        <ele>132.79703</ele>
        <time>2022-12-13T14:38:14.869Z</time>
      </trkpt>
      <trkpt lat="48.10606" lon="-2.80243">
        <ele>132.706754</ele>
        <time>2022-12-13T14:38:17.872Z</time>
      </trkpt>
      <trkpt lat="48.10605" lon="-2.80225">
        <ele>132.603765</ele>
        <time>2022-12-13T14:38:20.870Z</time>
      </trkpt>
      <trkpt lat="48.10603" lon="-2.80211">
        <ele>132.526055</ele>
        <time>2022-12-13T14:38:22.920Z</time>
      </trkpt>
      <trkpt lat="48.106" lon="-2.80192">
        <ele>132.420557</ele>
        <time>2022-12-13T14:38:25.857Z</time>
      </trkpt>
      <trkpt lat="48.10599" lon="-2.80178">
        <ele>132.346243</ele>
        <time>2022-12-13T14:38:27.868Z</time>
      </trkpt>
      <trkpt lat="48.10597" lon="-2.80165">
        <ele>132.271903</ele>
        <time>2022-12-13T14:38:29.874Z</time>
      </trkpt>
      <trkpt lat="48.10594" lon="-2.80151">
        <ele>132.193074</ele>
        <time>2022-12-13T14:38:31.870Z</time>
      </trkpt>
      <trkpt lat="48.10593" lon="-2.80137">
        <ele>132.117685</ele>
        <time>2022-12-13T14:38:33.929Z</time>
      </trkpt>
      <trkpt lat="48.10591" lon="-2.80122">
        <ele>132.03707</ele>
        <time>2022-12-13T14:38:35.859Z</time>
      </trkpt>
      <trkpt lat="48.1059" lon="-2.80108">
        <ele>131.955919</ele>
        <time>2022-12-13T14:38:37.869Z</time>
      </trkpt>
      <trkpt lat="48.10588" lon="-2.80094">
        <ele>131.880221</ele>
        <time>2022-12-13T14:38:39.879Z</time>
      </trkpt>
      <trkpt lat="48.10586" lon="-2.8008">
        <ele>131.789391</ele>
        <time>2022-12-13T14:38:41.868Z</time>
      </trkpt>
      <trkpt lat="48.10584" lon="-2.80066">
        <ele>131.649068</ele>
        <time>2022-12-13T14:38:43.873Z</time>
      </trkpt>
      <trkpt lat="48.10582" lon="-2.80049">
        <ele>131.477377</ele>
        <time>2022-12-13T14:38:46.870Z</time>
      </trkpt>
      <trkpt lat="48.10579" lon="-2.80031">
        <ele>131.292737</ele>
        <time>2022-12-13T14:38:49.871Z</time>
      </trkpt>
      <trkpt lat="48.10577" lon="-2.80017">
        <ele>131.148144</ele>
        <time>2022-12-13T14:38:51.873Z</time>
      </trkpt>
      <trkpt lat="48.10575" lon="-2.79997">
        <ele>130.949153</ele>
        <time>2022-12-13T14:38:54.869Z</time>
      </trkpt>
      <trkpt lat="48.10573" lon="-2.79977">
        <ele>130.744549</ele>
        <time>2022-12-13T14:38:57.873Z</time>
      </trkpt>
      <trkpt lat="48.10571" lon="-2.79962">
        <ele>130.593604</ele>
        <time>2022-12-13T14:38:59.865Z</time>
      </trkpt>
      <trkpt lat="48.10569" lon="-2.79947">
        <ele>130.44228</ele>
        <time>2022-12-13T14:39:01.850Z</time>
      </trkpt>
      <trkpt lat="48.10567" lon="-2.79931">
        <ele>130.286091</ele>
        <time>2022-12-13T14:39:03.872Z</time>
      </trkpt>
      <trkpt lat="48.10566" lon="-2.79916">
        <ele>130.135152</ele>
        <time>2022-12-13T14:39:05.862Z</time>
      </trkpt>
      <trkpt lat="48.10563" lon="-2.79903">
        <ele>129.994981</ele>
        <time>2022-12-13T14:39:07.848Z</time>
      </trkpt>
      <trkpt lat="48.1056" lon="-2.79884">
        <ele>129.809717</ele>
        <time>2022-12-13T14:39:10.869Z</time>
      </trkpt>
      <trkpt lat="48.10558" lon="-2.79864">
        <ele>129.60045</ele>
        <time>2022-12-13T14:39:13.871Z</time>
      </trkpt>
      <trkpt lat="48.10556" lon="-2.7985">
        <ele>129.460279</ele>
        <time>2022-12-13T14:39:15.871Z</time>
      </trkpt>
      <trkpt lat="48.10555" lon="-2.79835">
        <ele>129.312842</ele>
        <time>2022-12-13T14:39:17.947Z</time>
      </trkpt>
      <trkpt lat="48.10553" lon="-2.79821">
        <ele>129.166686</ele>
        <time>2022-12-13T14:39:19.858Z</time>
      </trkpt>
      <trkpt lat="48.10552" lon="-2.79806">
        <ele>129.136957</ele>
        <time>2022-12-13T14:39:21.874Z</time>
      </trkpt>
      <trkpt lat="48.1055" lon="-2.79792">
        <ele>129.136756</ele>
        <time>2022-12-13T14:39:23.911Z</time>
      </trkpt>
      <trkpt lat="48.10547" lon="-2.79777">
        <ele>129.136546</ele>
        <time>2022-12-13T14:39:25.864Z</time>
      </trkpt>
      <trkpt lat="48.10546" lon="-2.79762">
        <ele>129.13633</ele>
        <time>2022-12-13T14:39:27.878Z</time>
      </trkpt>
      <trkpt lat="48.10544" lon="-2.79747">
        <ele>129.136121</ele>
        <time>2022-12-13T14:39:29.870Z</time>
      </trkpt>
      <trkpt lat="48.10541" lon="-2.79733">
        <ele>129.13592</ele>
        <time>2022-12-13T14:39:31.880Z</time>
      </trkpt>
      <trkpt lat="48.10539" lon="-2.79719">
        <ele>129.135718</ele>
        <time>2022-12-13T14:39:33.872Z</time>
      </trkpt>
      <trkpt lat="48.10535" lon="-2.79699">
        <ele>129.135438</ele>
        <time>2022-12-13T14:39:36.874Z</time>
      </trkpt>
      <trkpt lat="48.10533" lon="-2.79685">
        <ele>129.135234</ele>
        <time>2022-12-13T14:39:38.878Z</time>
      </trkpt>
      <trkpt lat="48.1053" lon="-2.7967">
        <ele>129.135022</ele>
        <time>2022-12-13T14:39:40.865Z</time>
      </trkpt>
      <trkpt lat="48.10527" lon="-2.79656">
        <ele>129.134816</ele>
        <time>2022-12-13T14:39:42.856Z</time>
      </trkpt>
      <trkpt lat="48.10525" lon="-2.79642">
        <ele>129.134625</ele>
        <time>2022-12-13T14:39:44.878Z</time>
      </trkpt>
      <trkpt lat="48.10522" lon="-2.79625">
        <ele>129.134375</ele>
        <time>2022-12-13T14:39:47.856Z</time>
      </trkpt>
      <trkpt lat="48.10519" lon="-2.79609">
        <ele>129.13415</ele>
        <time>2022-12-13T14:39:50.871Z</time>
      </trkpt>
      <trkpt lat="48.10515" lon="-2.79592">
        <ele>129.133894</ele>
        <time>2022-12-13T14:39:53.874Z</time>
      </trkpt>
      <trkpt lat="48.10512" lon="-2.79573">
        <ele>129.133626</ele>
        <time>2022-12-13T14:39:56.886Z</time>
      </trkpt>
      <trkpt lat="48.10509" lon="-2.7956">
        <ele>129.133434</ele>
        <time>2022-12-13T14:39:58.860Z</time>
      </trkpt>
      <trkpt lat="48.10506" lon="-2.79547">
        <ele>128.971893</ele>
        <time>2022-12-13T14:40:00.847Z</time>
      </trkpt>
      <trkpt lat="48.10503" lon="-2.79531">
        <ele>128.739084</ele>
        <time>2022-12-13T14:40:02.873Z</time>
      </trkpt>
      <trkpt lat="48.10501" lon="-2.79517">
        <ele>128.517268</ele>
        <time>2022-12-13T14:40:04.866Z</time>
      </trkpt>
      <trkpt lat="48.10497" lon="-2.79501">
        <ele>128.282652</ele>
        <time>2022-12-13T14:40:06.873Z</time>
      </trkpt>
      <trkpt lat="48.10495" lon="-2.79487">
        <ele>128.068445</ele>
        <time>2022-12-13T14:40:08.868Z</time>
      </trkpt>
      <trkpt lat="48.10492" lon="-2.79468">
        <ele>127.776962</ele>
        <time>2022-12-13T14:40:11.884Z</time>
      </trkpt>
      <trkpt lat="48.10489" lon="-2.79454">
        <ele>127.567326</ele>
        <time>2022-12-13T14:40:13.870Z</time>
      </trkpt>
      <trkpt lat="48.10487" lon="-2.7944">
        <ele>127.35894</ele>
        <time>2022-12-13T14:40:15.871Z</time>
      </trkpt>
      <trkpt lat="48.10485" lon="-2.79425">
        <ele>127.13626</ele>
        <time>2022-12-13T14:40:17.872Z</time>
      </trkpt>
      <trkpt lat="48.10484" lon="-2.79409">
        <ele>126.910017</ele>
        <time>2022-12-13T14:40:19.876Z</time>
      </trkpt>
      <trkpt lat="48.10482" lon="-2.79395">
        <ele>126.700623</ele>
        <time>2022-12-13T14:40:21.871Z</time>
      </trkpt>
      <trkpt lat="48.10481" lon="-2.79381">
        <ele>126.48722</ele>
        <time>2022-12-13T14:40:23.873Z</time>
      </trkpt>
      <trkpt lat="48.10479" lon="-2.79367">
        <ele>126.277919</ele>
        <time>2022-12-13T14:40:25.872Z</time>
      </trkpt>
      <trkpt lat="48.10477" lon="-2.79353">
        <ele>126.067488</ele>
        <time>2022-12-13T14:40:27.852Z</time>
      </trkpt>
      <trkpt lat="48.10475" lon="-2.79338">
        <ele>125.852748</ele>
        <time>2022-12-13T14:40:29.918Z</time>
      </trkpt>
      <trkpt lat="48.10474" lon="-2.79318">
        <ele>125.552759</ele>
        <time>2022-12-13T14:40:32.870Z</time>
      </trkpt>
      <trkpt lat="48.10473" lon="-2.79303">
        <ele>125.332963</ele>
        <time>2022-12-13T14:40:34.868Z</time>
      </trkpt>
      <trkpt lat="48.10472" lon="-2.79287">
        <ele>125.207615</ele>
        <time>2022-12-13T14:40:36.865Z</time>
      </trkpt>
      <trkpt lat="48.1047" lon="-2.79273">
        <ele>125.214175</ele>
        <time>2022-12-13T14:40:38.869Z</time>
      </trkpt>
      <trkpt lat="48.10469" lon="-2.79258">
        <ele>125.221129</ele>
        <time>2022-12-13T14:40:40.855Z</time>
      </trkpt>
      <trkpt lat="48.10468" lon="-2.79244">
        <ele>125.227871</ele>
        <time>2022-12-13T14:40:42.867Z</time>
      </trkpt>
      <trkpt lat="48.10467" lon="-2.79229">
        <ele>125.234513</ele>
        <time>2022-12-13T14:40:44.869Z</time>
      </trkpt>
      <trkpt lat="48.10465" lon="-2.79216">
        <ele>125.240721</ele>
        <time>2022-12-13T14:40:46.851Z</time>
      </trkpt>
      <trkpt lat="48.10463" lon="-2.79203">
        <ele>125.247063</ele>
        <time>2022-12-13T14:40:48.868Z</time>
      </trkpt>
      <trkpt lat="48.10462" lon="-2.79188">
        <ele>125.253735</ele>
        <time>2022-12-13T14:40:50.852Z</time>
      </trkpt>
      <trkpt lat="48.10461" lon="-2.79174">
        <ele>125.260506</ele>
        <time>2022-12-13T14:40:52.874Z</time>
      </trkpt>
      <trkpt lat="48.1046" lon="-2.79159">
        <ele>125.267506</ele>
        <time>2022-12-13T14:40:54.848Z</time>
      </trkpt>
      <trkpt lat="48.10458" lon="-2.79145">
        <ele>125.273973</ele>
        <time>2022-12-13T14:40:56.915Z</time>
      </trkpt>
      <trkpt lat="48.10457" lon="-2.79131">
        <ele>125.280158</ele>
        <time>2022-12-13T14:40:58.867Z</time>
      </trkpt>
      <trkpt lat="48.10455" lon="-2.79114">
        <ele>125.288272</ele>
        <time>2022-12-13T14:41:01.872Z</time>
      </trkpt>
      <trkpt lat="48.10453" lon="-2.791">
        <ele>125.295</ele>
        <time>2022-12-13T14:41:04.860Z</time>
      </trkpt>
      <trkpt lat="48.10453" lon="-2.79086">
        <ele>125.301497</ele>
        <time>2022-12-13T14:41:11.874Z</time>
      </trkpt>
      <trkpt lat="48.1045" lon="-2.79072">
        <ele>125.307989</ele>
        <time>2022-12-13T14:41:17.872Z</time>
      </trkpt>
      <trkpt lat="48.10451" lon="-2.79056">
        <ele>125.315604</ele>
        <time>2022-12-13T14:41:22.870Z</time>
      </trkpt>
      <trkpt lat="48.10451" lon="-2.7904">
        <ele>125.322937</ele>
        <time>2022-12-13T14:41:28.863Z</time>
      </trkpt>
      <trkpt lat="48.10447" lon="-2.79026">
        <ele>125.27936</ele>
        <time>2022-12-13T14:41:37.875Z</time>
      </trkpt>
      <trkpt lat="48.10446" lon="-2.79012">
        <ele>125.041045</ele>
        <time>2022-12-13T14:41:41.864Z</time>
      </trkpt>
      <trkpt lat="48.10446" lon="-2.78997">
        <ele>124.782373</ele>
        <time>2022-12-13T14:41:44.876Z</time>
      </trkpt>
      <trkpt lat="48.10446" lon="-2.7898">
        <ele>124.494873</ele>
        <time>2022-12-13T14:41:47.853Z</time>
      </trkpt>
      <trkpt lat="48.10447" lon="-2.78959">
        <ele>124.147971</ele>
        <time>2022-12-13T14:41:50.862Z</time>
      </trkpt>
      <trkpt lat="48.10448" lon="-2.78945">
        <ele>123.902939</ele>
        <time>2022-12-13T14:41:52.867Z</time>
      </trkpt>
      <trkpt lat="48.10448" lon="-2.78931">
        <ele>123.667934</ele>
        <time>2022-12-13T14:41:54.861Z</time>
      </trkpt>
      <trkpt lat="48.10449" lon="-2.78911">
        <ele>123.32958</ele>
        <time>2022-12-13T14:41:57.870Z</time>
      </trkpt>
      <trkpt lat="48.10449" lon="-2.78892">
        <ele>123.01842</ele>
        <time>2022-12-13T14:42:00.860Z</time>
      </trkpt>
      <trkpt lat="48.10449" lon="-2.78873">
        <ele>122.693828</ele>
        <time>2022-12-13T14:42:03.858Z</time>
      </trkpt>
      <trkpt lat="48.10449" lon="-2.78853">
        <ele>122.353983</ele>
        <time>2022-12-13T14:42:06.852Z</time>
      </trkpt>
      <trkpt lat="48.10449" lon="-2.78839">
        <ele>122.120669</ele>
        <time>2022-12-13T14:42:08.867Z</time>
      </trkpt>
      <trkpt lat="48.1045" lon="-2.78825">
        <ele>121.873636</ele>
        <time>2022-12-13T14:42:10.870Z</time>
      </trkpt>
      <trkpt lat="48.10451" lon="-2.7881">
        <ele>121.623834</ele>
        <time>2022-12-13T14:42:12.871Z</time>
      </trkpt>
      <trkpt lat="48.10452" lon="-2.78795">
        <ele>121.371129</ele>
        <time>2022-12-13T14:42:14.872Z</time>
      </trkpt>
      <trkpt lat="48.10454" lon="-2.78777">
        <ele>121.053396</ele>
        <time>2022-12-13T14:42:17.869Z</time>
      </trkpt>
      <trkpt lat="48.10455" lon="-2.78759">
        <ele>120.771157</ele>
        <time>2022-12-13T14:42:20.872Z</time>
      </trkpt>
      <trkpt lat="48.10456" lon="-2.78741">
        <ele>120.711098</ele>
        <time>2022-12-13T14:42:23.865Z</time>
      </trkpt>
      <trkpt lat="48.10457" lon="-2.78727">
        <ele>120.664729</ele>
        <time>2022-12-13T14:42:25.873Z</time>
      </trkpt>
      <trkpt lat="48.10458" lon="-2.78709">
        <ele>120.604618</ele>
        <time>2022-12-13T14:42:28.871Z</time>
      </trkpt>
      <trkpt lat="48.10459" lon="-2.78691">
        <ele>120.547808</ele>
        <time>2022-12-13T14:42:31.873Z</time>
      </trkpt>
      <trkpt lat="48.1046" lon="-2.78672">
        <ele>120.485216</ele>
        <time>2022-12-13T14:42:34.858Z</time>
      </trkpt>
      <trkpt lat="48.10462" lon="-2.78658">
        <ele>120.436812</ele>
        <time>2022-12-13T14:42:36.851Z</time>
      </trkpt>
      <trkpt lat="48.10463" lon="-2.78643">
        <ele>120.387011</ele>
        <time>2022-12-13T14:42:38.870Z</time>
      </trkpt>
      <trkpt lat="48.10464" lon="-2.78629">
        <ele>120.339828</ele>
        <time>2022-12-13T14:42:40.864Z</time>
      </trkpt>
      <trkpt lat="48.10466" lon="-2.78614">
        <ele>120.291672</ele>
        <time>2022-12-13T14:42:42.870Z</time>
      </trkpt>
      <trkpt lat="48.10467" lon="-2.78594">
        <ele>120.2242</ele>
        <time>2022-12-13T14:42:45.860Z</time>
      </trkpt>
      <trkpt lat="48.10469" lon="-2.78576">
        <ele>120.167063</ele>
        <time>2022-12-13T14:42:48.870Z</time>
      </trkpt>
      <trkpt lat="48.1047" lon="-2.78559">
        <ele>120.109483</ele>
        <time>2022-12-13T14:42:51.868Z</time>
      </trkpt>
      <trkpt lat="48.10477" lon="-2.78542">
        <ele>120.044662</ele>
        <time>2022-12-13T14:42:54.868Z</time>
      </trkpt>
      <trkpt lat="48.10482" lon="-2.78529">
        <ele>119.994327</ele>
        <time>2022-12-13T14:42:56.871Z</time>
      </trkpt>
      <trkpt lat="48.10488" lon="-2.78514">
        <ele>119.938919</ele>
        <time>2022-12-13T14:42:58.872Z</time>
      </trkpt>
      <trkpt lat="48.10494" lon="-2.785">
        <ele>119.879947</ele>
        <time>2022-12-13T14:43:00.883Z</time>
      </trkpt>
      <trkpt lat="48.10497" lon="-2.78488">
        <ele>119.788606</ele>
        <time>2022-12-13T14:43:02.872Z</time>
      </trkpt>
      <trkpt lat="48.10501" lon="-2.78475">
        <ele>119.697064</ele>
        <time>2022-12-13T14:43:04.857Z</time>
      </trkpt>
      <trkpt lat="48.10506" lon="-2.78463">
        <ele>119.601448</ele>
        <time>2022-12-13T14:43:06.869Z</time>
      </trkpt>
      <trkpt lat="48.10511" lon="-2.78449">
        <ele>119.49679</ele>
        <time>2022-12-13T14:43:08.858Z</time>
      </trkpt>
      <trkpt lat="48.10515" lon="-2.78434">
        <ele>119.389194</ele>
        <time>2022-12-13T14:43:10.870Z</time>
      </trkpt>
      <trkpt lat="48.10519" lon="-2.78422">
        <ele>119.297749</ele>
        <time>2022-12-13T14:43:12.870Z</time>
      </trkpt>
      <trkpt lat="48.10524" lon="-2.78406">
        <ele>119.183517</ele>
        <time>2022-12-13T14:43:14.870Z</time>
      </trkpt>
      <trkpt lat="48.10529" lon="-2.78394">
        <ele>119.086369</ele>
        <time>2022-12-13T14:43:16.866Z</time>
      </trkpt>
      <trkpt lat="48.10532" lon="-2.7838">
        <ele>118.991657</ele>
        <time>2022-12-13T14:43:18.863Z</time>
      </trkpt>
      <trkpt lat="48.10536" lon="-2.78367">
        <ele>118.89767</ele>
        <time>2022-12-13T14:43:20.873Z</time>
      </trkpt>
      <trkpt lat="48.10541" lon="-2.78351">
        <ele>118.780604</ele>
        <time>2022-12-13T14:43:23.872Z</time>
      </trkpt>
      <trkpt lat="48.10547" lon="-2.78335">
        <ele>118.657884</ele>
        <time>2022-12-13T14:43:26.862Z</time>
      </trkpt>
      <trkpt lat="48.10552" lon="-2.78318">
        <ele>118.532507</ele>
        <time>2022-12-13T14:43:29.855Z</time>
      </trkpt>
      <trkpt lat="48.10555" lon="-2.78304">
        <ele>118.434676</ele>
        <time>2022-12-13T14:43:31.870Z</time>
      </trkpt>
      <trkpt lat="48.10559" lon="-2.78291">
        <ele>118.339289</ele>
        <time>2022-12-13T14:43:33.875Z</time>
      </trkpt>
      <trkpt lat="48.10563" lon="-2.78279">
        <ele>118.249407</ele>
        <time>2022-12-13T14:43:35.860Z</time>
      </trkpt>
      <trkpt lat="48.10569" lon="-2.78262">
        <ele>118.123038</ele>
        <time>2022-12-13T14:43:38.870Z</time>
      </trkpt>
      <trkpt lat="48.10572" lon="-2.78247">
        <ele>117.991934</ele>
        <time>2022-12-13T14:43:40.934Z</time>
      </trkpt>
      <trkpt lat="48.10574" lon="-2.78232">
        <ele>117.862642</ele>
        <time>2022-12-13T14:43:42.867Z</time>
      </trkpt>
      <trkpt lat="48.10576" lon="-2.78217">
        <ele>117.729293</ele>
        <time>2022-12-13T14:43:44.869Z</time>
      </trkpt>
      <trkpt lat="48.10577" lon="-2.78204">
        <ele>117.609325</ele>
        <time>2022-12-13T14:43:46.854Z</time>
      </trkpt>
      <trkpt lat="48.10576" lon="-2.78185">
        <ele>117.447194</ele>
        <time>2022-12-13T14:43:49.869Z</time>
      </trkpt>
      <trkpt lat="48.10573" lon="-2.78167">
        <ele>117.278606</ele>
        <time>2022-12-13T14:43:52.853Z</time>
      </trkpt>
      <trkpt lat="48.10568" lon="-2.78148">
        <ele>117.1051</ele>
        <time>2022-12-13T14:43:55.877Z</time>
      </trkpt>
      <trkpt lat="48.10562" lon="-2.78136">
        <ele>116.970447</ele>
        <time>2022-12-13T14:43:57.874Z</time>
      </trkpt>
      <trkpt lat="48.10556" lon="-2.7812">
        <ele>116.80924</ele>
        <time>2022-12-13T14:44:00.862Z</time>
      </trkpt>
      <trkpt lat="48.10548" lon="-2.78105">
        <ele>116.640014</ele>
        <time>2022-12-13T14:44:03.872Z</time>
      </trkpt>
      <trkpt lat="48.10539" lon="-2.78091">
        <ele>116.466128</ele>
        <time>2022-12-13T14:44:06.871Z</time>
      </trkpt>
      <trkpt lat="48.10531" lon="-2.78083">
        <ele>116.348105</ele>
        <time>2022-12-13T14:44:08.860Z</time>
      </trkpt>
      <trkpt lat="48.10521" lon="-2.78074">
        <ele>116.190275</ele>
        <time>2022-12-13T14:44:11.882Z</time>
      </trkpt>
      <trkpt lat="48.1051" lon="-2.78067">
        <ele>116.033507</ele>
        <time>2022-12-13T14:44:14.866Z</time>
      </trkpt>
      <trkpt lat="48.105" lon="-2.78063">
        <ele>115.897881</ele>
        <time>2022-12-13T14:44:17.843Z</time>
      </trkpt>
      <trkpt lat="48.1049" lon="-2.7806">
        <ele>115.767991</ele>
        <time>2022-12-13T14:44:20.871Z</time>
      </trkpt>
      <trkpt lat="48.10481" lon="-2.78055">
        <ele>115.542218</ele>
        <time>2022-12-13T14:44:23.873Z</time>
      </trkpt>
      <trkpt lat="48.10472" lon="-2.78054">
        <ele>115.307592</ele>
        <time>2022-12-13T14:44:26.865Z</time>
      </trkpt>
      <trkpt lat="48.10463" lon="-2.78052">
        <ele>115.054203</ele>
        <time>2022-12-13T14:44:29.873Z</time>
      </trkpt>
      <trkpt lat="48.10452" lon="-2.78049">
        <ele>114.774274</ele>
        <time>2022-12-13T14:44:32.871Z</time>
      </trkpt>
      <trkpt lat="48.1044" lon="-2.78045">
        <ele>114.443671</ele>
        <time>2022-12-13T14:44:35.916Z</time>
      </trkpt>
      <trkpt lat="48.10427" lon="-2.78042">
        <ele>114.098655</ele>
        <time>2022-12-13T14:44:38.872Z</time>
      </trkpt>
      <trkpt lat="48.10414" lon="-2.78039">
        <ele>113.756212</ele>
        <time>2022-12-13T14:44:41.854Z</time>
      </trkpt>
      <trkpt lat="48.10403" lon="-2.78035">
        <ele>113.461095</ele>
        <time>2022-12-13T14:44:44.871Z</time>
      </trkpt>
      <trkpt lat="48.10393" lon="-2.78031">
        <ele>113.197418</ele>
        <time>2022-12-13T14:44:47.869Z</time>
      </trkpt>
      <trkpt lat="48.10384" lon="-2.78029">
        <ele>112.962287</ele>
        <time>2022-12-13T14:44:50.849Z</time>
      </trkpt>
      <trkpt lat="48.10374" lon="-2.78026">
        <ele>112.699321</ele>
        <time>2022-12-13T14:44:54.868Z</time>
      </trkpt>
      <trkpt lat="48.10364" lon="-2.78025">
        <ele>112.45339</ele>
        <time>2022-12-13T14:44:59.854Z</time>
      </trkpt>
      <trkpt lat="48.10352" lon="-2.78022">
        <ele>112.130459</ele>
        <time>2022-12-13T14:45:03.856Z</time>
      </trkpt>
      <trkpt lat="48.1034" lon="-2.7802">
        <ele>111.813129</ele>
        <time>2022-12-13T14:45:06.870Z</time>
      </trkpt>
      <trkpt lat="48.10326" lon="-2.78017">
        <ele>111.45315</ele>
        <time>2022-12-13T14:45:09.860Z</time>
      </trkpt>
      <trkpt lat="48.10313" lon="-2.78015">
        <ele>111.101802</ele>
        <time>2022-12-13T14:45:12.868Z</time>
      </trkpt>
      <trkpt lat="48.10304" lon="-2.78013">
        <ele>111.016955</ele>
        <time>2022-12-13T14:45:14.857Z</time>
      </trkpt>
      <trkpt lat="48.10294" lon="-2.78012">
        <ele>110.960366</ele>
        <time>2022-12-13T14:45:16.880Z</time>
      </trkpt>
      <trkpt lat="48.10285" lon="-2.78011">
        <ele>110.905855</ele>
        <time>2022-12-13T14:45:18.867Z</time>
      </trkpt>
      <trkpt lat="48.10271" lon="-2.78009">
        <ele>110.828386</ele>
        <time>2022-12-13T14:45:21.880Z</time>
      </trkpt>
      <trkpt lat="48.10259" lon="-2.78006">
        <ele>110.758088</ele>
        <time>2022-12-13T14:45:24.867Z</time>
      </trkpt>
      <trkpt lat="48.1025" lon="-2.78005">
        <ele>110.70614</ele>
        <time>2022-12-13T14:45:26.867Z</time>
      </trkpt>
      <trkpt lat="48.10241" lon="-2.78003">
        <ele>110.652685</ele>
        <time>2022-12-13T14:45:28.867Z</time>
      </trkpt>
      <trkpt lat="48.10231" lon="-2.78002">
        <ele>110.598509</ele>
        <time>2022-12-13T14:45:30.914Z</time>
      </trkpt>
      <trkpt lat="48.10222" lon="-2.78">
        <ele>110.543004</ele>
        <time>2022-12-13T14:45:32.870Z</time>
      </trkpt>
      <trkpt lat="48.10212" lon="-2.77998">
        <ele>110.489396</ele>
        <time>2022-12-13T14:45:34.884Z</time>
      </trkpt>
      <trkpt lat="48.10203" lon="-2.77996">
        <ele>110.434852</ele>
        <time>2022-12-13T14:45:36.881Z</time>
      </trkpt>
      <trkpt lat="48.10193" lon="-2.77993">
        <ele>110.379116</ele>
        <time>2022-12-13T14:45:38.858Z</time>
      </trkpt>
      <trkpt lat="48.10184" lon="-2.77992">
        <ele>110.325509</ele>
        <time>2022-12-13T14:45:40.868Z</time>
      </trkpt>
      <trkpt lat="48.10174" lon="-2.7799">
        <ele>110.269893</ele>
        <time>2022-12-13T14:45:42.858Z</time>
      </trkpt>
      <trkpt lat="48.10164" lon="-2.77989">
        <ele>110.211471</ele>
        <time>2022-12-13T14:45:44.874Z</time>
      </trkpt>
      <trkpt lat="48.10155" lon="-2.77987">
        <ele>110.156799</ele>
        <time>2022-12-13T14:45:46.870Z</time>
      </trkpt>
      <trkpt lat="48.10143" lon="-2.77986">
        <ele>110.087481</ele>
        <time>2022-12-13T14:45:49.851Z</time>
      </trkpt>
      <trkpt lat="48.10131" lon="-2.77985">
        <ele>110.039098</ele>
        <time>2022-12-13T14:45:52.858Z</time>
      </trkpt>
      <trkpt lat="48.10118" lon="-2.77982">
        <ele>110.097174</ele>
        <time>2022-12-13T14:45:55.872Z</time>
      </trkpt>
      <trkpt lat="48.10106" lon="-2.77979">
        <ele>110.154892</ele>
        <time>2022-12-13T14:45:58.856Z</time>
      </trkpt>
      <trkpt lat="48.10093" lon="-2.77977">
        <ele>110.212661</ele>
        <time>2022-12-13T14:46:01.870Z</time>
      </trkpt>
      <trkpt lat="48.10084" lon="-2.77977">
        <ele>110.254155</ele>
        <time>2022-12-13T14:46:03.857Z</time>
      </trkpt>
      <trkpt lat="48.10075" lon="-2.77974">
        <ele>110.296958</ele>
        <time>2022-12-13T14:46:05.857Z</time>
      </trkpt>
      <trkpt lat="48.10066" lon="-2.77972">
        <ele>110.338535</ele>
        <time>2022-12-13T14:46:07.868Z</time>
      </trkpt>
      <trkpt lat="48.10056" lon="-2.7797">
        <ele>110.381822</ele>
        <time>2022-12-13T14:46:09.873Z</time>
      </trkpt>
      <trkpt lat="48.10047" lon="-2.77967">
        <ele>110.423795</ele>
        <time>2022-12-13T14:46:11.858Z</time>
      </trkpt>
      <trkpt lat="48.10036" lon="-2.77964">
        <ele>110.479029</ele>
        <time>2022-12-13T14:46:14.875Z</time>
      </trkpt>
      <trkpt lat="48.10027" lon="-2.77963">
        <ele>110.520135</ele>
        <time>2022-12-13T14:46:16.866Z</time>
      </trkpt>
      <trkpt lat="48.10015" lon="-2.7796">
        <ele>110.574063</ele>
        <time>2022-12-13T14:46:19.873Z</time>
      </trkpt>
      <trkpt lat="48.10003" lon="-2.77957">
        <ele>110.62846</ele>
        <time>2022-12-13T14:46:22.852Z</time>
      </trkpt>
      <trkpt lat="48.0999" lon="-2.77955">
        <ele>110.686683</ele>
        <time>2022-12-13T14:46:25.858Z</time>
      </trkpt>
      <trkpt lat="48.09978" lon="-2.77952">
        <ele>110.744972</ele>
        <time>2022-12-13T14:46:28.870Z</time>
      </trkpt>
      <trkpt lat="48.09969" lon="-2.7795">
        <ele>110.787209</ele>
        <time>2022-12-13T14:46:30.868Z</time>
      </trkpt>
      <trkpt lat="48.09959" lon="-2.77948">
        <ele>110.829926</ele>
        <time>2022-12-13T14:46:32.885Z</time>
      </trkpt>
      <trkpt lat="48.0995" lon="-2.77945">
        <ele>110.807216</ele>
        <time>2022-12-13T14:46:34.876Z</time>
      </trkpt>
      <trkpt lat="48.09937" lon="-2.77944">
        <ele>110.70837</ele>
        <time>2022-12-13T14:46:37.928Z</time>
      </trkpt>
      <trkpt lat="48.09926" lon="-2.77941">
        <ele>110.615419</ele>
        <time>2022-12-13T14:46:40.877Z</time>
      </trkpt>
      <trkpt lat="48.09913" lon="-2.77938">
        <ele>110.513059</ele>
        <time>2022-12-13T14:46:43.869Z</time>
      </trkpt>
      <trkpt lat="48.09901" lon="-2.77934">
        <ele>110.411151</ele>
        <time>2022-12-13T14:46:46.858Z</time>
      </trkpt>
      <trkpt lat="48.09888" lon="-2.77929">
        <ele>110.305922</ele>
        <time>2022-12-13T14:46:49.856Z</time>
      </trkpt>
      <trkpt lat="48.09876" lon="-2.77923">
        <ele>110.205017</ele>
        <time>2022-12-13T14:46:52.872Z</time>
      </trkpt>
      <trkpt lat="48.09864" lon="-2.77916">
        <ele>110.105529</ele>
        <time>2022-12-13T14:46:55.873Z</time>
      </trkpt>
      <trkpt lat="48.09852" lon="-2.77906">
        <ele>109.998625</ele>
        <time>2022-12-13T14:46:58.873Z</time>
      </trkpt>
      <trkpt lat="48.09841" lon="-2.77895">
        <ele>109.891596</ele>
        <time>2022-12-13T14:47:01.880Z</time>
      </trkpt>
      <trkpt lat="48.09833" lon="-2.77887">
        <ele>109.817091</ele>
        <time>2022-12-13T14:47:03.870Z</time>
      </trkpt>
      <trkpt lat="48.09826" lon="-2.77879">
        <ele>109.742262</ele>
        <time>2022-12-13T14:47:05.873Z</time>
      </trkpt>
      <trkpt lat="48.09818" lon="-2.77871">
        <ele>109.666896</ele>
        <time>2022-12-13T14:47:07.872Z</time>
      </trkpt>
      <trkpt lat="48.0981" lon="-2.77863">
        <ele>109.593334</ele>
        <time>2022-12-13T14:47:09.871Z</time>
      </trkpt>
      <trkpt lat="48.098" lon="-2.77853">
        <ele>109.493188</ele>
        <time>2022-12-13T14:47:12.869Z</time>
      </trkpt>
      <trkpt lat="48.0979" lon="-2.77841">
        <ele>109.437935</ele>
        <time>2022-12-13T14:47:15.863Z</time>
      </trkpt>
      <trkpt lat="48.0978" lon="-2.77831">
        <ele>109.504133</ele>
        <time>2022-12-13T14:47:18.864Z</time>
      </trkpt>
      <trkpt lat="48.0977" lon="-2.7782">
        <ele>109.576074</ele>
        <time>2022-12-13T14:47:21.890Z</time>
      </trkpt>
      <trkpt lat="48.0976" lon="-2.77809">
        <ele>109.645558</ele>
        <time>2022-12-13T14:47:24.858Z</time>
      </trkpt>
      <trkpt lat="48.0975" lon="-2.77799">
        <ele>109.708914</ele>
        <time>2022-12-13T14:47:27.872Z</time>
      </trkpt>
      <trkpt lat="48.09742" lon="-2.7779">
        <ele>109.766558</ele>
        <time>2022-12-13T14:47:30.870Z</time>
      </trkpt>
      <trkpt lat="48.09733" lon="-2.7778">
        <ele>109.83135</ele>
        <time>2022-12-13T14:47:33.872Z</time>
      </trkpt>
      <trkpt lat="48.09723" lon="-2.77769">
        <ele>109.898601</ele>
        <time>2022-12-13T14:47:36.863Z</time>
      </trkpt>
      <trkpt lat="48.09713" lon="-2.77758">
        <ele>109.968767</ele>
        <time>2022-12-13T14:47:39.870Z</time>
      </trkpt>
      <trkpt lat="48.09703" lon="-2.77748">
        <ele>110.036355</ele>
        <time>2022-12-13T14:47:42.867Z</time>
      </trkpt>
      <trkpt lat="48.09693" lon="-2.77738">
        <ele>110.10386</ele>
        <time>2022-12-13T14:47:45.855Z</time>
      </trkpt>
      <trkpt lat="48.09683" lon="-2.77728">
        <ele>110.167374</ele>
        <time>2022-12-13T14:47:48.916Z</time>
      </trkpt>
      <trkpt lat="48.09674" lon="-2.77718">
        <ele>110.232901</ele>
        <time>2022-12-13T14:47:51.881Z</time>
      </trkpt>
      <trkpt lat="48.09663" lon="-2.77708">
        <ele>110.304256</ele>
        <time>2022-12-13T14:47:54.856Z</time>
      </trkpt>
      <trkpt lat="48.0965" lon="-2.77699">
        <ele>110.380349</ele>
        <time>2022-12-13T14:47:57.848Z</time>
      </trkpt>
      <trkpt lat="48.09638" lon="-2.77691">
        <ele>110.505355</ele>
        <time>2022-12-13T14:48:00.859Z</time>
      </trkpt>
      <trkpt lat="48.09626" lon="-2.77684">
        <ele>110.695257</ele>
        <time>2022-12-13T14:48:03.872Z</time>
      </trkpt>
      <trkpt lat="48.09614" lon="-2.77679">
        <ele>110.878738</ele>
        <time>2022-12-13T14:48:06.875Z</time>
      </trkpt>
      <trkpt lat="48.09603" lon="-2.77675">
        <ele>111.046317</ele>
        <time>2022-12-13T14:48:09.874Z</time>
      </trkpt>
      <trkpt lat="48.09591" lon="-2.77673">
        <ele>111.213985</ele>
        <time>2022-12-13T14:48:12.857Z</time>
      </trkpt>
      <trkpt lat="48.09581" lon="-2.77671">
        <ele>111.364179</ele>
        <time>2022-12-13T14:48:15.859Z</time>
      </trkpt>
      <trkpt lat="48.09572" lon="-2.7767">
        <ele>111.493506</ele>
        <time>2022-12-13T14:48:18.856Z</time>
      </trkpt>
      <trkpt lat="48.09561" lon="-2.7767">
        <ele>111.645665</ele>
        <time>2022-12-13T14:48:24.857Z</time>
      </trkpt>
      <trkpt lat="48.0955" lon="-2.7767">
        <ele>111.816509</ele>
        <time>2022-12-13T14:48:28.853Z</time>
      </trkpt>
      <trkpt lat="48.09538" lon="-2.77671">
        <ele>111.977572</ele>
        <time>2022-12-13T14:48:31.863Z</time>
      </trkpt>
      <trkpt lat="48.09526" lon="-2.77671">
        <ele>112.154138</ele>
        <time>2022-12-13T14:48:34.858Z</time>
      </trkpt>
      <trkpt lat="48.09513" lon="-2.77671">
        <ele>112.340833</ele>
        <time>2022-12-13T14:48:37.926Z</time>
      </trkpt>
      <trkpt lat="48.09501" lon="-2.77672">
        <ele>112.523444</ele>
        <time>2022-12-13T14:48:40.874Z</time>
      </trkpt>
      <trkpt lat="48.0949" lon="-2.77673">
        <ele>112.679893</ele>
        <time>2022-12-13T14:48:43.857Z</time>
      </trkpt>
      <trkpt lat="48.09481" lon="-2.77683">
        <ele>112.83978</ele>
        <time>2022-12-13T14:48:47.866Z</time>
      </trkpt>
      <trkpt lat="48.09482" lon="-2.77698">
        <ele>112.991017</ele>
        <time>2022-12-13T14:48:51.884Z</time>
      </trkpt>
      <trkpt lat="48.09475" lon="-2.7771">
        <ele>112.87367</ele>
        <time>2022-12-13T14:48:55.860Z</time>
      </trkpt>
      <trkpt lat="48.09466" lon="-2.77713">
        <ele>112.699317</ele>
        <time>2022-12-13T14:48:59.937Z</time>
      </trkpt>
      <trkpt lat="48.09456" lon="-2.77715">
        <ele>112.506499</ele>
        <time>2022-12-13T14:49:03.877Z</time>
      </trkpt>
      <trkpt lat="48.09445" lon="-2.77719">
        <ele>112.273627</ele>
        <time>2022-12-13T14:49:06.871Z</time>
      </trkpt>
      <trkpt lat="48.09435" lon="-2.77722">
        <ele>112.087619</ele>
        <time>2022-12-13T14:49:08.872Z</time>
      </trkpt>
      <trkpt lat="48.09423" lon="-2.77728">
        <ele>111.838324</ele>
        <time>2022-12-13T14:49:11.873Z</time>
      </trkpt>
      <trkpt lat="48.09412" lon="-2.77734">
        <ele>111.604073</ele>
        <time>2022-12-13T14:49:14.866Z</time>
      </trkpt>
      <trkpt lat="48.09401" lon="-2.77739">
        <ele>111.377555</ele>
        <time>2022-12-13T14:49:17.878Z</time>
      </trkpt>
      <trkpt lat="48.09388" lon="-2.77745">
        <ele>111.131716</ele>
        <time>2022-12-13T14:49:20.869Z</time>
      </trkpt>
      <trkpt lat="48.09376" lon="-2.77749">
        <ele>110.879187</ele>
        <time>2022-12-13T14:49:23.863Z</time>
      </trkpt>
      <trkpt lat="48.09362" lon="-2.77752">
        <ele>110.613554</ele>
        <time>2022-12-13T14:49:26.870Z</time>
      </trkpt>
      <trkpt lat="48.0935" lon="-2.77753">
        <ele>110.37882</ele>
        <time>2022-12-13T14:49:29.870Z</time>
      </trkpt>
      <trkpt lat="48.09339" lon="-2.77753">
        <ele>110.163941</ele>
        <time>2022-12-13T14:49:32.920Z</time>
      </trkpt>
      <trkpt lat="48.09328" lon="-2.77753">
        <ele>109.943354</ele>
        <time>2022-12-13T14:49:35.867Z</time>
      </trkpt>
      <trkpt lat="48.09314" lon="-2.77753">
        <ele>109.687886</ele>
        <time>2022-12-13T14:49:38.869Z</time>
      </trkpt>
      <trkpt lat="48.09302" lon="-2.77754">
        <ele>109.549244</ele>
        <time>2022-12-13T14:49:41.868Z</time>
      </trkpt>
      <trkpt lat="48.09289" lon="-2.77755">
        <ele>109.55776</ele>
        <time>2022-12-13T14:49:44.857Z</time>
      </trkpt>
      <trkpt lat="48.0928" lon="-2.77756">
        <ele>109.563727</ele>
        <time>2022-12-13T14:49:46.859Z</time>
      </trkpt>
      <trkpt lat="48.09268" lon="-2.77757">
        <ele>109.572124</ele>
        <time>2022-12-13T14:49:49.922Z</time>
      </trkpt>
      <trkpt lat="48.09258" lon="-2.77757">
        <ele>109.578145</ele>
        <time>2022-12-13T14:49:51.874Z</time>
      </trkpt>
      <trkpt lat="48.09246" lon="-2.77757">
        <ele>109.585994</ele>
        <time>2022-12-13T14:49:54.871Z</time>
      </trkpt>
      <trkpt lat="48.09235" lon="-2.77757">
        <ele>109.593123</ele>
        <time>2022-12-13T14:49:57.883Z</time>
      </trkpt>
      <trkpt lat="48.09223" lon="-2.77758">
        <ele>109.601187</ele>
        <time>2022-12-13T14:50:00.918Z</time>
      </trkpt>
      <trkpt lat="48.0921" lon="-2.77759">
        <ele>109.60957</ele>
        <time>2022-12-13T14:50:03.874Z</time>
      </trkpt>
      <trkpt lat="48.09201" lon="-2.7776">
        <ele>109.61553</ele>
        <time>2022-12-13T14:50:05.877Z</time>
      </trkpt>
      <trkpt lat="48.09188" lon="-2.7776">
        <ele>109.624295</ele>
        <time>2022-12-13T14:50:08.876Z</time>
      </trkpt>
      <trkpt lat="48.09175" lon="-2.77762">
        <ele>109.632953</ele>
        <time>2022-12-13T14:50:11.919Z</time>
      </trkpt>
      <trkpt lat="48.09162" lon="-2.77764">
        <ele>109.641362</ele>
        <time>2022-12-13T14:50:14.859Z</time>
      </trkpt>
      <trkpt lat="48.09149" lon="-2.77766">
        <ele>109.650104</ele>
        <time>2022-12-13T14:50:17.884Z</time>
      </trkpt>
      <trkpt lat="48.09138" lon="-2.77767">
        <ele>109.656742</ele>
        <time>2022-12-13T14:50:19.873Z</time>
      </trkpt>
      <trkpt lat="48.09129" lon="-2.77768">
        <ele>109.662916</ele>
        <time>2022-12-13T14:50:21.877Z</time>
      </trkpt>
      <trkpt lat="48.09116" lon="-2.77771">
        <ele>109.711002</ele>
        <time>2022-12-13T14:50:24.854Z</time>
      </trkpt>
      <trkpt lat="48.09106" lon="-2.77774">
        <ele>109.748566</ele>
        <time>2022-12-13T14:50:26.867Z</time>
      </trkpt>
      <trkpt lat="48.09093" lon="-2.77775">
        <ele>109.797526</ele>
        <time>2022-12-13T14:50:29.868Z</time>
      </trkpt>
      <trkpt lat="48.09081" lon="-2.77776">
        <ele>109.845235</ele>
        <time>2022-12-13T14:50:32.876Z</time>
      </trkpt>
      <trkpt lat="48.09069" lon="-2.77776">
        <ele>109.893248</ele>
        <time>2022-12-13T14:50:35.864Z</time>
      </trkpt>
      <trkpt lat="48.09056" lon="-2.77776">
        <ele>109.942851</ele>
        <time>2022-12-13T14:50:38.916Z</time>
      </trkpt>
      <trkpt lat="48.09047" lon="-2.77773">
        <ele>109.978117</ele>
        <time>2022-12-13T14:50:40.884Z</time>
      </trkpt>
      <trkpt lat="48.09038" lon="-2.77769">
        <ele>110.013371</ele>
        <time>2022-12-13T14:50:42.880Z</time>
      </trkpt>
      <trkpt lat="48.09026" lon="-2.77763">
        <ele>110.063379</ele>
        <time>2022-12-13T14:50:45.865Z</time>
      </trkpt>
      <trkpt lat="48.09014" lon="-2.77758">
        <ele>110.110783</ele>
        <time>2022-12-13T14:50:48.883Z</time>
      </trkpt>
      <trkpt lat="48.09002" lon="-2.77753">
        <ele>110.157754</ele>
        <time>2022-12-13T14:50:51.859Z</time>
      </trkpt>
      <trkpt lat="48.0899" lon="-2.77748">
        <ele>110.207827</ele>
        <time>2022-12-13T14:50:54.922Z</time>
      </trkpt>
      <trkpt lat="48.08977" lon="-2.77742">
        <ele>110.259247</ele>
        <time>2022-12-13T14:50:57.884Z</time>
      </trkpt>
      <trkpt lat="48.08969" lon="-2.77738">
        <ele>110.29472</ele>
        <time>2022-12-13T14:50:59.880Z</time>
      </trkpt>
      <trkpt lat="48.08956" lon="-2.77732">
        <ele>110.345787</ele>
        <time>2022-12-13T14:51:02.867Z</time>
      </trkpt>
      <trkpt lat="48.08945" lon="-2.77724">
        <ele>110.337357</ele>
        <time>2022-12-13T14:51:05.883Z</time>
      </trkpt>
      <trkpt lat="48.08935" lon="-2.77716">
        <ele>110.306907</ele>
        <time>2022-12-13T14:51:08.873Z</time>
      </trkpt>
      <trkpt lat="48.08924" lon="-2.77709">
        <ele>110.27505</ele>
        <time>2022-12-13T14:51:11.871Z</time>
      </trkpt>
      <trkpt lat="48.08912" lon="-2.77701">
        <ele>110.238368</ele>
        <time>2022-12-13T14:51:14.849Z</time>
      </trkpt>
      <trkpt lat="48.08904" lon="-2.77695">
        <ele>110.212461</ele>
        <time>2022-12-13T14:51:16.915Z</time>
      </trkpt>
      <trkpt lat="48.08891" lon="-2.77686">
        <ele>110.174791</ele>
        <time>2022-12-13T14:51:19.861Z</time>
      </trkpt>
      <trkpt lat="48.08882" lon="-2.77679">
        <ele>110.147994</ele>
        <time>2022-12-13T14:51:21.871Z</time>
      </trkpt>
      <trkpt lat="48.08873" lon="-2.77673">
        <ele>110.121426</ele>
        <time>2022-12-13T14:51:23.871Z</time>
      </trkpt>
      <trkpt lat="48.08865" lon="-2.77667">
        <ele>110.096096</ele>
        <time>2022-12-13T14:51:25.872Z</time>
      </trkpt>
      <trkpt lat="48.08854" lon="-2.77658">
        <ele>110.062473</ele>
        <time>2022-12-13T14:51:28.874Z</time>
      </trkpt>
      <trkpt lat="48.08843" lon="-2.77651">
        <ele>110.030143</ele>
        <time>2022-12-13T14:51:31.854Z</time>
      </trkpt>
      <trkpt lat="48.08831" lon="-2.77641">
        <ele>109.992371</ele>
        <time>2022-12-13T14:51:34.885Z</time>
      </trkpt>
      <trkpt lat="48.08819" lon="-2.77632">
        <ele>109.956972</ele>
        <time>2022-12-13T14:51:37.883Z</time>
      </trkpt>
      <trkpt lat="48.0881" lon="-2.77627">
        <ele>109.929729</ele>
        <time>2022-12-13T14:51:39.870Z</time>
      </trkpt>
      <trkpt lat="48.08802" lon="-2.77621">
        <ele>109.904965</ele>
        <time>2022-12-13T14:51:41.879Z</time>
      </trkpt>
      <trkpt lat="48.0879" lon="-2.77612">
        <ele>109.872481</ele>
        <time>2022-12-13T14:51:44.856Z</time>
      </trkpt>
      <trkpt lat="48.08782" lon="-2.77606">
        <ele>109.899478</ele>
        <time>2022-12-13T14:51:46.876Z</time>
      </trkpt>
      <trkpt lat="48.0877" lon="-2.77597">
        <ele>109.938874</ele>
        <time>2022-12-13T14:51:49.878Z</time>
      </trkpt>
      <trkpt lat="48.08759" lon="-2.77589">
        <ele>109.974991</ele>
        <time>2022-12-13T14:51:52.874Z</time>
      </trkpt>
      <trkpt lat="48.08747" lon="-2.7758">
        <ele>110.014657</ele>
        <time>2022-12-13T14:51:55.862Z</time>
      </trkpt>
      <trkpt lat="48.08739" lon="-2.77573">
        <ele>110.043351</ele>
        <time>2022-12-13T14:51:57.878Z</time>
      </trkpt>
      <trkpt lat="48.08729" lon="-2.77561">
        <ele>110.080495</ele>
        <time>2022-12-13T14:52:00.870Z</time>
      </trkpt>
      <trkpt lat="48.08723" lon="-2.77549">
        <ele>110.111498</ele>
        <time>2022-12-13T14:52:03.872Z</time>
      </trkpt>
      <trkpt lat="48.08717" lon="-2.77536">
        <ele>110.141343</ele>
        <time>2022-12-13T14:52:06.873Z</time>
      </trkpt>
      <trkpt lat="48.08713" lon="-2.77523">
        <ele>110.169841</ele>
        <time>2022-12-13T14:52:09.884Z</time>
      </trkpt>
      <trkpt lat="48.08709" lon="-2.77509">
        <ele>110.20046</ele>
        <time>2022-12-13T14:52:13.878Z</time>
      </trkpt>
      <trkpt lat="48.08703" lon="-2.77497">
        <ele>110.230135</ele>
        <time>2022-12-13T14:52:18.873Z</time>
      </trkpt>
      <trkpt lat="48.08699" lon="-2.77481">
        <ele>110.263156</ele>
        <time>2022-12-13T14:52:22.915Z</time>
      </trkpt>
      <trkpt lat="48.08696" lon="-2.77467">
        <ele>110.293057</ele>
        <time>2022-12-13T14:52:25.862Z</time>
      </trkpt>
      <trkpt lat="48.08692" lon="-2.77454">
        <ele>110.321791</ele>
        <time>2022-12-13T14:52:28.855Z</time>
      </trkpt>
      <trkpt lat="48.08688" lon="-2.77442">
        <ele>110.348475</ele>
        <time>2022-12-13T14:52:31.875Z</time>
      </trkpt>
      <trkpt lat="48.08684" lon="-2.77429">
        <ele>110.375772</ele>
        <time>2022-12-13T14:52:36.873Z</time>
      </trkpt>
      <trkpt lat="48.0868" lon="-2.77414">
        <ele>110.410359</ele>
        <time>2022-12-13T14:52:41.872Z</time>
      </trkpt>
      <trkpt lat="48.08676" lon="-2.77403">
        <ele>110.461592</ele>
        <time>2022-12-13T14:52:45.928Z</time>
      </trkpt>
      <trkpt lat="48.08671" lon="-2.77388">
        <ele>110.522815</ele>
        <time>2022-12-13T14:52:48.859Z</time>
      </trkpt>
      <trkpt lat="48.08666" lon="-2.77371">
        <ele>110.592761</ele>
        <time>2022-12-13T14:52:51.880Z</time>
      </trkpt>
      <trkpt lat="48.08662" lon="-2.77359">
        <ele>110.644554</ele>
        <time>2022-12-13T14:52:53.870Z</time>
      </trkpt>
      <trkpt lat="48.08656" lon="-2.77341">
        <ele>110.717549</ele>
        <time>2022-12-13T14:52:56.867Z</time>
      </trkpt>
      <trkpt lat="48.08652" lon="-2.77324">
        <ele>110.789535</ele>
        <time>2022-12-13T14:52:59.876Z</time>
      </trkpt>
      <trkpt lat="48.08649" lon="-2.7731">
        <ele>110.843361</ele>
        <time>2022-12-13T14:53:01.881Z</time>
      </trkpt>
      <trkpt lat="48.08647" lon="-2.77296">
        <ele>110.895389</ele>
        <time>2022-12-13T14:53:03.862Z</time>
      </trkpt>
      <trkpt lat="48.08646" lon="-2.77281">
        <ele>110.952259</ele>
        <time>2022-12-13T14:53:05.892Z</time>
      </trkpt>
      <trkpt lat="48.08647" lon="-2.77267">
        <ele>111.005551</ele>
        <time>2022-12-13T14:53:07.875Z</time>
      </trkpt>
      <trkpt lat="48.08648" lon="-2.77254">
        <ele>111.058304</ele>
        <time>2022-12-13T14:53:09.871Z</time>
      </trkpt>
      <trkpt lat="48.08651" lon="-2.77241">
        <ele>111.109591</ele>
        <time>2022-12-13T14:53:11.934Z</time>
      </trkpt>
      <trkpt lat="48.08653" lon="-2.77227">
        <ele>111.161852</ele>
        <time>2022-12-13T14:53:13.875Z</time>
      </trkpt>
      <trkpt lat="48.08656" lon="-2.77208">
        <ele>111.236556</ele>
        <time>2022-12-13T14:53:16.868Z</time>
      </trkpt>
      <trkpt lat="48.08659" lon="-2.77189">
        <ele>111.310711</ele>
        <time>2022-12-13T14:53:19.885Z</time>
      </trkpt>
      <trkpt lat="48.08662" lon="-2.77175">
        <ele>111.364537</ele>
        <time>2022-12-13T14:53:21.877Z</time>
      </trkpt>
      <trkpt lat="48.08663" lon="-2.77162">
        <ele>111.416194</ele>
        <time>2022-12-13T14:53:23.872Z</time>
      </trkpt>
      <trkpt lat="48.08667" lon="-2.77143">
        <ele>111.486339</ele>
        <time>2022-12-13T14:53:26.885Z</time>
      </trkpt>
      <trkpt lat="48.0867" lon="-2.77129">
        <ele>111.5411</ele>
        <time>2022-12-13T14:53:28.917Z</time>
      </trkpt>
      <trkpt lat="48.08676" lon="-2.77113">
        <ele>111.608305</ele>
        <time>2022-12-13T14:53:31.868Z</time>
      </trkpt>
      <trkpt lat="48.08679" lon="-2.77098">
        <ele>111.663195</ele>
        <time>2022-12-13T14:53:34.857Z</time>
      </trkpt>
      <trkpt lat="48.08682" lon="-2.77082">
        <ele>111.724623</ele>
        <time>2022-12-13T14:53:37.859Z</time>
      </trkpt>
      <trkpt lat="48.08689" lon="-2.77066">
        <ele>111.79322</ele>
        <time>2022-12-13T14:53:40.869Z</time>
      </trkpt>
      <trkpt lat="48.08695" lon="-2.77048">
        <ele>111.865233</ele>
        <time>2022-12-13T14:53:43.878Z</time>
      </trkpt>
      <trkpt lat="48.08701" lon="-2.7703">
        <ele>111.939354</ele>
        <time>2022-12-13T14:53:46.888Z</time>
      </trkpt>
      <trkpt lat="48.08706" lon="-2.77017">
        <ele>111.992476</ele>
        <time>2022-12-13T14:53:48.868Z</time>
      </trkpt>
      <trkpt lat="48.08711" lon="-2.77005">
        <ele>112.044517</ele>
        <time>2022-12-13T14:53:50.921Z</time>
      </trkpt>
      <trkpt lat="48.08717" lon="-2.76988">
        <ele>112.115368</ele>
        <time>2022-12-13T14:53:53.868Z</time>
      </trkpt>
      <trkpt lat="48.08723" lon="-2.76973">
        <ele>112.176685</ele>
        <time>2022-12-13T14:53:56.863Z</time>
      </trkpt>
      <trkpt lat="48.08728" lon="-2.76958">
        <ele>112.236048</ele>
        <time>2022-12-13T14:53:59.885Z</time>
      </trkpt>
      <trkpt lat="48.08732" lon="-2.76944">
        <ele>112.293712</ele>
        <time>2022-12-13T14:54:02.857Z</time>
      </trkpt>
      <trkpt lat="48.08736" lon="-2.76927">
        <ele>112.35876</ele>
        <time>2022-12-13T14:54:05.861Z</time>
      </trkpt>
      <trkpt lat="48.08739" lon="-2.76909">
        <ele>112.328998</ele>
        <time>2022-12-13T14:54:08.872Z</time>
      </trkpt>
      <trkpt lat="48.08738" lon="-2.76891">
        <ele>112.148091</ele>
        <time>2022-12-13T14:54:11.885Z</time>
      </trkpt>
      <trkpt lat="48.08735" lon="-2.76873">
        <ele>111.968682</ele>
        <time>2022-12-13T14:54:14.871Z</time>
      </trkpt>
      <trkpt lat="48.0873" lon="-2.76858">
        <ele>111.808816</ele>
        <time>2022-12-13T14:54:17.902Z</time>
      </trkpt>
      <trkpt lat="48.08723" lon="-2.76844">
        <ele>111.638228</ele>
        <time>2022-12-13T14:54:20.866Z</time>
      </trkpt>
      <trkpt lat="48.08717" lon="-2.76834">
        <ele>111.508877</ele>
        <time>2022-12-13T14:54:22.879Z</time>
      </trkpt>
      <trkpt lat="48.08707" lon="-2.76822">
        <ele>111.331868</ele>
        <time>2022-12-13T14:54:25.854Z</time>
      </trkpt>
      <trkpt lat="48.08697" lon="-2.76813">
        <ele>111.156521</ele>
        <time>2022-12-13T14:54:28.857Z</time>
      </trkpt>
      <trkpt lat="48.08686" lon="-2.76805">
        <ele>110.977121</ele>
        <time>2022-12-13T14:54:31.858Z</time>
      </trkpt>
      <trkpt lat="48.08674" lon="-2.76796">
        <ele>110.791287</ele>
        <time>2022-12-13T14:54:34.885Z</time>
      </trkpt>
      <trkpt lat="48.08662" lon="-2.76789">
        <ele>110.606068</ele>
        <time>2022-12-13T14:54:37.872Z</time>
      </trkpt>
      <trkpt lat="48.08651" lon="-2.7678">
        <ele>110.426667</ele>
        <time>2022-12-13T14:54:40.873Z</time>
      </trkpt>
      <trkpt lat="48.0864" lon="-2.76771">
        <ele>110.244662</ele>
        <time>2022-12-13T14:54:43.883Z</time>
      </trkpt>
      <trkpt lat="48.08629" lon="-2.76762">
        <ele>110.059215</ele>
        <time>2022-12-13T14:54:46.868Z</time>
      </trkpt>
      <trkpt lat="48.0862" lon="-2.76756">
        <ele>109.929177</ele>
        <time>2022-12-13T14:54:48.869Z</time>
      </trkpt>
      <trkpt lat="48.08612" lon="-2.7675">
        <ele>109.802507</ele>
        <time>2022-12-13T14:54:50.871Z</time>
      </trkpt>
      <trkpt lat="48.08601" lon="-2.7674">
        <ele>109.694279</ele>
        <time>2022-12-13T14:54:53.856Z</time>
      </trkpt>
      <trkpt lat="48.0859" lon="-2.76732">
        <ele>109.597293</ele>
        <time>2022-12-13T14:54:56.877Z</time>
      </trkpt>
      <trkpt lat="48.0858" lon="-2.76724">
        <ele>109.500766</ele>
        <time>2022-12-13T14:54:59.867Z</time>
      </trkpt>
      <trkpt lat="48.08568" lon="-2.76714">
        <ele>109.393519</ele>
        <time>2022-12-13T14:55:02.850Z</time>
      </trkpt>
      <trkpt lat="48.0856" lon="-2.76708">
        <ele>109.317479</ele>
        <time>2022-12-13T14:55:04.880Z</time>
      </trkpt>
      <trkpt lat="48.08552" lon="-2.76702">
        <ele>109.24285</ele>
        <time>2022-12-13T14:55:06.861Z</time>
      </trkpt>
      <trkpt lat="48.0854" lon="-2.76693">
        <ele>109.133181</ele>
        <time>2022-12-13T14:55:09.869Z</time>
      </trkpt>
      <trkpt lat="48.08532" lon="-2.76686">
        <ele>109.057899</ele>
        <time>2022-12-13T14:55:11.937Z</time>
      </trkpt>
      <trkpt lat="48.0852" lon="-2.76677">
        <ele>108.949669</ele>
        <time>2022-12-13T14:55:14.885Z</time>
      </trkpt>
      <trkpt lat="48.08512" lon="-2.76671">
        <ele>108.872884</ele>
        <time>2022-12-13T14:55:16.871Z</time>
      </trkpt>
      <trkpt lat="48.08503" lon="-2.76665">
        <ele>108.796106</ele>
        <time>2022-12-13T14:55:18.868Z</time>
      </trkpt>
      <trkpt lat="48.08494" lon="-2.76659">
        <ele>108.719042</ele>
        <time>2022-12-13T14:55:20.871Z</time>
      </trkpt>
      <trkpt lat="48.08483" lon="-2.7665">
        <ele>108.610843</ele>
        <time>2022-12-13T14:55:23.871Z</time>
      </trkpt>
      <trkpt lat="48.08473" lon="-2.76641">
        <ele>108.514371</ele>
        <time>2022-12-13T14:55:26.858Z</time>
      </trkpt>
      <trkpt lat="48.08463" lon="-2.76633">
        <ele>108.422974</ele>
        <time>2022-12-13T14:55:29.883Z</time>
      </trkpt>
      <trkpt lat="48.08453" lon="-2.76628">
        <ele>108.340509</ele>
        <time>2022-12-13T14:55:32.885Z</time>
      </trkpt>
      <trkpt lat="48.08443" lon="-2.7662">
        <ele>108.315594</ele>
        <time>2022-12-13T14:55:35.930Z</time>
      </trkpt>
      <trkpt lat="48.08432" lon="-2.76611">
        <ele>108.286242</ele>
        <time>2022-12-13T14:55:38.860Z</time>
      </trkpt>
      <trkpt lat="48.0842" lon="-2.76604">
        <ele>108.256574</ele>
        <time>2022-12-13T14:55:41.870Z</time>
      </trkpt>
      <trkpt lat="48.08411" lon="-2.76598">
        <ele>108.235322</ele>
        <time>2022-12-13T14:55:43.868Z</time>
      </trkpt>
      <trkpt lat="48.08403" lon="-2.76591">
        <ele>108.213612</ele>
        <time>2022-12-13T14:55:45.872Z</time>
      </trkpt>
      <trkpt lat="48.08395" lon="-2.76584">
        <ele>108.191185</ele>
        <time>2022-12-13T14:55:47.887Z</time>
      </trkpt>
      <trkpt lat="48.08383" lon="-2.76575">
        <ele>108.161413</ele>
        <time>2022-12-13T14:55:50.860Z</time>
      </trkpt>
      <trkpt lat="48.08372" lon="-2.76568">
        <ele>108.133689</ele>
        <time>2022-12-13T14:55:53.867Z</time>
      </trkpt>
      <trkpt lat="48.08361" lon="-2.76558">
        <ele>108.104504</ele>
        <time>2022-12-13T14:55:56.864Z</time>
      </trkpt>
      <trkpt lat="48.0835" lon="-2.7655">
        <ele>108.075831</ele>
        <time>2022-12-13T14:55:59.885Z</time>
      </trkpt>
      <trkpt lat="48.08342" lon="-2.76543">
        <ele>108.054653</ele>
        <time>2022-12-13T14:56:01.868Z</time>
      </trkpt>
      <trkpt lat="48.08333" lon="-2.76538">
        <ele>108.034003</ele>
        <time>2022-12-13T14:56:03.884Z</time>
      </trkpt>
      <trkpt lat="48.08325" lon="-2.76531">
        <ele>108.012641</ele>
        <time>2022-12-13T14:56:05.891Z</time>
      </trkpt>
      <trkpt lat="48.08317" lon="-2.76523">
        <ele>107.990611</ele>
        <time>2022-12-13T14:56:07.869Z</time>
      </trkpt>
      <trkpt lat="48.08306" lon="-2.76515">
        <ele>107.961328</ele>
        <time>2022-12-13T14:56:10.887Z</time>
      </trkpt>
      <trkpt lat="48.08295" lon="-2.76507">
        <ele>107.933546</ele>
        <time>2022-12-13T14:56:13.917Z</time>
      </trkpt>
      <trkpt lat="48.08285" lon="-2.76499">
        <ele>108.10903</ele>
        <time>2022-12-13T14:56:16.871Z</time>
      </trkpt>
      <trkpt lat="48.08276" lon="-2.76492">
        <ele>108.303939</ele>
        <time>2022-12-13T14:56:19.860Z</time>
      </trkpt>
      <trkpt lat="48.08265" lon="-2.76484">
        <ele>108.523184</ele>
        <time>2022-12-13T14:56:22.872Z</time>
      </trkpt>
      <trkpt lat="48.08256" lon="-2.76476">
        <ele>108.731123</ele>
        <time>2022-12-13T14:56:25.881Z</time>
      </trkpt>
      <trkpt lat="48.08246" lon="-2.76469">
        <ele>108.926019</ele>
        <time>2022-12-13T14:56:28.868Z</time>
      </trkpt>
      <trkpt lat="48.08236" lon="-2.76462">
        <ele>109.144123</ele>
        <time>2022-12-13T14:56:32.873Z</time>
      </trkpt>
      <trkpt lat="48.08225" lon="-2.76456">
        <ele>109.359039</ele>
        <time>2022-12-13T14:56:36.862Z</time>
      </trkpt>
      <trkpt lat="48.08218" lon="-2.76447">
        <ele>109.5382</ele>
        <time>2022-12-13T14:56:40.898Z</time>
      </trkpt>
      <trkpt lat="48.08208" lon="-2.76442">
        <ele>109.740316</ele>
        <time>2022-12-13T14:56:45.861Z</time>
      </trkpt>
      <trkpt lat="48.082" lon="-2.76434">
        <ele>109.91344</ele>
        <time>2022-12-13T14:56:51.892Z</time>
      </trkpt>
      <trkpt lat="48.08193" lon="-2.76427">
        <ele>110.083971</ele>
        <time>2022-12-13T14:56:55.876Z</time>
      </trkpt>
      <trkpt lat="48.08185" lon="-2.76418">
        <ele>110.260112</ele>
        <time>2022-12-13T14:57:01.875Z</time>
      </trkpt>
      <trkpt lat="48.08176" lon="-2.76414">
        <ele>110.444687</ele>
        <time>2022-12-13T14:57:05.863Z</time>
      </trkpt>
      <trkpt lat="48.08168" lon="-2.76407">
        <ele>110.616158</ele>
        <time>2022-12-13T14:57:09.884Z</time>
      </trkpt>
      <trkpt lat="48.08171" lon="-2.76397">
        <ele>110.760276</ele>
        <time>2022-12-13T15:02:22.499Z</time>
      </trkpt>
      <trkpt lat="48.08158" lon="-2.76397">
        <ele>111.005828</ele>
        <time>2022-12-13T15:12:22.866Z</time>
      </trkpt>
      <trkpt lat="48.08149" lon="-2.7639">
        <ele>111.201846</ele>
        <time>2022-12-13T15:12:27.861Z</time>
      </trkpt>
      <trkpt lat="48.0814" lon="-2.76382">
        <ele>111.323977</ele>
        <time>2022-12-13T15:12:31.866Z</time>
      </trkpt>
      <trkpt lat="48.0813" lon="-2.76376">
        <ele>111.316868</ele>
        <time>2022-12-13T15:12:35.864Z</time>
      </trkpt>
      <trkpt lat="48.08121" lon="-2.76369">
        <ele>111.310387</ele>
        <time>2022-12-13T15:12:38.871Z</time>
      </trkpt>
      <trkpt lat="48.08112" lon="-2.7636">
        <ele>111.303031</ele>
        <time>2022-12-13T15:12:41.868Z</time>
      </trkpt>
      <trkpt lat="48.08104" lon="-2.76353">
        <ele>111.29696</ele>
        <time>2022-12-13T15:12:45.862Z</time>
      </trkpt>
      <trkpt lat="48.08097" lon="-2.76343">
        <ele>111.290531</ele>
        <time>2022-12-13T15:12:49.874Z</time>
      </trkpt>
      <trkpt lat="48.08088" lon="-2.76332">
        <ele>111.28297</ele>
        <time>2022-12-13T15:12:52.878Z</time>
      </trkpt>
      <trkpt lat="48.08082" lon="-2.76321">
        <ele>111.276819</ele>
        <time>2022-12-13T15:12:55.868Z</time>
      </trkpt>
      <trkpt lat="48.08076" lon="-2.76311">
        <ele>111.270925</ele>
        <time>2022-12-13T15:12:58.867Z</time>
      </trkpt>
      <trkpt lat="48.0807" lon="-2.76297">
        <ele>111.263596</ele>
        <time>2022-12-13T15:13:02.860Z</time>
      </trkpt>
      <trkpt lat="48.08062" lon="-2.76282">
        <ele>111.25508</ele>
        <time>2022-12-13T15:13:05.866Z</time>
      </trkpt>
      <trkpt lat="48.08055" lon="-2.76268">
        <ele>111.247451</ele>
        <time>2022-12-13T15:13:08.871Z</time>
      </trkpt>
      <trkpt lat="48.08046" lon="-2.76253">
        <ele>111.238795</ele>
        <time>2022-12-13T15:13:11.868Z</time>
      </trkpt>
      <trkpt lat="48.08039" lon="-2.76244">
        <ele>111.232768</ele>
        <time>2022-12-13T15:13:13.870Z</time>
      </trkpt>
      <trkpt lat="48.08031" lon="-2.7623">
        <ele>111.224665</ele>
        <time>2022-12-13T15:13:16.880Z</time>
      </trkpt>
      <trkpt lat="48.08023" lon="-2.76218">
        <ele>111.217277</ele>
        <time>2022-12-13T15:13:19.867Z</time>
      </trkpt>
      <trkpt lat="48.08015" lon="-2.76206">
        <ele>111.20978</ele>
        <time>2022-12-13T15:13:22.874Z</time>
      </trkpt>
      <trkpt lat="48.08007" lon="-2.76195">
        <ele>111.085752</ele>
        <time>2022-12-13T15:13:25.862Z</time>
      </trkpt>
      <trkpt lat="48.07999" lon="-2.76184">
        <ele>110.915488</ele>
        <time>2022-12-13T15:13:28.877Z</time>
      </trkpt>
      <trkpt lat="48.07989" lon="-2.7617">
        <ele>110.717752</ele>
        <time>2022-12-13T15:13:31.875Z</time>
      </trkpt>
      <trkpt lat="48.0798" lon="-2.76157">
        <ele>110.536874</ele>
        <time>2022-12-13T15:13:34.875Z</time>
      </trkpt>
      <trkpt lat="48.07972" lon="-2.76147">
        <ele>110.389969</ele>
        <time>2022-12-13T15:13:37.885Z</time>
      </trkpt>
      <trkpt lat="48.07964" lon="-2.76136">
        <ele>110.23072</ele>
        <time>2022-12-13T15:13:40.886Z</time>
      </trkpt>
      <trkpt lat="48.07956" lon="-2.76125">
        <ele>110.072135</ele>
        <time>2022-12-13T15:13:43.871Z</time>
      </trkpt>
      <trkpt lat="48.07947" lon="-2.76112">
        <ele>109.889988</ele>
        <time>2022-12-13T15:13:46.874Z</time>
      </trkpt>
      <trkpt lat="48.07939" lon="-2.76101">
        <ele>109.733572</ele>
        <time>2022-12-13T15:13:49.869Z</time>
      </trkpt>
      <trkpt lat="48.07929" lon="-2.76089">
        <ele>109.550963</ele>
        <time>2022-12-13T15:13:52.864Z</time>
      </trkpt>
      <trkpt lat="48.07919" lon="-2.76077">
        <ele>109.364632</ele>
        <time>2022-12-13T15:13:55.860Z</time>
      </trkpt>
      <trkpt lat="48.07911" lon="-2.76065">
        <ele>109.19698</ele>
        <time>2022-12-13T15:13:58.878Z</time>
      </trkpt>
      <trkpt lat="48.07903" lon="-2.76055">
        <ele>109.040729</ele>
        <time>2022-12-13T15:14:01.871Z</time>
      </trkpt>
      <trkpt lat="48.07894" lon="-2.76043">
        <ele>108.871345</ele>
        <time>2022-12-13T15:14:04.879Z</time>
      </trkpt>
      <trkpt lat="48.07884" lon="-2.76033">
        <ele>108.691456</ele>
        <time>2022-12-13T15:14:07.859Z</time>
      </trkpt>
      <trkpt lat="48.07874" lon="-2.7602">
        <ele>108.545301</ele>
        <time>2022-12-13T15:14:10.881Z</time>
      </trkpt>
      <trkpt lat="48.07865" lon="-2.76011">
        <ele>108.454836</ele>
        <time>2022-12-13T15:14:13.863Z</time>
      </trkpt>
      <trkpt lat="48.07855" lon="-2.76003">
        <ele>108.365398</ele>
        <time>2022-12-13T15:14:16.875Z</time>
      </trkpt>
      <trkpt lat="48.07845" lon="-2.75993">
        <ele>108.268265</ele>
        <time>2022-12-13T15:14:19.878Z</time>
      </trkpt>
      <trkpt lat="48.07835" lon="-2.75984">
        <ele>108.173461</ele>
        <time>2022-12-13T15:14:22.862Z</time>
      </trkpt>
      <trkpt lat="48.07824" lon="-2.75975">
        <ele>108.077691</ele>
        <time>2022-12-13T15:14:25.864Z</time>
      </trkpt>
      <trkpt lat="48.07814" lon="-2.75965">
        <ele>107.977095</ele>
        <time>2022-12-13T15:14:28.872Z</time>
      </trkpt>
      <trkpt lat="48.07804" lon="-2.75955">
        <ele>107.881506</ele>
        <time>2022-12-13T15:14:31.887Z</time>
      </trkpt>
      <trkpt lat="48.07794" lon="-2.75945">
        <ele>107.786801</ele>
        <time>2022-12-13T15:14:34.862Z</time>
      </trkpt>
      <trkpt lat="48.07784" lon="-2.75936">
        <ele>107.694318</ele>
        <time>2022-12-13T15:14:37.877Z</time>
      </trkpt>
      <trkpt lat="48.07774" lon="-2.75928">
        <ele>107.600912</ele>
        <time>2022-12-13T15:14:40.859Z</time>
      </trkpt>
      <trkpt lat="48.07764" lon="-2.75919">
        <ele>107.507506</ele>
        <time>2022-12-13T15:14:43.870Z</time>
      </trkpt>
      <trkpt lat="48.07754" lon="-2.75909">
        <ele>107.409743</ele>
        <time>2022-12-13T15:14:46.879Z</time>
      </trkpt>
      <trkpt lat="48.07744" lon="-2.75899">
        <ele>107.317347</ele>
        <time>2022-12-13T15:14:49.882Z</time>
      </trkpt>
      <trkpt lat="48.07735" lon="-2.75892">
        <ele>107.235346</ele>
        <time>2022-12-13T15:14:52.876Z</time>
      </trkpt>
      <trkpt lat="48.07724" lon="-2.75882">
        <ele>107.142793</ele>
        <time>2022-12-13T15:14:55.864Z</time>
      </trkpt>
      <trkpt lat="48.07713" lon="-2.75872">
        <ele>107.102922</ele>
        <time>2022-12-13T15:14:58.882Z</time>
      </trkpt>
      <trkpt lat="48.07703" lon="-2.75862">
        <ele>107.065911</ele>
        <time>2022-12-13T15:15:01.878Z</time>
      </trkpt>
      <trkpt lat="48.07694" lon="-2.75853">
        <ele>107.031525</ele>
        <time>2022-12-13T15:15:04.877Z</time>
      </trkpt>
      <trkpt lat="48.07684" lon="-2.75845">
        <ele>106.995996</ele>
        <time>2022-12-13T15:15:07.864Z</time>
      </trkpt>
      <trkpt lat="48.07675" lon="-2.75836">
        <ele>106.960563</ele>
        <time>2022-12-13T15:15:10.884Z</time>
      </trkpt>
      <trkpt lat="48.07664" lon="-2.75826">
        <ele>106.921603</ele>
        <time>2022-12-13T15:15:13.879Z</time>
      </trkpt>
      <trkpt lat="48.07653" lon="-2.75816">
        <ele>106.882272</ele>
        <time>2022-12-13T15:15:16.879Z</time>
      </trkpt>
      <trkpt lat="48.07643" lon="-2.75806">
        <ele>106.843576</ele>
        <time>2022-12-13T15:15:19.864Z</time>
      </trkpt>
      <trkpt lat="48.07633" lon="-2.75797">
        <ele>106.807691</ele>
        <time>2022-12-13T15:15:22.882Z</time>
      </trkpt>
      <trkpt lat="48.07624" lon="-2.75787">
        <ele>106.773094</ele>
        <time>2022-12-13T15:15:25.859Z</time>
      </trkpt>
      <trkpt lat="48.07615" lon="-2.75777">
        <ele>106.736146</ele>
        <time>2022-12-13T15:15:28.883Z</time>
      </trkpt>
      <trkpt lat="48.07604" lon="-2.75765">
        <ele>106.695562</ele>
        <time>2022-12-13T15:15:31.879Z</time>
      </trkpt>
      <trkpt lat="48.07596" lon="-2.75756">
        <ele>106.664604</ele>
        <time>2022-12-13T15:15:33.882Z</time>
      </trkpt>
      <trkpt lat="48.07587" lon="-2.75744">
        <ele>106.62527</ele>
        <time>2022-12-13T15:15:36.877Z</time>
      </trkpt>
      <trkpt lat="48.07577" lon="-2.75733">
        <ele>106.589828</ele>
        <time>2022-12-13T15:15:39.865Z</time>
      </trkpt>
      <trkpt lat="48.07568" lon="-2.75722">
        <ele>106.691439</ele>
        <time>2022-12-13T15:15:42.871Z</time>
      </trkpt>
      <trkpt lat="48.07557" lon="-2.7571">
        <ele>106.79942</ele>
        <time>2022-12-13T15:15:45.867Z</time>
      </trkpt>
      <trkpt lat="48.07548" lon="-2.75701">
        <ele>106.895203</ele>
        <time>2022-12-13T15:15:48.874Z</time>
      </trkpt>
      <trkpt lat="48.07539" lon="-2.75693">
        <ele>106.977027</ele>
        <time>2022-12-13T15:15:51.880Z</time>
      </trkpt>
      <trkpt lat="48.07528" lon="-2.75688">
        <ele>107.073859</ele>
        <time>2022-12-13T15:15:54.864Z</time>
      </trkpt>
      <trkpt lat="48.07517" lon="-2.75685">
        <ele>107.171139</ele>
        <time>2022-12-13T15:15:57.872Z</time>
      </trkpt>
      <trkpt lat="48.07505" lon="-2.75684">
        <ele>107.270722</ele>
        <time>2022-12-13T15:16:00.870Z</time>
      </trkpt>
      <trkpt lat="48.07493" lon="-2.75684">
        <ele>107.37259</ele>
        <time>2022-12-13T15:16:03.874Z</time>
      </trkpt>
      <trkpt lat="48.07482" lon="-2.75682">
        <ele>107.465471</ele>
        <time>2022-12-13T15:16:06.870Z</time>
      </trkpt>
      <trkpt lat="48.07471" lon="-2.75682">
        <ele>107.554116</ele>
        <time>2022-12-13T15:16:09.883Z</time>
      </trkpt>
      <trkpt lat="48.07461" lon="-2.75682">
        <ele>107.639345</ele>
        <time>2022-12-13T15:16:12.871Z</time>
      </trkpt>
      <trkpt lat="48.07452" lon="-2.7568">
        <ele>107.716309</ele>
        <time>2022-12-13T15:16:15.856Z</time>
      </trkpt>
      <trkpt lat="48.0744" lon="-2.75677">
        <ele>107.819</ele>
        <time>2022-12-13T15:16:18.882Z</time>
      </trkpt>
      <trkpt lat="48.0743" lon="-2.75672">
        <ele>107.907478</ele>
        <time>2022-12-13T15:16:21.884Z</time>
      </trkpt>
      <trkpt lat="48.07418" lon="-2.75666">
        <ele>108.01051</ele>
        <time>2022-12-13T15:16:24.892Z</time>
      </trkpt>
      <trkpt lat="48.07408" lon="-2.75656">
        <ele>108.102373</ele>
        <time>2022-12-13T15:16:27.868Z</time>
      </trkpt>
      <trkpt lat="48.07398" lon="-2.75645">
        <ele>108.157374</ele>
        <time>2022-12-13T15:16:30.865Z</time>
      </trkpt>
      <trkpt lat="48.07391" lon="-2.75636">
        <ele>108.199991</ele>
        <time>2022-12-13T15:16:33.869Z</time>
      </trkpt>
      <trkpt lat="48.07383" lon="-2.75627">
        <ele>108.24962</ele>
        <time>2022-12-13T15:16:37.869Z</time>
      </trkpt>
      <trkpt lat="48.07373" lon="-2.7563">
        <ele>108.294074</ele>
        <time>2022-12-13T15:16:42.863Z</time>
      </trkpt>
      <trkpt lat="48.07366" lon="-2.75641">
        <ele>108.343854</ele>
        <time>2022-12-13T15:16:46.877Z</time>
      </trkpt>
      <trkpt lat="48.07358" lon="-2.75649">
        <ele>108.387677</ele>
        <time>2022-12-13T15:16:50.881Z</time>
      </trkpt>
      <trkpt lat="48.0735" lon="-2.75657">
        <ele>108.430971</ele>
        <time>2022-12-13T15:16:54.871Z</time>
      </trkpt>
      <trkpt lat="48.07341" lon="-2.7566">
        <ele>108.47541</ele>
        <time>2022-12-13T15:16:58.881Z</time>
      </trkpt>
      <trkpt lat="48.0733" lon="-2.75656">
        <ele>108.52872</ele>
        <time>2022-12-13T15:17:02.871Z</time>
      </trkpt>
      <trkpt lat="48.0732" lon="-2.7565">
        <ele>108.576677</ele>
        <time>2022-12-13T15:17:05.856Z</time>
      </trkpt>
      <trkpt lat="48.0731" lon="-2.75643">
        <ele>108.630255</ele>
        <time>2022-12-13T15:17:08.872Z</time>
      </trkpt>
      <trkpt lat="48.07299" lon="-2.75635">
        <ele>108.688197</ele>
        <time>2022-12-13T15:17:11.870Z</time>
      </trkpt>
      <trkpt lat="48.07286" lon="-2.75628">
        <ele>108.748488</ele>
        <time>2022-12-13T15:17:14.880Z</time>
      </trkpt>
      <trkpt lat="48.07274" lon="-2.75622">
        <ele>108.80878</ele>
        <time>2022-12-13T15:17:17.894Z</time>
      </trkpt>
      <trkpt lat="48.07262" lon="-2.75614">
        <ele>108.870075</ele>
        <time>2022-12-13T15:17:20.875Z</time>
      </trkpt>
      <trkpt lat="48.0725" lon="-2.75607">
        <ele>108.920039</ele>
        <time>2022-12-13T15:17:23.886Z</time>
      </trkpt>
      <trkpt lat="48.07242" lon="-2.75601">
        <ele>108.830534</ele>
        <time>2022-12-13T15:17:25.877Z</time>
      </trkpt>
      <trkpt lat="48.0723" lon="-2.75592">
        <ele>108.698464</ele>
        <time>2022-12-13T15:17:28.882Z</time>
      </trkpt>
      <trkpt lat="48.07218" lon="-2.75583">
        <ele>108.568705</ele>
        <time>2022-12-13T15:17:31.871Z</time>
      </trkpt>
      <trkpt lat="48.07207" lon="-2.75574">
        <ele>108.445404</ele>
        <time>2022-12-13T15:17:34.880Z</time>
      </trkpt>
      <trkpt lat="48.07198" lon="-2.75564">
        <ele>108.330138</ele>
        <time>2022-12-13T15:17:37.882Z</time>
      </trkpt>
      <trkpt lat="48.07188" lon="-2.75557">
        <ele>108.229252</ele>
        <time>2022-12-13T15:17:40.856Z</time>
      </trkpt>
      <trkpt lat="48.07178" lon="-2.75549">
        <ele>108.115394</ele>
        <time>2022-12-13T15:17:43.887Z</time>
      </trkpt>
      <trkpt lat="48.07168" lon="-2.75539">
        <ele>107.995397</ele>
        <time>2022-12-13T15:17:46.881Z</time>
      </trkpt>
      <trkpt lat="48.07158" lon="-2.7553">
        <ele>107.876782</ele>
        <time>2022-12-13T15:17:49.879Z</time>
      </trkpt>
      <trkpt lat="48.0715" lon="-2.75517">
        <ele>107.761665</ele>
        <time>2022-12-13T15:17:52.864Z</time>
      </trkpt>
      <trkpt lat="48.07144" lon="-2.75502">
        <ele>107.647045</ele>
        <time>2022-12-13T15:17:55.860Z</time>
      </trkpt>
      <trkpt lat="48.07138" lon="-2.75488">
        <ele>107.53857</ele>
        <time>2022-12-13T15:17:58.873Z</time>
      </trkpt>
      <trkpt lat="48.07131" lon="-2.75477">
        <ele>107.443753</ele>
        <time>2022-12-13T15:18:01.869Z</time>
      </trkpt>
      <trkpt lat="48.07124" lon="-2.75464">
        <ele>107.328946</ele>
        <time>2022-12-13T15:18:05.861Z</time>
      </trkpt>
      <trkpt lat="48.07116" lon="-2.75454">
        <ele>107.229123</ele>
        <time>2022-12-13T15:18:08.872Z</time>
      </trkpt>
      <trkpt lat="48.07109" lon="-2.75442">
        <ele>107.160894</ele>
        <time>2022-12-13T15:18:11.900Z</time>
      </trkpt>
      <trkpt lat="48.07101" lon="-2.75429">
        <ele>107.181145</ele>
        <time>2022-12-13T15:18:14.870Z</time>
      </trkpt>
      <trkpt lat="48.07093" lon="-2.75416">
        <ele>107.204463</ele>
        <time>2022-12-13T15:18:17.888Z</time>
      </trkpt>
      <trkpt lat="48.07086" lon="-2.75401">
        <ele>107.22615</ele>
        <time>2022-12-13T15:18:20.881Z</time>
      </trkpt>
      <trkpt lat="48.0708" lon="-2.75385">
        <ele>107.248826</ele>
        <time>2022-12-13T15:18:24.860Z</time>
      </trkpt>
      <trkpt lat="48.07074" lon="-2.75373">
        <ele>107.266914</ele>
        <time>2022-12-13T15:18:27.860Z</time>
      </trkpt>
      <trkpt lat="48.07065" lon="-2.75358">
        <ele>107.291973</ele>
        <time>2022-12-13T15:18:30.889Z</time>
      </trkpt>
      <trkpt lat="48.07058" lon="-2.75348">
        <ele>107.310125</ele>
        <time>2022-12-13T15:18:32.883Z</time>
      </trkpt>
      <trkpt lat="48.07052" lon="-2.75338">
        <ele>107.327411</ele>
        <time>2022-12-13T15:18:34.880Z</time>
      </trkpt>
      <trkpt lat="48.07046" lon="-2.75327">
        <ele>107.3441</ele>
        <time>2022-12-13T15:18:36.881Z</time>
      </trkpt>
      <trkpt lat="48.07041" lon="-2.75315">
        <ele>107.361882</ele>
        <time>2022-12-13T15:18:38.878Z</time>
      </trkpt>
      <trkpt lat="48.07037" lon="-2.75302">
        <ele>107.37863</ele>
        <time>2022-12-13T15:18:40.865Z</time>
      </trkpt>
      <trkpt lat="48.0703" lon="-2.75283">
        <ele>107.405036</ele>
        <time>2022-12-13T15:18:43.885Z</time>
      </trkpt>
      <trkpt lat="48.07026" lon="-2.7527">
        <ele>107.422969</ele>
        <time>2022-12-13T15:18:45.867Z</time>
      </trkpt>
      <trkpt lat="48.07023" lon="-2.75253">
        <ele>107.445005</ele>
        <time>2022-12-13T15:18:48.861Z</time>
      </trkpt>
      <trkpt lat="48.0702" lon="-2.7524">
        <ele>107.4618</ele>
        <time>2022-12-13T15:18:50.876Z</time>
      </trkpt>
      <trkpt lat="48.07017" lon="-2.75221">
        <ele>107.485234</ele>
        <time>2022-12-13T15:18:53.880Z</time>
      </trkpt>
      <trkpt lat="48.07015" lon="-2.75203">
        <ele>107.596004</ele>
        <time>2022-12-13T15:18:56.876Z</time>
      </trkpt>
      <trkpt lat="48.07013" lon="-2.75185">
        <ele>107.704324</ele>
        <time>2022-12-13T15:18:59.883Z</time>
      </trkpt>
      <trkpt lat="48.07011" lon="-2.75168">
        <ele>107.814096</ele>
        <time>2022-12-13T15:19:02.884Z</time>
      </trkpt>
      <trkpt lat="48.07009" lon="-2.75149">
        <ele>107.928344</ele>
        <time>2022-12-13T15:19:05.865Z</time>
      </trkpt>
      <trkpt lat="48.07007" lon="-2.75131">
        <ele>108.036841</ele>
        <time>2022-12-13T15:19:08.870Z</time>
      </trkpt>
      <trkpt lat="48.07004" lon="-2.75115">
        <ele>108.136678</ele>
        <time>2022-12-13T15:19:11.878Z</time>
      </trkpt>
      <trkpt lat="48.07007" lon="-2.75101">
        <ele>108.223623</ele>
        <time>2022-12-13T15:19:26.864Z</time>
      </trkpt>
      <trkpt lat="48.07008" lon="-2.75087">
        <ele>108.31098</ele>
        <time>2022-12-13T15:19:31.870Z</time>
      </trkpt>
      <trkpt lat="48.0701" lon="-2.75072">
        <ele>108.401317</ele>
        <time>2022-12-13T15:19:46.872Z</time>
      </trkpt>
      <trkpt lat="48.07006" lon="-2.7506">
        <ele>108.487312</ele>
        <time>2022-12-13T15:20:07.862Z</time>
      </trkpt>
      <trkpt lat="48.06998" lon="-2.75048">
        <ele>108.586285</ele>
        <time>2022-12-13T15:20:13.867Z</time>
      </trkpt>
      <trkpt lat="48.06994" lon="-2.75035">
        <ele>108.679304</ele>
        <time>2022-12-13T15:20:16.867Z</time>
      </trkpt>
      <trkpt lat="48.06987" lon="-2.7502">
        <ele>108.784849</ele>
        <time>2022-12-13T15:20:19.863Z</time>
      </trkpt>
      <trkpt lat="48.06981" lon="-2.75005">
        <ele>108.892327</ele>
        <time>2022-12-13T15:20:22.858Z</time>
      </trkpt>
      <trkpt lat="48.06974" lon="-2.74991">
        <ele>108.996786</ele>
        <time>2022-12-13T15:20:25.862Z</time>
      </trkpt>
      <trkpt lat="48.06967" lon="-2.74975">
        <ele>109.111283</ele>
        <time>2022-12-13T15:20:28.855Z</time>
      </trkpt>
      <trkpt lat="48.06961" lon="-2.74963">
        <ele>109.194081</ele>
        <time>2022-12-13T15:20:30.876Z</time>
      </trkpt>
      <trkpt lat="48.06953" lon="-2.7495">
        <ele>109.292492</ele>
        <time>2022-12-13T15:20:33.865Z</time>
      </trkpt>
      <trkpt lat="48.06948" lon="-2.74937">
        <ele>109.372107</ele>
        <time>2022-12-13T15:20:36.863Z</time>
      </trkpt>
      <trkpt lat="48.0694" lon="-2.74927">
        <ele>109.459586</ele>
        <time>2022-12-13T15:20:41.864Z</time>
      </trkpt>
      <trkpt lat="48.06928" lon="-2.74925">
        <ele>109.557845</ele>
        <time>2022-12-13T15:20:45.866Z</time>
      </trkpt>
      <trkpt lat="48.06918" lon="-2.74933">
        <ele>109.652681</ele>
        <time>2022-12-13T15:20:50.865Z</time>
      </trkpt>
      <trkpt lat="48.0691" lon="-2.74943">
        <ele>109.736647</ele>
        <time>2022-12-13T15:20:53.884Z</time>
      </trkpt>
      <trkpt lat="48.069" lon="-2.74951">
        <ele>109.835837</ele>
        <time>2022-12-13T15:20:56.879Z</time>
      </trkpt>
      <trkpt lat="48.0689" lon="-2.74962">
        <ele>109.93693</ele>
        <time>2022-12-13T15:20:59.880Z</time>
      </trkpt>
      <trkpt lat="48.06879" lon="-2.74973">
        <ele>110.044473</ele>
        <time>2022-12-13T15:21:02.872Z</time>
      </trkpt>
      <trkpt lat="48.06869" lon="-2.74983">
        <ele>110.147517</ele>
        <time>2022-12-13T15:21:05.866Z</time>
      </trkpt>
      <trkpt lat="48.0686" lon="-2.74992">
        <ele>110.237917</ele>
        <time>2022-12-13T15:21:08.882Z</time>
      </trkpt>
      <trkpt lat="48.06851" lon="-2.74996">
        <ele>110.313346</ele>
        <time>2022-12-13T15:21:11.867Z</time>
      </trkpt>
      <trkpt lat="48.06841" lon="-2.75">
        <ele>110.399045</ele>
        <time>2022-12-13T15:21:15.863Z</time>
      </trkpt>
      <trkpt lat="48.0683" lon="-2.75003">
        <ele>110.489175</ele>
        <time>2022-12-13T15:21:20.888Z</time>
      </trkpt>
      <trkpt lat="48.06821" lon="-2.75007">
        <ele>110.566598</ele>
        <time>2022-12-13T15:21:25.858Z</time>
      </trkpt>
      <trkpt lat="48.06813" lon="-2.75012">
        <ele>110.483908</ele>
        <time>2022-12-13T15:21:34.866Z</time>
      </trkpt>
      <trkpt lat="48.0681" lon="-2.74999">
        <ele>110.256681</ele>
        <time>2022-12-13T15:21:45.877Z</time>
      </trkpt>
      <trkpt lat="48.06813" lon="-2.74984">
        <ele>110.004446</ele>
        <time>2022-12-13T15:21:53.861Z</time>
      </trkpt>
      <trkpt lat="48.06814" lon="-2.74968">
        <ele>109.749909</ele>
        <time>2022-12-13T15:21:58.862Z</time>
      </trkpt>
      <trkpt lat="48.0681" lon="-2.74955">
        <ele>109.528</ele>
        <time>2022-12-13T15:22:03.884Z</time>
      </trkpt>
      <trkpt lat="48.068" lon="-2.7495">
        <ele>109.285707</ele>
        <time>2022-12-13T15:22:07.854Z</time>
      </trkpt>
      <trkpt lat="48.0679" lon="-2.74948">
        <ele>109.033528</ele>
        <time>2022-12-13T15:22:10.862Z</time>
      </trkpt>
      <trkpt lat="48.06778" lon="-2.74948">
        <ele>108.765105</ele>
        <time>2022-12-13T15:22:13.861Z</time>
      </trkpt>
      <trkpt lat="48.06766" lon="-2.74952">
        <ele>108.466258</ele>
        <time>2022-12-13T15:22:16.865Z</time>
      </trkpt>
      <trkpt lat="48.06755" lon="-2.74958">
        <ele>108.195022</ele>
        <time>2022-12-13T15:22:19.863Z</time>
      </trkpt>
      <trkpt lat="48.06745" lon="-2.74963">
        <ele>107.948509</ele>
        <time>2022-12-13T15:22:22.873Z</time>
      </trkpt>
      <trkpt lat="48.06736" lon="-2.74973">
        <ele>107.673206</ele>
        <time>2022-12-13T15:22:26.862Z</time>
      </trkpt>
      <trkpt lat="48.06728" lon="-2.74982">
        <ele>107.446987</ele>
        <time>2022-12-13T15:22:29.886Z</time>
      </trkpt>
      <trkpt lat="48.06718" lon="-2.74986">
        <ele>107.192646</ele>
        <time>2022-12-13T15:22:32.872Z</time>
      </trkpt>
      <trkpt lat="48.06708" lon="-2.74983">
        <ele>106.947218</ele>
        <time>2022-12-13T15:22:35.870Z</time>
      </trkpt>
      <trkpt lat="48.06698" lon="-2.74977">
        <ele>106.709009</ele>
        <time>2022-12-13T15:22:38.868Z</time>
      </trkpt>
      <trkpt lat="48.06691" lon="-2.74969">
        <ele>106.492158</ele>
        <time>2022-12-13T15:22:41.862Z</time>
      </trkpt>
      <trkpt lat="48.06682" lon="-2.74961">
        <ele>106.370213</ele>
        <time>2022-12-13T15:22:44.881Z</time>
      </trkpt>
      <trkpt lat="48.06672" lon="-2.74951">
        <ele>106.380105</ele>
        <time>2022-12-13T15:22:47.886Z</time>
      </trkpt>
      <trkpt lat="48.06664" lon="-2.74939">
        <ele>106.390633</ele>
        <time>2022-12-13T15:22:50.881Z</time>
      </trkpt>
      <trkpt lat="48.0666" lon="-2.74925">
        <ele>106.399873</ele>
        <time>2022-12-13T15:22:53.865Z</time>
      </trkpt>
      <trkpt lat="48.06658" lon="-2.7491">
        <ele>106.408672</ele>
        <time>2022-12-13T15:22:56.862Z</time>
      </trkpt>
      <trkpt lat="48.06658" lon="-2.74893">
        <ele>106.419006</ele>
        <time>2022-12-13T15:22:59.864Z</time>
      </trkpt>
      <trkpt lat="48.06658" lon="-2.74874">
        <ele>106.429815</ele>
        <time>2022-12-13T15:23:02.887Z</time>
      </trkpt>
      <trkpt lat="48.06657" lon="-2.74855">
        <ele>106.441287</ele>
        <time>2022-12-13T15:23:05.864Z</time>
      </trkpt>
      <trkpt lat="48.06654" lon="-2.74837">
        <ele>106.45253</ele>
        <time>2022-12-13T15:23:08.888Z</time>
      </trkpt>
      <trkpt lat="48.0665" lon="-2.74819">
        <ele>106.463433</ele>
        <time>2022-12-13T15:23:11.861Z</time>
      </trkpt>
      <trkpt lat="48.06645" lon="-2.74803">
        <ele>106.47392</ele>
        <time>2022-12-13T15:23:14.874Z</time>
      </trkpt>
      <trkpt lat="48.06641" lon="-2.74788">
        <ele>106.483741</ele>
        <time>2022-12-13T15:23:17.879Z</time>
      </trkpt>
      <trkpt lat="48.06636" lon="-2.74775">
        <ele>106.492993</ele>
        <time>2022-12-13T15:23:20.892Z</time>
      </trkpt>
      <trkpt lat="48.06629" lon="-2.7476">
        <ele>106.503166</ele>
        <time>2022-12-13T15:23:23.863Z</time>
      </trkpt>
      <trkpt lat="48.06624" lon="-2.74743">
        <ele>106.514499</ele>
        <time>2022-12-13T15:23:26.873Z</time>
      </trkpt>
      <trkpt lat="48.06618" lon="-2.7473">
        <ele>106.523545</ele>
        <time>2022-12-13T15:23:29.877Z</time>
      </trkpt>
      <trkpt lat="48.06613" lon="-2.74717">
        <ele>106.53904</ele>
        <time>2022-12-13T15:23:31.866Z</time>
      </trkpt>
      <trkpt lat="48.06608" lon="-2.74705">
        <ele>106.553572</ele>
        <time>2022-12-13T15:23:33.880Z</time>
      </trkpt>
      <trkpt lat="48.06603" lon="-2.74694">
        <ele>106.568285</ele>
        <time>2022-12-13T15:23:35.869Z</time>
      </trkpt>
      <trkpt lat="48.06598" lon="-2.74683">
        <ele>106.582643</ele>
        <time>2022-12-13T15:23:37.881Z</time>
      </trkpt>
      <trkpt lat="48.06591" lon="-2.74672">
        <ele>106.598585</ele>
        <time>2022-12-13T15:23:39.857Z</time>
      </trkpt>
      <trkpt lat="48.06586" lon="-2.7466">
        <ele>106.613471</ele>
        <time>2022-12-13T15:23:41.881Z</time>
      </trkpt>
      <trkpt lat="48.06578" lon="-2.74644">
        <ele>106.635516</ele>
        <time>2022-12-13T15:23:44.880Z</time>
      </trkpt>
      <trkpt lat="48.06571" lon="-2.74632">
        <ele>106.652647</ele>
        <time>2022-12-13T15:23:46.867Z</time>
      </trkpt>
      <trkpt lat="48.06564" lon="-2.74621">
        <ele>106.66807</ele>
        <time>2022-12-13T15:23:48.882Z</time>
      </trkpt>
      <trkpt lat="48.06558" lon="-2.7461">
        <ele>106.683869</ele>
        <time>2022-12-13T15:23:50.885Z</time>
      </trkpt>
      <trkpt lat="48.0655" lon="-2.74597">
        <ele>106.702946</ele>
        <time>2022-12-13T15:23:53.894Z</time>
      </trkpt>
      <trkpt lat="48.06542" lon="-2.74586">
        <ele>106.719807</ele>
        <time>2022-12-13T15:23:56.873Z</time>
      </trkpt>
      <trkpt lat="48.06534" lon="-2.74576">
        <ele>106.736778</ele>
        <time>2022-12-13T15:23:59.866Z</time>
      </trkpt>
      <trkpt lat="48.06526" lon="-2.74567">
        <ele>106.752751</ele>
        <time>2022-12-13T15:24:02.863Z</time>
      </trkpt>
      <trkpt lat="48.06518" lon="-2.74555">
        <ele>106.770898</ele>
        <time>2022-12-13T15:24:05.869Z</time>
      </trkpt>
      <trkpt lat="48.06508" lon="-2.74543">
        <ele>106.791001</ele>
        <time>2022-12-13T15:24:08.879Z</time>
      </trkpt>
      <trkpt lat="48.06499" lon="-2.7453">
        <ele>106.811272</ele>
        <time>2022-12-13T15:24:11.883Z</time>
      </trkpt>
      <trkpt lat="48.06491" lon="-2.74516">
        <ele>106.718802</ele>
        <time>2022-12-13T15:24:14.864Z</time>
      </trkpt>
      <trkpt lat="48.06484" lon="-2.74506">
        <ele>106.639137</ele>
        <time>2022-12-13T15:24:16.875Z</time>
      </trkpt>
      <trkpt lat="48.06481" lon="-2.74493">
        <ele>106.559121</ele>
        <time>2022-12-13T15:24:18.886Z</time>
      </trkpt>
      <trkpt lat="48.06474" lon="-2.74475">
        <ele>106.442263</ele>
        <time>2022-12-13T15:24:21.884Z</time>
      </trkpt>
      <trkpt lat="48.06468" lon="-2.74464">
        <ele>106.359799</ele>
        <time>2022-12-13T15:24:23.887Z</time>
      </trkpt>
      <trkpt lat="48.0646" lon="-2.74447">
        <ele>106.24222</ele>
        <time>2022-12-13T15:24:26.881Z</time>
      </trkpt>
      <trkpt lat="48.06452" lon="-2.74432">
        <ele>106.133504</ele>
        <time>2022-12-13T15:24:29.864Z</time>
      </trkpt>
      <trkpt lat="48.06445" lon="-2.74418">
        <ele>106.028294</ele>
        <time>2022-12-13T15:24:32.879Z</time>
      </trkpt>
      <trkpt lat="48.06438" lon="-2.74402">
        <ele>105.921218</ele>
        <time>2022-12-13T15:24:35.871Z</time>
      </trkpt>
      <trkpt lat="48.06431" lon="-2.74387">
        <ele>105.815094</ele>
        <time>2022-12-13T15:24:38.894Z</time>
      </trkpt>
      <trkpt lat="48.06423" lon="-2.74372">
        <ele>105.708261</ele>
        <time>2022-12-13T15:24:41.862Z</time>
      </trkpt>
      <trkpt lat="48.06415" lon="-2.74357">
        <ele>105.601806</ele>
        <time>2022-12-13T15:24:44.888Z</time>
      </trkpt>
      <trkpt lat="48.06408" lon="-2.74342">
        <ele>105.494728</ele>
        <time>2022-12-13T15:24:47.856Z</time>
      </trkpt>
      <trkpt lat="48.06401" lon="-2.74326">
        <ele>105.384182</ele>
        <time>2022-12-13T15:24:50.881Z</time>
      </trkpt>
      <trkpt lat="48.06393" lon="-2.74312">
        <ele>105.277876</ele>
        <time>2022-12-13T15:24:53.892Z</time>
      </trkpt>
      <trkpt lat="48.06385" lon="-2.74299">
        <ele>105.236201</ele>
        <time>2022-12-13T15:24:56.882Z</time>
      </trkpt>
      <trkpt lat="48.06377" lon="-2.74287">
        <ele>105.197455</ele>
        <time>2022-12-13T15:24:59.867Z</time>
      </trkpt>
      <trkpt lat="48.06367" lon="-2.74275">
        <ele>105.155842</ele>
        <time>2022-12-13T15:25:02.860Z</time>
      </trkpt>
      <trkpt lat="48.06358" lon="-2.74261">
        <ele>105.114177</ele>
        <time>2022-12-13T15:25:05.877Z</time>
      </trkpt>
      <trkpt lat="48.06349" lon="-2.74249">
        <ele>105.074589</ele>
        <time>2022-12-13T15:25:08.893Z</time>
      </trkpt>
      <trkpt lat="48.0634" lon="-2.74235">
        <ele>105.031975</ele>
        <time>2022-12-13T15:25:11.880Z</time>
      </trkpt>
      <trkpt lat="48.06331" lon="-2.74221">
        <ele>104.988668</ele>
        <time>2022-12-13T15:25:14.867Z</time>
      </trkpt>
      <trkpt lat="48.06325" lon="-2.74211">
        <ele>104.958753</ele>
        <time>2022-12-13T15:25:16.887Z</time>
      </trkpt>
      <trkpt lat="48.0632" lon="-2.742">
        <ele>104.928192</ele>
        <time>2022-12-13T15:25:18.861Z</time>
      </trkpt>
      <trkpt lat="48.06316" lon="-2.74188">
        <ele>104.897417</ele>
        <time>2022-12-13T15:25:20.870Z</time>
      </trkpt>
      <trkpt lat="48.06313" lon="-2.74175">
        <ele>104.867078</ele>
        <time>2022-12-13T15:25:22.863Z</time>
      </trkpt>
      <trkpt lat="48.0631" lon="-2.74157">
        <ele>104.825972</ele>
        <time>2022-12-13T15:25:25.864Z</time>
      </trkpt>
      <trkpt lat="48.06306" lon="-2.74138">
        <ele>104.782892</ele>
        <time>2022-12-13T15:25:28.888Z</time>
      </trkpt>
      <trkpt lat="48.06303" lon="-2.7412">
        <ele>104.740844</ele>
        <time>2022-12-13T15:25:31.863Z</time>
      </trkpt>
      <trkpt lat="48.063" lon="-2.74101">
        <ele>104.697409</ele>
        <time>2022-12-13T15:25:34.881Z</time>
      </trkpt>
      <trkpt lat="48.06297" lon="-2.74083">
        <ele>104.636652</ele>
        <time>2022-12-13T15:25:37.866Z</time>
      </trkpt>
      <trkpt lat="48.06294" lon="-2.74069">
        <ele>104.575606</ele>
        <time>2022-12-13T15:25:39.889Z</time>
      </trkpt>
      <trkpt lat="48.06292" lon="-2.74056">
        <ele>104.517308</ele>
        <time>2022-12-13T15:25:41.889Z</time>
      </trkpt>
      <trkpt lat="48.06289" lon="-2.74042">
        <ele>104.457918</ele>
        <time>2022-12-13T15:25:43.894Z</time>
      </trkpt>
      <trkpt lat="48.06287" lon="-2.74029">
        <ele>104.399377</ele>
        <time>2022-12-13T15:25:45.871Z</time>
      </trkpt>
      <trkpt lat="48.06283" lon="-2.74012">
        <ele>104.323165</ele>
        <time>2022-12-13T15:25:48.868Z</time>
      </trkpt>
      <trkpt lat="48.0628" lon="-2.73994">
        <ele>104.243688</ele>
        <time>2022-12-13T15:25:51.865Z</time>
      </trkpt>
      <trkpt lat="48.06277" lon="-2.73976">
        <ele>104.162021</ele>
        <time>2022-12-13T15:25:54.880Z</time>
      </trkpt>
      <trkpt lat="48.06274" lon="-2.73956">
        <ele>104.076915</ele>
        <time>2022-12-13T15:25:57.876Z</time>
      </trkpt>
      <trkpt lat="48.0627" lon="-2.73937">
        <ele>103.990046</ele>
        <time>2022-12-13T15:26:00.896Z</time>
      </trkpt>
      <trkpt lat="48.06266" lon="-2.73918">
        <ele>103.904888</ele>
        <time>2022-12-13T15:26:03.899Z</time>
      </trkpt>
      <trkpt lat="48.06263" lon="-2.73904">
        <ele>103.842866</ele>
        <time>2022-12-13T15:26:05.867Z</time>
      </trkpt>
      <trkpt lat="48.06261" lon="-2.73891">
        <ele>103.784035</ele>
        <time>2022-12-13T15:26:07.890Z</time>
      </trkpt>
      <trkpt lat="48.06258" lon="-2.73878">
        <ele>103.72607</ele>
        <time>2022-12-13T15:26:09.870Z</time>
      </trkpt>
      <trkpt lat="48.06254" lon="-2.73859">
        <ele>103.642493</ele>
        <time>2022-12-13T15:26:12.876Z</time>
      </trkpt>
      <trkpt lat="48.06251" lon="-2.73842">
        <ele>103.565074</ele>
        <time>2022-12-13T15:26:15.863Z</time>
      </trkpt>
      <trkpt lat="48.06247" lon="-2.73825">
        <ele>103.595776</ele>
        <time>2022-12-13T15:26:18.871Z</time>
      </trkpt>
      <trkpt lat="48.06244" lon="-2.73809">
        <ele>103.723828</ele>
        <time>2022-12-13T15:26:21.877Z</time>
      </trkpt>
      <trkpt lat="48.0624" lon="-2.73794">
        <ele>103.845255</ele>
        <time>2022-12-13T15:26:24.876Z</time>
      </trkpt>
      <trkpt lat="48.06235" lon="-2.73778">
        <ele>103.982326</ele>
        <time>2022-12-13T15:26:28.873Z</time>
      </trkpt>
      <trkpt lat="48.06229" lon="-2.73764">
        <ele>104.109422</ele>
        <time>2022-12-13T15:26:31.864Z</time>
      </trkpt>
      <trkpt lat="48.06222" lon="-2.7375">
        <ele>104.243554</ele>
        <time>2022-12-13T15:26:34.864Z</time>
      </trkpt>
      <trkpt lat="48.06214" lon="-2.73737">
        <ele>104.377644</ele>
        <time>2022-12-13T15:26:37.867Z</time>
      </trkpt>
      <trkpt lat="48.06204" lon="-2.73723">
        <ele>104.531504</ele>
        <time>2022-12-13T15:26:40.864Z</time>
      </trkpt>
      <trkpt lat="48.06196" lon="-2.73716">
        <ele>104.643183</ele>
        <time>2022-12-13T15:26:42.886Z</time>
      </trkpt>
      <trkpt lat="48.06186" lon="-2.73705">
        <ele>104.778248</ele>
        <time>2022-12-13T15:26:45.871Z</time>
      </trkpt>
      <trkpt lat="48.06176" lon="-2.73693">
        <ele>104.92895</ele>
        <time>2022-12-13T15:26:48.885Z</time>
      </trkpt>
      <trkpt lat="48.06166" lon="-2.7368">
        <ele>105.078281</ele>
        <time>2022-12-13T15:26:51.894Z</time>
      </trkpt>
      <trkpt lat="48.06158" lon="-2.73672">
        <ele>105.189083</ele>
        <time>2022-12-13T15:26:53.887Z</time>
      </trkpt>
      <trkpt lat="48.06148" lon="-2.7366">
        <ele>105.334303</ele>
        <time>2022-12-13T15:26:56.869Z</time>
      </trkpt>
      <trkpt lat="48.06141" lon="-2.73651">
        <ele>105.440136</ele>
        <time>2022-12-13T15:26:58.884Z</time>
      </trkpt>
      <trkpt lat="48.06134" lon="-2.73642">
        <ele>105.547045</ele>
        <time>2022-12-13T15:27:00.882Z</time>
      </trkpt>
      <trkpt lat="48.06127" lon="-2.73633">
        <ele>105.556654</ele>
        <time>2022-12-13T15:27:02.883Z</time>
      </trkpt>
      <trkpt lat="48.0612" lon="-2.73624">
        <ele>105.512613</ele>
        <time>2022-12-13T15:27:04.889Z</time>
      </trkpt>
      <trkpt lat="48.06112" lon="-2.73615">
        <ele>105.466592</ele>
        <time>2022-12-13T15:27:06.884Z</time>
      </trkpt>
      <trkpt lat="48.06104" lon="-2.73605">
        <ele>105.421316</ele>
        <time>2022-12-13T15:27:08.893Z</time>
      </trkpt>
      <trkpt lat="48.06096" lon="-2.73596">
        <ele>105.374549</ele>
        <time>2022-12-13T15:27:10.881Z</time>
      </trkpt>
      <trkpt lat="48.06089" lon="-2.73587">
        <ele>105.331867</ele>
        <time>2022-12-13T15:27:12.884Z</time>
      </trkpt>
      <trkpt lat="48.06079" lon="-2.73575">
        <ele>105.271804</ele>
        <time>2022-12-13T15:27:15.856Z</time>
      </trkpt>
      <trkpt lat="48.06069" lon="-2.73562">
        <ele>105.210329</ele>
        <time>2022-12-13T15:27:18.875Z</time>
      </trkpt>
      <trkpt lat="48.06061" lon="-2.73554">
        <ele>105.16635</ele>
        <time>2022-12-13T15:27:20.860Z</time>
      </trkpt>
      <trkpt lat="48.06054" lon="-2.73545">
        <ele>105.121988</ele>
        <time>2022-12-13T15:27:22.881Z</time>
      </trkpt>
      <trkpt lat="48.06046" lon="-2.73536">
        <ele>105.076902</ele>
        <time>2022-12-13T15:27:24.885Z</time>
      </trkpt>
      <trkpt lat="48.06038" lon="-2.73526">
        <ele>105.029602</ele>
        <time>2022-12-13T15:27:26.873Z</time>
      </trkpt>
      <trkpt lat="48.0603" lon="-2.73518">
        <ele>104.986373</ele>
        <time>2022-12-13T15:27:28.897Z</time>
      </trkpt>
      <trkpt lat="48.06021" lon="-2.73506">
        <ele>104.930505</ele>
        <time>2022-12-13T15:27:31.866Z</time>
      </trkpt>
      <trkpt lat="48.06011" lon="-2.73497">
        <ele>104.877511</ele>
        <time>2022-12-13T15:27:34.880Z</time>
      </trkpt>
      <trkpt lat="48.06002" lon="-2.73489">
        <ele>104.828165</ele>
        <time>2022-12-13T15:27:37.875Z</time>
      </trkpt>
      <trkpt lat="48.05995" lon="-2.73481">
        <ele>104.786397</ele>
        <time>2022-12-13T15:27:39.883Z</time>
      </trkpt>
      <trkpt lat="48.05983" lon="-2.73471">
        <ele>104.787942</ele>
        <time>2022-12-13T15:27:42.883Z</time>
      </trkpt>
      <trkpt lat="48.05975" lon="-2.73464">
        <ele>104.836924</ele>
        <time>2022-12-13T15:27:44.887Z</time>
      </trkpt>
      <trkpt lat="48.05968" lon="-2.73456">
        <ele>104.885186</ele>
        <time>2022-12-13T15:27:46.887Z</time>
      </trkpt>
      <trkpt lat="48.0596" lon="-2.73449">
        <ele>104.933971</ele>
        <time>2022-12-13T15:27:48.891Z</time>
      </trkpt>
      <trkpt lat="48.05952" lon="-2.73442">
        <ele>104.982499</ele>
        <time>2022-12-13T15:27:50.891Z</time>
      </trkpt>
      <trkpt lat="48.05944" lon="-2.73435">
        <ele>105.031938</ele>
        <time>2022-12-13T15:27:52.897Z</time>
      </trkpt>
      <trkpt lat="48.05936" lon="-2.73428">
        <ele>105.083974</ele>
        <time>2022-12-13T15:27:54.891Z</time>
      </trkpt>
      <trkpt lat="48.05928" lon="-2.7342">
        <ele>105.133327</ele>
        <time>2022-12-13T15:27:56.880Z</time>
      </trkpt>
      <trkpt lat="48.05917" lon="-2.7341">
        <ele>105.202379</ele>
        <time>2022-12-13T15:27:59.884Z</time>
      </trkpt>
      <trkpt lat="48.05908" lon="-2.73403">
        <ele>105.253949</ele>
        <time>2022-12-13T15:28:01.886Z</time>
      </trkpt>
      <trkpt lat="48.059" lon="-2.73395">
        <ele>105.305238</ele>
        <time>2022-12-13T15:28:03.884Z</time>
      </trkpt>
      <trkpt lat="48.05892" lon="-2.73387">
        <ele>105.355159</ele>
        <time>2022-12-13T15:28:05.872Z</time>
      </trkpt>
      <trkpt lat="48.05884" lon="-2.73379">
        <ele>105.406166</ele>
        <time>2022-12-13T15:28:07.894Z</time>
      </trkpt>
      <trkpt lat="48.05876" lon="-2.73371">
        <ele>105.459671</ele>
        <time>2022-12-13T15:28:09.870Z</time>
      </trkpt>
      <trkpt lat="48.05867" lon="-2.73365">
        <ele>105.511898</ele>
        <time>2022-12-13T15:28:11.883Z</time>
      </trkpt>
      <trkpt lat="48.05859" lon="-2.73358">
        <ele>105.561438</ele>
        <time>2022-12-13T15:28:13.877Z</time>
      </trkpt>
      <trkpt lat="48.05851" lon="-2.73352">
        <ele>105.609637</ele>
        <time>2022-12-13T15:28:15.867Z</time>
      </trkpt>
      <trkpt lat="48.0584" lon="-2.73344">
        <ele>105.672581</ele>
        <time>2022-12-13T15:28:18.886Z</time>
      </trkpt>
      <trkpt lat="48.05828" lon="-2.73336">
        <ele>105.637613</ele>
        <time>2022-12-13T15:28:21.891Z</time>
      </trkpt>
      <trkpt lat="48.0582" lon="-2.73328">
        <ele>105.524614</ele>
        <time>2022-12-13T15:28:23.888Z</time>
      </trkpt>
      <trkpt lat="48.05812" lon="-2.73322">
        <ele>105.415843</ele>
        <time>2022-12-13T15:28:25.866Z</time>
      </trkpt>
      <trkpt lat="48.058" lon="-2.73316">
        <ele>105.266582</ele>
        <time>2022-12-13T15:28:28.889Z</time>
      </trkpt>
      <trkpt lat="48.05787" lon="-2.73314">
        <ele>105.1114</ele>
        <time>2022-12-13T15:28:31.881Z</time>
      </trkpt>
      <trkpt lat="48.05778" lon="-2.73316">
        <ele>105.002307</ele>
        <time>2022-12-13T15:28:33.879Z</time>
      </trkpt>
      <trkpt lat="48.05769" lon="-2.73318">
        <ele>104.887851</ele>
        <time>2022-12-13T15:28:35.864Z</time>
      </trkpt>
      <trkpt lat="48.0576" lon="-2.73323">
        <ele>104.777721</ele>
        <time>2022-12-13T15:28:37.876Z</time>
      </trkpt>
      <trkpt lat="48.05751" lon="-2.73327">
        <ele>104.662228</ele>
        <time>2022-12-13T15:28:39.862Z</time>
      </trkpt>
      <trkpt lat="48.05743" lon="-2.73333">
        <ele>104.553158</ele>
        <time>2022-12-13T15:28:41.880Z</time>
      </trkpt>
      <trkpt lat="48.05731" lon="-2.73342">
        <ele>104.397891</ele>
        <time>2022-12-13T15:28:44.896Z</time>
      </trkpt>
      <trkpt lat="48.0572" lon="-2.73349">
        <ele>104.255428</ele>
        <time>2022-12-13T15:28:47.869Z</time>
      </trkpt>
      <trkpt lat="48.05711" lon="-2.73355">
        <ele>104.137866</ele>
        <time>2022-12-13T15:28:49.860Z</time>
      </trkpt>
      <trkpt lat="48.05702" lon="-2.73362">
        <ele>104.013896</ele>
        <time>2022-12-13T15:28:52.883Z</time>
      </trkpt>
      <trkpt lat="48.05691" lon="-2.73368">
        <ele>103.881409</ele>
        <time>2022-12-13T15:28:55.866Z</time>
      </trkpt>
      <trkpt lat="48.0568" lon="-2.73374">
        <ele>103.733022</ele>
        <time>2022-12-13T15:28:58.875Z</time>
      </trkpt>
      <trkpt lat="48.05668" lon="-2.7338">
        <ele>103.582126</ele>
        <time>2022-12-13T15:29:01.878Z</time>
      </trkpt>
      <trkpt lat="48.05655" lon="-2.73385">
        <ele>103.368958</ele>
        <time>2022-12-13T15:29:04.889Z</time>
      </trkpt>
      <trkpt lat="48.05646" lon="-2.73388">
        <ele>103.196549</ele>
        <time>2022-12-13T15:29:06.869Z</time>
      </trkpt>
      <trkpt lat="48.05633" lon="-2.73392">
        <ele>102.967481</ele>
        <time>2022-12-13T15:29:09.878Z</time>
      </trkpt>
      <trkpt lat="48.05624" lon="-2.73394">
        <ele>102.807781</ele>
        <time>2022-12-13T15:29:11.876Z</time>
      </trkpt>
      <trkpt lat="48.05612" lon="-2.73396">
        <ele>102.592729</ele>
        <time>2022-12-13T15:29:14.886Z</time>
      </trkpt>
      <trkpt lat="48.05599" lon="-2.73398">
        <ele>102.365095</ele>
        <time>2022-12-13T15:29:17.884Z</time>
      </trkpt>
      <trkpt lat="48.05587" lon="-2.73399">
        <ele>102.155985</ele>
        <time>2022-12-13T15:29:20.887Z</time>
      </trkpt>
      <trkpt lat="48.05577" lon="-2.734">
        <ele>101.985721</ele>
        <time>2022-12-13T15:29:23.862Z</time>
      </trkpt>
      <trkpt lat="48.05566" lon="-2.73401">
        <ele>101.790758</ele>
        <time>2022-12-13T15:29:26.875Z</time>
      </trkpt>
      <trkpt lat="48.05554" lon="-2.73404">
        <ele>101.570715</ele>
        <time>2022-12-13T15:29:29.865Z</time>
      </trkpt>
      <trkpt lat="48.0554" lon="-2.73407">
        <ele>101.32432</ele>
        <time>2022-12-13T15:29:32.893Z</time>
      </trkpt>
      <trkpt lat="48.05528" lon="-2.73411">
        <ele>101.110222</ele>
        <time>2022-12-13T15:29:35.873Z</time>
      </trkpt>
      <trkpt lat="48.05519" lon="-2.73414">
        <ele>100.951981</ele>
        <time>2022-12-13T15:29:37.867Z</time>
      </trkpt>
      <trkpt lat="48.05509" lon="-2.73419">
        <ele>100.772105</ele>
        <time>2022-12-13T15:29:39.891Z</time>
      </trkpt>
      <trkpt lat="48.055" lon="-2.73424">
        <ele>100.595984</ele>
        <time>2022-12-13T15:29:41.889Z</time>
      </trkpt>
      <trkpt lat="48.0549" lon="-2.73428">
        <ele>100.416194</ele>
        <time>2022-12-13T15:29:43.888Z</time>
      </trkpt>
      <trkpt lat="48.05481" lon="-2.73433">
        <ele>100.583137</ele>
        <time>2022-12-13T15:29:45.869Z</time>
      </trkpt>
      <trkpt lat="48.05472" lon="-2.73438">
        <ele>100.754256</ele>
        <time>2022-12-13T15:29:47.890Z</time>
      </trkpt>
      <trkpt lat="48.05461" lon="-2.73444">
        <ele>100.958382</ele>
        <time>2022-12-13T15:29:50.884Z</time>
      </trkpt>
      <trkpt lat="48.0545" lon="-2.73449">
        <ele>101.168002</ele>
        <time>2022-12-13T15:29:53.881Z</time>
      </trkpt>
      <trkpt lat="48.05437" lon="-2.73455">
        <ele>101.400564</ele>
        <time>2022-12-13T15:29:56.895Z</time>
      </trkpt>
      <trkpt lat="48.05425" lon="-2.73461">
        <ele>101.627311</ele>
        <time>2022-12-13T15:29:59.885Z</time>
      </trkpt>
      <trkpt lat="48.05416" lon="-2.73465">
        <ele>101.786264</ele>
        <time>2022-12-13T15:30:01.866Z</time>
      </trkpt>
      <trkpt lat="48.05403" lon="-2.73471">
        <ele>102.030884</ele>
        <time>2022-12-13T15:30:04.877Z</time>
      </trkpt>
      <trkpt lat="48.05393" lon="-2.73475">
        <ele>102.20838</ele>
        <time>2022-12-13T15:30:06.884Z</time>
      </trkpt>
      <trkpt lat="48.05381" lon="-2.73478">
        <ele>102.429208</ele>
        <time>2022-12-13T15:30:09.876Z</time>
      </trkpt>
      <trkpt lat="48.05369" lon="-2.7348">
        <ele>102.644467</ele>
        <time>2022-12-13T15:30:12.881Z</time>
      </trkpt>
      <trkpt lat="48.05357" lon="-2.73482">
        <ele>102.84983</ele>
        <time>2022-12-13T15:30:15.872Z</time>
      </trkpt>
      <trkpt lat="48.05346" lon="-2.73485">
        <ele>103.047675</ele>
        <time>2022-12-13T15:30:18.897Z</time>
      </trkpt>
      <trkpt lat="48.05334" lon="-2.73487">
        <ele>103.268682</ele>
        <time>2022-12-13T15:30:21.864Z</time>
      </trkpt>
      <trkpt lat="48.05322" lon="-2.73489">
        <ele>103.479422</ele>
        <time>2022-12-13T15:30:24.865Z</time>
      </trkpt>
      <trkpt lat="48.05312" lon="-2.73489">
        <ele>103.639683</ele>
        <time>2022-12-13T15:30:26.882Z</time>
      </trkpt>
      <trkpt lat="48.05302" lon="-2.73488">
        <ele>103.80777</ele>
        <time>2022-12-13T15:30:28.888Z</time>
      </trkpt>
      <trkpt lat="48.05292" lon="-2.73485">
        <ele>103.967244</ele>
        <time>2022-12-13T15:30:30.890Z</time>
      </trkpt>
      <trkpt lat="48.05282" lon="-2.7348">
        <ele>104.134883</ele>
        <time>2022-12-13T15:30:32.884Z</time>
      </trkpt>
      <trkpt lat="48.05272" lon="-2.73474">
        <ele>104.314479</ele>
        <time>2022-12-13T15:30:34.886Z</time>
      </trkpt>
      <trkpt lat="48.05263" lon="-2.73468">
        <ele>104.475854</ele>
        <time>2022-12-13T15:30:36.876Z</time>
      </trkpt>
      <trkpt lat="48.05253" lon="-2.73457">
        <ele>104.679881</ele>
        <time>2022-12-13T15:30:39.879Z</time>
      </trkpt>
      <trkpt lat="48.05244" lon="-2.73448">
        <ele>104.853072</ele>
        <time>2022-12-13T15:30:42.893Z</time>
      </trkpt>
      <trkpt lat="48.05234" lon="-2.73436">
        <ele>105.056563</ele>
        <time>2022-12-13T15:30:45.867Z</time>
      </trkpt>
      <trkpt lat="48.05227" lon="-2.73426">
        <ele>105.208386</ele>
        <time>2022-12-13T15:30:47.883Z</time>
      </trkpt>
      <trkpt lat="48.05221" lon="-2.73416">
        <ele>105.364397</ele>
        <time>2022-12-13T15:30:49.864Z</time>
      </trkpt>
      <trkpt lat="48.05213" lon="-2.73405">
        <ele>105.53386</ele>
        <time>2022-12-13T15:30:51.890Z</time>
      </trkpt>
      <trkpt lat="48.05206" lon="-2.73395">
        <ele>105.685914</ele>
        <time>2022-12-13T15:30:53.894Z</time>
      </trkpt>
      <trkpt lat="48.05197" lon="-2.73379">
        <ele>105.907425</ele>
        <time>2022-12-13T15:30:56.895Z</time>
      </trkpt>
      <trkpt lat="48.05191" lon="-2.73369">
        <ele>106.064328</ele>
        <time>2022-12-13T15:30:58.894Z</time>
      </trkpt>
      <trkpt lat="48.05185" lon="-2.73358">
        <ele>106.212377</ele>
        <time>2022-12-13T15:31:00.887Z</time>
      </trkpt>
      <trkpt lat="48.05179" lon="-2.73348">
        <ele>106.360002</ele>
        <time>2022-12-13T15:31:02.890Z</time>
      </trkpt>
      <trkpt lat="48.05173" lon="-2.73338">
        <ele>106.484292</ele>
        <time>2022-12-13T15:31:04.884Z</time>
      </trkpt>
      <trkpt lat="48.05166" lon="-2.73327">
        <ele>106.497784</ele>
        <time>2022-12-13T15:31:06.884Z</time>
      </trkpt>
      <trkpt lat="48.05158" lon="-2.7331">
        <ele>106.516538</ele>
        <time>2022-12-13T15:31:09.894Z</time>
      </trkpt>
      <trkpt lat="48.05149" lon="-2.73294">
        <ele>106.536054</ele>
        <time>2022-12-13T15:31:12.895Z</time>
      </trkpt>
      <trkpt lat="48.05144" lon="-2.73283">
        <ele>106.549033</ele>
        <time>2022-12-13T15:31:14.894Z</time>
      </trkpt>
      <trkpt lat="48.05137" lon="-2.73271">
        <ele>106.563537</ele>
        <time>2022-12-13T15:31:16.887Z</time>
      </trkpt>
      <trkpt lat="48.0513" lon="-2.7326">
        <ele>106.577377</ele>
        <time>2022-12-13T15:31:18.890Z</time>
      </trkpt>
      <trkpt lat="48.05124" lon="-2.73248">
        <ele>106.59163</ele>
        <time>2022-12-13T15:31:20.889Z</time>
      </trkpt>
      <trkpt lat="48.05118" lon="-2.73236">
        <ele>106.605251</ele>
        <time>2022-12-13T15:31:22.888Z</time>
      </trkpt>
      <trkpt lat="48.05112" lon="-2.73224">
        <ele>106.6188</ele>
        <time>2022-12-13T15:31:24.886Z</time>
      </trkpt>
      <trkpt lat="48.05106" lon="-2.73213">
        <ele>106.632579</ele>
        <time>2022-12-13T15:31:26.871Z</time>
      </trkpt>
      <trkpt lat="48.05099" lon="-2.73202">
        <ele>106.646232</ele>
        <time>2022-12-13T15:31:28.882Z</time>
      </trkpt>
      <trkpt lat="48.05093" lon="-2.7319">
        <ele>106.659613</ele>
        <time>2022-12-13T15:31:30.874Z</time>
      </trkpt>
      <trkpt lat="48.05087" lon="-2.73179">
        <ele>106.672713</ele>
        <time>2022-12-13T15:31:32.869Z</time>
      </trkpt>
      <trkpt lat="48.05081" lon="-2.73167">
        <ele>106.686607</ele>
        <time>2022-12-13T15:31:34.893Z</time>
      </trkpt>
      <trkpt lat="48.05075" lon="-2.73156">
        <ele>106.699621</ele>
        <time>2022-12-13T15:31:36.884Z</time>
      </trkpt>
      <trkpt lat="48.05069" lon="-2.73146">
        <ele>106.712517</ele>
        <time>2022-12-13T15:31:38.895Z</time>
      </trkpt>
      <trkpt lat="48.05063" lon="-2.73135">
        <ele>106.725012</ele>
        <time>2022-12-13T15:31:40.889Z</time>
      </trkpt>
      <trkpt lat="48.05058" lon="-2.73124">
        <ele>106.745779</ele>
        <time>2022-12-13T15:31:42.890Z</time>
      </trkpt>
      <trkpt lat="48.05049" lon="-2.73109">
        <ele>106.785816</ele>
        <time>2022-12-13T15:31:45.872Z</time>
      </trkpt>
      <trkpt lat="48.05043" lon="-2.73099">
        <ele>106.813791</ele>
        <time>2022-12-13T15:31:47.877Z</time>
      </trkpt>
      <trkpt lat="48.05037" lon="-2.73087">
        <ele>106.842127</ele>
        <time>2022-12-13T15:31:49.890Z</time>
      </trkpt>
      <trkpt lat="48.05031" lon="-2.73076">
        <ele>106.871194</ele>
        <time>2022-12-13T15:31:51.880Z</time>
      </trkpt>
      <trkpt lat="48.05025" lon="-2.73065">
        <ele>106.899803</ele>
        <time>2022-12-13T15:31:53.896Z</time>
      </trkpt>
      <trkpt lat="48.05018" lon="-2.73054">
        <ele>106.929813</ele>
        <time>2022-12-13T15:31:55.864Z</time>
      </trkpt>
      <trkpt lat="48.05012" lon="-2.73041">
        <ele>106.960384</ele>
        <time>2022-12-13T15:31:57.895Z</time>
      </trkpt>
      <trkpt lat="48.05006" lon="-2.73031">
        <ele>106.987616</ele>
        <time>2022-12-13T15:31:59.882Z</time>
      </trkpt>
      <trkpt lat="48.04998" lon="-2.73016">
        <ele>107.026548</ele>
        <time>2022-12-13T15:32:02.869Z</time>
      </trkpt>
      <trkpt lat="48.04989" lon="-2.73001">
        <ele>107.065515</ele>
        <time>2022-12-13T15:32:05.871Z</time>
      </trkpt>
      <trkpt lat="48.04984" lon="-2.7299">
        <ele>107.093754</ele>
        <time>2022-12-13T15:32:07.888Z</time>
      </trkpt>
      <trkpt lat="48.04977" lon="-2.72979">
        <ele>107.122586</ele>
        <time>2022-12-13T15:32:09.893Z</time>
      </trkpt>
      <trkpt lat="48.04971" lon="-2.72967">
        <ele>107.152532</ele>
        <time>2022-12-13T15:32:11.893Z</time>
      </trkpt>
      <trkpt lat="48.04965" lon="-2.72955">
        <ele>107.18279</ele>
        <time>2022-12-13T15:32:13.896Z</time>
      </trkpt>
      <trkpt lat="48.04959" lon="-2.72943">
        <ele>107.212025</ele>
        <time>2022-12-13T15:32:15.868Z</time>
      </trkpt>
      <trkpt lat="48.04952" lon="-2.72932">
        <ele>107.241739</ele>
        <time>2022-12-13T15:32:17.886Z</time>
      </trkpt>
      <trkpt lat="48.04946" lon="-2.72921">
        <ele>107.262673</ele>
        <time>2022-12-13T15:32:19.883Z</time>
      </trkpt>
      <trkpt lat="48.04938" lon="-2.72907">
        <ele>107.193481</ele>
        <time>2022-12-13T15:32:22.888Z</time>
      </trkpt>
      <trkpt lat="48.0493" lon="-2.72893">
        <ele>107.125994</ele>
        <time>2022-12-13T15:32:25.863Z</time>
      </trkpt>
      <trkpt lat="48.04921" lon="-2.72878">
        <ele>107.052104</ele>
        <time>2022-12-13T15:32:28.890Z</time>
      </trkpt>
      <trkpt lat="48.04914" lon="-2.72862">
        <ele>106.983793</ele>
        <time>2022-12-13T15:32:31.892Z</time>
      </trkpt>
      <trkpt lat="48.04909" lon="-2.72851">
        <ele>106.933457</ele>
        <time>2022-12-13T15:32:33.886Z</time>
      </trkpt>
      <trkpt lat="48.04903" lon="-2.72839">
        <ele>106.878739</ele>
        <time>2022-12-13T15:32:35.866Z</time>
      </trkpt>
      <trkpt lat="48.04894" lon="-2.72824">
        <ele>106.805255</ele>
        <time>2022-12-13T15:32:38.881Z</time>
      </trkpt>
      <trkpt lat="48.04886" lon="-2.7281">
        <ele>106.736792</ele>
        <time>2022-12-13T15:32:41.893Z</time>
      </trkpt>
      <trkpt lat="48.04879" lon="-2.72797">
        <ele>106.675079</ele>
        <time>2022-12-13T15:32:44.894Z</time>
      </trkpt>
      <trkpt lat="48.04873" lon="-2.72782">
        <ele>106.612423</ele>
        <time>2022-12-13T15:32:47.868Z</time>
      </trkpt>
      <trkpt lat="48.04867" lon="-2.72769">
        <ele>106.554082</ele>
        <time>2022-12-13T15:32:50.889Z</time>
      </trkpt>
      <trkpt lat="48.04859" lon="-2.72761">
        <ele>106.499808</ele>
        <time>2022-12-13T15:32:53.870Z</time>
      </trkpt>
      <trkpt lat="48.04853" lon="-2.7275">
        <ele>106.447684</ele>
        <time>2022-12-13T15:32:56.864Z</time>
      </trkpt>
      <trkpt lat="48.04848" lon="-2.72737">
        <ele>106.391977</ele>
        <time>2022-12-13T15:33:00.890Z</time>
      </trkpt>
      <trkpt lat="48.04842" lon="-2.72727">
        <ele>106.342413</ele>
        <time>2022-12-13T15:33:06.862Z</time>
      </trkpt>
      <trkpt lat="48.04833" lon="-2.72717">
        <ele>106.284819</ele>
        <time>2022-12-13T15:33:12.880Z</time>
      </trkpt>
      <trkpt lat="48.04827" lon="-2.72705">
        <ele>106.263041</ele>
        <time>2022-12-13T15:33:15.860Z</time>
      </trkpt>
      <trkpt lat="48.04819" lon="-2.7269">
        <ele>106.240255</ele>
        <time>2022-12-13T15:33:18.879Z</time>
      </trkpt>
      <trkpt lat="48.04813" lon="-2.72679">
        <ele>106.222349</ele>
        <time>2022-12-13T15:33:20.887Z</time>
      </trkpt>
      <trkpt lat="48.04807" lon="-2.72668">
        <ele>106.205604</ele>
        <time>2022-12-13T15:33:22.891Z</time>
      </trkpt>
      <trkpt lat="48.048" lon="-2.72653">
        <ele>106.182586</ele>
        <time>2022-12-13T15:33:25.868Z</time>
      </trkpt>
      <trkpt lat="48.04793" lon="-2.7264">
        <ele>106.162543</ele>
        <time>2022-12-13T15:33:28.883Z</time>
      </trkpt>
      <trkpt lat="48.04786" lon="-2.72627">
        <ele>106.142687</ele>
        <time>2022-12-13T15:33:31.880Z</time>
      </trkpt>
      <trkpt lat="48.04779" lon="-2.72615">
        <ele>106.123265</ele>
        <time>2022-12-13T15:33:34.878Z</time>
      </trkpt>
      <trkpt lat="48.04772" lon="-2.72602">
        <ele>106.103101</ele>
        <time>2022-12-13T15:33:37.866Z</time>
      </trkpt>
      <trkpt lat="48.04765" lon="-2.72588">
        <ele>106.082625</ele>
        <time>2022-12-13T15:33:40.879Z</time>
      </trkpt>
      <trkpt lat="48.04757" lon="-2.72574">
        <ele>106.059826</ele>
        <time>2022-12-13T15:33:43.892Z</time>
      </trkpt>
      <trkpt lat="48.04749" lon="-2.72559">
        <ele>106.036714</ele>
        <time>2022-12-13T15:33:46.884Z</time>
      </trkpt>
      <trkpt lat="48.04741" lon="-2.72545">
        <ele>106.01408</ele>
        <time>2022-12-13T15:33:49.879Z</time>
      </trkpt>
      <trkpt lat="48.04733" lon="-2.7253">
        <ele>105.991387</ele>
        <time>2022-12-13T15:33:52.880Z</time>
      </trkpt>
      <trkpt lat="48.04725" lon="-2.72516">
        <ele>105.967974</ele>
        <time>2022-12-13T15:33:55.870Z</time>
      </trkpt>
      <trkpt lat="48.04717" lon="-2.725">
        <ele>105.937969</ele>
        <time>2022-12-13T15:33:58.885Z</time>
      </trkpt>
      <trkpt lat="48.04709" lon="-2.72485">
        <ele>105.900852</ele>
        <time>2022-12-13T15:34:01.892Z</time>
      </trkpt>
      <trkpt lat="48.04701" lon="-2.7247">
        <ele>105.861313</ele>
        <time>2022-12-13T15:34:04.890Z</time>
      </trkpt>
      <trkpt lat="48.04692" lon="-2.72453">
        <ele>105.819885</ele>
        <time>2022-12-13T15:34:07.891Z</time>
      </trkpt>
      <trkpt lat="48.04684" lon="-2.72439">
        <ele>105.781147</ele>
        <time>2022-12-13T15:34:10.895Z</time>
      </trkpt>
      <trkpt lat="48.04677" lon="-2.72423">
        <ele>105.743625</ele>
        <time>2022-12-13T15:34:13.900Z</time>
      </trkpt>
      <trkpt lat="48.04668" lon="-2.72408">
        <ele>105.704523</ele>
        <time>2022-12-13T15:34:16.874Z</time>
      </trkpt>
      <trkpt lat="48.04663" lon="-2.72397">
        <ele>105.676955</ele>
        <time>2022-12-13T15:34:18.896Z</time>
      </trkpt>
      <trkpt lat="48.04656" lon="-2.72386">
        <ele>105.649307</ele>
        <time>2022-12-13T15:34:20.892Z</time>
      </trkpt>
      <trkpt lat="48.04649" lon="-2.72372">
        <ele>105.613085</ele>
        <time>2022-12-13T15:34:23.897Z</time>
      </trkpt>
      <trkpt lat="48.04641" lon="-2.72358">
        <ele>105.577053</ele>
        <time>2022-12-13T15:34:26.874Z</time>
      </trkpt>
      <trkpt lat="48.04633" lon="-2.72345">
        <ele>105.541669</ele>
        <time>2022-12-13T15:34:29.887Z</time>
      </trkpt>
      <trkpt lat="48.04627" lon="-2.72332">
        <ele>105.509244</ele>
        <time>2022-12-13T15:34:32.897Z</time>
      </trkpt>
      <trkpt lat="48.04619" lon="-2.72316">
        <ele>105.470324</ele>
        <time>2022-12-13T15:34:35.866Z</time>
      </trkpt>
      <trkpt lat="48.04612" lon="-2.72305">
        <ele>105.441145</ele>
        <time>2022-12-13T15:34:37.886Z</time>
      </trkpt>
      <trkpt lat="48.04606" lon="-2.72295">
        <ele>105.419433</ele>
        <time>2022-12-13T15:34:39.878Z</time>
      </trkpt>
      <trkpt lat="48.046" lon="-2.72284">
        <ele>105.419762</ele>
        <time>2022-12-13T15:34:41.893Z</time>
      </trkpt>
      <trkpt lat="48.04592" lon="-2.7227">
        <ele>105.420232</ele>
        <time>2022-12-13T15:34:44.890Z</time>
      </trkpt>
      <trkpt lat="48.04585" lon="-2.72255">
        <ele>105.420662</ele>
        <time>2022-12-13T15:34:47.860Z</time>
      </trkpt>
      <trkpt lat="48.04578" lon="-2.72241">
        <ele>105.421089</ele>
        <time>2022-12-13T15:34:50.891Z</time>
      </trkpt>
      <trkpt lat="48.0457" lon="-2.72227">
        <ele>105.421529</ele>
        <time>2022-12-13T15:34:53.874Z</time>
      </trkpt>
      <trkpt lat="48.04562" lon="-2.72215">
        <ele>105.421941</ele>
        <time>2022-12-13T15:34:56.890Z</time>
      </trkpt>
      <trkpt lat="48.04554" lon="-2.72202">
        <ele>105.422351</ele>
        <time>2022-12-13T15:34:59.868Z</time>
      </trkpt>
      <trkpt lat="48.04547" lon="-2.72188">
        <ele>105.422798</ele>
        <time>2022-12-13T15:35:02.893Z</time>
      </trkpt>
      <trkpt lat="48.04539" lon="-2.72174">
        <ele>105.423251</ele>
        <time>2022-12-13T15:35:05.863Z</time>
      </trkpt>
      <trkpt lat="48.04531" lon="-2.72159">
        <ele>105.423701</ele>
        <time>2022-12-13T15:35:08.884Z</time>
      </trkpt>
      <trkpt lat="48.04522" lon="-2.72144">
        <ele>105.424171</ele>
        <time>2022-12-13T15:35:11.892Z</time>
      </trkpt>
      <trkpt lat="48.04514" lon="-2.7213">
        <ele>105.424632</ele>
        <time>2022-12-13T15:35:14.885Z</time>
      </trkpt>
      <trkpt lat="48.04508" lon="-2.7212">
        <ele>105.424959</ele>
        <time>2022-12-13T15:35:16.868Z</time>
      </trkpt>
      <trkpt lat="48.045" lon="-2.72104">
        <ele>105.42543</ele>
        <time>2022-12-13T15:35:19.873Z</time>
      </trkpt>
      <trkpt lat="48.04492" lon="-2.72089">
        <ele>105.415562</ele>
        <time>2022-12-13T15:35:22.888Z</time>
      </trkpt>
      <trkpt lat="48.04485" lon="-2.72076">
        <ele>105.229799</ele>
        <time>2022-12-13T15:35:25.863Z</time>
      </trkpt>
      <trkpt lat="48.04479" lon="-2.72063">
        <ele>105.044198</ele>
        <time>2022-12-13T15:35:28.885Z</time>
      </trkpt>
      <trkpt lat="48.04471" lon="-2.72049">
        <ele>104.841888</ele>
        <time>2022-12-13T15:35:31.888Z</time>
      </trkpt>
      <trkpt lat="48.04463" lon="-2.72034">
        <ele>104.628055</ele>
        <time>2022-12-13T15:35:34.892Z</time>
      </trkpt>
      <trkpt lat="48.04455" lon="-2.72019">
        <ele>104.40756</ele>
        <time>2022-12-13T15:35:37.867Z</time>
      </trkpt>
      <trkpt lat="48.04447" lon="-2.72003">
        <ele>104.180851</ele>
        <time>2022-12-13T15:35:40.896Z</time>
      </trkpt>
      <trkpt lat="48.04439" lon="-2.71988">
        <ele>103.960796</ele>
        <time>2022-12-13T15:35:43.899Z</time>
      </trkpt>
      <trkpt lat="48.04431" lon="-2.71974">
        <ele>103.764849</ele>
        <time>2022-12-13T15:35:46.881Z</time>
      </trkpt>
      <trkpt lat="48.04424" lon="-2.7196">
        <ele>103.564872</ele>
        <time>2022-12-13T15:35:49.897Z</time>
      </trkpt>
      <trkpt lat="48.04416" lon="-2.71945">
        <ele>103.352079</ele>
        <time>2022-12-13T15:35:52.883Z</time>
      </trkpt>
      <trkpt lat="48.04408" lon="-2.71931">
        <ele>103.135941</ele>
        <time>2022-12-13T15:35:55.863Z</time>
      </trkpt>
      <trkpt lat="48.044" lon="-2.71917">
        <ele>102.939205</ele>
        <time>2022-12-13T15:35:58.896Z</time>
      </trkpt>
      <trkpt lat="48.04391" lon="-2.71903">
        <ele>102.719518</ele>
        <time>2022-12-13T15:36:01.867Z</time>
      </trkpt>
      <trkpt lat="48.04386" lon="-2.71892">
        <ele>102.564624</ele>
        <time>2022-12-13T15:36:03.884Z</time>
      </trkpt>
      <trkpt lat="48.0438" lon="-2.7188">
        <ele>102.406214</ele>
        <time>2022-12-13T15:36:05.864Z</time>
      </trkpt>
      <trkpt lat="48.04374" lon="-2.7187">
        <ele>102.537535</ele>
        <time>2022-12-13T15:36:07.893Z</time>
      </trkpt>
      <trkpt lat="48.04367" lon="-2.71859">
        <ele>102.680219</ele>
        <time>2022-12-13T15:36:09.893Z</time>
      </trkpt>
      <trkpt lat="48.04361" lon="-2.71847">
        <ele>102.825041</ele>
        <time>2022-12-13T15:36:11.890Z</time>
      </trkpt>
      <trkpt lat="48.04355" lon="-2.71836">
        <ele>102.964738</ele>
        <time>2022-12-13T15:36:13.895Z</time>
      </trkpt>
      <trkpt lat="48.04349" lon="-2.71825">
        <ele>103.110568</ele>
        <time>2022-12-13T15:36:15.871Z</time>
      </trkpt>
      <trkpt lat="48.04343" lon="-2.71814">
        <ele>103.245655</ele>
        <time>2022-12-13T15:36:17.881Z</time>
      </trkpt>
      <trkpt lat="48.04335" lon="-2.71799">
        <ele>103.434942</ele>
        <time>2022-12-13T15:36:20.897Z</time>
      </trkpt>
      <trkpt lat="48.04327" lon="-2.71785">
        <ele>103.610802</ele>
        <time>2022-12-13T15:36:23.877Z</time>
      </trkpt>
      <trkpt lat="48.0432" lon="-2.71771">
        <ele>103.781039</ele>
        <time>2022-12-13T15:36:26.892Z</time>
      </trkpt>
      <trkpt lat="48.04312" lon="-2.71756">
        <ele>103.966633</ele>
        <time>2022-12-13T15:36:29.891Z</time>
      </trkpt>
      <trkpt lat="48.04304" lon="-2.71742">
        <ele>104.150147</ele>
        <time>2022-12-13T15:36:32.873Z</time>
      </trkpt>
      <trkpt lat="48.04296" lon="-2.71728">
        <ele>104.32693</ele>
        <time>2022-12-13T15:36:35.868Z</time>
      </trkpt>
      <trkpt lat="48.0429" lon="-2.71717">
        <ele>104.469129</ele>
        <time>2022-12-13T15:36:37.889Z</time>
      </trkpt>
      <trkpt lat="48.04283" lon="-2.71706">
        <ele>104.609862</ele>
        <time>2022-12-13T15:36:39.886Z</time>
      </trkpt>
      <trkpt lat="48.04278" lon="-2.71696">
        <ele>104.741758</ele>
        <time>2022-12-13T15:36:41.886Z</time>
      </trkpt>
      <trkpt lat="48.04271" lon="-2.71685">
        <ele>104.888443</ele>
        <time>2022-12-13T15:36:43.894Z</time>
      </trkpt>
      <trkpt lat="48.04263" lon="-2.71669">
        <ele>105.028919</ele>
        <time>2022-12-13T15:36:46.879Z</time>
      </trkpt>
      <trkpt lat="48.04258" lon="-2.71658">
        <ele>105.041742</ele>
        <time>2022-12-13T15:36:48.863Z</time>
      </trkpt>
      <trkpt lat="48.04252" lon="-2.71644">
        <ele>105.05777</ele>
        <time>2022-12-13T15:36:51.867Z</time>
      </trkpt>
      <trkpt lat="48.04245" lon="-2.71631">
        <ele>105.073213</ele>
        <time>2022-12-13T15:36:53.891Z</time>
      </trkpt>
      <trkpt lat="48.04236" lon="-2.71615">
        <ele>105.092798</ele>
        <time>2022-12-13T15:36:56.894Z</time>
      </trkpt>
      <trkpt lat="48.04229" lon="-2.71604">
        <ele>105.107052</ele>
        <time>2022-12-13T15:36:58.898Z</time>
      </trkpt>
      <trkpt lat="48.04221" lon="-2.71589">
        <ele>105.12526</ele>
        <time>2022-12-13T15:37:01.876Z</time>
      </trkpt>
      <trkpt lat="48.04214" lon="-2.71574">
        <ele>105.142144</ele>
        <time>2022-12-13T15:37:04.879Z</time>
      </trkpt>
      <trkpt lat="48.04206" lon="-2.71559">
        <ele>105.160572</ele>
        <time>2022-12-13T15:37:07.870Z</time>
      </trkpt>
      <trkpt lat="48.042" lon="-2.71548">
        <ele>105.173939</ele>
        <time>2022-12-13T15:37:09.883Z</time>
      </trkpt>
      <trkpt lat="48.04194" lon="-2.71538">
        <ele>105.186801</ele>
        <time>2022-12-13T15:37:11.884Z</time>
      </trkpt>
      <trkpt lat="48.04188" lon="-2.71527">
        <ele>105.199774</ele>
        <time>2022-12-13T15:37:13.898Z</time>
      </trkpt>
      <trkpt lat="48.04179" lon="-2.71511">
        <ele>105.219173</ele>
        <time>2022-12-13T15:37:16.882Z</time>
      </trkpt>
      <trkpt lat="48.04173" lon="-2.71498">
        <ele>105.234726</ele>
        <time>2022-12-13T15:37:19.876Z</time>
      </trkpt>
      <trkpt lat="48.04166" lon="-2.71487">
        <ele>105.24793</ele>
        <time>2022-12-13T15:37:21.890Z</time>
      </trkpt>
      <trkpt lat="48.04157" lon="-2.71473">
        <ele>105.26656</ele>
        <time>2022-12-13T15:37:24.872Z</time>
      </trkpt>
      <trkpt lat="48.04151" lon="-2.71464">
        <ele>105.260267</ele>
        <time>2022-12-13T15:37:26.876Z</time>
      </trkpt>
      <trkpt lat="48.04141" lon="-2.71451">
        <ele>105.137667</ele>
        <time>2022-12-13T15:37:29.889Z</time>
      </trkpt>
      <trkpt lat="48.04132" lon="-2.71441">
        <ele>105.020904</ele>
        <time>2022-12-13T15:37:32.885Z</time>
      </trkpt>
      <trkpt lat="48.04122" lon="-2.71431">
        <ele>104.904482</ele>
        <time>2022-12-13T15:37:35.864Z</time>
      </trkpt>
      <trkpt lat="48.04112" lon="-2.71419">
        <ele>104.777872</ele>
        <time>2022-12-13T15:37:38.894Z</time>
      </trkpt>
      <trkpt lat="48.04104" lon="-2.71412">
        <ele>104.685902</ele>
        <time>2022-12-13T15:37:40.900Z</time>
      </trkpt>
      <trkpt lat="48.04095" lon="-2.71404">
        <ele>104.584607</ele>
        <time>2022-12-13T15:37:42.888Z</time>
      </trkpt>
      <trkpt lat="48.04087" lon="-2.71396">
        <ele>104.492629</ele>
        <time>2022-12-13T15:37:44.881Z</time>
      </trkpt>
      <trkpt lat="48.04076" lon="-2.71386">
        <ele>104.358175</ele>
        <time>2022-12-13T15:37:47.892Z</time>
      </trkpt>
      <trkpt lat="48.04067" lon="-2.71378">
        <ele>104.264335</ele>
        <time>2022-12-13T15:37:49.898Z</time>
      </trkpt>
      <trkpt lat="48.04059" lon="-2.71371">
        <ele>104.166447</ele>
        <time>2022-12-13T15:37:51.895Z</time>
      </trkpt>
      <trkpt lat="48.04051" lon="-2.71363">
        <ele>104.077118</ele>
        <time>2022-12-13T15:37:53.891Z</time>
      </trkpt>
      <trkpt lat="48.04044" lon="-2.71355">
        <ele>103.981665</ele>
        <time>2022-12-13T15:37:55.864Z</time>
      </trkpt>
      <trkpt lat="48.04036" lon="-2.71348">
        <ele>103.892561</ele>
        <time>2022-12-13T15:37:57.893Z</time>
      </trkpt>
      <trkpt lat="48.04028" lon="-2.7134">
        <ele>103.801775</ele>
        <time>2022-12-13T15:37:59.900Z</time>
      </trkpt>
      <trkpt lat="48.0402" lon="-2.71333">
        <ele>103.70726</ele>
        <time>2022-12-13T15:38:01.882Z</time>
      </trkpt>
      <trkpt lat="48.04012" lon="-2.71325">
        <ele>103.611727</ele>
        <time>2022-12-13T15:38:03.892Z</time>
      </trkpt>
      <trkpt lat="48.04004" lon="-2.71318">
        <ele>103.521784</ele>
        <time>2022-12-13T15:38:05.870Z</time>
      </trkpt>
      <trkpt lat="48.03992" lon="-2.71307">
        <ele>103.480572</ele>
        <time>2022-12-13T15:38:08.893Z</time>
      </trkpt>
      <trkpt lat="48.03984" lon="-2.71299">
        <ele>103.46167</ele>
        <time>2022-12-13T15:38:10.883Z</time>
      </trkpt>
      <trkpt lat="48.03976" lon="-2.71291">
        <ele>103.442502</ele>
        <time>2022-12-13T15:38:12.888Z</time>
      </trkpt>
      <trkpt lat="48.03969" lon="-2.71284">
        <ele>103.423502</ele>
        <time>2022-12-13T15:38:14.893Z</time>
      </trkpt>
      <trkpt lat="48.03961" lon="-2.71275">
        <ele>103.404107</ele>
        <time>2022-12-13T15:38:16.891Z</time>
      </trkpt>
      <trkpt lat="48.03953" lon="-2.71268">
        <ele>103.385014</ele>
        <time>2022-12-13T15:38:18.890Z</time>
      </trkpt>
      <trkpt lat="48.03944" lon="-2.71259">
        <ele>103.365024</ele>
        <time>2022-12-13T15:38:20.893Z</time>
      </trkpt>
      <trkpt lat="48.03936" lon="-2.71252">
        <ele>103.34535</ele>
        <time>2022-12-13T15:38:22.891Z</time>
      </trkpt>
      <trkpt lat="48.03928" lon="-2.71244">
        <ele>103.326404</ele>
        <time>2022-12-13T15:38:24.894Z</time>
      </trkpt>
      <trkpt lat="48.03921" lon="-2.71236">
        <ele>103.308207</ele>
        <time>2022-12-13T15:38:26.890Z</time>
      </trkpt>
      <trkpt lat="48.03912" lon="-2.71227">
        <ele>103.285791</ele>
        <time>2022-12-13T15:38:29.875Z</time>
      </trkpt>
      <trkpt lat="48.03901" lon="-2.71216">
        <ele>103.259345</ele>
        <time>2022-12-13T15:38:32.874Z</time>
      </trkpt>
      <trkpt lat="48.03893" lon="-2.71209">
        <ele>103.241007</ele>
        <time>2022-12-13T15:38:34.876Z</time>
      </trkpt>
      <trkpt lat="48.03885" lon="-2.71202">
        <ele>103.221853</ele>
        <time>2022-12-13T15:38:36.886Z</time>
      </trkpt>
      <trkpt lat="48.03877" lon="-2.71194">
        <ele>103.203351</ele>
        <time>2022-12-13T15:38:38.868Z</time>
      </trkpt>
      <trkpt lat="48.03869" lon="-2.71186">
        <ele>103.183579</ele>
        <time>2022-12-13T15:38:40.892Z</time>
      </trkpt>
      <trkpt lat="48.03861" lon="-2.71178">
        <ele>103.163708</ele>
        <time>2022-12-13T15:38:42.897Z</time>
      </trkpt>
      <trkpt lat="48.03853" lon="-2.7117">
        <ele>103.144372</ele>
        <time>2022-12-13T15:38:44.894Z</time>
      </trkpt>
      <trkpt lat="48.03845" lon="-2.71163">
        <ele>103.12272</ele>
        <time>2022-12-13T15:38:46.903Z</time>
      </trkpt>
      <trkpt lat="48.03837" lon="-2.71155">
        <ele>103.099552</ele>
        <time>2022-12-13T15:38:48.891Z</time>
      </trkpt>
      <trkpt lat="48.03829" lon="-2.71146">
        <ele>103.075788</ele>
        <time>2022-12-13T15:38:50.891Z</time>
      </trkpt>
      <trkpt lat="48.03821" lon="-2.7114">
        <ele>103.05414</ele>
        <time>2022-12-13T15:38:52.893Z</time>
      </trkpt>
      <trkpt lat="48.03813" lon="-2.71133">
        <ele>103.032511</ele>
        <time>2022-12-13T15:38:54.888Z</time>
      </trkpt>
      <trkpt lat="48.03805" lon="-2.71126">
        <ele>103.010473</ele>
        <time>2022-12-13T15:38:56.895Z</time>
      </trkpt>
      <trkpt lat="48.03796" lon="-2.71117">
        <ele>102.985996</ele>
        <time>2022-12-13T15:38:58.897Z</time>
      </trkpt>
      <trkpt lat="48.03788" lon="-2.71109">
        <ele>102.962431</ele>
        <time>2022-12-13T15:39:00.876Z</time>
      </trkpt>
      <trkpt lat="48.03779" lon="-2.71101">
        <ele>102.938517</ele>
        <time>2022-12-13T15:39:02.885Z</time>
      </trkpt>
      <trkpt lat="48.03771" lon="-2.71093">
        <ele>102.915324</ele>
        <time>2022-12-13T15:39:04.872Z</time>
      </trkpt>
      <trkpt lat="48.03763" lon="-2.71085">
        <ele>102.891958</ele>
        <time>2022-12-13T15:39:06.894Z</time>
      </trkpt>
      <trkpt lat="48.03754" lon="-2.71077">
        <ele>102.867472</ele>
        <time>2022-12-13T15:39:08.874Z</time>
      </trkpt>
      <trkpt lat="48.03746" lon="-2.71069">
        <ele>102.844424</ele>
        <time>2022-12-13T15:39:10.889Z</time>
      </trkpt>
      <trkpt lat="48.03736" lon="-2.71059">
        <ele>102.814713</ele>
        <time>2022-12-13T15:39:13.879Z</time>
      </trkpt>
      <trkpt lat="48.03726" lon="-2.71049">
        <ele>102.787376</ele>
        <time>2022-12-13T15:39:16.891Z</time>
      </trkpt>
      <trkpt lat="48.03716" lon="-2.71039">
        <ele>102.757737</ele>
        <time>2022-12-13T15:39:19.893Z</time>
      </trkpt>
      <trkpt lat="48.03705" lon="-2.71028">
        <ele>102.726846</ele>
        <time>2022-12-13T15:39:22.888Z</time>
      </trkpt>
      <trkpt lat="48.03697" lon="-2.71021">
        <ele>102.710242</ele>
        <time>2022-12-13T15:39:24.876Z</time>
      </trkpt>
      <trkpt lat="48.03689" lon="-2.71014">
        <ele>102.701161</ele>
        <time>2022-12-13T15:39:26.877Z</time>
      </trkpt>
      <trkpt lat="48.03681" lon="-2.71007">
        <ele>102.691925</ele>
        <time>2022-12-13T15:39:28.879Z</time>
      </trkpt>
      <trkpt lat="48.03673" lon="-2.71">
        <ele>102.682859</ele>
        <time>2022-12-13T15:39:30.873Z</time>
      </trkpt>
      <trkpt lat="48.03664" lon="-2.70991">
        <ele>102.672317</ele>
        <time>2022-12-13T15:39:32.892Z</time>
      </trkpt>
      <trkpt lat="48.03656" lon="-2.70984">
        <ele>102.662567</ele>
        <time>2022-12-13T15:39:34.893Z</time>
      </trkpt>
      <trkpt lat="48.03648" lon="-2.70977">
        <ele>102.653314</ele>
        <time>2022-12-13T15:39:36.889Z</time>
      </trkpt>
      <trkpt lat="48.0364" lon="-2.7097">
        <ele>102.644232</ele>
        <time>2022-12-13T15:39:38.893Z</time>
      </trkpt>
      <trkpt lat="48.0363" lon="-2.70959">
        <ele>102.6319</ele>
        <time>2022-12-13T15:39:41.894Z</time>
      </trkpt>
      <trkpt lat="48.0362" lon="-2.7095">
        <ele>102.620296</ele>
        <time>2022-12-13T15:39:44.879Z</time>
      </trkpt>
      <trkpt lat="48.0361" lon="-2.70941">
        <ele>102.608593</ele>
        <time>2022-12-13T15:39:47.896Z</time>
      </trkpt>
      <trkpt lat="48.036" lon="-2.70931">
        <ele>102.596273</ele>
        <time>2022-12-13T15:39:50.873Z</time>
      </trkpt>
      <trkpt lat="48.0359" lon="-2.7092">
        <ele>102.583598</ele>
        <time>2022-12-13T15:39:53.868Z</time>
      </trkpt>
      <trkpt lat="48.03579" lon="-2.7091">
        <ele>102.571227</ele>
        <time>2022-12-13T15:39:56.886Z</time>
      </trkpt>
      <trkpt lat="48.03569" lon="-2.70901">
        <ele>102.559986</ele>
        <time>2022-12-13T15:39:59.869Z</time>
      </trkpt>
      <trkpt lat="48.0356" lon="-2.70893">
        <ele>102.549362</ele>
        <time>2022-12-13T15:40:02.873Z</time>
      </trkpt>
      <trkpt lat="48.03552" lon="-2.70886">
        <ele>102.540195</ele>
        <time>2022-12-13T15:40:05.868Z</time>
      </trkpt>
      <trkpt lat="48.03546" lon="-2.70875">
        <ele>102.490039</ele>
        <time>2022-12-13T15:40:10.877Z</time>
      </trkpt>
      <trkpt lat="48.03537" lon="-2.7087">
        <ele>102.403257</ele>
        <time>2022-12-13T15:40:15.864Z</time>
      </trkpt>
      <trkpt lat="48.03529" lon="-2.7086">
        <ele>102.309535</ele>
        <time>2022-12-13T15:40:21.865Z</time>
      </trkpt>
      <trkpt lat="48.0352" lon="-2.70852">
        <ele>102.212694</ele>
        <time>2022-12-13T15:40:24.879Z</time>
      </trkpt>
      <trkpt lat="48.03511" lon="-2.70844">
        <ele>102.123841</ele>
        <time>2022-12-13T15:40:26.870Z</time>
      </trkpt>
      <trkpt lat="48.03503" lon="-2.70836">
        <ele>102.033971</ele>
        <time>2022-12-13T15:40:28.893Z</time>
      </trkpt>
      <trkpt lat="48.03494" lon="-2.70827">
        <ele>101.938162</ele>
        <time>2022-12-13T15:40:30.895Z</time>
      </trkpt>
      <trkpt lat="48.03485" lon="-2.70819">
        <ele>101.837304</ele>
        <time>2022-12-13T15:40:32.890Z</time>
      </trkpt>
      <trkpt lat="48.03476" lon="-2.70811">
        <ele>101.743921</ele>
        <time>2022-12-13T15:40:34.892Z</time>
      </trkpt>
      <trkpt lat="48.03468" lon="-2.70803">
        <ele>101.655982</ele>
        <time>2022-12-13T15:40:36.896Z</time>
      </trkpt>
      <trkpt lat="48.0346" lon="-2.70796">
        <ele>101.570549</ele>
        <time>2022-12-13T15:40:38.890Z</time>
      </trkpt>
      <trkpt lat="48.0345" lon="-2.70784">
        <ele>101.454898</ele>
        <time>2022-12-13T15:40:41.896Z</time>
      </trkpt>
      <trkpt lat="48.03442" lon="-2.70777">
        <ele>101.372956</ele>
        <time>2022-12-13T15:40:43.879Z</time>
      </trkpt>
      <trkpt lat="48.03434" lon="-2.7077">
        <ele>101.286749</ele>
        <time>2022-12-13T15:40:45.869Z</time>
      </trkpt>
      <trkpt lat="48.03426" lon="-2.70762">
        <ele>101.201595</ele>
        <time>2022-12-13T15:40:47.895Z</time>
      </trkpt>
      <trkpt lat="48.03418" lon="-2.70754">
        <ele>101.114749</ele>
        <time>2022-12-13T15:40:49.896Z</time>
      </trkpt>
      <trkpt lat="48.0341" lon="-2.70746">
        <ele>101.028013</ele>
        <time>2022-12-13T15:40:51.891Z</time>
      </trkpt>
      <trkpt lat="48.03402" lon="-2.70738">
        <ele>100.939851</ele>
        <time>2022-12-13T15:40:53.896Z</time>
      </trkpt>
      <trkpt lat="48.03393" lon="-2.70731">
        <ele>100.861785</ele>
        <time>2022-12-13T15:40:55.866Z</time>
      </trkpt>
      <trkpt lat="48.03385" lon="-2.70723">
        <ele>100.789625</ele>
        <time>2022-12-13T15:40:57.894Z</time>
      </trkpt>
      <trkpt lat="48.03376" lon="-2.70714">
        <ele>100.716976</ele>
        <time>2022-12-13T15:40:59.891Z</time>
      </trkpt>
      <trkpt lat="48.03367" lon="-2.70705">
        <ele>100.642552</ele>
        <time>2022-12-13T15:41:01.883Z</time>
      </trkpt>
      <trkpt lat="48.03358" lon="-2.70696">
        <ele>100.570358</ele>
        <time>2022-12-13T15:41:03.898Z</time>
      </trkpt>
      <trkpt lat="48.03349" lon="-2.70688">
        <ele>100.497724</ele>
        <time>2022-12-13T15:41:05.869Z</time>
      </trkpt>
      <trkpt lat="48.0334" lon="-2.7068">
        <ele>100.424244</ele>
        <time>2022-12-13T15:41:07.892Z</time>
      </trkpt>
      <trkpt lat="48.03331" lon="-2.70671">
        <ele>100.351929</ele>
        <time>2022-12-13T15:41:09.894Z</time>
      </trkpt>
      <trkpt lat="48.03323" lon="-2.70663">
        <ele>100.281428</ele>
        <time>2022-12-13T15:41:11.895Z</time>
      </trkpt>
      <trkpt lat="48.03314" lon="-2.70655">
        <ele>100.212555</ele>
        <time>2022-12-13T15:41:13.890Z</time>
      </trkpt>
      <trkpt lat="48.03306" lon="-2.70647">
        <ele>100.140981</ele>
        <time>2022-12-13T15:41:15.870Z</time>
      </trkpt>
      <trkpt lat="48.03297" lon="-2.70638">
        <ele>100.06882</ele>
        <time>2022-12-13T15:41:17.884Z</time>
      </trkpt>
      <trkpt lat="48.03288" lon="-2.7063">
        <ele>99.997718</ele>
        <time>2022-12-13T15:41:19.889Z</time>
      </trkpt>
      <trkpt lat="48.03279" lon="-2.70622">
        <ele>99.927216</ele>
        <time>2022-12-13T15:41:21.888Z</time>
      </trkpt>
      <trkpt lat="48.03271" lon="-2.70614">
        <ele>99.858853</ele>
        <time>2022-12-13T15:41:23.891Z</time>
      </trkpt>
      <trkpt lat="48.03263" lon="-2.70607">
        <ele>99.796528</ele>
        <time>2022-12-13T15:41:25.869Z</time>
      </trkpt>
      <trkpt lat="48.03255" lon="-2.706">
        <ele>99.72923</ele>
        <time>2022-12-13T15:41:27.891Z</time>
      </trkpt>
      <trkpt lat="48.03243" lon="-2.70588">
        <ele>99.663274</ele>
        <time>2022-12-13T15:41:30.889Z</time>
      </trkpt>
      <trkpt lat="48.03235" lon="-2.7058">
        <ele>99.671782</ele>
        <time>2022-12-13T15:41:32.891Z</time>
      </trkpt>
      <trkpt lat="48.03227" lon="-2.70572">
        <ele>99.680583</ele>
        <time>2022-12-13T15:41:34.889Z</time>
      </trkpt>
      <trkpt lat="48.03218" lon="-2.70564">
        <ele>99.68945</ele>
        <time>2022-12-13T15:41:36.893Z</time>
      </trkpt>
      <trkpt lat="48.0321" lon="-2.70555">
        <ele>99.698555</ele>
        <time>2022-12-13T15:41:38.894Z</time>
      </trkpt>
      <trkpt lat="48.03201" lon="-2.70547">
        <ele>99.707276</ele>
        <time>2022-12-13T15:41:40.891Z</time>
      </trkpt>
      <trkpt lat="48.03193" lon="-2.7054">
        <ele>99.715814</ele>
        <time>2022-12-13T15:41:42.893Z</time>
      </trkpt>
      <trkpt lat="48.03182" lon="-2.70529">
        <ele>99.727013</ele>
        <time>2022-12-13T15:41:45.863Z</time>
      </trkpt>
      <trkpt lat="48.03172" lon="-2.70519">
        <ele>99.738048</ele>
        <time>2022-12-13T15:41:48.886Z</time>
      </trkpt>
      <trkpt lat="48.03164" lon="-2.70511">
        <ele>99.746018</ele>
        <time>2022-12-13T15:41:50.893Z</time>
      </trkpt>
      <trkpt lat="48.03153" lon="-2.705">
        <ele>99.757257</ele>
        <time>2022-12-13T15:41:53.897Z</time>
      </trkpt>
      <trkpt lat="48.03142" lon="-2.70489">
        <ele>99.768802</ele>
        <time>2022-12-13T15:41:56.890Z</time>
      </trkpt>
      <trkpt lat="48.03134" lon="-2.70482">
        <ele>99.77692</ele>
        <time>2022-12-13T15:41:58.874Z</time>
      </trkpt>
      <trkpt lat="48.03126" lon="-2.70474">
        <ele>99.785683</ele>
        <time>2022-12-13T15:42:00.897Z</time>
      </trkpt>
      <trkpt lat="48.03118" lon="-2.70466">
        <ele>99.794064</ele>
        <time>2022-12-13T15:42:02.893Z</time>
      </trkpt>
      <trkpt lat="48.03109" lon="-2.70458">
        <ele>99.802907</ele>
        <time>2022-12-13T15:42:04.885Z</time>
      </trkpt>
      <trkpt lat="48.03102" lon="-2.70451">
        <ele>99.811045</ele>
        <time>2022-12-13T15:42:06.894Z</time>
      </trkpt>
      <trkpt lat="48.03094" lon="-2.70443">
        <ele>99.809864</ele>
        <time>2022-12-13T15:42:08.893Z</time>
      </trkpt>
      <trkpt lat="48.03082" lon="-2.70433">
        <ele>99.771018</ele>
        <time>2022-12-13T15:42:11.905Z</time>
      </trkpt>
      <trkpt lat="48.03072" lon="-2.70422">
        <ele>99.732308</ele>
        <time>2022-12-13T15:42:14.879Z</time>
      </trkpt>
      <trkpt lat="48.03064" lon="-2.70414">
        <ele>99.702451</ele>
        <time>2022-12-13T15:42:16.894Z</time>
      </trkpt>
      <trkpt lat="48.03056" lon="-2.70406">
        <ele>99.673928</ele>
        <time>2022-12-13T15:42:18.894Z</time>
      </trkpt>
      <trkpt lat="48.03048" lon="-2.70398">
        <ele>99.645404</ele>
        <time>2022-12-13T15:42:20.891Z</time>
      </trkpt>
      <trkpt lat="48.03039" lon="-2.7039">
        <ele>99.615833</ele>
        <time>2022-12-13T15:42:22.896Z</time>
      </trkpt>
      <trkpt lat="48.03031" lon="-2.70383">
        <ele>99.587059</ele>
        <time>2022-12-13T15:42:24.893Z</time>
      </trkpt>
      <trkpt lat="48.03023" lon="-2.70375">
        <ele>99.557077</ele>
        <time>2022-12-13T15:42:26.889Z</time>
      </trkpt>
      <trkpt lat="48.03015" lon="-2.70367">
        <ele>99.527548</ele>
        <time>2022-12-13T15:42:28.871Z</time>
      </trkpt>
      <trkpt lat="48.03006" lon="-2.7036">
        <ele>99.498185</ele>
        <time>2022-12-13T15:42:30.891Z</time>
      </trkpt>
      <trkpt lat="48.02995" lon="-2.70349">
        <ele>99.459593</ele>
        <time>2022-12-13T15:42:33.893Z</time>
      </trkpt>
      <trkpt lat="48.02985" lon="-2.70339">
        <ele>99.422179</ele>
        <time>2022-12-13T15:42:36.899Z</time>
      </trkpt>
      <trkpt lat="48.02974" lon="-2.70328">
        <ele>99.382071</ele>
        <time>2022-12-13T15:42:39.874Z</time>
      </trkpt>
      <trkpt lat="48.02966" lon="-2.7032">
        <ele>99.354992</ele>
        <time>2022-12-13T15:42:41.891Z</time>
      </trkpt>
      <trkpt lat="48.02958" lon="-2.70314">
        <ele>99.327273</ele>
        <time>2022-12-13T15:42:43.897Z</time>
      </trkpt>
      <trkpt lat="48.0295" lon="-2.70306">
        <ele>99.298012</ele>
        <time>2022-12-13T15:42:45.875Z</time>
      </trkpt>
      <trkpt lat="48.02941" lon="-2.70297">
        <ele>99.239812</ele>
        <time>2022-12-13T15:42:47.891Z</time>
      </trkpt>
      <trkpt lat="48.02932" lon="-2.7029">
        <ele>99.131385</ele>
        <time>2022-12-13T15:42:49.888Z</time>
      </trkpt>
      <trkpt lat="48.02924" lon="-2.70282">
        <ele>99.03227</ele>
        <time>2022-12-13T15:42:51.890Z</time>
      </trkpt>
      <trkpt lat="48.02916" lon="-2.70273">
        <ele>98.926533</ele>
        <time>2022-12-13T15:42:53.892Z</time>
      </trkpt>
      <trkpt lat="48.02906" lon="-2.70263">
        <ele>98.794928</ele>
        <time>2022-12-13T15:42:56.886Z</time>
      </trkpt>
      <trkpt lat="48.02895" lon="-2.70253">
        <ele>98.661287</ele>
        <time>2022-12-13T15:42:59.881Z</time>
      </trkpt>
      <trkpt lat="48.02884" lon="-2.70242">
        <ele>98.524008</ele>
        <time>2022-12-13T15:43:02.889Z</time>
      </trkpt>
      <trkpt lat="48.02873" lon="-2.70231">
        <ele>98.38166</ele>
        <time>2022-12-13T15:43:05.873Z</time>
      </trkpt>
      <trkpt lat="48.02865" lon="-2.70223">
        <ele>98.282641</ele>
        <time>2022-12-13T15:43:07.893Z</time>
      </trkpt>
      <trkpt lat="48.02857" lon="-2.70216">
        <ele>98.180493</ele>
        <time>2022-12-13T15:43:09.895Z</time>
      </trkpt>
      <trkpt lat="48.02848" lon="-2.70208">
        <ele>98.078198</ele>
        <time>2022-12-13T15:43:11.891Z</time>
      </trkpt>
      <trkpt lat="48.02841" lon="-2.702">
        <ele>97.98012</ele>
        <time>2022-12-13T15:43:13.894Z</time>
      </trkpt>
      <trkpt lat="48.02833" lon="-2.70192">
        <ele>97.878858</ele>
        <time>2022-12-13T15:43:15.864Z</time>
      </trkpt>
      <trkpt lat="48.02822" lon="-2.70181">
        <ele>97.740804</ele>
        <time>2022-12-13T15:43:18.892Z</time>
      </trkpt>
      <trkpt lat="48.02812" lon="-2.70173">
        <ele>97.618293</ele>
        <time>2022-12-13T15:43:21.892Z</time>
      </trkpt>
      <trkpt lat="48.02803" lon="-2.70163">
        <ele>97.506741</ele>
        <time>2022-12-13T15:43:24.889Z</time>
      </trkpt>
      <trkpt lat="48.02795" lon="-2.70157">
        <ele>97.406995</ele>
        <time>2022-12-13T15:43:27.878Z</time>
      </trkpt>
      <trkpt lat="48.02786" lon="-2.70149">
        <ele>97.273587</ele>
        <time>2022-12-13T15:43:31.874Z</time>
      </trkpt>
      <trkpt lat="48.0278" lon="-2.70137">
        <ele>97.136958</ele>
        <time>2022-12-13T15:43:36.879Z</time>
      </trkpt>
      <trkpt lat="48.0277" lon="-2.70131">
        <ele>96.997725</ele>
        <time>2022-12-13T15:43:42.897Z</time>
      </trkpt>
      <trkpt lat="48.02761" lon="-2.70124">
        <ele>96.870289</ele>
        <time>2022-12-13T15:43:52.879Z</time>
      </trkpt>
      <trkpt lat="48.02751" lon="-2.70115">
        <ele>96.712622</ele>
        <time>2022-12-13T15:43:56.873Z</time>
      </trkpt>
      <trkpt lat="48.02741" lon="-2.70105">
        <ele>96.552873</ele>
        <time>2022-12-13T15:43:59.897Z</time>
      </trkpt>
      <trkpt lat="48.02734" lon="-2.70097">
        <ele>96.427716</ele>
        <time>2022-12-13T15:44:01.896Z</time>
      </trkpt>
      <trkpt lat="48.02725" lon="-2.70089">
        <ele>96.294372</ele>
        <time>2022-12-13T15:44:03.895Z</time>
      </trkpt>
      <trkpt lat="48.02717" lon="-2.70082">
        <ele>96.167174</ele>
        <time>2022-12-13T15:44:05.863Z</time>
      </trkpt>
      <trkpt lat="48.02709" lon="-2.70074">
        <ele>96.038806</ele>
        <time>2022-12-13T15:44:07.868Z</time>
      </trkpt>
      <trkpt lat="48.02701" lon="-2.70067">
        <ele>95.910029</ele>
        <time>2022-12-13T15:44:09.893Z</time>
      </trkpt>
      <trkpt lat="48.0269" lon="-2.70056">
        <ele>95.737095</ele>
        <time>2022-12-13T15:44:12.897Z</time>
      </trkpt>
      <trkpt lat="48.0268" lon="-2.70046">
        <ele>95.578613</ele>
        <time>2022-12-13T15:44:15.865Z</time>
      </trkpt>
      <trkpt lat="48.0267" lon="-2.70036">
        <ele>95.415652</ele>
        <time>2022-12-13T15:44:18.895Z</time>
      </trkpt>
      <trkpt lat="48.02659" lon="-2.70026">
        <ele>95.245788</ele>
        <time>2022-12-13T15:44:21.885Z</time>
      </trkpt>
      <trkpt lat="48.02651" lon="-2.70019">
        <ele>95.124564</ele>
        <time>2022-12-13T15:44:23.888Z</time>
      </trkpt>
      <trkpt lat="48.02643" lon="-2.70012">
        <ele>95.000602</ele>
        <time>2022-12-13T15:44:25.864Z</time>
      </trkpt>
      <trkpt lat="48.02636" lon="-2.70004">
        <ele>95.086491</ele>
        <time>2022-12-13T15:44:27.886Z</time>
      </trkpt>
      <trkpt lat="48.02628" lon="-2.69997">
        <ele>95.203528</ele>
        <time>2022-12-13T15:44:29.873Z</time>
      </trkpt>
      <trkpt lat="48.0262" lon="-2.69989">
        <ele>95.321936</ele>
        <time>2022-12-13T15:44:31.887Z</time>
      </trkpt>
      <trkpt lat="48.02612" lon="-2.69981">
        <ele>95.440022</ele>
        <time>2022-12-13T15:44:33.888Z</time>
      </trkpt>
      <trkpt lat="48.02601" lon="-2.69971">
        <ele>95.60472</ele>
        <time>2022-12-13T15:44:36.887Z</time>
      </trkpt>
      <trkpt lat="48.02591" lon="-2.69961">
        <ele>95.755537</ele>
        <time>2022-12-13T15:44:39.892Z</time>
      </trkpt>
      <trkpt lat="48.0258" lon="-2.69951">
        <ele>95.910637</ele>
        <time>2022-12-13T15:44:42.887Z</time>
      </trkpt>
      <trkpt lat="48.0257" lon="-2.6994">
        <ele>96.066516</ele>
        <time>2022-12-13T15:44:45.869Z</time>
      </trkpt>
      <trkpt lat="48.02559" lon="-2.69931">
        <ele>96.220059</ele>
        <time>2022-12-13T15:44:48.878Z</time>
      </trkpt>
      <trkpt lat="48.02548" lon="-2.69921">
        <ele>96.37771</ele>
        <time>2022-12-13T15:44:51.893Z</time>
      </trkpt>
      <trkpt lat="48.02538" lon="-2.6991">
        <ele>96.53671</ele>
        <time>2022-12-13T15:44:54.882Z</time>
      </trkpt>
      <trkpt lat="48.02527" lon="-2.69899">
        <ele>96.699439</ele>
        <time>2022-12-13T15:44:57.878Z</time>
      </trkpt>
      <trkpt lat="48.02516" lon="-2.69888">
        <ele>96.862648</ele>
        <time>2022-12-13T15:45:00.897Z</time>
      </trkpt>
      <trkpt lat="48.02505" lon="-2.69878">
        <ele>97.024984</ele>
        <time>2022-12-13T15:45:03.889Z</time>
      </trkpt>
      <trkpt lat="48.02495" lon="-2.69869">
        <ele>97.17147</ele>
        <time>2022-12-13T15:45:06.901Z</time>
      </trkpt>
      <trkpt lat="48.02485" lon="-2.69859">
        <ele>97.246348</ele>
        <time>2022-12-13T15:45:09.881Z</time>
      </trkpt>
      <trkpt lat="48.02474" lon="-2.69849">
        <ele>97.279301</ele>
        <time>2022-12-13T15:45:12.890Z</time>
      </trkpt>
      <trkpt lat="48.02466" lon="-2.69841">
        <ele>97.303445</ele>
        <time>2022-12-13T15:45:14.867Z</time>
      </trkpt>
      <trkpt lat="48.02458" lon="-2.69833">
        <ele>97.327993</ele>
        <time>2022-12-13T15:45:16.873Z</time>
      </trkpt>
      <trkpt lat="48.02451" lon="-2.69825">
        <ele>97.351804</ele>
        <time>2022-12-13T15:45:18.893Z</time>
      </trkpt>
      <trkpt lat="48.0244" lon="-2.69816">
        <ele>97.383744</ele>
        <time>2022-12-13T15:45:21.884Z</time>
      </trkpt>
      <trkpt lat="48.0243" lon="-2.69807">
        <ele>97.413788</ele>
        <time>2022-12-13T15:45:24.894Z</time>
      </trkpt>
      <trkpt lat="48.0242" lon="-2.69797">
        <ele>97.443481</ele>
        <time>2022-12-13T15:45:27.893Z</time>
      </trkpt>
      <trkpt lat="48.02411" lon="-2.69786">
        <ele>97.474716</ele>
        <time>2022-12-13T15:45:30.871Z</time>
      </trkpt>
      <trkpt lat="48.02401" lon="-2.69773">
        <ele>97.50711</ele>
        <time>2022-12-13T15:45:33.871Z</time>
      </trkpt>
      <trkpt lat="48.02392" lon="-2.69759">
        <ele>97.540698</ele>
        <time>2022-12-13T15:45:36.893Z</time>
      </trkpt>
      <trkpt lat="48.02386" lon="-2.6975">
        <ele>97.563873</ele>
        <time>2022-12-13T15:45:38.884Z</time>
      </trkpt>
      <trkpt lat="48.02377" lon="-2.69734">
        <ele>97.598268</ele>
        <time>2022-12-13T15:45:41.877Z</time>
      </trkpt>
      <trkpt lat="48.0237" lon="-2.69716">
        <ele>97.633047</ele>
        <time>2022-12-13T15:45:44.882Z</time>
      </trkpt>
      <trkpt lat="48.02366" lon="-2.69704">
        <ele>97.656224</ele>
        <time>2022-12-13T15:45:46.894Z</time>
      </trkpt>
      <trkpt lat="48.02363" lon="-2.69692">
        <ele>97.67934</ele>
        <time>2022-12-13T15:45:48.900Z</time>
      </trkpt>
      <trkpt lat="48.02358" lon="-2.69674">
        <ele>97.689127</ele>
        <time>2022-12-13T15:45:51.891Z</time>
      </trkpt>
      <trkpt lat="48.02354" lon="-2.69658">
        <ele>97.690749</ele>
        <time>2022-12-13T15:45:54.888Z</time>
      </trkpt>
      <trkpt lat="48.02352" lon="-2.6964">
        <ele>97.692456</ele>
        <time>2022-12-13T15:45:57.867Z</time>
      </trkpt>
      <trkpt lat="48.02349" lon="-2.69622">
        <ele>97.694199</ele>
        <time>2022-12-13T15:46:00.891Z</time>
      </trkpt>
      <trkpt lat="48.02347" lon="-2.69604">
        <ele>97.695907</ele>
        <time>2022-12-13T15:46:03.892Z</time>
      </trkpt>
      <trkpt lat="48.02344" lon="-2.69589">
        <ele>97.697391</ele>
        <time>2022-12-13T15:46:06.873Z</time>
      </trkpt>
      <trkpt lat="48.02342" lon="-2.69573">
        <ele>97.698923</ele>
        <time>2022-12-13T15:46:09.891Z</time>
      </trkpt>
      <trkpt lat="48.02339" lon="-2.69557">
        <ele>97.700481</ele>
        <time>2022-12-13T15:46:12.869Z</time>
      </trkpt>
      <trkpt lat="48.02336" lon="-2.6954">
        <ele>97.702099</ele>
        <time>2022-12-13T15:46:15.868Z</time>
      </trkpt>
      <trkpt lat="48.02333" lon="-2.69523">
        <ele>97.703821</ele>
        <time>2022-12-13T15:46:18.885Z</time>
      </trkpt>
      <trkpt lat="48.0233" lon="-2.69504">
        <ele>97.705595</ele>
        <time>2022-12-13T15:46:21.885Z</time>
      </trkpt>
      <trkpt lat="48.02327" lon="-2.69486">
        <ele>97.707385</ele>
        <time>2022-12-13T15:46:24.883Z</time>
      </trkpt>
      <trkpt lat="48.02325" lon="-2.69467">
        <ele>97.70918</ele>
        <time>2022-12-13T15:46:27.896Z</time>
      </trkpt>
      <trkpt lat="48.02321" lon="-2.69449">
        <ele>97.710995</ele>
        <time>2022-12-13T15:46:30.882Z</time>
      </trkpt>
      <trkpt lat="48.02318" lon="-2.6943">
        <ele>97.712769</ele>
        <time>2022-12-13T15:46:33.881Z</time>
      </trkpt>
      <trkpt lat="48.02316" lon="-2.69413">
        <ele>97.727513</ele>
        <time>2022-12-13T15:46:36.873Z</time>
      </trkpt>
      <trkpt lat="48.02313" lon="-2.69397">
        <ele>97.745039</ele>
        <time>2022-12-13T15:46:39.890Z</time>
      </trkpt>
      <trkpt lat="48.0231" lon="-2.69379">
        <ele>97.763852</ele>
        <time>2022-12-13T15:46:42.893Z</time>
      </trkpt>
      <trkpt lat="48.02307" lon="-2.69361">
        <ele>97.783474</ele>
        <time>2022-12-13T15:46:45.865Z</time>
      </trkpt>
      <trkpt lat="48.02304" lon="-2.69342">
        <ele>97.803335</ele>
        <time>2022-12-13T15:46:48.872Z</time>
      </trkpt>
      <trkpt lat="48.02301" lon="-2.69323">
        <ele>97.823905</ele>
        <time>2022-12-13T15:46:51.877Z</time>
      </trkpt>
      <trkpt lat="48.02298" lon="-2.69304">
        <ele>97.844488</ele>
        <time>2022-12-13T15:46:54.869Z</time>
      </trkpt>
      <trkpt lat="48.02295" lon="-2.69285">
        <ele>97.864885</ele>
        <time>2022-12-13T15:46:57.881Z</time>
      </trkpt>
      <trkpt lat="48.02291" lon="-2.69267">
        <ele>97.883963</ele>
        <time>2022-12-13T15:47:00.865Z</time>
      </trkpt>
      <trkpt lat="48.02289" lon="-2.6925">
        <ele>97.902123</ele>
        <time>2022-12-13T15:47:03.893Z</time>
      </trkpt>
      <trkpt lat="48.02286" lon="-2.69232">
        <ele>97.921741</ele>
        <time>2022-12-13T15:47:06.891Z</time>
      </trkpt>
      <trkpt lat="48.02283" lon="-2.69213">
        <ele>97.941799</ele>
        <time>2022-12-13T15:47:09.874Z</time>
      </trkpt>
      <trkpt lat="48.02279" lon="-2.69194">
        <ele>97.962551</ele>
        <time>2022-12-13T15:47:12.889Z</time>
      </trkpt>
      <trkpt lat="48.02276" lon="-2.69175">
        <ele>97.983398</ele>
        <time>2022-12-13T15:47:15.870Z</time>
      </trkpt>
      <trkpt lat="48.02275" lon="-2.69161">
        <ele>97.99848</ele>
        <time>2022-12-13T15:47:17.895Z</time>
      </trkpt>
      <trkpt lat="48.02271" lon="-2.69142">
        <ele>98.021281</ele>
        <time>2022-12-13T15:47:20.888Z</time>
      </trkpt>
      <trkpt lat="48.02269" lon="-2.69129">
        <ele>98.037867</ele>
        <time>2022-12-13T15:47:22.882Z</time>
      </trkpt>
      <trkpt lat="48.02266" lon="-2.69116">
        <ele>98.053738</ele>
        <time>2022-12-13T15:47:24.893Z</time>
      </trkpt>
      <trkpt lat="48.02263" lon="-2.69097">
        <ele>98.076132</ele>
        <time>2022-12-13T15:47:27.877Z</time>
      </trkpt>
      <trkpt lat="48.0226" lon="-2.69081">
        <ele>98.095967</ele>
        <time>2022-12-13T15:47:30.871Z</time>
      </trkpt>
      <trkpt lat="48.02257" lon="-2.69064">
        <ele>98.116795</ele>
        <time>2022-12-13T15:47:33.881Z</time>
      </trkpt>
      <trkpt lat="48.02254" lon="-2.69045">
        <ele>98.140061</ele>
        <time>2022-12-13T15:47:36.869Z</time>
      </trkpt>
      <trkpt lat="48.02251" lon="-2.69031">
        <ele>98.156236</ele>
        <time>2022-12-13T15:47:38.860Z</time>
      </trkpt>
      <trkpt lat="48.02249" lon="-2.69012">
        <ele>98.179655</ele>
        <time>2022-12-13T15:47:41.884Z</time>
      </trkpt>
      <trkpt lat="48.02246" lon="-2.68998">
        <ele>98.195899</ele>
        <time>2022-12-13T15:47:43.889Z</time>
      </trkpt>
      <trkpt lat="48.02244" lon="-2.68985">
        <ele>98.212214</ele>
        <time>2022-12-13T15:47:45.873Z</time>
      </trkpt>
      <trkpt lat="48.02241" lon="-2.68971">
        <ele>98.228923</ele>
        <time>2022-12-13T15:47:47.892Z</time>
      </trkpt>
      <trkpt lat="48.0224" lon="-2.68958">
        <ele>98.245169</ele>
        <time>2022-12-13T15:47:49.897Z</time>
      </trkpt>
      <trkpt lat="48.02238" lon="-2.68944">
        <ele>98.261175</ele>
        <time>2022-12-13T15:47:51.893Z</time>
      </trkpt>
      <trkpt lat="48.02235" lon="-2.68931">
        <ele>98.277397</ele>
        <time>2022-12-13T15:47:53.890Z</time>
      </trkpt>
      <trkpt lat="48.02232" lon="-2.68913">
        <ele>98.299721</ele>
        <time>2022-12-13T15:47:56.874Z</time>
      </trkpt>
      <trkpt lat="48.02229" lon="-2.68896">
        <ele>98.249796</ele>
        <time>2022-12-13T15:47:59.898Z</time>
      </trkpt>
      <trkpt lat="48.02226" lon="-2.68878">
        <ele>98.135814</ele>
        <time>2022-12-13T15:48:02.896Z</time>
      </trkpt>
      <trkpt lat="48.02222" lon="-2.68859">
        <ele>98.010457</ele>
        <time>2022-12-13T15:48:05.864Z</time>
      </trkpt>
      <trkpt lat="48.02219" lon="-2.68841">
        <ele>97.894305</ele>
        <time>2022-12-13T15:48:08.893Z</time>
      </trkpt>
      <trkpt lat="48.02217" lon="-2.68825">
        <ele>97.793134</ele>
        <time>2022-12-13T15:48:11.899Z</time>
      </trkpt>
      <trkpt lat="48.02214" lon="-2.68812">
        <ele>97.707131</ele>
        <time>2022-12-13T15:48:14.892Z</time>
      </trkpt>
      <trkpt lat="48.02213" lon="-2.68797">
        <ele>97.610945</ele>
        <time>2022-12-13T15:48:18.889Z</time>
      </trkpt>
      <trkpt lat="48.02212" lon="-2.68782">
        <ele>97.516744</ele>
        <time>2022-12-13T15:48:24.869Z</time>
      </trkpt>
      <trkpt lat="48.02209" lon="-2.68764">
        <ele>97.401638</ele>
        <time>2022-12-13T15:48:28.876Z</time>
      </trkpt>
      <trkpt lat="48.02207" lon="-2.68748">
        <ele>97.299735</ele>
        <time>2022-12-13T15:48:31.871Z</time>
      </trkpt>
      <trkpt lat="48.02207" lon="-2.68732">
        <ele>97.199433</ele>
        <time>2022-12-13T15:48:34.872Z</time>
      </trkpt>
      <trkpt lat="48.02209" lon="-2.68719">
        <ele>97.114412</ele>
        <time>2022-12-13T15:48:37.871Z</time>
      </trkpt>
      <trkpt lat="48.0221" lon="-2.68705">
        <ele>97.023191</ele>
        <time>2022-12-13T15:48:43.895Z</time>
      </trkpt>
      <trkpt lat="48.02211" lon="-2.68688">
        <ele>96.916029</ele>
        <time>2022-12-13T15:48:48.873Z</time>
      </trkpt>
      <trkpt lat="48.02214" lon="-2.68673">
        <ele>96.820102</ele>
        <time>2022-12-13T15:48:51.890Z</time>
      </trkpt>
      <trkpt lat="48.02216" lon="-2.68657">
        <ele>96.718931</ele>
        <time>2022-12-13T15:48:54.895Z</time>
      </trkpt>
      <trkpt lat="48.02219" lon="-2.6864">
        <ele>96.62329</ele>
        <time>2022-12-13T15:48:57.869Z</time>
      </trkpt>
      <trkpt lat="48.02221" lon="-2.68623">
        <ele>96.624702</ele>
        <time>2022-12-13T15:49:00.893Z</time>
      </trkpt>
      <trkpt lat="48.02223" lon="-2.68605">
        <ele>96.626166</ele>
        <time>2022-12-13T15:49:03.888Z</time>
      </trkpt>
      <trkpt lat="48.02226" lon="-2.68587">
        <ele>96.627628</ele>
        <time>2022-12-13T15:49:06.889Z</time>
      </trkpt>
      <trkpt lat="48.02228" lon="-2.6857">
        <ele>96.629039</ele>
        <time>2022-12-13T15:49:09.890Z</time>
      </trkpt>
      <trkpt lat="48.0223" lon="-2.68554">
        <ele>96.630319</ele>
        <time>2022-12-13T15:49:12.890Z</time>
      </trkpt>
      <trkpt lat="48.02229" lon="-2.68535">
        <ele>96.631816</ele>
        <time>2022-12-13T15:49:15.896Z</time>
      </trkpt>
      <trkpt lat="48.02227" lon="-2.68515">
        <ele>96.63342</ele>
        <time>2022-12-13T15:49:18.868Z</time>
      </trkpt>
      <trkpt lat="48.02224" lon="-2.68497">
        <ele>96.634921</ele>
        <time>2022-12-13T15:49:21.898Z</time>
      </trkpt>
      <trkpt lat="48.02221" lon="-2.68484">
        <ele>96.63602</ele>
        <time>2022-12-13T15:49:23.887Z</time>
      </trkpt>
      <trkpt lat="48.02217" lon="-2.68467">
        <ele>96.637441</ele>
        <time>2022-12-13T15:49:26.872Z</time>
      </trkpt>
      <trkpt lat="48.02214" lon="-2.68451">
        <ele>96.638768</ele>
        <time>2022-12-13T15:49:29.889Z</time>
      </trkpt>
      <trkpt lat="48.02211" lon="-2.68436">
        <ele>96.640079</ele>
        <time>2022-12-13T15:49:32.898Z</time>
      </trkpt>
      <trkpt lat="48.02208" lon="-2.68421">
        <ele>96.641296</ele>
        <time>2022-12-13T15:49:35.866Z</time>
      </trkpt>
      <trkpt lat="48.02204" lon="-2.68406">
        <ele>96.642624</ele>
        <time>2022-12-13T15:49:38.877Z</time>
      </trkpt>
      <trkpt lat="48.02199" lon="-2.6839">
        <ele>96.643999</ele>
        <time>2022-12-13T15:49:41.896Z</time>
      </trkpt>
      <trkpt lat="48.02192" lon="-2.68374">
        <ele>96.649682</ele>
        <time>2022-12-13T15:49:44.868Z</time>
      </trkpt>
      <trkpt lat="48.02185" lon="-2.68359">
        <ele>96.658597</ele>
        <time>2022-12-13T15:49:47.864Z</time>
      </trkpt>
      <trkpt lat="48.02176" lon="-2.68345">
        <ele>96.667876</ele>
        <time>2022-12-13T15:49:50.870Z</time>
      </trkpt>
      <trkpt lat="48.02168" lon="-2.68331">
        <ele>96.677238</ele>
        <time>2022-12-13T15:49:53.871Z</time>
      </trkpt>
      <trkpt lat="48.02162" lon="-2.6832">
        <ele>96.683763</ele>
        <time>2022-12-13T15:49:55.870Z</time>
      </trkpt>
      <trkpt lat="48.02155" lon="-2.6831">
        <ele>96.690482</ele>
        <time>2022-12-13T15:49:57.890Z</time>
      </trkpt>
      <trkpt lat="48.02149" lon="-2.68301">
        <ele>96.697199</ele>
        <time>2022-12-13T15:49:59.883Z</time>
      </trkpt>
      <trkpt lat="48.02139" lon="-2.68286">
        <ele>96.706967</ele>
        <time>2022-12-13T15:50:02.893Z</time>
      </trkpt>
      <trkpt lat="48.02132" lon="-2.68275">
        <ele>96.714208</ele>
        <time>2022-12-13T15:50:04.891Z</time>
      </trkpt>
      <trkpt lat="48.02125" lon="-2.68265">
        <ele>96.720962</ele>
        <time>2022-12-13T15:50:06.875Z</time>
      </trkpt>
      <trkpt lat="48.02118" lon="-2.68255">
        <ele>96.728168</ele>
        <time>2022-12-13T15:50:08.896Z</time>
      </trkpt>
      <trkpt lat="48.02112" lon="-2.68245">
        <ele>96.734622</ele>
        <time>2022-12-13T15:50:10.886Z</time>
      </trkpt>
      <trkpt lat="48.02104" lon="-2.6823">
        <ele>96.743754</ele>
        <time>2022-12-13T15:50:13.877Z</time>
      </trkpt>
      <trkpt lat="48.02097" lon="-2.68216">
        <ele>96.752282</ele>
        <time>2022-12-13T15:50:16.893Z</time>
      </trkpt>
      <trkpt lat="48.02091" lon="-2.68202">
        <ele>96.76028</ele>
        <time>2022-12-13T15:50:19.893Z</time>
      </trkpt>
      <trkpt lat="48.02086" lon="-2.68186">
        <ele>96.768922</ele>
        <time>2022-12-13T15:50:22.888Z</time>
      </trkpt>
      <trkpt lat="48.02079" lon="-2.68169">
        <ele>96.78363</ele>
        <time>2022-12-13T15:50:25.876Z</time>
      </trkpt>
      <trkpt lat="48.02073" lon="-2.68152">
        <ele>96.805116</ele>
        <time>2022-12-13T15:50:28.862Z</time>
      </trkpt>
      <trkpt lat="48.02068" lon="-2.68135">
        <ele>96.826055</ele>
        <time>2022-12-13T15:50:31.870Z</time>
      </trkpt>
      <trkpt lat="48.02063" lon="-2.68119">
        <ele>96.846923</ele>
        <time>2022-12-13T15:50:34.885Z</time>
      </trkpt>
      <trkpt lat="48.02059" lon="-2.68106">
        <ele>96.862571</ele>
        <time>2022-12-13T15:50:36.891Z</time>
      </trkpt>
      <trkpt lat="48.02054" lon="-2.68094">
        <ele>96.878576</ele>
        <time>2022-12-13T15:50:38.892Z</time>
      </trkpt>
      <trkpt lat="48.02048" lon="-2.68076">
        <ele>96.900594</ele>
        <time>2022-12-13T15:50:41.891Z</time>
      </trkpt>
      <trkpt lat="48.02043" lon="-2.68064">
        <ele>96.916728</ele>
        <time>2022-12-13T15:50:43.893Z</time>
      </trkpt>
      <trkpt lat="48.02037" lon="-2.68053">
        <ele>96.93281</ele>
        <time>2022-12-13T15:50:45.877Z</time>
      </trkpt>
      <trkpt lat="48.02031" lon="-2.68042">
        <ele>96.949013</ele>
        <time>2022-12-13T15:50:47.892Z</time>
      </trkpt>
      <trkpt lat="48.02024" lon="-2.68031">
        <ele>96.965096</ele>
        <time>2022-12-13T15:50:49.877Z</time>
      </trkpt>
      <trkpt lat="48.02016" lon="-2.68021">
        <ele>96.982804</ele>
        <time>2022-12-13T15:50:51.877Z</time>
      </trkpt>
      <trkpt lat="48.02009" lon="-2.68011">
        <ele>96.998723</ele>
        <time>2022-12-13T15:50:53.878Z</time>
      </trkpt>
      <trkpt lat="48.01999" lon="-2.67998">
        <ele>97.021234</ele>
        <time>2022-12-13T15:50:56.885Z</time>
      </trkpt>
      <trkpt lat="48.01989" lon="-2.67988">
        <ele>97.041124</ele>
        <time>2022-12-13T15:50:59.895Z</time>
      </trkpt>
      <trkpt lat="48.01982" lon="-2.67979">
        <ele>97.056392</ele>
        <time>2022-12-13T15:51:12.880Z</time>
      </trkpt>
      <trkpt lat="48.01973" lon="-2.6797">
        <ele>97.074972</ele>
        <time>2022-12-13T15:51:17.878Z</time>
      </trkpt>
      <trkpt lat="48.01964" lon="-2.67962">
        <ele>96.984104</ele>
        <time>2022-12-13T15:51:20.887Z</time>
      </trkpt>
      <trkpt lat="48.01956" lon="-2.67954">
        <ele>96.894946</ele>
        <time>2022-12-13T15:51:23.889Z</time>
      </trkpt>
      <trkpt lat="48.01948" lon="-2.67944">
        <ele>96.799143</ele>
        <time>2022-12-13T15:51:26.879Z</time>
      </trkpt>
      <trkpt lat="48.01939" lon="-2.67938">
        <ele>96.71615</ele>
        <time>2022-12-13T15:51:28.881Z</time>
      </trkpt>
      <trkpt lat="48.0193" lon="-2.67927">
        <ele>96.608006</ele>
        <time>2022-12-13T15:51:31.891Z</time>
      </trkpt>
      <trkpt lat="48.01919" lon="-2.67917">
        <ele>96.490181</ele>
        <time>2022-12-13T15:51:34.889Z</time>
      </trkpt>
      <trkpt lat="48.01909" lon="-2.67907">
        <ele>96.386616</ele>
        <time>2022-12-13T15:51:37.889Z</time>
      </trkpt>
      <trkpt lat="48.01901" lon="-2.67898">
        <ele>96.290344</ele>
        <time>2022-12-13T15:51:40.890Z</time>
      </trkpt>
      <trkpt lat="48.01891" lon="-2.67889">
        <ele>96.189628</ele>
        <time>2022-12-13T15:51:43.883Z</time>
      </trkpt>
      <trkpt lat="48.01882" lon="-2.6788">
        <ele>96.085973</ele>
        <time>2022-12-13T15:51:46.890Z</time>
      </trkpt>
      <trkpt lat="48.01873" lon="-2.6787">
        <ele>95.983963</ele>
        <time>2022-12-13T15:51:49.891Z</time>
      </trkpt>
      <trkpt lat="48.01864" lon="-2.6786">
        <ele>95.882347</ele>
        <time>2022-12-13T15:51:52.883Z</time>
      </trkpt>
      <trkpt lat="48.01855" lon="-2.67852">
        <ele>95.785559</ele>
        <time>2022-12-13T15:51:55.871Z</time>
      </trkpt>
      <trkpt lat="48.01847" lon="-2.67842">
        <ele>95.692272</ele>
        <time>2022-12-13T15:51:58.878Z</time>
      </trkpt>
      <trkpt lat="48.01839" lon="-2.67831">
        <ele>95.596854</ele>
        <time>2022-12-13T15:52:01.875Z</time>
      </trkpt>
      <trkpt lat="48.01829" lon="-2.67822">
        <ele>95.492917</ele>
        <time>2022-12-13T15:52:04.876Z</time>
      </trkpt>
      <trkpt lat="48.01817" lon="-2.6781">
        <ele>95.376743</ele>
        <time>2022-12-13T15:52:07.887Z</time>
      </trkpt>
      <trkpt lat="48.01809" lon="-2.67803">
        <ele>95.299489</ele>
        <time>2022-12-13T15:52:09.888Z</time>
      </trkpt>
      <trkpt lat="48.01801" lon="-2.67794">
        <ele>95.222889</ele>
        <time>2022-12-13T15:52:11.875Z</time>
      </trkpt>
      <trkpt lat="48.01793" lon="-2.67786">
        <ele>95.149607</ele>
        <time>2022-12-13T15:52:13.892Z</time>
      </trkpt>
      <trkpt lat="48.01782" lon="-2.67775">
        <ele>95.046602</ele>
        <time>2022-12-13T15:52:16.894Z</time>
      </trkpt>
      <trkpt lat="48.01771" lon="-2.67764">
        <ele>94.949349</ele>
        <time>2022-12-13T15:52:19.896Z</time>
      </trkpt>
      <trkpt lat="48.01761" lon="-2.67754">
        <ele>94.852044</ele>
        <time>2022-12-13T15:52:22.889Z</time>
      </trkpt>
      <trkpt lat="48.0175" lon="-2.67743">
        <ele>94.753525</ele>
        <time>2022-12-13T15:52:25.869Z</time>
      </trkpt>
      <trkpt lat="48.0174" lon="-2.67731">
        <ele>94.655408</ele>
        <time>2022-12-13T15:52:28.890Z</time>
      </trkpt>
      <trkpt lat="48.01729" lon="-2.6772">
        <ele>94.555441</ele>
        <time>2022-12-13T15:52:31.892Z</time>
      </trkpt>
      <trkpt lat="48.01718" lon="-2.67709">
        <ele>94.453726</ele>
        <time>2022-12-13T15:52:34.887Z</time>
      </trkpt>
      <trkpt lat="48.01707" lon="-2.67698">
        <ele>94.351265</ele>
        <time>2022-12-13T15:52:37.898Z</time>
      </trkpt>
      <trkpt lat="48.017" lon="-2.6769">
        <ele>94.281042</ele>
        <time>2022-12-13T15:52:39.893Z</time>
      </trkpt>
      <trkpt lat="48.01692" lon="-2.67683">
        <ele>94.211952</ele>
        <time>2022-12-13T15:52:41.893Z</time>
      </trkpt>
      <trkpt lat="48.01681" lon="-2.67673">
        <ele>94.110439</ele>
        <time>2022-12-13T15:52:44.885Z</time>
      </trkpt>
      <trkpt lat="48.01672" lon="-2.67667">
        <ele>94.037465</ele>
        <time>2022-12-13T15:52:46.894Z</time>
      </trkpt>
      <trkpt lat="48.01664" lon="-2.67661">
        <ele>93.957715</ele>
        <time>2022-12-13T15:52:48.888Z</time>
      </trkpt>
      <trkpt lat="48.01656" lon="-2.67655">
        <ele>93.876135</ele>
        <time>2022-12-13T15:52:50.893Z</time>
      </trkpt>
      <trkpt lat="48.01647" lon="-2.67648">
        <ele>93.791725</ele>
        <time>2022-12-13T15:52:52.893Z</time>
      </trkpt>
      <trkpt lat="48.01638" lon="-2.67642">
        <ele>93.707574</ele>
        <time>2022-12-13T15:52:54.896Z</time>
      </trkpt>
      <trkpt lat="48.0163" lon="-2.67636">
        <ele>93.628543</ele>
        <time>2022-12-13T15:52:56.894Z</time>
      </trkpt>
      <trkpt lat="48.01621" lon="-2.6763">
        <ele>93.544134</ele>
        <time>2022-12-13T15:52:58.895Z</time>
      </trkpt>
      <trkpt lat="48.01612" lon="-2.67623">
        <ele>93.454003</ele>
        <time>2022-12-13T15:53:00.889Z</time>
      </trkpt>
      <trkpt lat="48.01603" lon="-2.67617">
        <ele>93.368031</ele>
        <time>2022-12-13T15:53:02.895Z</time>
      </trkpt>
      <trkpt lat="48.01594" lon="-2.6761">
        <ele>93.282318</ele>
        <time>2022-12-13T15:53:04.891Z</time>
      </trkpt>
      <trkpt lat="48.01584" lon="-2.67605">
        <ele>93.191673</ele>
        <time>2022-12-13T15:53:06.893Z</time>
      </trkpt>
      <trkpt lat="48.01575" lon="-2.676">
        <ele>93.108742</ele>
        <time>2022-12-13T15:53:08.886Z</time>
      </trkpt>
      <trkpt lat="48.01566" lon="-2.67595">
        <ele>93.021333</ele>
        <time>2022-12-13T15:53:10.883Z</time>
      </trkpt>
      <trkpt lat="48.01556" lon="-2.6759">
        <ele>92.933105</ele>
        <time>2022-12-13T15:53:12.889Z</time>
      </trkpt>
      <trkpt lat="48.01546" lon="-2.67585">
        <ele>92.839944</ele>
        <time>2022-12-13T15:53:14.899Z</time>
      </trkpt>
      <trkpt lat="48.01537" lon="-2.67581">
        <ele>92.753133</ele>
        <time>2022-12-13T15:53:16.891Z</time>
      </trkpt>
      <trkpt lat="48.01527" lon="-2.67578">
        <ele>92.672131</ele>
        <time>2022-12-13T15:53:18.895Z</time>
      </trkpt>
      <trkpt lat="48.01515" lon="-2.67572">
        <ele>92.558838</ele>
        <time>2022-12-13T15:53:21.882Z</time>
      </trkpt>
      <trkpt lat="48.01504" lon="-2.67566">
        <ele>92.517772</ele>
        <time>2022-12-13T15:53:24.889Z</time>
      </trkpt>
      <trkpt lat="48.01492" lon="-2.67562">
        <ele>92.551451</ele>
        <time>2022-12-13T15:53:27.898Z</time>
      </trkpt>
      <trkpt lat="48.01483" lon="-2.67558">
        <ele>92.576022</ele>
        <time>2022-12-13T15:53:29.901Z</time>
      </trkpt>
      <trkpt lat="48.01474" lon="-2.67553">
        <ele>92.601875</ele>
        <time>2022-12-13T15:53:31.872Z</time>
      </trkpt>
      <trkpt lat="48.01465" lon="-2.67549">
        <ele>92.627953</ele>
        <time>2022-12-13T15:53:33.898Z</time>
      </trkpt>
      <trkpt lat="48.01456" lon="-2.67544">
        <ele>92.65593</ele>
        <time>2022-12-13T15:53:35.878Z</time>
      </trkpt>
      <trkpt lat="48.01447" lon="-2.67539">
        <ele>92.682498</ele>
        <time>2022-12-13T15:53:37.896Z</time>
      </trkpt>
      <trkpt lat="48.01437" lon="-2.67532">
        <ele>92.711046</ele>
        <time>2022-12-13T15:53:39.879Z</time>
      </trkpt>
      <trkpt lat="48.01429" lon="-2.67525">
        <ele>92.737413</ele>
        <time>2022-12-13T15:53:41.897Z</time>
      </trkpt>
      <trkpt lat="48.0142" lon="-2.67518">
        <ele>92.765377</ele>
        <time>2022-12-13T15:53:43.896Z</time>
      </trkpt>
      <trkpt lat="48.01411" lon="-2.67512">
        <ele>92.792524</ele>
        <time>2022-12-13T15:53:45.877Z</time>
      </trkpt>
      <trkpt lat="48.01402" lon="-2.67504">
        <ele>92.819457</ele>
        <time>2022-12-13T15:53:47.891Z</time>
      </trkpt>
      <trkpt lat="48.01394" lon="-2.67497">
        <ele>92.845647</ele>
        <time>2022-12-13T15:53:49.897Z</time>
      </trkpt>
      <trkpt lat="48.01385" lon="-2.6749">
        <ele>92.872761</ele>
        <time>2022-12-13T15:53:51.894Z</time>
      </trkpt>
      <trkpt lat="48.01376" lon="-2.67484">
        <ele>92.899501</ele>
        <time>2022-12-13T15:53:53.894Z</time>
      </trkpt>
      <trkpt lat="48.01367" lon="-2.67477">
        <ele>92.926567</ele>
        <time>2022-12-13T15:53:55.869Z</time>
      </trkpt>
      <trkpt lat="48.01358" lon="-2.67471">
        <ele>92.954047</ele>
        <time>2022-12-13T15:53:57.897Z</time>
      </trkpt>
      <trkpt lat="48.0135" lon="-2.67466">
        <ele>92.979581</ele>
        <time>2022-12-13T15:53:59.878Z</time>
      </trkpt>
      <trkpt lat="48.0134" lon="-2.67461">
        <ele>92.977133</ele>
        <time>2022-12-13T15:54:01.879Z</time>
      </trkpt>
      <trkpt lat="48.01328" lon="-2.67457">
        <ele>92.921788</ele>
        <time>2022-12-13T15:54:04.901Z</time>
      </trkpt>
      <trkpt lat="48.01315" lon="-2.67452">
        <ele>92.865252</ele>
        <time>2022-12-13T15:54:07.898Z</time>
      </trkpt>
      <trkpt lat="48.01306" lon="-2.67449">
        <ele>92.826137</ele>
        <time>2022-12-13T15:54:09.896Z</time>
      </trkpt>
      <trkpt lat="48.01298" lon="-2.67446">
        <ele>92.787087</ele>
        <time>2022-12-13T15:54:11.896Z</time>
      </trkpt>
      <trkpt lat="48.01285" lon="-2.67442">
        <ele>92.731593</ele>
        <time>2022-12-13T15:54:14.895Z</time>
      </trkpt>
      <trkpt lat="48.01272" lon="-2.67435">
        <ele>92.673609</ele>
        <time>2022-12-13T15:54:17.871Z</time>
      </trkpt>
      <trkpt lat="48.0126" lon="-2.67427">
        <ele>92.616525</ele>
        <time>2022-12-13T15:54:20.892Z</time>
      </trkpt>
      <trkpt lat="48.01252" lon="-2.67421">
        <ele>92.577021</ele>
        <time>2022-12-13T15:54:22.889Z</time>
      </trkpt>
      <trkpt lat="48.01244" lon="-2.67414">
        <ele>92.536098</ele>
        <time>2022-12-13T15:54:24.897Z</time>
      </trkpt>
      <trkpt lat="48.01236" lon="-2.67406">
        <ele>92.494456</ele>
        <time>2022-12-13T15:54:26.888Z</time>
      </trkpt>
      <trkpt lat="48.01228" lon="-2.67399">
        <ele>92.454487</ele>
        <time>2022-12-13T15:54:28.880Z</time>
      </trkpt>
      <trkpt lat="48.01217" lon="-2.67388">
        <ele>92.396824</ele>
        <time>2022-12-13T15:54:31.881Z</time>
      </trkpt>
      <trkpt lat="48.01209" lon="-2.6738">
        <ele>92.356279</ele>
        <time>2022-12-13T15:54:33.883Z</time>
      </trkpt>
      <trkpt lat="48.01203" lon="-2.67371">
        <ele>92.317411</ele>
        <time>2022-12-13T15:54:35.876Z</time>
      </trkpt>
      <trkpt lat="48.01195" lon="-2.67363">
        <ele>92.277006</ele>
        <time>2022-12-13T15:54:37.896Z</time>
      </trkpt>
      <trkpt lat="48.01184" lon="-2.67352">
        <ele>92.218219</ele>
        <time>2022-12-13T15:54:40.880Z</time>
      </trkpt>
      <trkpt lat="48.01176" lon="-2.67344">
        <ele>92.183813</ele>
        <time>2022-12-13T15:54:42.893Z</time>
      </trkpt>
      <trkpt lat="48.01168" lon="-2.67336">
        <ele>92.150301</ele>
        <time>2022-12-13T15:54:44.899Z</time>
      </trkpt>
      <trkpt lat="48.0116" lon="-2.67328">
        <ele>92.11657</ele>
        <time>2022-12-13T15:54:46.893Z</time>
      </trkpt>
      <trkpt lat="48.01152" lon="-2.6732">
        <ele>92.08247</ele>
        <time>2022-12-13T15:54:48.894Z</time>
      </trkpt>
      <trkpt lat="48.01142" lon="-2.67308">
        <ele>92.034581</ele>
        <time>2022-12-13T15:54:51.891Z</time>
      </trkpt>
      <trkpt lat="48.01131" lon="-2.67298">
        <ele>91.989057</ele>
        <time>2022-12-13T15:54:54.897Z</time>
      </trkpt>
      <trkpt lat="48.01122" lon="-2.67289">
        <ele>91.950744</ele>
        <time>2022-12-13T15:54:57.878Z</time>
      </trkpt>
      <trkpt lat="48.01114" lon="-2.67281">
        <ele>91.91462</ele>
        <time>2022-12-13T15:55:00.897Z</time>
      </trkpt>
      <trkpt lat="48.01104" lon="-2.67272">
        <ele>91.873503</ele>
        <time>2022-12-13T15:55:03.886Z</time>
      </trkpt>
      <trkpt lat="48.01095" lon="-2.67262">
        <ele>91.833594</ele>
        <time>2022-12-13T15:55:06.883Z</time>
      </trkpt>
      <trkpt lat="48.01087" lon="-2.67253">
        <ele>91.798453</ele>
        <time>2022-12-13T15:55:09.887Z</time>
      </trkpt>
      <trkpt lat="48.01079" lon="-2.67244">
        <ele>91.760921</ele>
        <time>2022-12-13T15:55:13.879Z</time>
      </trkpt>
      <trkpt lat="48.0107" lon="-2.6725">
        <ele>91.724553</ele>
        <time>2022-12-13T15:55:17.882Z</time>
      </trkpt>
      <trkpt lat="48.01066" lon="-2.67262">
        <ele>91.691919</ele>
        <time>2022-12-13T15:55:22.878Z</time>
      </trkpt>
      <trkpt lat="48.01058" lon="-2.67269">
        <ele>91.658817</ele>
        <time>2022-12-13T15:55:25.876Z</time>
      </trkpt>
      <trkpt lat="48.01048" lon="-2.6726">
        <ele>91.616907</ele>
        <time>2022-12-13T15:55:28.879Z</time>
      </trkpt>
      <trkpt lat="48.0104" lon="-2.67251">
        <ele>91.581675</ele>
        <time>2022-12-13T15:55:30.872Z</time>
      </trkpt>
      <trkpt lat="48.01032" lon="-2.67241">
        <ele>91.590615</ele>
        <time>2022-12-13T15:55:32.897Z</time>
      </trkpt>
      <trkpt lat="48.01023" lon="-2.67231">
        <ele>91.623483</ele>
        <time>2022-12-13T15:55:34.896Z</time>
      </trkpt>
      <trkpt lat="48.01014" lon="-2.67222">
        <ele>91.654628</ele>
        <time>2022-12-13T15:55:36.894Z</time>
      </trkpt>
      <trkpt lat="48.01005" lon="-2.67211">
        <ele>91.688064</ele>
        <time>2022-12-13T15:55:38.897Z</time>
      </trkpt>
      <trkpt lat="48.00995" lon="-2.67199">
        <ele>91.723</ele>
        <time>2022-12-13T15:55:40.895Z</time>
      </trkpt>
      <trkpt lat="48.00988" lon="-2.67187">
        <ele>91.754434</ele>
        <time>2022-12-13T15:55:42.897Z</time>
      </trkpt>
      <trkpt lat="48.00981" lon="-2.67174">
        <ele>91.786186</ele>
        <time>2022-12-13T15:55:44.896Z</time>
      </trkpt>
      <trkpt lat="48.00974" lon="-2.67162">
        <ele>91.816038</ele>
        <time>2022-12-13T15:55:46.894Z</time>
      </trkpt>
      <trkpt lat="48.00968" lon="-2.67149">
        <ele>91.846227</ele>
        <time>2022-12-13T15:55:48.891Z</time>
      </trkpt>
      <trkpt lat="48.00962" lon="-2.67136">
        <ele>91.876688</ele>
        <time>2022-12-13T15:55:50.895Z</time>
      </trkpt>
      <trkpt lat="48.00956" lon="-2.67122">
        <ele>91.907497</ele>
        <time>2022-12-13T15:55:52.882Z</time>
      </trkpt>
      <trkpt lat="48.00951" lon="-2.67109">
        <ele>91.936377</ele>
        <time>2022-12-13T15:55:54.893Z</time>
      </trkpt>
      <trkpt lat="48.00941" lon="-2.67097">
        <ele>91.972016</ele>
        <time>2022-12-13T15:55:57.877Z</time>
      </trkpt>
      <trkpt lat="48.00931" lon="-2.67092">
        <ele>92.002908</ele>
        <time>2022-12-13T15:56:01.898Z</time>
      </trkpt>
      <trkpt lat="48.0092" lon="-2.67091">
        <ele>92.033052</ele>
        <time>2022-12-13T15:56:05.871Z</time>
      </trkpt>
      <trkpt lat="48.00911" lon="-2.67081">
        <ele>92.065566</ele>
        <time>2022-12-13T15:56:09.881Z</time>
      </trkpt>
      <trkpt lat="48.0091" lon="-2.67066">
        <ele>92.090143</ele>
        <time>2022-12-13T15:56:12.878Z</time>
      </trkpt>
      <trkpt lat="48.0091" lon="-2.67048">
        <ele>92.111659</ele>
        <time>2022-12-13T15:56:15.874Z</time>
      </trkpt>
      <trkpt lat="48.0091" lon="-2.67029">
        <ele>92.135362</ele>
        <time>2022-12-13T15:56:18.894Z</time>
      </trkpt>
      <trkpt lat="48.00911" lon="-2.67009">
        <ele>92.159271</ele>
        <time>2022-12-13T15:56:21.895Z</time>
      </trkpt>
      <trkpt lat="48.00914" lon="-2.6699">
        <ele>92.183158</ele>
        <time>2022-12-13T15:56:24.878Z</time>
      </trkpt>
      <trkpt lat="48.00919" lon="-2.66973">
        <ele>92.20562</ele>
        <time>2022-12-13T15:56:27.896Z</time>
      </trkpt>
      <trkpt lat="48.00925" lon="-2.66957">
        <ele>92.227954</ele>
        <time>2022-12-13T15:56:30.897Z</time>
      </trkpt>
      <trkpt lat="48.00931" lon="-2.6694">
        <ele>92.250661</ele>
        <time>2022-12-13T15:56:33.888Z</time>
      </trkpt>
      <trkpt lat="48.00934" lon="-2.66928">
        <ele>92.267245</ele>
        <time>2022-12-13T15:56:35.877Z</time>
      </trkpt>
      <trkpt lat="48.00941" lon="-2.66914">
        <ele>92.288534</ele>
        <time>2022-12-13T15:56:38.880Z</time>
      </trkpt>
      <trkpt lat="48.00949" lon="-2.66897">
        <ele>92.312991</ele>
        <time>2022-12-13T15:56:41.889Z</time>
      </trkpt>
      <trkpt lat="48.00951" lon="-2.66884">
        <ele>92.329602</ele>
        <time>2022-12-13T15:56:43.879Z</time>
      </trkpt>
      <trkpt lat="48.00953" lon="-2.66869">
        <ele>92.347362</ele>
        <time>2022-12-13T15:56:45.876Z</time>
      </trkpt>
      <trkpt lat="48.00958" lon="-2.66856">
        <ele>92.366376</ele>
        <time>2022-12-13T15:56:47.888Z</time>
      </trkpt>
      <trkpt lat="48.00961" lon="-2.66841">
        <ele>92.385571</ele>
        <time>2022-12-13T15:56:49.895Z</time>
      </trkpt>
      <trkpt lat="48.00964" lon="-2.66826">
        <ele>92.403984</ele>
        <time>2022-12-13T15:56:51.876Z</time>
      </trkpt>
      <trkpt lat="48.00967" lon="-2.66812">
        <ele>92.394483</ele>
        <time>2022-12-13T15:56:53.897Z</time>
      </trkpt>
      <trkpt lat="48.0097" lon="-2.66797">
        <ele>92.376893</ele>
        <time>2022-12-13T15:56:55.874Z</time>
      </trkpt>
      <trkpt lat="48.00972" lon="-2.66782">
        <ele>92.359527</ele>
        <time>2022-12-13T15:56:57.918Z</time>
      </trkpt>
      <trkpt lat="48.00974" lon="-2.66766">
        <ele>92.341716</ele>
        <time>2022-12-13T15:56:59.888Z</time>
      </trkpt>
      <trkpt lat="48.00976" lon="-2.66753">
        <ele>92.325909</ele>
        <time>2022-12-13T15:57:01.881Z</time>
      </trkpt>
      <trkpt lat="48.00977" lon="-2.66739">
        <ele>92.310479</ele>
        <time>2022-12-13T15:57:03.895Z</time>
      </trkpt>
      <trkpt lat="48.00979" lon="-2.66721">
        <ele>92.288507</ele>
        <time>2022-12-13T15:57:06.873Z</time>
      </trkpt>
      <trkpt lat="48.00981" lon="-2.66707">
        <ele>92.272899</ele>
        <time>2022-12-13T15:57:08.894Z</time>
      </trkpt>
      <trkpt lat="48.00981" lon="-2.66694">
        <ele>92.257469</ele>
        <time>2022-12-13T15:57:10.895Z</time>
      </trkpt>
      <trkpt lat="48.00984" lon="-2.66679">
        <ele>92.240392</ele>
        <time>2022-12-13T15:57:12.888Z</time>
      </trkpt>
      <trkpt lat="48.00988" lon="-2.66666">
        <ele>92.223588</ele>
        <time>2022-12-13T15:57:14.908Z</time>
      </trkpt>
      <trkpt lat="48.00992" lon="-2.66652">
        <ele>92.206817</ele>
        <time>2022-12-13T15:57:16.885Z</time>
      </trkpt>
      <trkpt lat="48.00995" lon="-2.66639">
        <ele>92.190647</ele>
        <time>2022-12-13T15:57:18.880Z</time>
      </trkpt>
      <trkpt lat="48.00999" lon="-2.66625">
        <ele>92.174009</ele>
        <time>2022-12-13T15:57:21.172Z</time>
      </trkpt>
      <trkpt lat="48.01002" lon="-2.66612">
        <ele>92.15809</ele>
        <time>2022-12-13T15:57:22.897Z</time>
      </trkpt>
      <trkpt lat="48.01007" lon="-2.666">
        <ele>92.142232</ele>
        <time>2022-12-13T15:57:24.891Z</time>
      </trkpt>
      <trkpt lat="48.01012" lon="-2.66587">
        <ele>92.123922</ele>
        <time>2022-12-13T15:57:27.884Z</time>
      </trkpt>
      <trkpt lat="48.01017" lon="-2.66571">
        <ele>92.104128</ele>
        <time>2022-12-13T15:57:30.878Z</time>
      </trkpt>
      <trkpt lat="48.01022" lon="-2.66553">
        <ele>92.102983</ele>
        <time>2022-12-13T15:57:33.885Z</time>
      </trkpt>
      <trkpt lat="48.01027" lon="-2.66536">
        <ele>92.104736</ele>
        <time>2022-12-13T15:57:36.884Z</time>
      </trkpt>
      <trkpt lat="48.01033" lon="-2.66524">
        <ele>92.10612</ele>
        <time>2022-12-13T15:57:38.898Z</time>
      </trkpt>
      <trkpt lat="48.01036" lon="-2.66511">
        <ele>92.10744</ele>
        <time>2022-12-13T15:57:40.894Z</time>
      </trkpt>
      <trkpt lat="48.01041" lon="-2.66493">
        <ele>92.109226</ele>
        <time>2022-12-13T15:57:43.897Z</time>
      </trkpt>
      <trkpt lat="48.01047" lon="-2.6648">
        <ele>92.110679</ele>
        <time>2022-12-13T15:57:46.878Z</time>
      </trkpt>
      <trkpt lat="48.01051" lon="-2.66465">
        <ele>92.112223</ele>
        <time>2022-12-13T15:57:49.882Z</time>
      </trkpt>
      <trkpt lat="48.01057" lon="-2.66449">
        <ele>92.113928</ele>
        <time>2022-12-13T15:57:52.896Z</time>
      </trkpt>
      <trkpt lat="48.01063" lon="-2.66431">
        <ele>92.115778</ele>
        <time>2022-12-13T15:57:55.873Z</time>
      </trkpt>
      <trkpt lat="48.01067" lon="-2.66418">
        <ele>92.117092</ele>
        <time>2022-12-13T15:57:57.893Z</time>
      </trkpt>
      <trkpt lat="48.01071" lon="-2.66399">
        <ele>92.118957</ele>
        <time>2022-12-13T15:58:00.895Z</time>
      </trkpt>
      <trkpt lat="48.01073" lon="-2.66385">
        <ele>92.12031</ele>
        <time>2022-12-13T15:58:02.884Z</time>
      </trkpt>
      <trkpt lat="48.01074" lon="-2.66371">
        <ele>92.121585</ele>
        <time>2022-12-13T15:58:04.894Z</time>
      </trkpt>
      <trkpt lat="48.01073" lon="-2.66353">
        <ele>92.123342</ele>
        <time>2022-12-13T15:58:07.872Z</time>
      </trkpt>
      <trkpt lat="48.01071" lon="-2.66335">
        <ele>92.125</ele>
        <time>2022-12-13T15:58:10.880Z</time>
      </trkpt>
      <trkpt lat="48.01068" lon="-2.66319">
        <ele>92.125987</ele>
        <time>2022-12-13T15:58:13.872Z</time>
      </trkpt>
      <trkpt lat="48.01064" lon="-2.66304">
        <ele>92.080252</ele>
        <time>2022-12-13T15:58:16.879Z</time>
      </trkpt>
      <trkpt lat="48.01058" lon="-2.66289">
        <ele>92.030583</ele>
        <time>2022-12-13T15:58:19.875Z</time>
      </trkpt>
      <trkpt lat="48.0105" lon="-2.66274">
        <ele>91.975559</ele>
        <time>2022-12-13T15:58:22.871Z</time>
      </trkpt>
      <trkpt lat="48.0104" lon="-2.6626">
        <ele>91.918423</ele>
        <time>2022-12-13T15:58:25.872Z</time>
      </trkpt>
      <trkpt lat="48.0103" lon="-2.66246">
        <ele>91.861359</ele>
        <time>2022-12-13T15:58:28.895Z</time>
      </trkpt>
      <trkpt lat="48.0102" lon="-2.66233">
        <ele>91.804368</ele>
        <time>2022-12-13T15:58:31.896Z</time>
      </trkpt>
      <trkpt lat="48.01011" lon="-2.6622">
        <ele>91.749712</ele>
        <time>2022-12-13T15:58:34.886Z</time>
      </trkpt>
      <trkpt lat="48.01002" lon="-2.66208">
        <ele>91.700955</ele>
        <time>2022-12-13T15:58:37.881Z</time>
      </trkpt>
      <trkpt lat="48.00994" lon="-2.66197">
        <ele>91.652436</ele>
        <time>2022-12-13T15:58:40.896Z</time>
      </trkpt>
      <trkpt lat="48.00985" lon="-2.66184">
        <ele>91.601703</ele>
        <time>2022-12-13T15:58:43.881Z</time>
      </trkpt>
      <trkpt lat="48.00976" lon="-2.66171">
        <ele>91.545257</ele>
        <time>2022-12-13T15:58:46.883Z</time>
      </trkpt>
      <trkpt lat="48.0097" lon="-2.66161">
        <ele>91.505968</ele>
        <time>2022-12-13T15:58:48.879Z</time>
      </trkpt>
      <trkpt lat="48.00963" lon="-2.66151">
        <ele>91.467465</ele>
        <time>2022-12-13T15:58:50.873Z</time>
      </trkpt>
      <trkpt lat="48.00959" lon="-2.66139">
        <ele>91.428416</ele>
        <time>2022-12-13T15:58:52.885Z</time>
      </trkpt>
      <trkpt lat="48.00952" lon="-2.66122">
        <ele>91.373905</ele>
        <time>2022-12-13T15:58:55.869Z</time>
      </trkpt>
      <trkpt lat="48.00949" lon="-2.66109">
        <ele>91.31172</ele>
        <time>2022-12-13T15:58:57.885Z</time>
      </trkpt>
      <trkpt lat="48.00945" lon="-2.66096">
        <ele>91.240257</ele>
        <time>2022-12-13T15:58:59.892Z</time>
      </trkpt>
      <trkpt lat="48.00941" lon="-2.66084">
        <ele>91.170986</ele>
        <time>2022-12-13T15:59:01.900Z</time>
      </trkpt>
      <trkpt lat="48.00937" lon="-2.66067">
        <ele>91.077719</ele>
        <time>2022-12-13T15:59:04.885Z</time>
      </trkpt>
      <trkpt lat="48.00932" lon="-2.6605">
        <ele>90.984225</ele>
        <time>2022-12-13T15:59:07.896Z</time>
      </trkpt>
      <trkpt lat="48.00928" lon="-2.66036">
        <ele>90.907189</ele>
        <time>2022-12-13T15:59:10.889Z</time>
      </trkpt>
      <trkpt lat="48.00923" lon="-2.66021">
        <ele>90.826184</ele>
        <time>2022-12-13T15:59:13.897Z</time>
      </trkpt>
      <trkpt lat="48.00918" lon="-2.66009">
        <ele>90.750786</ele>
        <time>2022-12-13T15:59:16.880Z</time>
      </trkpt>
      <trkpt lat="48.00909" lon="-2.66">
        <ele>90.669764</ele>
        <time>2022-12-13T15:59:18.879Z</time>
      </trkpt>
      <trkpt lat="48.00901" lon="-2.65992">
        <ele>90.599141</ele>
        <time>2022-12-13T15:59:20.881Z</time>
      </trkpt>
      <trkpt lat="48.00892" lon="-2.65987">
        <ele>90.526756</ele>
        <time>2022-12-13T15:59:22.882Z</time>
      </trkpt>
      <trkpt lat="48.00881" lon="-2.65983">
        <ele>90.440263</ele>
        <time>2022-12-13T15:59:25.869Z</time>
      </trkpt>
      <trkpt lat="48.00869" lon="-2.6598">
        <ele>90.345689</ele>
        <time>2022-12-13T15:59:28.894Z</time>
      </trkpt>
      <trkpt lat="48.00856" lon="-2.65977">
        <ele>90.245219</ele>
        <time>2022-12-13T15:59:31.891Z</time>
      </trkpt>
      <trkpt lat="48.00847" lon="-2.65975">
        <ele>90.176966</ele>
        <time>2022-12-13T15:59:33.889Z</time>
      </trkpt>
      <trkpt lat="48.00837" lon="-2.65973">
        <ele>90.104547</ele>
        <time>2022-12-13T15:59:35.874Z</time>
      </trkpt>
      <trkpt lat="48.00828" lon="-2.65972">
        <ele>90.033511</ele>
        <time>2022-12-13T15:59:37.894Z</time>
      </trkpt>
      <trkpt lat="48.00815" lon="-2.65969">
        <ele>89.871349</ele>
        <time>2022-12-13T15:59:40.893Z</time>
      </trkpt>
      <trkpt lat="48.00805" lon="-2.65967">
        <ele>89.73696</ele>
        <time>2022-12-13T15:59:42.892Z</time>
      </trkpt>
      <trkpt lat="48.00796" lon="-2.65964">
        <ele>89.599928</ele>
        <time>2022-12-13T15:59:44.878Z</time>
      </trkpt>
      <trkpt lat="48.00787" lon="-2.65961">
        <ele>89.46087</ele>
        <time>2022-12-13T15:59:46.896Z</time>
      </trkpt>
      <trkpt lat="48.00774" lon="-2.65958">
        <ele>89.269854</ele>
        <time>2022-12-13T15:59:49.892Z</time>
      </trkpt>
      <trkpt lat="48.00762" lon="-2.65955">
        <ele>89.096872</ele>
        <time>2022-12-13T15:59:52.894Z</time>
      </trkpt>
      <trkpt lat="48.0075" lon="-2.65951">
        <ele>88.918726</ele>
        <time>2022-12-13T15:59:55.868Z</time>
      </trkpt>
      <trkpt lat="48.00737" lon="-2.65949">
        <ele>88.740157</ele>
        <time>2022-12-13T15:59:58.896Z</time>
      </trkpt>
      <trkpt lat="48.00726" lon="-2.65946">
        <ele>88.575389</ele>
        <time>2022-12-13T16:00:01.890Z</time>
      </trkpt>
      <trkpt lat="48.00716" lon="-2.65945">
        <ele>88.427242</ele>
        <time>2022-12-13T16:00:04.896Z</time>
      </trkpt>
      <trkpt lat="48.00706" lon="-2.65942">
        <ele>88.283143</ele>
        <time>2022-12-13T16:00:07.895Z</time>
      </trkpt>
      <trkpt lat="48.00696" lon="-2.65939">
        <ele>88.140824</ele>
        <time>2022-12-13T16:00:10.889Z</time>
      </trkpt>
      <trkpt lat="48.00685" lon="-2.65937">
        <ele>87.980615</ele>
        <time>2022-12-13T16:00:13.880Z</time>
      </trkpt>
      <trkpt lat="48.00675" lon="-2.65935">
        <ele>87.825769</ele>
        <time>2022-12-13T16:00:16.892Z</time>
      </trkpt>
      <trkpt lat="48.00664" lon="-2.65932">
        <ele>87.665543</ele>
        <time>2022-12-13T16:00:19.882Z</time>
      </trkpt>
      <trkpt lat="48.00652" lon="-2.65928">
        <ele>87.492205</ele>
        <time>2022-12-13T16:00:22.887Z</time>
      </trkpt>
      <trkpt lat="48.00641" lon="-2.65926">
        <ele>87.487571</ele>
        <time>2022-12-13T16:00:24.897Z</time>
      </trkpt>
      <trkpt lat="48.00632" lon="-2.65924">
        <ele>87.647104</ele>
        <time>2022-12-13T16:00:26.896Z</time>
      </trkpt>
      <trkpt lat="48.00621" lon="-2.65922">
        <ele>87.843236</ele>
        <time>2022-12-13T16:00:29.897Z</time>
      </trkpt>
      <trkpt lat="48.00609" lon="-2.6592">
        <ele>88.052632</ele>
        <time>2022-12-13T16:00:33.887Z</time>
      </trkpt>
      <trkpt lat="48.00599" lon="-2.65918">
        <ele>88.222341</ele>
        <time>2022-12-13T16:00:36.893Z</time>
      </trkpt>
      <trkpt lat="48.00588" lon="-2.65916">
        <ele>88.426555</ele>
        <time>2022-12-13T16:00:39.896Z</time>
      </trkpt>
      <trkpt lat="48.00575" lon="-2.65912">
        <ele>88.647309</ele>
        <time>2022-12-13T16:00:42.874Z</time>
      </trkpt>
      <trkpt lat="48.00563" lon="-2.65906">
        <ele>88.869588</ele>
        <time>2022-12-13T16:00:45.876Z</time>
      </trkpt>
      <trkpt lat="48.00552" lon="-2.65899">
        <ele>89.072614</ele>
        <time>2022-12-13T16:00:48.899Z</time>
      </trkpt>
      <trkpt lat="48.00541" lon="-2.65889">
        <ele>89.295283</ele>
        <time>2022-12-13T16:00:51.889Z</time>
      </trkpt>
      <trkpt lat="48.00532" lon="-2.65877">
        <ele>89.515862</ele>
        <time>2022-12-13T16:00:54.891Z</time>
      </trkpt>
      <trkpt lat="48.00523" lon="-2.65865">
        <ele>89.722489</ele>
        <time>2022-12-13T16:00:57.872Z</time>
      </trkpt>
      <trkpt lat="48.00515" lon="-2.6585">
        <ele>89.940614</ele>
        <time>2022-12-13T16:01:00.893Z</time>
      </trkpt>
      <trkpt lat="48.00509" lon="-2.6584">
        <ele>90.101278</ele>
        <time>2022-12-13T16:01:02.879Z</time>
      </trkpt>
      <trkpt lat="48.00504" lon="-2.65828">
        <ele>90.268337</ele>
        <time>2022-12-13T16:01:04.901Z</time>
      </trkpt>
      <trkpt lat="48.005" lon="-2.65814">
        <ele>90.441736</ele>
        <time>2022-12-13T16:01:06.892Z</time>
      </trkpt>
      <trkpt lat="48.00495" lon="-2.65802">
        <ele>90.55604</ele>
        <time>2022-12-13T16:01:08.881Z</time>
      </trkpt>
      <trkpt lat="48.00492" lon="-2.65788">
        <ele>90.617481</ele>
        <time>2022-12-13T16:01:10.875Z</time>
      </trkpt>
      <trkpt lat="48.00488" lon="-2.65775">
        <ele>90.681352</ele>
        <time>2022-12-13T16:01:12.897Z</time>
      </trkpt>
      <trkpt lat="48.00485" lon="-2.6576">
        <ele>90.746246</ele>
        <time>2022-12-13T16:01:14.896Z</time>
      </trkpt>
      <trkpt lat="48.00482" lon="-2.65746">
        <ele>90.811958</ele>
        <time>2022-12-13T16:01:16.901Z</time>
      </trkpt>
      <trkpt lat="48.00479" lon="-2.6573">
        <ele>90.881939</ele>
        <time>2022-12-13T16:01:18.898Z</time>
      </trkpt>
      <trkpt lat="48.00475" lon="-2.65717">
        <ele>90.944375</ele>
        <time>2022-12-13T16:01:20.893Z</time>
      </trkpt>
      <trkpt lat="48.00471" lon="-2.65703">
        <ele>91.007866</ele>
        <time>2022-12-13T16:01:22.891Z</time>
      </trkpt>
      <trkpt lat="48.00468" lon="-2.65689">
        <ele>91.071333</ele>
        <time>2022-12-13T16:01:24.897Z</time>
      </trkpt>
      <trkpt lat="48.00465" lon="-2.65676">
        <ele>91.130015</ele>
        <time>2022-12-13T16:01:26.894Z</time>
      </trkpt>
      <trkpt lat="48.0046" lon="-2.65658">
        <ele>91.214339</ele>
        <time>2022-12-13T16:01:29.882Z</time>
      </trkpt>
      <trkpt lat="48.00457" lon="-2.65644">
        <ele>91.274957</ele>
        <time>2022-12-13T16:01:31.897Z</time>
      </trkpt>
      <trkpt lat="48.00454" lon="-2.65631">
        <ele>91.33705</ele>
        <time>2022-12-13T16:01:33.900Z</time>
      </trkpt>
      <trkpt lat="48.00451" lon="-2.65617">
        <ele>91.399736</ele>
        <time>2022-12-13T16:01:35.874Z</time>
      </trkpt>
      <trkpt lat="48.00447" lon="-2.65601">
        <ele>91.471637</ele>
        <time>2022-12-13T16:01:37.897Z</time>
      </trkpt>
      <trkpt lat="48.00444" lon="-2.65586">
        <ele>91.537619</ele>
        <time>2022-12-13T16:01:39.902Z</time>
      </trkpt>
      <trkpt lat="48.0044" lon="-2.65572">
        <ele>91.602941</ele>
        <time>2022-12-13T16:01:41.892Z</time>
      </trkpt>
      <trkpt lat="48.00437" lon="-2.65559">
        <ele>91.663172</ele>
        <time>2022-12-13T16:01:43.897Z</time>
      </trkpt>
      <trkpt lat="48.00434" lon="-2.65545">
        <ele>91.593882</ele>
        <time>2022-12-13T16:01:45.879Z</time>
      </trkpt>
      <trkpt lat="48.00431" lon="-2.65532">
        <ele>91.469852</ele>
        <time>2022-12-13T16:01:47.894Z</time>
      </trkpt>
      <trkpt lat="48.00428" lon="-2.65518">
        <ele>91.348661</ele>
        <time>2022-12-13T16:01:49.895Z</time>
      </trkpt>
      <trkpt lat="48.00423" lon="-2.65505">
        <ele>91.221448</ele>
        <time>2022-12-13T16:01:51.894Z</time>
      </trkpt>
      <trkpt lat="48.00418" lon="-2.65487">
        <ele>91.055941</ele>
        <time>2022-12-13T16:01:54.874Z</time>
      </trkpt>
      <trkpt lat="48.00412" lon="-2.6547">
        <ele>90.893007</ele>
        <time>2022-12-13T16:01:57.898Z</time>
      </trkpt>
      <trkpt lat="48.00409" lon="-2.65458">
        <ele>90.77643</ele>
        <time>2022-12-13T16:01:59.883Z</time>
      </trkpt>
      <trkpt lat="48.00404" lon="-2.65445">
        <ele>90.651122</ele>
        <time>2022-12-13T16:02:01.879Z</time>
      </trkpt>
      <trkpt lat="48.00398" lon="-2.65426">
        <ele>90.473388</ele>
        <time>2022-12-13T16:02:04.896Z</time>
      </trkpt>
      <trkpt lat="48.00393" lon="-2.65414">
        <ele>90.347632</ele>
        <time>2022-12-13T16:02:06.894Z</time>
      </trkpt>
      <trkpt lat="48.00388" lon="-2.65401">
        <ele>90.224944</ele>
        <time>2022-12-13T16:02:08.894Z</time>
      </trkpt>
      <trkpt lat="48.00383" lon="-2.6539">
        <ele>90.104152</ele>
        <time>2022-12-13T16:02:10.895Z</time>
      </trkpt>
      <trkpt lat="48.00377" lon="-2.65377">
        <ele>89.970565</ele>
        <time>2022-12-13T16:02:12.892Z</time>
      </trkpt>
      <trkpt lat="48.00371" lon="-2.65364">
        <ele>89.841947</ele>
        <time>2022-12-13T16:02:14.896Z</time>
      </trkpt>
      <trkpt lat="48.00366" lon="-2.65351">
        <ele>89.7055</ele>
        <time>2022-12-13T16:02:16.897Z</time>
      </trkpt>
      <trkpt lat="48.0036" lon="-2.65337">
        <ele>89.572448</ele>
        <time>2022-12-13T16:02:18.897Z</time>
      </trkpt>
      <trkpt lat="48.00356" lon="-2.65325">
        <ele>89.456454</ele>
        <time>2022-12-13T16:02:20.891Z</time>
      </trkpt>
      <trkpt lat="48.00348" lon="-2.6531">
        <ele>89.465614</ele>
        <time>2022-12-13T16:02:23.895Z</time>
      </trkpt>
      <trkpt lat="48.00342" lon="-2.65294">
        <ele>89.603931</ele>
        <time>2022-12-13T16:02:26.898Z</time>
      </trkpt>
      <trkpt lat="48.00335" lon="-2.65277">
        <ele>89.760271</ele>
        <time>2022-12-13T16:02:29.891Z</time>
      </trkpt>
      <trkpt lat="48.00328" lon="-2.6526">
        <ele>89.911316</ele>
        <time>2022-12-13T16:02:32.893Z</time>
      </trkpt>
      <trkpt lat="48.00323" lon="-2.65248">
        <ele>90.022401</ele>
        <time>2022-12-13T16:02:34.884Z</time>
      </trkpt>
      <trkpt lat="48.00314" lon="-2.65232">
        <ele>90.178863</ele>
        <time>2022-12-13T16:02:37.894Z</time>
      </trkpt>
      <trkpt lat="48.00304" lon="-2.65219">
        <ele>90.328174</ele>
        <time>2022-12-13T16:02:40.872Z</time>
      </trkpt>
      <trkpt lat="48.00296" lon="-2.65209">
        <ele>90.451093</ele>
        <time>2022-12-13T16:02:43.882Z</time>
      </trkpt>
      <trkpt lat="48.00288" lon="-2.65199">
        <ele>90.569564</ele>
        <time>2022-12-13T16:02:46.892Z</time>
      </trkpt>
      <trkpt lat="48.00277" lon="-2.65189">
        <ele>90.71008</ele>
        <time>2022-12-13T16:02:49.873Z</time>
      </trkpt>
      <trkpt lat="48.00266" lon="-2.65181">
        <ele>90.852337</ele>
        <time>2022-12-13T16:02:52.887Z</time>
      </trkpt>
      <trkpt lat="48.00257" lon="-2.65175">
        <ele>90.969882</ele>
        <time>2022-12-13T16:02:54.876Z</time>
      </trkpt>
      <trkpt lat="48.00246" lon="-2.65172">
        <ele>91.092592</ele>
        <time>2022-12-13T16:02:56.893Z</time>
      </trkpt>
      <trkpt lat="48.00236" lon="-2.65169">
        <ele>91.214674</ele>
        <time>2022-12-13T16:02:58.895Z</time>
      </trkpt>
      <trkpt lat="48.00226" lon="-2.65167">
        <ele>91.328256</ele>
        <time>2022-12-13T16:03:00.895Z</time>
      </trkpt>
      <trkpt lat="48.00215" lon="-2.65165">
        <ele>91.404348</ele>
        <time>2022-12-13T16:03:02.893Z</time>
      </trkpt>
      <trkpt lat="48.00205" lon="-2.65166">
        <ele>91.212833</ele>
        <time>2022-12-13T16:03:04.893Z</time>
      </trkpt>
      <trkpt lat="48.00194" lon="-2.65168">
        <ele>91.01477</ele>
        <time>2022-12-13T16:03:06.879Z</time>
      </trkpt>
      <trkpt lat="48.00184" lon="-2.6517">
        <ele>90.818311</ele>
        <time>2022-12-13T16:03:08.874Z</time>
      </trkpt>
      <trkpt lat="48.00174" lon="-2.65174">
        <ele>90.630947</ele>
        <time>2022-12-13T16:03:10.893Z</time>
      </trkpt>
      <trkpt lat="48.00165" lon="-2.65178">
        <ele>90.448533</ele>
        <time>2022-12-13T16:03:12.896Z</time>
      </trkpt>
      <trkpt lat="48.00156" lon="-2.65183">
        <ele>90.270833</ele>
        <time>2022-12-13T16:03:14.874Z</time>
      </trkpt>
      <trkpt lat="48.00146" lon="-2.65186">
        <ele>90.089571</ele>
        <time>2022-12-13T16:03:17.895Z</time>
      </trkpt>
      <trkpt lat="48.00133" lon="-2.65193">
        <ele>89.829153</ele>
        <time>2022-12-13T16:03:20.894Z</time>
      </trkpt>
      <trkpt lat="48.00124" lon="-2.65197">
        <ele>89.652176</ele>
        <time>2022-12-13T16:03:22.894Z</time>
      </trkpt>
      <trkpt lat="48.00115" lon="-2.65202">
        <ele>89.464513</ele>
        <time>2022-12-13T16:03:24.870Z</time>
      </trkpt>
      <trkpt lat="48.00104" lon="-2.65206">
        <ele>89.260858</ele>
        <time>2022-12-13T16:03:27.896Z</time>
      </trkpt>
      <trkpt lat="48.00093" lon="-2.65212">
        <ele>89.026178</ele>
        <time>2022-12-13T16:03:30.872Z</time>
      </trkpt>
      <trkpt lat="48.00084" lon="-2.65217">
        <ele>88.855596</ele>
        <time>2022-12-13T16:03:32.874Z</time>
      </trkpt>
      <trkpt lat="48.0007" lon="-2.65222">
        <ele>88.588213</ele>
        <time>2022-12-13T16:03:35.871Z</time>
      </trkpt>
      <trkpt lat="48.00058" lon="-2.65228">
        <ele>88.349081</ele>
        <time>2022-12-13T16:03:38.900Z</time>
      </trkpt>
      <trkpt lat="48.00045" lon="-2.65233">
        <ele>88.106251</ele>
        <time>2022-12-13T16:03:41.898Z</time>
      </trkpt>
      <trkpt lat="48.00034" lon="-2.65238">
        <ele>87.991362</ele>
        <time>2022-12-13T16:03:44.896Z</time>
      </trkpt>
      <trkpt lat="48.00023" lon="-2.65244">
        <ele>87.90895</ele>
        <time>2022-12-13T16:03:47.896Z</time>
      </trkpt>
      <trkpt lat="48.00012" lon="-2.65249">
        <ele>87.824665</ele>
        <time>2022-12-13T16:03:50.879Z</time>
      </trkpt>
      <trkpt lat="48.00003" lon="-2.65253">
        <ele>87.758634</ele>
        <time>2022-12-13T16:03:53.895Z</time>
      </trkpt>
      <trkpt lat="47.99993" lon="-2.65258">
        <ele>87.681056</ele>
        <time>2022-12-13T16:03:56.897Z</time>
      </trkpt>
      <trkpt lat="47.99983" lon="-2.65262">
        <ele>87.605515</ele>
        <time>2022-12-13T16:03:59.884Z</time>
      </trkpt>
      <trkpt lat="47.99971" lon="-2.65266">
        <ele>87.521631</ele>
        <time>2022-12-13T16:04:02.889Z</time>
      </trkpt>
      <trkpt lat="47.99959" lon="-2.6527">
        <ele>87.432074</ele>
        <time>2022-12-13T16:04:05.872Z</time>
      </trkpt>
      <trkpt lat="47.99947" lon="-2.65275">
        <ele>87.344142</ele>
        <time>2022-12-13T16:04:08.882Z</time>
      </trkpt>
      <trkpt lat="47.99937" lon="-2.6528">
        <ele>87.266108</ele>
        <time>2022-12-13T16:04:11.875Z</time>
      </trkpt>
      <trkpt lat="47.99927" lon="-2.65285">
        <ele>87.189584</ele>
        <time>2022-12-13T16:04:14.897Z</time>
      </trkpt>
      <trkpt lat="47.99916" lon="-2.65291">
        <ele>87.111232</ele>
        <time>2022-12-13T16:04:18.890Z</time>
      </trkpt>
      <trkpt lat="47.99907" lon="-2.65296">
        <ele>87.038085</ele>
        <time>2022-12-13T16:04:23.870Z</time>
      </trkpt>
      <trkpt lat="47.99897" lon="-2.65297">
        <ele>86.970415</ele>
        <time>2022-12-13T16:04:28.880Z</time>
      </trkpt>
      <trkpt lat="47.99889" lon="-2.65303">
        <ele>86.901126</ele>
        <time>2022-12-13T16:04:57.882Z</time>
      </trkpt>
      <trkpt lat="47.99879" lon="-2.65304">
        <ele>86.82949</ele>
        <time>2022-12-13T16:05:03.879Z</time>
      </trkpt>
      <trkpt lat="47.99869" lon="-2.6531">
        <ele>86.775468</ele>
        <time>2022-12-13T16:05:07.879Z</time>
      </trkpt>
      <trkpt lat="47.99859" lon="-2.65314">
        <ele>86.792847</ele>
        <time>2022-12-13T16:05:10.895Z</time>
      </trkpt>
      <trkpt lat="47.9985" lon="-2.65317">
        <ele>86.810348</ele>
        <time>2022-12-13T16:05:14.876Z</time>
      </trkpt>
      <trkpt lat="47.99838" lon="-2.65322">
        <ele>86.831817</ele>
        <time>2022-12-13T16:05:18.890Z</time>
      </trkpt>
      <trkpt lat="47.99827" lon="-2.65326">
        <ele>86.852713</ele>
        <time>2022-12-13T16:05:21.898Z</time>
      </trkpt>
      <trkpt lat="47.99815" lon="-2.65331">
        <ele>86.873439</ele>
        <time>2022-12-13T16:05:24.898Z</time>
      </trkpt>
      <trkpt lat="47.99806" lon="-2.65334">
        <ele>86.890225</ele>
        <time>2022-12-13T16:05:26.900Z</time>
      </trkpt>
      <trkpt lat="47.99796" lon="-2.65338">
        <ele>86.907777</ele>
        <time>2022-12-13T16:05:29.899Z</time>
      </trkpt>
      <trkpt lat="47.99787" lon="-2.65341">
        <ele>86.924469</ele>
        <time>2022-12-13T16:05:31.882Z</time>
      </trkpt>
      <trkpt lat="47.99775" lon="-2.65346">
        <ele>86.946951</ele>
        <time>2022-12-13T16:05:34.898Z</time>
      </trkpt>
      <trkpt lat="47.99765" lon="-2.6535">
        <ele>86.965045</ele>
        <time>2022-12-13T16:05:37.897Z</time>
      </trkpt>
      <trkpt lat="47.99755" lon="-2.65354">
        <ele>86.983591</ele>
        <time>2022-12-13T16:05:40.895Z</time>
      </trkpt>
      <trkpt lat="47.99746" lon="-2.65358">
        <ele>87.000094</ele>
        <time>2022-12-13T16:05:42.896Z</time>
      </trkpt>
      <trkpt lat="47.99737" lon="-2.65363">
        <ele>87.01617</ele>
        <time>2022-12-13T16:05:44.897Z</time>
      </trkpt>
      <trkpt lat="47.99725" lon="-2.65369">
        <ele>87.039599</ele>
        <time>2022-12-13T16:05:47.898Z</time>
      </trkpt>
      <trkpt lat="47.99713" lon="-2.65375">
        <ele>87.062118</ele>
        <time>2022-12-13T16:05:50.892Z</time>
      </trkpt>
      <trkpt lat="47.99701" lon="-2.65381">
        <ele>87.083699</ele>
        <time>2022-12-13T16:05:53.896Z</time>
      </trkpt>
      <trkpt lat="47.9969" lon="-2.65387">
        <ele>87.139044</ele>
        <time>2022-12-13T16:05:56.894Z</time>
      </trkpt>
      <trkpt lat="47.9968" lon="-2.65393">
        <ele>87.198917</ele>
        <time>2022-12-13T16:05:59.893Z</time>
      </trkpt>
      <trkpt lat="47.99669" lon="-2.65399">
        <ele>87.26021</ele>
        <time>2022-12-13T16:06:02.900Z</time>
      </trkpt>
      <trkpt lat="47.9966" lon="-2.65404">
        <ele>87.316236</ele>
        <time>2022-12-13T16:06:04.892Z</time>
      </trkpt>
      <trkpt lat="47.99647" lon="-2.6541">
        <ele>87.386364</ele>
        <time>2022-12-13T16:06:07.885Z</time>
      </trkpt>
      <trkpt lat="47.99639" lon="-2.65415">
        <ele>87.43754</ele>
        <time>2022-12-13T16:06:09.885Z</time>
      </trkpt>
      <trkpt lat="47.9963" lon="-2.6542">
        <ele>87.488169</ele>
        <time>2022-12-13T16:06:11.899Z</time>
      </trkpt>
      <trkpt lat="47.99618" lon="-2.65427">
        <ele>87.558306</ele>
        <time>2022-12-13T16:06:14.896Z</time>
      </trkpt>
      <trkpt lat="47.99608" lon="-2.65433">
        <ele>87.62075</ele>
        <time>2022-12-13T16:06:17.892Z</time>
      </trkpt>
      <trkpt lat="47.99597" lon="-2.65438">
        <ele>87.683827</ele>
        <time>2022-12-13T16:06:20.897Z</time>
      </trkpt>
      <trkpt lat="47.99586" lon="-2.65445">
        <ele>87.747207</ele>
        <time>2022-12-13T16:06:23.874Z</time>
      </trkpt>
      <trkpt lat="47.99574" lon="-2.65452">
        <ele>87.816078</ele>
        <time>2022-12-13T16:06:26.893Z</time>
      </trkpt>
      <trkpt lat="47.99563" lon="-2.65458">
        <ele>87.880838</ele>
        <time>2022-12-13T16:06:29.895Z</time>
      </trkpt>
      <trkpt lat="47.99553" lon="-2.65466">
        <ele>87.943537</ele>
        <time>2022-12-13T16:06:32.893Z</time>
      </trkpt>
      <trkpt lat="47.99542" lon="-2.65474">
        <ele>88.010674</ele>
        <time>2022-12-13T16:06:35.873Z</time>
      </trkpt>
      <trkpt lat="47.99531" lon="-2.65484">
        <ele>88.051791</ele>
        <time>2022-12-13T16:06:38.894Z</time>
      </trkpt>
      <trkpt lat="47.9952" lon="-2.65496">
        <ele>87.851488</ele>
        <time>2022-12-13T16:06:41.882Z</time>
      </trkpt>
      <trkpt lat="47.99511" lon="-2.65505">
        <ele>87.686437</ele>
        <time>2022-12-13T16:06:44.892Z</time>
      </trkpt>
      <trkpt lat="47.99502" lon="-2.65514">
        <ele>87.521755</ele>
        <time>2022-12-13T16:06:47.894Z</time>
      </trkpt>
      <trkpt lat="47.99494" lon="-2.65521">
        <ele>87.384455</ele>
        <time>2022-12-13T16:06:50.893Z</time>
      </trkpt>
      <trkpt lat="47.99486" lon="-2.6553">
        <ele>87.233488</ele>
        <time>2022-12-13T16:06:53.898Z</time>
      </trkpt>
      <trkpt lat="47.99476" lon="-2.65538">
        <ele>87.06284</ele>
        <time>2022-12-13T16:06:56.895Z</time>
      </trkpt>
      <trkpt lat="47.99468" lon="-2.65546">
        <ele>86.914431</ele>
        <time>2022-12-13T16:06:59.887Z</time>
      </trkpt>
      <trkpt lat="47.99458" lon="-2.65553">
        <ele>86.748617</ele>
        <time>2022-12-13T16:07:02.874Z</time>
      </trkpt>
      <trkpt lat="47.99448" lon="-2.65563">
        <ele>86.568348</ele>
        <time>2022-12-13T16:07:05.871Z</time>
      </trkpt>
      <trkpt lat="47.99436" lon="-2.65571">
        <ele>86.375091</ele>
        <time>2022-12-13T16:07:08.882Z</time>
      </trkpt>
      <trkpt lat="47.99427" lon="-2.65574">
        <ele>86.235966</ele>
        <time>2022-12-13T16:07:10.875Z</time>
      </trkpt>
      <trkpt lat="47.99418" lon="-2.65578">
        <ele>86.09908</ele>
        <time>2022-12-13T16:07:12.878Z</time>
      </trkpt>
      <trkpt lat="47.99407" lon="-2.6558">
        <ele>85.928823</ele>
        <time>2022-12-13T16:07:15.872Z</time>
      </trkpt>
      <trkpt lat="47.99394" lon="-2.6558">
        <ele>85.726956</ele>
        <time>2022-12-13T16:07:18.879Z</time>
      </trkpt>
      <trkpt lat="47.99381" lon="-2.65578">
        <ele>85.541323</ele>
        <time>2022-12-13T16:07:21.879Z</time>
      </trkpt>
      <trkpt lat="47.99372" lon="-2.65578">
        <ele>85.39496</ele>
        <time>2022-12-13T16:07:23.899Z</time>
      </trkpt>
      <trkpt lat="47.9936" lon="-2.65576">
        <ele>85.504306</ele>
        <time>2022-12-13T16:07:26.887Z</time>
      </trkpt>
      <trkpt lat="47.9935" lon="-2.65573">
        <ele>85.646602</ele>
        <time>2022-12-13T16:07:29.885Z</time>
      </trkpt>
      <trkpt lat="47.99338" lon="-2.65572">
        <ele>85.80505</ele>
        <time>2022-12-13T16:07:32.876Z</time>
      </trkpt>
      <trkpt lat="47.99323" lon="-2.65568">
        <ele>86.01542</ele>
        <time>2022-12-13T16:07:35.871Z</time>
      </trkpt>
      <trkpt lat="47.99312" lon="-2.65567">
        <ele>86.180744</ele>
        <time>2022-12-13T16:07:38.894Z</time>
      </trkpt>
      <trkpt lat="47.993" lon="-2.65566">
        <ele>86.344788</ele>
        <time>2022-12-13T16:07:41.899Z</time>
      </trkpt>
      <trkpt lat="47.99289" lon="-2.65565">
        <ele>86.49281</ele>
        <time>2022-12-13T16:07:44.896Z</time>
      </trkpt>
      <trkpt lat="47.99278" lon="-2.65562">
        <ele>86.653676</ele>
        <time>2022-12-13T16:07:47.874Z</time>
      </trkpt>
      <trkpt lat="47.99264" lon="-2.65559">
        <ele>86.840591</ele>
        <time>2022-12-13T16:07:50.875Z</time>
      </trkpt>
      <trkpt lat="47.99255" lon="-2.65557">
        <ele>86.966706</ele>
        <time>2022-12-13T16:07:52.871Z</time>
      </trkpt>
      <trkpt lat="47.99246" lon="-2.65554">
        <ele>87.097769</ele>
        <time>2022-12-13T16:07:54.892Z</time>
      </trkpt>
      <trkpt lat="47.99235" lon="-2.65548">
        <ele>87.264793</ele>
        <time>2022-12-13T16:07:57.890Z</time>
      </trkpt>
      <trkpt lat="47.99224" lon="-2.65541">
        <ele>87.428327</ele>
        <time>2022-12-13T16:08:00.894Z</time>
      </trkpt>
      <trkpt lat="47.99212" lon="-2.65533">
        <ele>87.61573</ele>
        <time>2022-12-13T16:08:03.893Z</time>
      </trkpt>
      <trkpt lat="47.99199" lon="-2.65527">
        <ele>87.798938</ele>
        <time>2022-12-13T16:08:06.896Z</time>
      </trkpt>
      <trkpt lat="47.99188" lon="-2.6552">
        <ele>87.844691</ele>
        <time>2022-12-13T16:08:09.892Z</time>
      </trkpt>
      <trkpt lat="47.99179" lon="-2.65514">
        <ele>87.820407</ele>
        <time>2022-12-13T16:08:12.890Z</time>
      </trkpt>
      <trkpt lat="47.99167" lon="-2.65507">
        <ele>87.791944</ele>
        <time>2022-12-13T16:08:15.873Z</time>
      </trkpt>
      <trkpt lat="47.99158" lon="-2.65498">
        <ele>87.765926</ele>
        <time>2022-12-13T16:08:19.900Z</time>
      </trkpt>
      <trkpt lat="47.99147" lon="-2.6549">
        <ele>87.738654</ele>
        <time>2022-12-13T16:08:23.884Z</time>
      </trkpt>
      <trkpt lat="47.99136" lon="-2.65483">
        <ele>87.709696</ele>
        <time>2022-12-13T16:08:26.890Z</time>
      </trkpt>
      <trkpt lat="47.99128" lon="-2.65476">
        <ele>87.688258</ele>
        <time>2022-12-13T16:08:28.866Z</time>
      </trkpt>
      <trkpt lat="47.99119" lon="-2.65469">
        <ele>87.665081</ele>
        <time>2022-12-13T16:08:30.896Z</time>
      </trkpt>
      <trkpt lat="47.99108" lon="-2.65458">
        <ele>87.632849</ele>
        <time>2022-12-13T16:08:33.875Z</time>
      </trkpt>
      <trkpt lat="47.991" lon="-2.65449">
        <ele>87.610317</ele>
        <time>2022-12-13T16:08:35.876Z</time>
      </trkpt>
      <trkpt lat="47.99089" lon="-2.65438">
        <ele>87.580236</ele>
        <time>2022-12-13T16:08:38.901Z</time>
      </trkpt>
      <trkpt lat="47.9908" lon="-2.65429">
        <ele>87.55395</ele>
        <time>2022-12-13T16:08:41.897Z</time>
      </trkpt>
      <trkpt lat="47.9907" lon="-2.6542">
        <ele>87.528395</ele>
        <time>2022-12-13T16:08:44.896Z</time>
      </trkpt>
      <trkpt lat="47.9906" lon="-2.6541">
        <ele>87.499497</ele>
        <time>2022-12-13T16:08:47.900Z</time>
      </trkpt>
      <trkpt lat="47.99048" lon="-2.65398">
        <ele>87.465666</ele>
        <time>2022-12-13T16:08:50.898Z</time>
      </trkpt>
      <trkpt lat="47.9904" lon="-2.6539">
        <ele>87.444167</ele>
        <time>2022-12-13T16:08:52.897Z</time>
      </trkpt>
      <trkpt lat="47.99032" lon="-2.65383">
        <ele>87.411488</ele>
        <time>2022-12-13T16:08:54.896Z</time>
      </trkpt>
      <trkpt lat="47.99024" lon="-2.65375">
        <ele>87.377778</ele>
        <time>2022-12-13T16:08:56.900Z</time>
      </trkpt>
      <trkpt lat="47.99016" lon="-2.65366">
        <ele>87.342306</ele>
        <time>2022-12-13T16:08:58.897Z</time>
      </trkpt>
      <trkpt lat="47.99008" lon="-2.65357">
        <ele>87.305552</ele>
        <time>2022-12-13T16:09:00.916Z</time>
      </trkpt>
      <trkpt lat="47.99001" lon="-2.65348">
        <ele>87.272772</ele>
        <time>2022-12-13T16:09:02.885Z</time>
      </trkpt>
      <trkpt lat="47.98993" lon="-2.65334">
        <ele>87.227492</ele>
        <time>2022-12-13T16:09:05.878Z</time>
      </trkpt>
      <trkpt lat="47.98986" lon="-2.65319">
        <ele>87.186751</ele>
        <time>2022-12-13T16:09:08.904Z</time>
      </trkpt>
      <trkpt lat="47.98981" lon="-2.65305">
        <ele>87.147392</ele>
        <time>2022-12-13T16:09:11.890Z</time>
      </trkpt>
      <trkpt lat="47.98975" lon="-2.65288">
        <ele>87.101527</ele>
        <time>2022-12-13T16:09:14.893Z</time>
      </trkpt>
      <trkpt lat="47.9897" lon="-2.65276">
        <ele>87.068792</ele>
        <time>2022-12-13T16:09:16.893Z</time>
      </trkpt>
      <trkpt lat="47.98966" lon="-2.65258">
        <ele>87.024324</ele>
        <time>2022-12-13T16:09:19.897Z</time>
      </trkpt>
      <trkpt lat="47.9896" lon="-2.65241">
        <ele>86.978079</ele>
        <time>2022-12-13T16:09:22.883Z</time>
      </trkpt>
      <trkpt lat="47.98954" lon="-2.65224">
        <ele>86.931497</ele>
        <time>2022-12-13T16:09:25.874Z</time>
      </trkpt>
      <trkpt lat="47.98948" lon="-2.65206">
        <ele>86.884067</ele>
        <time>2022-12-13T16:09:28.880Z</time>
      </trkpt>
      <trkpt lat="47.98944" lon="-2.65193">
        <ele>86.849511</ele>
        <time>2022-12-13T16:09:30.898Z</time>
      </trkpt>
      <trkpt lat="47.98939" lon="-2.6518">
        <ele>86.813622</ele>
        <time>2022-12-13T16:09:32.897Z</time>
      </trkpt>
      <trkpt lat="47.98934" lon="-2.65168">
        <ele>86.765383</ele>
        <time>2022-12-13T16:09:34.878Z</time>
      </trkpt>
      <trkpt lat="47.98929" lon="-2.65156">
        <ele>86.706101</ele>
        <time>2022-12-13T16:09:36.899Z</time>
      </trkpt>
      <trkpt lat="47.98925" lon="-2.65143">
        <ele>86.648988</ele>
        <time>2022-12-13T16:09:38.897Z</time>
      </trkpt>
      <trkpt lat="47.9892" lon="-2.65131">
        <ele>86.591773</ele>
        <time>2022-12-13T16:09:40.897Z</time>
      </trkpt>
      <trkpt lat="47.98913" lon="-2.65117">
        <ele>86.516775</ele>
        <time>2022-12-13T16:09:43.877Z</time>
      </trkpt>
      <trkpt lat="47.98904" lon="-2.65104">
        <ele>86.442067</ele>
        <time>2022-12-13T16:09:46.888Z</time>
      </trkpt>
      <trkpt lat="47.98895" lon="-2.65093">
        <ele>86.371601</ele>
        <time>2022-12-13T16:09:49.874Z</time>
      </trkpt>
      <trkpt lat="47.98886" lon="-2.65084">
        <ele>86.305615</ele>
        <time>2022-12-13T16:09:52.884Z</time>
      </trkpt>
      <trkpt lat="47.98876" lon="-2.65075">
        <ele>86.231813</ele>
        <time>2022-12-13T16:09:55.877Z</time>
      </trkpt>
      <trkpt lat="47.98864" lon="-2.6507">
        <ele>86.155834</ele>
        <time>2022-12-13T16:09:58.874Z</time>
      </trkpt>
      <trkpt lat="47.98851" lon="-2.65068">
        <ele>86.074732</ele>
        <time>2022-12-13T16:10:01.883Z</time>
      </trkpt>
      <trkpt lat="47.98841" lon="-2.65069">
        <ele>86.017792</ele>
        <time>2022-12-13T16:10:03.877Z</time>
      </trkpt>
      <trkpt lat="47.9883" lon="-2.6507">
        <ele>85.945865</ele>
        <time>2022-12-13T16:10:05.876Z</time>
      </trkpt>
      <trkpt lat="47.98821" lon="-2.65074">
        <ele>85.889259</ele>
        <time>2022-12-13T16:10:07.888Z</time>
      </trkpt>
      <trkpt lat="47.98811" lon="-2.65077">
        <ele>85.827881</ele>
        <time>2022-12-13T16:10:09.895Z</time>
      </trkpt>
      <trkpt lat="47.98801" lon="-2.6508">
        <ele>85.768553</ele>
        <time>2022-12-13T16:10:11.884Z</time>
      </trkpt>
      <trkpt lat="47.98791" lon="-2.65084">
        <ele>85.705237</ele>
        <time>2022-12-13T16:10:13.894Z</time>
      </trkpt>
      <trkpt lat="47.98781" lon="-2.65086">
        <ele>85.655114</ele>
        <time>2022-12-13T16:10:15.876Z</time>
      </trkpt>
      <trkpt lat="47.9877" lon="-2.65088">
        <ele>85.603375</ele>
        <time>2022-12-13T16:10:17.898Z</time>
      </trkpt>
      <trkpt lat="47.98761" lon="-2.65091">
        <ele>85.55942</ele>
        <time>2022-12-13T16:10:19.903Z</time>
      </trkpt>
      <trkpt lat="47.9875" lon="-2.65093">
        <ele>85.50362</ele>
        <time>2022-12-13T16:10:22.892Z</time>
      </trkpt>
      <trkpt lat="47.98737" lon="-2.65096">
        <ele>85.438778</ele>
        <time>2022-12-13T16:10:25.881Z</time>
      </trkpt>
      <trkpt lat="47.98724" lon="-2.651">
        <ele>85.376587</ele>
        <time>2022-12-13T16:10:28.897Z</time>
      </trkpt>
      <trkpt lat="47.98713" lon="-2.651">
        <ele>85.323285</ele>
        <time>2022-12-13T16:10:31.875Z</time>
      </trkpt>
      <trkpt lat="47.98701" lon="-2.651">
        <ele>85.267097</ele>
        <time>2022-12-13T16:10:34.877Z</time>
      </trkpt>
      <trkpt lat="47.9869" lon="-2.65097">
        <ele>85.213332</ele>
        <time>2022-12-13T16:10:37.896Z</time>
      </trkpt>
      <trkpt lat="47.98679" lon="-2.65092">
        <ele>85.159305</ele>
        <time>2022-12-13T16:10:40.875Z</time>
      </trkpt>
      <trkpt lat="47.98668" lon="-2.65085">
        <ele>85.099114</ele>
        <time>2022-12-13T16:10:43.883Z</time>
      </trkpt>
      <trkpt lat="47.98657" lon="-2.65077">
        <ele>85.043239</ele>
        <time>2022-12-13T16:10:46.889Z</time>
      </trkpt>
      <trkpt lat="47.98646" lon="-2.65069">
        <ele>84.984775</ele>
        <time>2022-12-13T16:10:49.894Z</time>
      </trkpt>
      <trkpt lat="47.98635" lon="-2.65061">
        <ele>84.923157</ele>
        <time>2022-12-13T16:10:52.882Z</time>
      </trkpt>
      <trkpt lat="47.98626" lon="-2.65055">
        <ele>84.879054</ele>
        <time>2022-12-13T16:10:54.892Z</time>
      </trkpt>
      <trkpt lat="47.98618" lon="-2.65049">
        <ele>84.838759</ele>
        <time>2022-12-13T16:10:56.906Z</time>
      </trkpt>
      <trkpt lat="47.98606" lon="-2.6504">
        <ele>84.83742</ele>
        <time>2022-12-13T16:10:59.894Z</time>
      </trkpt>
      <trkpt lat="47.98596" lon="-2.65034">
        <ele>84.836297</ele>
        <time>2022-12-13T16:11:02.899Z</time>
      </trkpt>
      <trkpt lat="47.98585" lon="-2.65028">
        <ele>84.835192</ele>
        <time>2022-12-13T16:11:05.871Z</time>
      </trkpt>
      <trkpt lat="47.98574" lon="-2.65019">
        <ele>84.833942</ele>
        <time>2022-12-13T16:11:08.877Z</time>
      </trkpt>
      <trkpt lat="47.98564" lon="-2.6501">
        <ele>84.832784</ele>
        <time>2022-12-13T16:11:11.892Z</time>
      </trkpt>
      <trkpt lat="47.98557" lon="-2.65002">
        <ele>84.831872</ele>
        <time>2022-12-13T16:11:13.895Z</time>
      </trkpt>
      <trkpt lat="47.9855" lon="-2.64994">
        <ele>84.830967</ele>
        <time>2022-12-13T16:11:15.874Z</time>
      </trkpt>
      <trkpt lat="47.9854" lon="-2.64981">
        <ele>84.829668</ele>
        <time>2022-12-13T16:11:18.895Z</time>
      </trkpt>
      <trkpt lat="47.98531" lon="-2.64969">
        <ele>84.828475</ele>
        <time>2022-12-13T16:11:21.897Z</time>
      </trkpt>
      <trkpt lat="47.98522" lon="-2.64956">
        <ele>84.827212</ele>
        <time>2022-12-13T16:11:24.900Z</time>
      </trkpt>
      <trkpt lat="47.98514" lon="-2.64944">
        <ele>84.826062</ele>
        <time>2022-12-13T16:11:27.897Z</time>
      </trkpt>
      <trkpt lat="47.98507" lon="-2.64931">
        <ele>84.824904</ele>
        <time>2022-12-13T16:11:30.880Z</time>
      </trkpt>
      <trkpt lat="47.98499" lon="-2.64917">
        <ele>84.8237</ele>
        <time>2022-12-13T16:11:33.889Z</time>
      </trkpt>
      <trkpt lat="47.9849" lon="-2.64904">
        <ele>84.822491</ele>
        <time>2022-12-13T16:11:36.898Z</time>
      </trkpt>
      <trkpt lat="47.98482" lon="-2.6489">
        <ele>84.821245</ele>
        <time>2022-12-13T16:11:39.889Z</time>
      </trkpt>
      <trkpt lat="47.98474" lon="-2.64876">
        <ele>84.905231</ele>
        <time>2022-12-13T16:11:42.897Z</time>
      </trkpt>
      <trkpt lat="47.98466" lon="-2.64863">
        <ele>85.020042</ele>
        <time>2022-12-13T16:11:45.878Z</time>
      </trkpt>
      <trkpt lat="47.98459" lon="-2.6485">
        <ele>85.125874</ele>
        <time>2022-12-13T16:11:48.887Z</time>
      </trkpt>
      <trkpt lat="47.98453" lon="-2.64839">
        <ele>85.221791</ele>
        <time>2022-12-13T16:11:51.897Z</time>
      </trkpt>
      <trkpt lat="47.98446" lon="-2.64825">
        <ele>85.33342</ele>
        <time>2022-12-13T16:11:54.898Z</time>
      </trkpt>
      <trkpt lat="47.98438" lon="-2.64811">
        <ele>85.456759</ele>
        <time>2022-12-13T16:11:57.889Z</time>
      </trkpt>
      <trkpt lat="47.98431" lon="-2.64796">
        <ele>85.577065</ele>
        <time>2022-12-13T16:12:00.897Z</time>
      </trkpt>
      <trkpt lat="47.98424" lon="-2.64781">
        <ele>85.698228</ele>
        <time>2022-12-13T16:12:03.898Z</time>
      </trkpt>
      <trkpt lat="47.98417" lon="-2.64764">
        <ele>85.82338</ele>
        <time>2022-12-13T16:12:06.896Z</time>
      </trkpt>
      <trkpt lat="47.98412" lon="-2.64746">
        <ele>85.95213</ele>
        <time>2022-12-13T16:12:09.886Z</time>
      </trkpt>
      <trkpt lat="47.98407" lon="-2.64729">
        <ele>86.076299</ele>
        <time>2022-12-13T16:12:12.886Z</time>
      </trkpt>
      <trkpt lat="47.98403" lon="-2.64713">
        <ele>86.187187</ele>
        <time>2022-12-13T16:12:15.874Z</time>
      </trkpt>
      <trkpt lat="47.98399" lon="-2.64698">
        <ele>86.292736</ele>
        <time>2022-12-13T16:12:18.897Z</time>
      </trkpt>
      <trkpt lat="47.98394" lon="-2.64681">
        <ele>86.410663</ele>
        <time>2022-12-13T16:12:21.896Z</time>
      </trkpt>
      <trkpt lat="47.98391" lon="-2.64665">
        <ele>86.520076</ele>
        <time>2022-12-13T16:12:24.889Z</time>
      </trkpt>
      <trkpt lat="47.98387" lon="-2.6465">
        <ele>86.693346</ele>
        <time>2022-12-13T16:12:27.905Z</time>
      </trkpt>
      <trkpt lat="47.98384" lon="-2.64633">
        <ele>86.944359</ele>
        <time>2022-12-13T16:12:30.883Z</time>
      </trkpt>
      <trkpt lat="47.9838" lon="-2.64615">
        <ele>87.224256</ele>
        <time>2022-12-13T16:12:33.891Z</time>
      </trkpt>
      <trkpt lat="47.98377" lon="-2.64602">
        <ele>87.428824</ele>
        <time>2022-12-13T16:12:35.888Z</time>
      </trkpt>
      <trkpt lat="47.98374" lon="-2.64585">
        <ele>87.695961</ele>
        <time>2022-12-13T16:12:38.900Z</time>
      </trkpt>
      <trkpt lat="47.98372" lon="-2.64569">
        <ele>87.940562</ele>
        <time>2022-12-13T16:12:41.904Z</time>
      </trkpt>
      <trkpt lat="47.9837" lon="-2.6455">
        <ele>88.218271</ele>
        <time>2022-12-13T16:12:44.897Z</time>
      </trkpt>
      <trkpt lat="47.9837" lon="-2.64533">
        <ele>88.47635</ele>
        <time>2022-12-13T16:12:47.894Z</time>
      </trkpt>
      <trkpt lat="47.9837" lon="-2.64513">
        <ele>88.765711</ele>
        <time>2022-12-13T16:12:50.877Z</time>
      </trkpt>
      <trkpt lat="47.98372" lon="-2.64495">
        <ele>89.049016</ele>
        <time>2022-12-13T16:12:53.896Z</time>
      </trkpt>
      <trkpt lat="47.98373" lon="-2.64479">
        <ele>89.284988</ele>
        <time>2022-12-13T16:12:56.894Z</time>
      </trkpt>
      <trkpt lat="47.98375" lon="-2.64463">
        <ele>89.521892</ele>
        <time>2022-12-13T16:12:59.899Z</time>
      </trkpt>
      <trkpt lat="47.98378" lon="-2.64444">
        <ele>89.804017</ele>
        <time>2022-12-13T16:13:02.895Z</time>
      </trkpt>
      <trkpt lat="47.9838" lon="-2.64428">
        <ele>90.046143</ele>
        <time>2022-12-13T16:13:05.874Z</time>
      </trkpt>
      <trkpt lat="47.98382" lon="-2.64414">
        <ele>90.264607</ele>
        <time>2022-12-13T16:13:08.903Z</time>
      </trkpt>
      <trkpt lat="47.98384" lon="-2.64396">
        <ele>90.537006</ele>
        <time>2022-12-13T16:13:11.875Z</time>
      </trkpt>
      <trkpt lat="47.98387" lon="-2.64377">
        <ele>90.428951</ele>
        <time>2022-12-13T16:13:14.876Z</time>
      </trkpt>
      <trkpt lat="47.98389" lon="-2.64356">
        <ele>90.277291</ele>
        <time>2022-12-13T16:13:17.894Z</time>
      </trkpt>
      <trkpt lat="47.98392" lon="-2.64337">
        <ele>90.13641</ele>
        <time>2022-12-13T16:13:20.876Z</time>
      </trkpt>
      <trkpt lat="47.98394" lon="-2.64318">
        <ele>89.993598</ele>
        <time>2022-12-13T16:13:23.888Z</time>
      </trkpt>
      <trkpt lat="47.98397" lon="-2.643">
        <ele>89.854114</ele>
        <time>2022-12-13T16:13:26.897Z</time>
      </trkpt>
      <trkpt lat="47.98399" lon="-2.64285">
        <ele>89.742674</ele>
        <time>2022-12-13T16:13:29.876Z</time>
      </trkpt>
      <trkpt lat="47.98402" lon="-2.64268">
        <ele>89.616578</ele>
        <time>2022-12-13T16:13:32.887Z</time>
      </trkpt>
      <trkpt lat="47.98404" lon="-2.64249">
        <ele>89.474308</ele>
        <time>2022-12-13T16:13:35.876Z</time>
      </trkpt>
      <trkpt lat="47.98406" lon="-2.6423">
        <ele>89.336581</ele>
        <time>2022-12-13T16:13:38.895Z</time>
      </trkpt>
      <trkpt lat="47.98407" lon="-2.64214">
        <ele>89.213503</ele>
        <time>2022-12-13T16:13:41.894Z</time>
      </trkpt>
      <trkpt lat="47.98406" lon="-2.64196">
        <ele>89.087879</ele>
        <time>2022-12-13T16:13:44.900Z</time>
      </trkpt>
      <trkpt lat="47.98404" lon="-2.64178">
        <ele>88.951894</ele>
        <time>2022-12-13T16:13:47.877Z</time>
      </trkpt>
      <trkpt lat="47.98401" lon="-2.6416">
        <ele>88.815963</ele>
        <time>2022-12-13T16:13:50.886Z</time>
      </trkpt>
      <trkpt lat="47.98395" lon="-2.64145">
        <ele>88.689982</ele>
        <time>2022-12-13T16:13:53.879Z</time>
      </trkpt>
      <trkpt lat="47.98389" lon="-2.6413">
        <ele>88.590952</ele>
        <time>2022-12-13T16:13:56.892Z</time>
      </trkpt>
      <trkpt lat="47.98382" lon="-2.64117">
        <ele>88.575991</ele>
        <time>2022-12-13T16:13:59.898Z</time>
      </trkpt>
      <trkpt lat="47.98375" lon="-2.64104">
        <ele>88.560851</ele>
        <time>2022-12-13T16:14:02.900Z</time>
      </trkpt>
      <trkpt lat="47.98368" lon="-2.64093">
        <ele>88.546904</ele>
        <time>2022-12-13T16:14:05.877Z</time>
      </trkpt>
      <trkpt lat="47.98361" lon="-2.64083">
        <ele>88.534321</ele>
        <time>2022-12-13T16:14:08.899Z</time>
      </trkpt>
      <trkpt lat="47.98355" lon="-2.64071">
        <ele>88.521147</ele>
        <time>2022-12-13T16:14:12.894Z</time>
      </trkpt>
      <trkpt lat="47.9835" lon="-2.6406">
        <ele>88.50844</ele>
        <time>2022-12-13T16:14:17.883Z</time>
      </trkpt>
      <trkpt lat="47.98343" lon="-2.64051">
        <ele>88.496203</ele>
        <time>2022-12-13T16:14:29.881Z</time>
      </trkpt>
      <trkpt lat="47.98338" lon="-2.64039">
        <ele>88.48298</ele>
        <time>2022-12-13T16:14:33.883Z</time>
      </trkpt>
      <trkpt lat="47.98331" lon="-2.64026">
        <ele>88.46791</ele>
        <time>2022-12-13T16:14:36.880Z</time>
      </trkpt>
      <trkpt lat="47.98322" lon="-2.64009">
        <ele>88.448455</ele>
        <time>2022-12-13T16:14:39.879Z</time>
      </trkpt>
      <trkpt lat="47.98315" lon="-2.63997">
        <ele>88.434187</ele>
        <time>2022-12-13T16:14:41.891Z</time>
      </trkpt>
      <trkpt lat="47.98309" lon="-2.63985">
        <ele>88.419811</ele>
        <time>2022-12-13T16:14:43.888Z</time>
      </trkpt>
      <trkpt lat="47.98303" lon="-2.63973">
        <ele>88.406911</ele>
        <time>2022-12-13T16:14:45.883Z</time>
      </trkpt>
      <trkpt lat="47.98297" lon="-2.63962">
        <ele>88.393965</ele>
        <time>2022-12-13T16:14:47.904Z</time>
      </trkpt>
      <trkpt lat="47.98289" lon="-2.63947">
        <ele>88.376512</ele>
        <time>2022-12-13T16:14:50.896Z</time>
      </trkpt>
      <trkpt lat="47.98281" lon="-2.63931">
        <ele>88.35779</ele>
        <time>2022-12-13T16:14:53.901Z</time>
      </trkpt>
      <trkpt lat="47.98275" lon="-2.6392">
        <ele>88.363924</ele>
        <time>2022-12-13T16:14:55.872Z</time>
      </trkpt>
      <trkpt lat="47.98267" lon="-2.63904">
        <ele>88.396305</ele>
        <time>2022-12-13T16:14:58.877Z</time>
      </trkpt>
      <trkpt lat="47.98257" lon="-2.63889">
        <ele>88.430146</ele>
        <time>2022-12-13T16:15:01.888Z</time>
      </trkpt>
      <trkpt lat="47.98251" lon="-2.63878">
        <ele>88.452291</ele>
        <time>2022-12-13T16:15:03.910Z</time>
      </trkpt>
      <trkpt lat="47.98246" lon="-2.63865">
        <ele>88.477815</ele>
        <time>2022-12-13T16:15:05.884Z</time>
      </trkpt>
      <trkpt lat="47.9824" lon="-2.63855">
        <ele>88.500617</ele>
        <time>2022-12-13T16:15:07.876Z</time>
      </trkpt>
      <trkpt lat="47.98234" lon="-2.63843">
        <ele>88.523966</ele>
        <time>2022-12-13T16:15:09.894Z</time>
      </trkpt>
      <trkpt lat="47.98226" lon="-2.63827">
        <ele>88.556952</ele>
        <time>2022-12-13T16:15:12.886Z</time>
      </trkpt>
      <trkpt lat="47.9822" lon="-2.63815">
        <ele>88.581828</ele>
        <time>2022-12-13T16:15:14.902Z</time>
      </trkpt>
      <trkpt lat="47.98212" lon="-2.63805">
        <ele>88.607953</ele>
        <time>2022-12-13T16:15:16.887Z</time>
      </trkpt>
      <trkpt lat="47.98205" lon="-2.63793">
        <ele>88.633145</ele>
        <time>2022-12-13T16:15:18.886Z</time>
      </trkpt>
      <trkpt lat="47.98199" lon="-2.63781">
        <ele>88.65686</ele>
        <time>2022-12-13T16:15:20.898Z</time>
      </trkpt>
      <trkpt lat="47.98194" lon="-2.63769">
        <ele>88.680345</ele>
        <time>2022-12-13T16:15:22.895Z</time>
      </trkpt>
      <trkpt lat="47.98185" lon="-2.63755">
        <ele>88.712521</ele>
        <time>2022-12-13T16:15:25.873Z</time>
      </trkpt>
      <trkpt lat="47.98176" lon="-2.6374">
        <ele>88.744047</ele>
        <time>2022-12-13T16:15:28.896Z</time>
      </trkpt>
      <trkpt lat="47.98172" lon="-2.63729">
        <ele>88.765932</ele>
        <time>2022-12-13T16:15:30.886Z</time>
      </trkpt>
      <trkpt lat="47.98166" lon="-2.63718">
        <ele>88.788638</ele>
        <time>2022-12-13T16:15:32.898Z</time>
      </trkpt>
      <trkpt lat="47.98157" lon="-2.63702">
        <ele>88.9964</ele>
        <time>2022-12-13T16:15:35.874Z</time>
      </trkpt>
      <trkpt lat="47.98152" lon="-2.63691">
        <ele>89.141662</ele>
        <time>2022-12-13T16:15:37.891Z</time>
      </trkpt>
      <trkpt lat="47.98145" lon="-2.63675">
        <ele>89.346702</ele>
        <time>2022-12-13T16:15:40.894Z</time>
      </trkpt>
      <trkpt lat="47.98137" lon="-2.63661">
        <ele>89.547815</ele>
        <time>2022-12-13T16:15:43.889Z</time>
      </trkpt>
      <trkpt lat="47.98129" lon="-2.63647">
        <ele>89.735597</ele>
        <time>2022-12-13T16:15:46.881Z</time>
      </trkpt>
      <trkpt lat="47.98123" lon="-2.63636">
        <ele>89.890866</ele>
        <time>2022-12-13T16:15:49.905Z</time>
      </trkpt>
      <trkpt lat="47.98118" lon="-2.63625">
        <ele>90.036245</ele>
        <time>2022-12-13T16:15:52.896Z</time>
      </trkpt>
      <trkpt lat="47.98111" lon="-2.63612">
        <ele>90.212842</ele>
        <time>2022-12-13T16:15:55.877Z</time>
      </trkpt>
      <trkpt lat="47.98103" lon="-2.63598">
        <ele>90.404899</ele>
        <time>2022-12-13T16:15:58.896Z</time>
      </trkpt>
      <trkpt lat="47.98096" lon="-2.63584">
        <ele>90.604821</ele>
        <time>2022-12-13T16:16:01.910Z</time>
      </trkpt>
      <trkpt lat="47.9809" lon="-2.63574">
        <ele>90.749119</ele>
        <time>2022-12-13T16:16:03.903Z</time>
      </trkpt>
      <trkpt lat="47.98081" lon="-2.63559">
        <ele>90.963015</ele>
        <time>2022-12-13T16:16:06.895Z</time>
      </trkpt>
      <trkpt lat="47.98072" lon="-2.63544">
        <ele>91.175861</ele>
        <time>2022-12-13T16:16:09.901Z</time>
      </trkpt>
      <trkpt lat="47.98066" lon="-2.63532">
        <ele>91.33505</ele>
        <time>2022-12-13T16:16:11.879Z</time>
      </trkpt>
      <trkpt lat="47.9806" lon="-2.6352">
        <ele>91.49548</ele>
        <time>2022-12-13T16:16:13.883Z</time>
      </trkpt>
      <trkpt lat="47.98054" lon="-2.63508">
        <ele>91.655247</ele>
        <time>2022-12-13T16:16:15.876Z</time>
      </trkpt>
      <trkpt lat="47.98048" lon="-2.63498">
        <ele>91.782523</ele>
        <time>2022-12-13T16:16:17.884Z</time>
      </trkpt>
      <trkpt lat="47.98042" lon="-2.63487">
        <ele>91.910989</ele>
        <time>2022-12-13T16:16:19.898Z</time>
      </trkpt>
      <trkpt lat="47.98036" lon="-2.63477">
        <ele>92.035574</ele>
        <time>2022-12-13T16:16:21.898Z</time>
      </trkpt>
      <trkpt lat="47.98029" lon="-2.6346">
        <ele>92.228013</ele>
        <time>2022-12-13T16:16:24.901Z</time>
      </trkpt>
      <trkpt lat="47.98023" lon="-2.63448">
        <ele>92.362423</ele>
        <time>2022-12-13T16:16:26.903Z</time>
      </trkpt>
      <trkpt lat="47.98017" lon="-2.63436">
        <ele>92.499664</ele>
        <time>2022-12-13T16:16:28.899Z</time>
      </trkpt>
      <trkpt lat="47.98011" lon="-2.63425">
        <ele>92.631293</ele>
        <time>2022-12-13T16:16:30.906Z</time>
      </trkpt>
      <trkpt lat="47.98005" lon="-2.63412">
        <ele>92.767772</ele>
        <time>2022-12-13T16:16:32.897Z</time>
      </trkpt>
      <trkpt lat="47.98" lon="-2.63401">
        <ele>92.89736</ele>
        <time>2022-12-13T16:16:34.897Z</time>
      </trkpt>
      <trkpt lat="47.97993" lon="-2.63385">
        <ele>93.072937</ele>
        <time>2022-12-13T16:16:37.892Z</time>
      </trkpt>
      <trkpt lat="47.97988" lon="-2.63373">
        <ele>93.201004</ele>
        <time>2022-12-13T16:16:39.891Z</time>
      </trkpt>
      <trkpt lat="47.97981" lon="-2.63364">
        <ele>93.336899</ele>
        <time>2022-12-13T16:16:41.898Z</time>
      </trkpt>
      <trkpt lat="47.97972" lon="-2.63349">
        <ele>93.51344</ele>
        <time>2022-12-13T16:16:44.878Z</time>
      </trkpt>
      <trkpt lat="47.97965" lon="-2.63335">
        <ele>93.68348</ele>
        <time>2022-12-13T16:16:47.896Z</time>
      </trkpt>
      <trkpt lat="47.97956" lon="-2.63321">
        <ele>93.854644</ele>
        <time>2022-12-13T16:16:50.897Z</time>
      </trkpt>
      <trkpt lat="47.97949" lon="-2.63307">
        <ele>94.02008</ele>
        <time>2022-12-13T16:16:53.877Z</time>
      </trkpt>
      <trkpt lat="47.97941" lon="-2.63293">
        <ele>94.050724</ele>
        <time>2022-12-13T16:16:56.894Z</time>
      </trkpt>
      <trkpt lat="47.97933" lon="-2.63278">
        <ele>93.588764</ele>
        <time>2022-12-13T16:16:59.896Z</time>
      </trkpt>
      <trkpt lat="47.97924" lon="-2.6326">
        <ele>93.066812</ele>
        <time>2022-12-13T16:17:02.900Z</time>
      </trkpt>
      <trkpt lat="47.97919" lon="-2.63249">
        <ele>92.734918</ele>
        <time>2022-12-13T16:17:04.898Z</time>
      </trkpt>
      <trkpt lat="47.9791" lon="-2.63233">
        <ele>92.240183</ele>
        <time>2022-12-13T16:17:07.886Z</time>
      </trkpt>
      <trkpt lat="47.97905" lon="-2.63222">
        <ele>91.919189</ele>
        <time>2022-12-13T16:17:09.896Z</time>
      </trkpt>
      <trkpt lat="47.97899" lon="-2.63211">
        <ele>91.575334</ele>
        <time>2022-12-13T16:17:11.890Z</time>
      </trkpt>
      <trkpt lat="47.97894" lon="-2.63199">
        <ele>91.224745</ele>
        <time>2022-12-13T16:17:13.899Z</time>
      </trkpt>
      <trkpt lat="47.97888" lon="-2.63187">
        <ele>90.898065</ele>
        <time>2022-12-13T16:17:15.875Z</time>
      </trkpt>
      <trkpt lat="47.97883" lon="-2.63177">
        <ele>90.568037</ele>
        <time>2022-12-13T16:17:17.900Z</time>
      </trkpt>
      <trkpt lat="47.97873" lon="-2.63164">
        <ele>90.092201</ele>
        <time>2022-12-13T16:17:20.878Z</time>
      </trkpt>
      <trkpt lat="47.97864" lon="-2.63152">
        <ele>89.676217</ele>
        <time>2022-12-13T16:17:23.876Z</time>
      </trkpt>
      <trkpt lat="47.97856" lon="-2.63139">
        <ele>89.246979</ele>
        <time>2022-12-13T16:17:26.886Z</time>
      </trkpt>
      <trkpt lat="47.97848" lon="-2.63125">
        <ele>88.81182</ele>
        <time>2022-12-13T16:17:29.899Z</time>
      </trkpt>
      <trkpt lat="47.97843" lon="-2.63112">
        <ele>88.443308</ele>
        <time>2022-12-13T16:17:31.899Z</time>
      </trkpt>
      <trkpt lat="47.97837" lon="-2.63101">
        <ele>88.114611</ele>
        <time>2022-12-13T16:17:33.898Z</time>
      </trkpt>
      <trkpt lat="47.97832" lon="-2.63088">
        <ele>87.757983</ele>
        <time>2022-12-13T16:17:35.884Z</time>
      </trkpt>
      <trkpt lat="47.97825" lon="-2.63078">
        <ele>87.722393</ele>
        <time>2022-12-13T16:17:37.905Z</time>
      </trkpt>
      <trkpt lat="47.97819" lon="-2.63067">
        <ele>87.736974</ele>
        <time>2022-12-13T16:17:39.874Z</time>
      </trkpt>
      <trkpt lat="47.97811" lon="-2.6305">
        <ele>87.757639</ele>
        <time>2022-12-13T16:17:42.890Z</time>
      </trkpt>
      <trkpt lat="47.97802" lon="-2.63037">
        <ele>87.775313</ele>
        <time>2022-12-13T16:17:45.880Z</time>
      </trkpt>
      <trkpt lat="47.97794" lon="-2.63022">
        <ele>87.79386</ele>
        <time>2022-12-13T16:17:48.900Z</time>
      </trkpt>
      <trkpt lat="47.9779" lon="-2.6301">
        <ele>87.807364</ele>
        <time>2022-12-13T16:17:50.887Z</time>
      </trkpt>
      <trkpt lat="47.97783" lon="-2.63">
        <ele>87.821271</ele>
        <time>2022-12-13T16:17:52.888Z</time>
      </trkpt>
      <trkpt lat="47.97776" lon="-2.62991">
        <ele>87.834488</ele>
        <time>2022-12-13T16:17:54.903Z</time>
      </trkpt>
      <trkpt lat="47.97771" lon="-2.62979">
        <ele>87.848795</ele>
        <time>2022-12-13T16:17:56.884Z</time>
      </trkpt>
      <trkpt lat="47.97763" lon="-2.62965">
        <ele>87.867012</ele>
        <time>2022-12-13T16:17:59.895Z</time>
      </trkpt>
      <trkpt lat="47.97757" lon="-2.62954">
        <ele>87.880617</ele>
        <time>2022-12-13T16:18:02.883Z</time>
      </trkpt>
      <trkpt lat="47.9775" lon="-2.6294">
        <ele>87.897652</ele>
        <time>2022-12-13T16:18:05.878Z</time>
      </trkpt>
      <trkpt lat="47.97742" lon="-2.62927">
        <ele>87.914566</ele>
        <time>2022-12-13T16:18:08.894Z</time>
      </trkpt>
      <trkpt lat="47.97734" lon="-2.6291">
        <ele>87.934247</ele>
        <time>2022-12-13T16:18:11.900Z</time>
      </trkpt>
      <trkpt lat="47.97729" lon="-2.62899">
        <ele>87.947423</ele>
        <time>2022-12-13T16:18:13.903Z</time>
      </trkpt>
      <trkpt lat="47.97723" lon="-2.62889">
        <ele>87.960662</ele>
        <time>2022-12-13T16:18:15.872Z</time>
      </trkpt>
      <trkpt lat="47.97716" lon="-2.62875">
        <ele>87.951596</ele>
        <time>2022-12-13T16:18:18.894Z</time>
      </trkpt>
      <trkpt lat="47.9771" lon="-2.62862">
        <ele>87.877418</ele>
        <time>2022-12-13T16:18:21.889Z</time>
      </trkpt>
      <trkpt lat="47.97704" lon="-2.6285">
        <ele>87.803492</ele>
        <time>2022-12-13T16:18:25.876Z</time>
      </trkpt>
      <trkpt lat="47.97695" lon="-2.62839">
        <ele>87.722283</ele>
        <time>2022-12-13T16:18:30.884Z</time>
      </trkpt>
      <trkpt lat="47.9769" lon="-2.62824">
        <ele>87.640228</ele>
        <time>2022-12-13T16:18:35.875Z</time>
      </trkpt>
      <trkpt lat="47.97683" lon="-2.62811">
        <ele>87.561411</ele>
        <time>2022-12-13T16:18:38.897Z</time>
      </trkpt>
      <trkpt lat="47.97677" lon="-2.628">
        <ele>87.496203</ele>
        <time>2022-12-13T16:18:40.883Z</time>
      </trkpt>
      <trkpt lat="47.9767" lon="-2.62785">
        <ele>87.410125</ele>
        <time>2022-12-13T16:18:43.891Z</time>
      </trkpt>
      <trkpt lat="47.97664" lon="-2.62771">
        <ele>87.328414</ele>
        <time>2022-12-13T16:18:46.885Z</time>
      </trkpt>
      <trkpt lat="47.97656" lon="-2.62756">
        <ele>87.23775</ele>
        <time>2022-12-13T16:18:49.877Z</time>
      </trkpt>
      <trkpt lat="47.97647" lon="-2.62742">
        <ele>87.143847</ele>
        <time>2022-12-13T16:18:52.880Z</time>
      </trkpt>
      <trkpt lat="47.97639" lon="-2.62729">
        <ele>87.059909</ele>
        <time>2022-12-13T16:18:55.875Z</time>
      </trkpt>
      <trkpt lat="47.97633" lon="-2.62718">
        <ele>86.99501</ele>
        <time>2022-12-13T16:18:58.872Z</time>
      </trkpt>
      <trkpt lat="47.97626" lon="-2.62706">
        <ele>86.918089</ele>
        <time>2022-12-13T16:19:02.898Z</time>
      </trkpt>
      <trkpt lat="47.97618" lon="-2.62697">
        <ele>86.84639</ele>
        <time>2022-12-13T16:19:06.892Z</time>
      </trkpt>
      <trkpt lat="47.97613" lon="-2.62684">
        <ele>86.773405</ele>
        <time>2022-12-13T16:19:10.892Z</time>
      </trkpt>
      <trkpt lat="47.97608" lon="-2.62669">
        <ele>86.691014</ele>
        <time>2022-12-13T16:19:13.895Z</time>
      </trkpt>
      <trkpt lat="47.97602" lon="-2.62657">
        <ele>86.703593</ele>
        <time>2022-12-13T16:19:15.875Z</time>
      </trkpt>
      <trkpt lat="47.97596" lon="-2.62645">
        <ele>86.717476</ele>
        <time>2022-12-13T16:19:17.896Z</time>
      </trkpt>
      <trkpt lat="47.97589" lon="-2.62633">
        <ele>86.731744</ele>
        <time>2022-12-13T16:19:19.894Z</time>
      </trkpt>
      <trkpt lat="47.97582" lon="-2.62621">
        <ele>86.746169</ele>
        <time>2022-12-13T16:19:21.911Z</time>
      </trkpt>
      <trkpt lat="47.97576" lon="-2.6261">
        <ele>86.759029</ele>
        <time>2022-12-13T16:19:23.880Z</time>
      </trkpt>
      <trkpt lat="47.9757" lon="-2.62598">
        <ele>86.772676</ele>
        <time>2022-12-13T16:19:25.878Z</time>
      </trkpt>
      <trkpt lat="47.97562" lon="-2.62583">
        <ele>86.790262</ele>
        <time>2022-12-13T16:19:28.893Z</time>
      </trkpt>
      <trkpt lat="47.97554" lon="-2.62569">
        <ele>86.8067</ele>
        <time>2022-12-13T16:19:31.902Z</time>
      </trkpt>
      <trkpt lat="47.97547" lon="-2.62556">
        <ele>86.822444</ele>
        <time>2022-12-13T16:19:34.899Z</time>
      </trkpt>
      <trkpt lat="47.97539" lon="-2.62542">
        <ele>86.838517</ele>
        <time>2022-12-13T16:19:37.888Z</time>
      </trkpt>
      <trkpt lat="47.97531" lon="-2.62526">
        <ele>86.856422</ele>
        <time>2022-12-13T16:19:40.898Z</time>
      </trkpt>
      <trkpt lat="47.97525" lon="-2.62516">
        <ele>86.868759</ele>
        <time>2022-12-13T16:19:42.896Z</time>
      </trkpt>
      <trkpt lat="47.97518" lon="-2.62501">
        <ele>86.886129</ele>
        <time>2022-12-13T16:19:45.880Z</time>
      </trkpt>
      <trkpt lat="47.97508" lon="-2.62486">
        <ele>86.904517</ele>
        <time>2022-12-13T16:19:48.896Z</time>
      </trkpt>
      <trkpt lat="47.97501" lon="-2.62477">
        <ele>86.917543</ele>
        <time>2022-12-13T16:19:50.891Z</time>
      </trkpt>
      <trkpt lat="47.97493" lon="-2.62467">
        <ele>86.931064</ele>
        <time>2022-12-13T16:19:52.884Z</time>
      </trkpt>
      <trkpt lat="47.97485" lon="-2.62458">
        <ele>86.888904</ele>
        <time>2022-12-13T16:19:54.885Z</time>
      </trkpt>
      <trkpt lat="47.97477" lon="-2.62449">
        <ele>86.82716</ele>
        <time>2022-12-13T16:19:56.903Z</time>
      </trkpt>
      <trkpt lat="47.97469" lon="-2.62443">
        <ele>86.771139</ele>
        <time>2022-12-13T16:19:58.878Z</time>
      </trkpt>
      <trkpt lat="47.97457" lon="-2.62435">
        <ele>86.691763</ele>
        <time>2022-12-13T16:20:01.902Z</time>
      </trkpt>
      <trkpt lat="47.97446" lon="-2.62428">
        <ele>86.620015</ele>
        <time>2022-12-13T16:20:04.893Z</time>
      </trkpt>
      <trkpt lat="47.97434" lon="-2.62424">
        <ele>86.544638</ele>
        <time>2022-12-13T16:20:07.892Z</time>
      </trkpt>
      <trkpt lat="47.97422" lon="-2.6242">
        <ele>86.466555</ele>
        <time>2022-12-13T16:20:10.896Z</time>
      </trkpt>
      <trkpt lat="47.9741" lon="-2.62415">
        <ele>86.389396</ele>
        <time>2022-12-13T16:20:13.894Z</time>
      </trkpt>
      <trkpt lat="47.97398" lon="-2.62414">
        <ele>86.320025</ele>
        <time>2022-12-13T16:20:16.898Z</time>
      </trkpt>
      <trkpt lat="47.97389" lon="-2.6241">
        <ele>86.260058</ele>
        <time>2022-12-13T16:20:19.872Z</time>
      </trkpt>
      <trkpt lat="47.97379" lon="-2.62406">
        <ele>86.199306</ele>
        <time>2022-12-13T16:20:23.886Z</time>
      </trkpt>
      <trkpt lat="47.9737" lon="-2.62402">
        <ele>86.142986</ele>
        <time>2022-12-13T16:20:26.900Z</time>
      </trkpt>
      <trkpt lat="47.97359" lon="-2.62398">
        <ele>86.071045</ele>
        <time>2022-12-13T16:20:29.879Z</time>
      </trkpt>
      <trkpt lat="47.97346" lon="-2.62395">
        <ele>85.991635</ele>
        <time>2022-12-13T16:20:32.887Z</time>
      </trkpt>
      <trkpt lat="47.97337" lon="-2.62392">
        <ele>85.936164</ele>
        <time>2022-12-13T16:20:34.907Z</time>
      </trkpt>
      <trkpt lat="47.97326" lon="-2.62389">
        <ele>85.867864</ele>
        <time>2022-12-13T16:20:37.889Z</time>
      </trkpt>
      <trkpt lat="47.97315" lon="-2.62385">
        <ele>85.826083</ele>
        <time>2022-12-13T16:20:40.903Z</time>
      </trkpt>
      <trkpt lat="47.97304" lon="-2.62379">
        <ele>85.805927</ele>
        <time>2022-12-13T16:20:43.892Z</time>
      </trkpt>
      <trkpt lat="47.97292" lon="-2.62376">
        <ele>85.785879</ele>
        <time>2022-12-13T16:20:46.892Z</time>
      </trkpt>
      <trkpt lat="47.97279" lon="-2.62373">
        <ele>85.764145</ele>
        <time>2022-12-13T16:20:49.898Z</time>
      </trkpt>
      <trkpt lat="47.9727" lon="-2.62369">
        <ele>85.749104</ele>
        <time>2022-12-13T16:20:51.876Z</time>
      </trkpt>
      <trkpt lat="47.9726" lon="-2.62367">
        <ele>85.732269</ele>
        <time>2022-12-13T16:20:53.898Z</time>
      </trkpt>
      <trkpt lat="47.97248" lon="-2.62363">
        <ele>85.711875</ele>
        <time>2022-12-13T16:20:56.877Z</time>
      </trkpt>
      <trkpt lat="47.97235" lon="-2.62359">
        <ele>85.69056</ele>
        <time>2022-12-13T16:20:59.897Z</time>
      </trkpt>
      <trkpt lat="47.97224" lon="-2.62353">
        <ele>85.669882</ele>
        <time>2022-12-13T16:21:02.887Z</time>
      </trkpt>
      <trkpt lat="47.97211" lon="-2.6235">
        <ele>85.649488</ele>
        <time>2022-12-13T16:21:05.876Z</time>
      </trkpt>
      <trkpt lat="47.972" lon="-2.62346">
        <ele>85.630045</ele>
        <time>2022-12-13T16:21:08.894Z</time>
      </trkpt>
      <trkpt lat="47.97187" lon="-2.62342">
        <ele>85.608915</ele>
        <time>2022-12-13T16:21:11.891Z</time>
      </trkpt>
      <trkpt lat="47.97178" lon="-2.6234">
        <ele>85.593767</ele>
        <time>2022-12-13T16:21:13.879Z</time>
      </trkpt>
      <trkpt lat="47.9717" lon="-2.62337">
        <ele>85.578761</ele>
        <time>2022-12-13T16:21:15.883Z</time>
      </trkpt>
      <trkpt lat="47.97161" lon="-2.62334">
        <ele>85.56385</ele>
        <time>2022-12-13T16:21:17.890Z</time>
      </trkpt>
      <trkpt lat="47.97151" lon="-2.62331">
        <ele>85.548082</ele>
        <time>2022-12-13T16:21:19.892Z</time>
      </trkpt>
      <trkpt lat="47.97143" lon="-2.62329">
        <ele>85.55171</ele>
        <time>2022-12-13T16:21:21.908Z</time>
      </trkpt>
      <trkpt lat="47.9713" lon="-2.62325">
        <ele>85.607213</ele>
        <time>2022-12-13T16:21:24.900Z</time>
      </trkpt>
      <trkpt lat="47.97119" lon="-2.62322">
        <ele>85.655885</ele>
        <time>2022-12-13T16:21:27.903Z</time>
      </trkpt>
      <trkpt lat="47.97108" lon="-2.62317">
        <ele>85.707354</ele>
        <time>2022-12-13T16:21:30.896Z</time>
      </trkpt>
      <trkpt lat="47.97096" lon="-2.62312">
        <ele>85.760258</ele>
        <time>2022-12-13T16:21:33.907Z</time>
      </trkpt>
      <trkpt lat="47.97084" lon="-2.62309">
        <ele>85.811218</ele>
        <time>2022-12-13T16:21:36.899Z</time>
      </trkpt>
      <trkpt lat="47.97072" lon="-2.62303">
        <ele>85.865345</ele>
        <time>2022-12-13T16:21:39.911Z</time>
      </trkpt>
      <trkpt lat="47.9706" lon="-2.62298">
        <ele>85.918479</ele>
        <time>2022-12-13T16:21:42.894Z</time>
      </trkpt>
      <trkpt lat="47.97048" lon="-2.62294">
        <ele>85.97278</ele>
        <time>2022-12-13T16:21:45.875Z</time>
      </trkpt>
      <trkpt lat="47.97036" lon="-2.62288">
        <ele>86.027065</ele>
        <time>2022-12-13T16:21:48.903Z</time>
      </trkpt>
      <trkpt lat="47.97024" lon="-2.62282">
        <ele>86.082105</ele>
        <time>2022-12-13T16:21:51.891Z</time>
      </trkpt>
      <trkpt lat="47.97014" lon="-2.62277">
        <ele>86.127963</ele>
        <time>2022-12-13T16:21:54.898Z</time>
      </trkpt>
      <trkpt lat="47.97005" lon="-2.6227">
        <ele>86.17166</ele>
        <time>2022-12-13T16:21:57.885Z</time>
      </trkpt>
      <trkpt lat="47.96996" lon="-2.62263">
        <ele>86.217423</ele>
        <time>2022-12-13T16:22:00.897Z</time>
      </trkpt>
      <trkpt lat="47.96987" lon="-2.62255">
        <ele>86.264654</ele>
        <time>2022-12-13T16:22:03.911Z</time>
      </trkpt>
      <trkpt lat="47.96977" lon="-2.62249">
        <ele>86.307745</ele>
        <time>2022-12-13T16:22:05.878Z</time>
      </trkpt>
      <trkpt lat="47.96966" lon="-2.62239">
        <ele>86.324758</ele>
        <time>2022-12-13T16:22:08.896Z</time>
      </trkpt>
      <trkpt lat="47.96956" lon="-2.6223">
        <ele>86.333088</ele>
        <time>2022-12-13T16:22:11.905Z</time>
      </trkpt>
      <trkpt lat="47.96945" lon="-2.62221">
        <ele>86.341604</ele>
        <time>2022-12-13T16:22:14.899Z</time>
      </trkpt>
      <trkpt lat="47.96937" lon="-2.62214">
        <ele>86.347823</ele>
        <time>2022-12-13T16:22:16.881Z</time>
      </trkpt>
      <trkpt lat="47.96925" lon="-2.62204">
        <ele>86.357118</ele>
        <time>2022-12-13T16:22:19.892Z</time>
      </trkpt>
      <trkpt lat="47.96917" lon="-2.62197">
        <ele>86.363644</ele>
        <time>2022-12-13T16:22:21.883Z</time>
      </trkpt>
      <trkpt lat="47.96909" lon="-2.6219">
        <ele>86.369881</ele>
        <time>2022-12-13T16:22:23.904Z</time>
      </trkpt>
      <trkpt lat="47.96901" lon="-2.62183">
        <ele>86.376383</ele>
        <time>2022-12-13T16:22:25.876Z</time>
      </trkpt>
      <trkpt lat="47.96893" lon="-2.62176">
        <ele>86.382949</ele>
        <time>2022-12-13T16:22:27.909Z</time>
      </trkpt>
      <trkpt lat="47.96885" lon="-2.62169">
        <ele>86.38944</ele>
        <time>2022-12-13T16:22:29.909Z</time>
      </trkpt>
      <trkpt lat="47.96877" lon="-2.62161">
        <ele>86.395861</ele>
        <time>2022-12-13T16:22:31.904Z</time>
      </trkpt>
      <trkpt lat="47.96869" lon="-2.62154">
        <ele>86.402576</ele>
        <time>2022-12-13T16:22:33.921Z</time>
      </trkpt>
      <trkpt lat="47.9686" lon="-2.62145">
        <ele>86.409327</ele>
        <time>2022-12-13T16:22:35.877Z</time>
      </trkpt>
      <trkpt lat="47.96853" lon="-2.62138">
        <ele>86.415702</ele>
        <time>2022-12-13T16:22:37.901Z</time>
      </trkpt>
      <trkpt lat="47.96845" lon="-2.6213">
        <ele>86.421995</ele>
        <time>2022-12-13T16:22:39.908Z</time>
      </trkpt>
      <trkpt lat="47.96837" lon="-2.62123">
        <ele>86.42825</ele>
        <time>2022-12-13T16:22:41.898Z</time>
      </trkpt>
      <trkpt lat="47.96827" lon="-2.62113">
        <ele>86.436643</ele>
        <time>2022-12-13T16:22:44.912Z</time>
      </trkpt>
      <trkpt lat="47.96817" lon="-2.62105">
        <ele>86.468565</ele>
        <time>2022-12-13T16:22:47.910Z</time>
      </trkpt>
      <trkpt lat="47.96805" lon="-2.62098">
        <ele>86.536511</ele>
        <time>2022-12-13T16:22:50.886Z</time>
      </trkpt>
      <trkpt lat="47.96791" lon="-2.62094">
        <ele>86.608123</ele>
        <time>2022-12-13T16:22:53.894Z</time>
      </trkpt>
      <trkpt lat="47.96779" lon="-2.62089">
        <ele>86.673513</ele>
        <time>2022-12-13T16:22:56.901Z</time>
      </trkpt>
      <trkpt lat="47.9677" lon="-2.62085">
        <ele>86.721864</ele>
        <time>2022-12-13T16:22:58.889Z</time>
      </trkpt>
      <trkpt lat="47.96761" lon="-2.62082">
        <ele>86.77005</ele>
        <time>2022-12-13T16:23:00.903Z</time>
      </trkpt>
      <trkpt lat="47.96748" lon="-2.62079">
        <ele>86.839131</ele>
        <time>2022-12-13T16:23:03.908Z</time>
      </trkpt>
      <trkpt lat="47.96739" lon="-2.62076">
        <ele>86.887594</ele>
        <time>2022-12-13T16:23:05.880Z</time>
      </trkpt>
      <trkpt lat="47.96727" lon="-2.62071">
        <ele>86.953078</ele>
        <time>2022-12-13T16:23:08.904Z</time>
      </trkpt>
      <trkpt lat="47.96715" lon="-2.62066">
        <ele>87.016757</ele>
        <time>2022-12-13T16:23:11.901Z</time>
      </trkpt>
      <trkpt lat="47.96703" lon="-2.62061">
        <ele>87.079771</ele>
        <time>2022-12-13T16:23:14.882Z</time>
      </trkpt>
      <trkpt lat="47.96692" lon="-2.62055">
        <ele>87.142119</ele>
        <time>2022-12-13T16:23:17.896Z</time>
      </trkpt>
      <trkpt lat="47.96681" lon="-2.62049">
        <ele>87.205451</ele>
        <time>2022-12-13T16:23:20.892Z</time>
      </trkpt>
      <trkpt lat="47.96669" lon="-2.62044">
        <ele>87.267079</ele>
        <time>2022-12-13T16:23:23.903Z</time>
      </trkpt>
      <trkpt lat="47.96658" lon="-2.6204">
        <ele>87.327116</ele>
        <time>2022-12-13T16:23:26.901Z</time>
      </trkpt>
      <trkpt lat="47.96648" lon="-2.62035">
        <ele>87.376472</ele>
        <time>2022-12-13T16:23:29.881Z</time>
      </trkpt>
      <trkpt lat="47.96639" lon="-2.6203">
        <ele>87.3466</ele>
        <time>2022-12-13T16:23:32.881Z</time>
      </trkpt>
      <trkpt lat="47.96627" lon="-2.62026">
        <ele>87.312567</ele>
        <time>2022-12-13T16:23:35.880Z</time>
      </trkpt>
      <trkpt lat="47.96615" lon="-2.62021">
        <ele>87.277867</ele>
        <time>2022-12-13T16:23:38.909Z</time>
      </trkpt>
      <trkpt lat="47.96607" lon="-2.62013">
        <ele>87.24773</ele>
        <time>2022-12-13T16:23:41.883Z</time>
      </trkpt>
      <trkpt lat="47.96603" lon="-2.62">
        <ele>87.22068</ele>
        <time>2022-12-13T16:23:44.884Z</time>
      </trkpt>
      <trkpt lat="47.96601" lon="-2.61986">
        <ele>87.192592</ele>
        <time>2022-12-13T16:23:47.882Z</time>
      </trkpt>
      <trkpt lat="47.96601" lon="-2.61971">
        <ele>87.164401</ele>
        <time>2022-12-13T16:23:50.884Z</time>
      </trkpt>
      <trkpt lat="47.96601" lon="-2.61954">
        <ele>87.131249</ele>
        <time>2022-12-13T16:23:54.893Z</time>
      </trkpt>
      <trkpt lat="47.966" lon="-2.6194">
        <ele>87.10491</ele>
        <time>2022-12-13T16:23:57.899Z</time>
      </trkpt>
      <trkpt lat="47.96593" lon="-2.61926">
        <ele>87.071753</ele>
        <time>2022-12-13T16:24:01.876Z</time>
      </trkpt>
      <trkpt lat="47.96582" lon="-2.61928">
        <ele>87.040351</ele>
        <time>2022-12-13T16:24:04.893Z</time>
      </trkpt>
      <trkpt lat="47.96572" lon="-2.61936">
        <ele>87.007876</ele>
        <time>2022-12-13T16:24:07.887Z</time>
      </trkpt>
      <trkpt lat="47.96562" lon="-2.61939">
        <ele>86.977952</ele>
        <time>2022-12-13T16:24:09.902Z</time>
      </trkpt>
      <trkpt lat="47.9655" lon="-2.61941">
        <ele>86.942338</ele>
        <time>2022-12-13T16:24:11.885Z</time>
      </trkpt>
      <trkpt lat="47.96539" lon="-2.61937">
        <ele>86.911412</ele>
        <time>2022-12-13T16:24:14.888Z</time>
      </trkpt>
      <trkpt lat="47.96528" lon="-2.61938">
        <ele>86.878296</ele>
        <time>2022-12-13T16:24:18.891Z</time>
      </trkpt>
      <trkpt lat="47.96518" lon="-2.61941">
        <ele>86.8506</ele>
        <time>2022-12-13T16:24:21.896Z</time>
      </trkpt>
      <trkpt lat="47.96507" lon="-2.61945">
        <ele>86.823356</ele>
        <time>2022-12-13T16:24:24.915Z</time>
      </trkpt>
      <trkpt lat="47.96495" lon="-2.61949">
        <ele>86.79526</ele>
        <time>2022-12-13T16:24:27.902Z</time>
      </trkpt>
      <trkpt lat="47.96484" lon="-2.61954">
        <ele>86.768077</ele>
        <time>2022-12-13T16:24:30.896Z</time>
      </trkpt>
      <trkpt lat="47.96475" lon="-2.6196">
        <ele>86.743121</ele>
        <time>2022-12-13T16:24:33.884Z</time>
      </trkpt>
      <trkpt lat="47.96464" lon="-2.61967">
        <ele>86.714408</ele>
        <time>2022-12-13T16:24:36.903Z</time>
      </trkpt>
      <trkpt lat="47.96452" lon="-2.61974">
        <ele>86.684491</ele>
        <time>2022-12-13T16:24:39.904Z</time>
      </trkpt>
      <trkpt lat="47.96442" lon="-2.61982">
        <ele>86.656461</ele>
        <time>2022-12-13T16:24:42.890Z</time>
      </trkpt>
      <trkpt lat="47.96432" lon="-2.6199">
        <ele>86.630936</ele>
        <time>2022-12-13T16:24:45.877Z</time>
      </trkpt>
      <trkpt lat="47.96423" lon="-2.61995">
        <ele>86.606242</ele>
        <time>2022-12-13T16:24:49.882Z</time>
      </trkpt>
      <trkpt lat="47.96414" lon="-2.62">
        <ele>86.583827</ele>
        <time>2022-12-13T16:24:54.906Z</time>
      </trkpt>
      <trkpt lat="47.96405" lon="-2.62008">
        <ele>86.559076</ele>
        <time>2022-12-13T16:24:58.892Z</time>
      </trkpt>
      <trkpt lat="47.96396" lon="-2.62014">
        <ele>86.535261</ele>
        <time>2022-12-13T16:25:01.914Z</time>
      </trkpt>
      <trkpt lat="47.96385" lon="-2.62021">
        <ele>86.506354</ele>
        <time>2022-12-13T16:25:04.906Z</time>
      </trkpt>
      <trkpt lat="47.96373" lon="-2.62029">
        <ele>86.474557</ele>
        <time>2022-12-13T16:25:07.896Z</time>
      </trkpt>
      <trkpt lat="47.96364" lon="-2.62035">
        <ele>86.452297</ele>
        <time>2022-12-13T16:25:09.903Z</time>
      </trkpt>
      <trkpt lat="47.96355" lon="-2.62041">
        <ele>86.426416</ele>
        <time>2022-12-13T16:25:11.883Z</time>
      </trkpt>
      <trkpt lat="47.96347" lon="-2.62048">
        <ele>86.280075</ele>
        <time>2022-12-13T16:25:13.896Z</time>
      </trkpt>
      <trkpt lat="47.96338" lon="-2.62056">
        <ele>86.12822</ele>
        <time>2022-12-13T16:25:15.883Z</time>
      </trkpt>
      <trkpt lat="47.96329" lon="-2.62063">
        <ele>85.985498</ele>
        <time>2022-12-13T16:25:17.905Z</time>
      </trkpt>
      <trkpt lat="47.96322" lon="-2.6207">
        <ele>85.848026</ele>
        <time>2022-12-13T16:25:19.908Z</time>
      </trkpt>
      <trkpt lat="47.96314" lon="-2.62078">
        <ele>85.711789</ele>
        <time>2022-12-13T16:25:21.901Z</time>
      </trkpt>
      <trkpt lat="47.96306" lon="-2.62086">
        <ele>85.575671</ele>
        <time>2022-12-13T16:25:23.911Z</time>
      </trkpt>
      <trkpt lat="47.96299" lon="-2.62094">
        <ele>85.439627</ele>
        <time>2022-12-13T16:25:25.874Z</time>
      </trkpt>
      <trkpt lat="47.96289" lon="-2.62105">
        <ele>85.252041</ele>
        <time>2022-12-13T16:25:28.896Z</time>
      </trkpt>
      <trkpt lat="47.96281" lon="-2.62114">
        <ele>85.113025</ele>
        <time>2022-12-13T16:25:30.889Z</time>
      </trkpt>
      <trkpt lat="47.96274" lon="-2.62123">
        <ele>84.971391</ele>
        <time>2022-12-13T16:25:32.911Z</time>
      </trkpt>
      <trkpt lat="47.96267" lon="-2.62133">
        <ele>84.82636</ele>
        <time>2022-12-13T16:25:34.905Z</time>
      </trkpt>
      <trkpt lat="47.96259" lon="-2.62142">
        <ele>84.683722</ele>
        <time>2022-12-13T16:25:36.889Z</time>
      </trkpt>
      <trkpt lat="47.96251" lon="-2.62152">
        <ele>84.532759</ele>
        <time>2022-12-13T16:25:38.894Z</time>
      </trkpt>
      <trkpt lat="47.96243" lon="-2.62161">
        <ele>84.385491</ele>
        <time>2022-12-13T16:25:40.893Z</time>
      </trkpt>
      <trkpt lat="47.96235" lon="-2.62171">
        <ele>84.231342</ele>
        <time>2022-12-13T16:25:42.897Z</time>
      </trkpt>
      <trkpt lat="47.96227" lon="-2.6218">
        <ele>84.077541</ele>
        <time>2022-12-13T16:25:44.897Z</time>
      </trkpt>
      <trkpt lat="47.96219" lon="-2.62189">
        <ele>83.930272</ele>
        <time>2022-12-13T16:25:46.901Z</time>
      </trkpt>
      <trkpt lat="47.96212" lon="-2.62198">
        <ele>83.791171</ele>
        <time>2022-12-13T16:25:48.893Z</time>
      </trkpt>
      <trkpt lat="47.96204" lon="-2.62206">
        <ele>83.789113</ele>
        <time>2022-12-13T16:25:50.902Z</time>
      </trkpt>
      <trkpt lat="47.96194" lon="-2.62217">
        <ele>83.812581</ele>
        <time>2022-12-13T16:25:53.895Z</time>
      </trkpt>
      <trkpt lat="47.96184" lon="-2.62229">
        <ele>83.837482</ele>
        <time>2022-12-13T16:25:56.907Z</time>
      </trkpt>
      <trkpt lat="47.96176" lon="-2.62236">
        <ele>83.854827</ele>
        <time>2022-12-13T16:25:58.905Z</time>
      </trkpt>
      <trkpt lat="47.96168" lon="-2.62243">
        <ele>83.872912</ele>
        <time>2022-12-13T16:26:00.911Z</time>
      </trkpt>
      <trkpt lat="47.96159" lon="-2.6225">
        <ele>83.891513</ele>
        <time>2022-12-13T16:26:02.911Z</time>
      </trkpt>
      <trkpt lat="47.96149" lon="-2.62256">
        <ele>83.910515</ele>
        <time>2022-12-13T16:26:04.897Z</time>
      </trkpt>
      <trkpt lat="47.96141" lon="-2.62263">
        <ele>83.928948</ele>
        <time>2022-12-13T16:26:06.887Z</time>
      </trkpt>
      <trkpt lat="47.96132" lon="-2.62266">
        <ele>83.946655</ele>
        <time>2022-12-13T16:26:08.872Z</time>
      </trkpt>
      <trkpt lat="47.96118" lon="-2.62272">
        <ele>83.972436</ele>
        <time>2022-12-13T16:26:11.881Z</time>
      </trkpt>
      <trkpt lat="47.96109" lon="-2.62275">
        <ele>83.990748</ele>
        <time>2022-12-13T16:26:13.912Z</time>
      </trkpt>
      <trkpt lat="47.96099" lon="-2.62277">
        <ele>84.009559</ele>
        <time>2022-12-13T16:26:15.894Z</time>
      </trkpt>
      <trkpt lat="47.96089" lon="-2.62279">
        <ele>84.027794</ele>
        <time>2022-12-13T16:26:17.893Z</time>
      </trkpt>
      <trkpt lat="47.96079" lon="-2.62281">
        <ele>84.047037</ele>
        <time>2022-12-13T16:26:19.890Z</time>
      </trkpt>
      <trkpt lat="47.96069" lon="-2.62281">
        <ele>84.06544</ele>
        <time>2022-12-13T16:26:21.903Z</time>
      </trkpt>
      <trkpt lat="47.9606" lon="-2.62281">
        <ele>84.0831</ele>
        <time>2022-12-13T16:26:23.907Z</time>
      </trkpt>
      <trkpt lat="47.96048" lon="-2.6228">
        <ele>84.106033</ele>
        <time>2022-12-13T16:26:26.896Z</time>
      </trkpt>
      <trkpt lat="47.96035" lon="-2.62279">
        <ele>84.128421</ele>
        <time>2022-12-13T16:26:29.881Z</time>
      </trkpt>
      <trkpt lat="47.96025" lon="-2.62278">
        <ele>84.144338</ele>
        <time>2022-12-13T16:26:31.917Z</time>
      </trkpt>
      <trkpt lat="47.96016" lon="-2.62277">
        <ele>84.159588</ele>
        <time>2022-12-13T16:26:33.913Z</time>
      </trkpt>
      <trkpt lat="47.96007" lon="-2.62275">
        <ele>84.174365</ele>
        <time>2022-12-13T16:26:35.888Z</time>
      </trkpt>
      <trkpt lat="47.95998" lon="-2.62272">
        <ele>84.190079</ele>
        <time>2022-12-13T16:26:37.881Z</time>
      </trkpt>
      <trkpt lat="47.95988" lon="-2.62268">
        <ele>84.205868</ele>
        <time>2022-12-13T16:26:39.886Z</time>
      </trkpt>
      <trkpt lat="47.9598" lon="-2.62262">
        <ele>84.221234</ele>
        <time>2022-12-13T16:26:41.882Z</time>
      </trkpt>
      <trkpt lat="47.95968" lon="-2.62253">
        <ele>84.243279</ele>
        <time>2022-12-13T16:26:44.889Z</time>
      </trkpt>
      <trkpt lat="47.95961" lon="-2.62244">
        <ele>84.259185</ele>
        <time>2022-12-13T16:26:46.895Z</time>
      </trkpt>
      <trkpt lat="47.95954" lon="-2.62233">
        <ele>84.275686</ele>
        <time>2022-12-13T16:26:48.884Z</time>
      </trkpt>
      <trkpt lat="47.95946" lon="-2.62223">
        <ele>84.291996</ele>
        <time>2022-12-13T16:26:50.882Z</time>
      </trkpt>
      <trkpt lat="47.9594" lon="-2.62213">
        <ele>84.307669</ele>
        <time>2022-12-13T16:26:52.890Z</time>
      </trkpt>
      <trkpt lat="47.95934" lon="-2.62202">
        <ele>84.322874</ele>
        <time>2022-12-13T16:26:54.888Z</time>
      </trkpt>
      <trkpt lat="47.95928" lon="-2.62192">
        <ele>84.338297</ele>
        <time>2022-12-13T16:26:56.900Z</time>
      </trkpt>
      <trkpt lat="47.95919" lon="-2.62177">
        <ele>84.360827</ele>
        <time>2022-12-13T16:26:59.886Z</time>
      </trkpt>
      <trkpt lat="47.95913" lon="-2.62165">
        <ele>84.376751</ele>
        <time>2022-12-13T16:27:01.899Z</time>
      </trkpt>
      <trkpt lat="47.95908" lon="-2.62154">
        <ele>84.392333</ele>
        <time>2022-12-13T16:27:03.902Z</time>
      </trkpt>
      <trkpt lat="47.95902" lon="-2.62142">
        <ele>84.409091</ele>
        <time>2022-12-13T16:27:05.878Z</time>
      </trkpt>
      <trkpt lat="47.95896" lon="-2.62129">
        <ele>84.32188</ele>
        <time>2022-12-13T16:27:07.898Z</time>
      </trkpt>
      <trkpt lat="47.95891" lon="-2.62115">
        <ele>84.238735</ele>
        <time>2022-12-13T16:27:09.912Z</time>
      </trkpt>
      <trkpt lat="47.95887" lon="-2.62103">
        <ele>84.157984</ele>
        <time>2022-12-13T16:27:11.902Z</time>
      </trkpt>
      <trkpt lat="47.95883" lon="-2.6209">
        <ele>84.081386</ele>
        <time>2022-12-13T16:27:13.898Z</time>
      </trkpt>
      <trkpt lat="47.95878" lon="-2.62073">
        <ele>83.977154</ele>
        <time>2022-12-13T16:27:16.893Z</time>
      </trkpt>
      <trkpt lat="47.95873" lon="-2.62054">
        <ele>83.859726</ele>
        <time>2022-12-13T16:27:19.897Z</time>
      </trkpt>
      <trkpt lat="47.95868" lon="-2.62041">
        <ele>83.778091</ele>
        <time>2022-12-13T16:27:21.885Z</time>
      </trkpt>
      <trkpt lat="47.95865" lon="-2.62029">
        <ele>83.700844</ele>
        <time>2022-12-13T16:27:23.904Z</time>
      </trkpt>
      <trkpt lat="47.95861" lon="-2.62015">
        <ele>83.618786</ele>
        <time>2022-12-13T16:27:25.885Z</time>
      </trkpt>
      <trkpt lat="47.95857" lon="-2.62001">
        <ele>83.532957</ele>
        <time>2022-12-13T16:27:27.905Z</time>
      </trkpt>
      <trkpt lat="47.95853" lon="-2.61987">
        <ele>83.447454</ele>
        <time>2022-12-13T16:27:29.897Z</time>
      </trkpt>
      <trkpt lat="47.95848" lon="-2.61974">
        <ele>83.361033</ele>
        <time>2022-12-13T16:27:31.902Z</time>
      </trkpt>
      <trkpt lat="47.95844" lon="-2.61961">
        <ele>83.281382</ele>
        <time>2022-12-13T16:27:33.910Z</time>
      </trkpt>
      <trkpt lat="47.95841" lon="-2.61948">
        <ele>83.202158</ele>
        <time>2022-12-13T16:27:35.882Z</time>
      </trkpt>
      <trkpt lat="47.95837" lon="-2.61935">
        <ele>83.123871</ele>
        <time>2022-12-13T16:27:37.903Z</time>
      </trkpt>
      <trkpt lat="47.95832" lon="-2.61923">
        <ele>83.046017</ele>
        <time>2022-12-13T16:27:39.894Z</time>
      </trkpt>
      <trkpt lat="47.95828" lon="-2.61907">
        <ele>82.950159</ele>
        <time>2022-12-13T16:27:42.885Z</time>
      </trkpt>
      <trkpt lat="47.95824" lon="-2.61891">
        <ele>82.945046</ele>
        <time>2022-12-13T16:27:45.882Z</time>
      </trkpt>
      <trkpt lat="47.95819" lon="-2.61874">
        <ele>83.062438</ele>
        <time>2022-12-13T16:27:48.909Z</time>
      </trkpt>
      <trkpt lat="47.95815" lon="-2.6186">
        <ele>83.161798</ele>
        <time>2022-12-13T16:27:50.884Z</time>
      </trkpt>
      <trkpt lat="47.9581" lon="-2.61841">
        <ele>83.291858</ele>
        <time>2022-12-13T16:27:53.902Z</time>
      </trkpt>
      <trkpt lat="47.95806" lon="-2.61828">
        <ele>83.387162</ele>
        <time>2022-12-13T16:27:55.879Z</time>
      </trkpt>
      <trkpt lat="47.95802" lon="-2.61809">
        <ele>83.515963</ele>
        <time>2022-12-13T16:27:58.913Z</time>
      </trkpt>
      <trkpt lat="47.95797" lon="-2.61791">
        <ele>83.636343</ele>
        <time>2022-12-13T16:28:01.906Z</time>
      </trkpt>
      <trkpt lat="47.95793" lon="-2.61773">
        <ele>83.761151</ele>
        <time>2022-12-13T16:28:04.894Z</time>
      </trkpt>
      <trkpt lat="47.95791" lon="-2.6176">
        <ele>83.849426</ele>
        <time>2022-12-13T16:28:06.885Z</time>
      </trkpt>
      <trkpt lat="47.95789" lon="-2.61746">
        <ele>83.938198</ele>
        <time>2022-12-13T16:28:08.906Z</time>
      </trkpt>
      <trkpt lat="47.95787" lon="-2.61731">
        <ele>84.034891</ele>
        <time>2022-12-13T16:28:10.886Z</time>
      </trkpt>
      <trkpt lat="47.95787" lon="-2.61716">
        <ele>84.131494</ele>
        <time>2022-12-13T16:28:12.899Z</time>
      </trkpt>
      <trkpt lat="47.95786" lon="-2.61702">
        <ele>84.224403</ele>
        <time>2022-12-13T16:28:14.893Z</time>
      </trkpt>
      <trkpt lat="47.95787" lon="-2.61687">
        <ele>84.320949</ele>
        <time>2022-12-13T16:28:16.904Z</time>
      </trkpt>
      <trkpt lat="47.95788" lon="-2.61673">
        <ele>84.411019</ele>
        <time>2022-12-13T16:28:18.914Z</time>
      </trkpt>
      <trkpt lat="47.95789" lon="-2.61657">
        <ele>84.516395</ele>
        <time>2022-12-13T16:28:20.898Z</time>
      </trkpt>
      <trkpt lat="47.95791" lon="-2.61641">
        <ele>84.617557</ele>
        <time>2022-12-13T16:28:22.904Z</time>
      </trkpt>
      <trkpt lat="47.95792" lon="-2.61628">
        <ele>84.614219</ele>
        <time>2022-12-13T16:28:24.909Z</time>
      </trkpt>
      <trkpt lat="47.95794" lon="-2.61608">
        <ele>84.600157</ele>
        <time>2022-12-13T16:28:27.902Z</time>
      </trkpt>
      <trkpt lat="47.95796" lon="-2.61593">
        <ele>84.589481</ele>
        <time>2022-12-13T16:28:29.910Z</time>
      </trkpt>
      <trkpt lat="47.95797" lon="-2.61578">
        <ele>84.578871</ele>
        <time>2022-12-13T16:28:31.900Z</time>
      </trkpt>
      <trkpt lat="47.95799" lon="-2.61563">
        <ele>84.568608</ele>
        <time>2022-12-13T16:28:33.911Z</time>
      </trkpt>
      <trkpt lat="47.958" lon="-2.61548">
        <ele>84.557955</ele>
        <time>2022-12-13T16:28:35.883Z</time>
      </trkpt>
      <trkpt lat="47.95802" lon="-2.61534">
        <ele>84.547899</ele>
        <time>2022-12-13T16:28:37.897Z</time>
      </trkpt>
      <trkpt lat="47.95803" lon="-2.6152">
        <ele>84.537689</ele>
        <time>2022-12-13T16:28:39.908Z</time>
      </trkpt>
      <trkpt lat="47.95804" lon="-2.61505">
        <ele>84.527396</ele>
        <time>2022-12-13T16:28:41.899Z</time>
      </trkpt>
      <trkpt lat="47.95806" lon="-2.6149">
        <ele>84.516824</ele>
        <time>2022-12-13T16:28:43.906Z</time>
      </trkpt>
      <trkpt lat="47.95807" lon="-2.61476">
        <ele>84.506853</ele>
        <time>2022-12-13T16:28:45.882Z</time>
      </trkpt>
      <trkpt lat="47.95807" lon="-2.61462">
        <ele>84.496829</ele>
        <time>2022-12-13T16:28:47.902Z</time>
      </trkpt>
      <trkpt lat="47.95808" lon="-2.61443">
        <ele>84.483518</ele>
        <time>2022-12-13T16:28:50.893Z</time>
      </trkpt>
      <trkpt lat="47.95808" lon="-2.61423">
        <ele>84.469545</ele>
        <time>2022-12-13T16:28:53.893Z</time>
      </trkpt>
      <trkpt lat="47.95807" lon="-2.61409">
        <ele>84.459856</ele>
        <time>2022-12-13T16:28:55.879Z</time>
      </trkpt>
      <trkpt lat="47.95806" lon="-2.61396">
        <ele>84.450238</ele>
        <time>2022-12-13T16:28:57.900Z</time>
      </trkpt>
      <trkpt lat="47.95804" lon="-2.61377">
        <ele>84.437092</ele>
        <time>2022-12-13T16:29:00.877Z</time>
      </trkpt>
      <trkpt lat="47.95802" lon="-2.6136">
        <ele>84.412074</ele>
        <time>2022-12-13T16:29:03.908Z</time>
      </trkpt>
      <trkpt lat="47.95801" lon="-2.61342">
        <ele>84.382012</ele>
        <time>2022-12-13T16:29:06.892Z</time>
      </trkpt>
      <trkpt lat="47.958" lon="-2.61324">
        <ele>84.350964</ele>
        <time>2022-12-13T16:29:09.900Z</time>
      </trkpt>
      <trkpt lat="47.95798" lon="-2.61306">
        <ele>84.320953</ele>
        <time>2022-12-13T16:29:12.905Z</time>
      </trkpt>
      <trkpt lat="47.95795" lon="-2.61288">
        <ele>84.29171</ele>
        <time>2022-12-13T16:29:15.879Z</time>
      </trkpt>
      <trkpt lat="47.95794" lon="-2.61271">
        <ele>84.263453</ele>
        <time>2022-12-13T16:29:18.905Z</time>
      </trkpt>
      <trkpt lat="47.95793" lon="-2.61254">
        <ele>84.235291</ele>
        <time>2022-12-13T16:29:21.905Z</time>
      </trkpt>
      <trkpt lat="47.95791" lon="-2.61235">
        <ele>84.202422</ele>
        <time>2022-12-13T16:29:24.907Z</time>
      </trkpt>
      <trkpt lat="47.9579" lon="-2.61221">
        <ele>84.179171</ele>
        <time>2022-12-13T16:29:26.898Z</time>
      </trkpt>
      <trkpt lat="47.9579" lon="-2.61207">
        <ele>84.156624</ele>
        <time>2022-12-13T16:29:28.959Z</time>
      </trkpt>
      <trkpt lat="47.95788" lon="-2.61194">
        <ele>84.134165</ele>
        <time>2022-12-13T16:29:30.906Z</time>
      </trkpt>
      <trkpt lat="47.95789" lon="-2.61179">
        <ele>84.110545</ele>
        <time>2022-12-13T16:29:32.904Z</time>
      </trkpt>
      <trkpt lat="47.95789" lon="-2.61165">
        <ele>84.086897</ele>
        <time>2022-12-13T16:29:34.904Z</time>
      </trkpt>
      <trkpt lat="47.9579" lon="-2.61151">
        <ele>84.063177</ele>
        <time>2022-12-13T16:29:36.894Z</time>
      </trkpt>
      <trkpt lat="47.95792" lon="-2.61137">
        <ele>84.03986</ele>
        <time>2022-12-13T16:29:38.917Z</time>
      </trkpt>
      <trkpt lat="47.95794" lon="-2.61123">
        <ele>84.017219</ele>
        <time>2022-12-13T16:29:40.897Z</time>
      </trkpt>
      <trkpt lat="47.95796" lon="-2.61105">
        <ele>83.995926</ele>
        <time>2022-12-13T16:29:43.903Z</time>
      </trkpt>
      <trkpt lat="47.95799" lon="-2.61092">
        <ele>84.013007</ele>
        <time>2022-12-13T16:29:45.881Z</time>
      </trkpt>
      <trkpt lat="47.95801" lon="-2.61078">
        <ele>84.030904</ele>
        <time>2022-12-13T16:29:47.908Z</time>
      </trkpt>
      <trkpt lat="47.95803" lon="-2.61064">
        <ele>84.04859</ele>
        <time>2022-12-13T16:29:49.893Z</time>
      </trkpt>
      <trkpt lat="47.95806" lon="-2.6105">
        <ele>84.06798</ele>
        <time>2022-12-13T16:29:51.911Z</time>
      </trkpt>
      <trkpt lat="47.95808" lon="-2.61035">
        <ele>84.086323</ele>
        <time>2022-12-13T16:29:53.910Z</time>
      </trkpt>
      <trkpt lat="47.9581" lon="-2.61021">
        <ele>84.105283</ele>
        <time>2022-12-13T16:29:55.876Z</time>
      </trkpt>
      <trkpt lat="47.95812" lon="-2.61006">
        <ele>84.124077</ele>
        <time>2022-12-13T16:29:57.904Z</time>
      </trkpt>
      <trkpt lat="47.95814" lon="-2.60991">
        <ele>84.143906</ele>
        <time>2022-12-13T16:29:59.902Z</time>
      </trkpt>
      <trkpt lat="47.95816" lon="-2.60976">
        <ele>84.162639</ele>
        <time>2022-12-13T16:30:01.904Z</time>
      </trkpt>
      <trkpt lat="47.95818" lon="-2.60962">
        <ele>84.181639</ele>
        <time>2022-12-13T16:30:03.906Z</time>
      </trkpt>
      <trkpt lat="47.95821" lon="-2.60948">
        <ele>84.199907</ele>
        <time>2022-12-13T16:30:05.875Z</time>
      </trkpt>
      <trkpt lat="47.95822" lon="-2.60928">
        <ele>84.224942</ele>
        <time>2022-12-13T16:30:08.904Z</time>
      </trkpt>
      <trkpt lat="47.95825" lon="-2.6091">
        <ele>84.248013</ele>
        <time>2022-12-13T16:30:11.896Z</time>
      </trkpt>
      <trkpt lat="47.95828" lon="-2.60892">
        <ele>84.271908</ele>
        <time>2022-12-13T16:30:14.881Z</time>
      </trkpt>
      <trkpt lat="47.95831" lon="-2.60872">
        <ele>84.297528</ele>
        <time>2022-12-13T16:30:17.882Z</time>
      </trkpt>
      <trkpt lat="47.95833" lon="-2.60859">
        <ele>84.314921</ele>
        <time>2022-12-13T16:30:19.904Z</time>
      </trkpt>
      <trkpt lat="47.95836" lon="-2.60845">
        <ele>84.327491</ele>
        <time>2022-12-13T16:30:21.905Z</time>
      </trkpt>
      <trkpt lat="47.9584" lon="-2.60832">
        <ele>84.300015</ele>
        <time>2022-12-13T16:30:23.907Z</time>
      </trkpt>
      <trkpt lat="47.95845" lon="-2.60819">
        <ele>84.271077</ele>
        <time>2022-12-13T16:30:25.875Z</time>
      </trkpt>
      <trkpt lat="47.9585" lon="-2.60806">
        <ele>84.241577</ele>
        <time>2022-12-13T16:30:27.899Z</time>
      </trkpt>
      <trkpt lat="47.95856" lon="-2.60795">
        <ele>84.21406</ele>
        <time>2022-12-13T16:30:29.901Z</time>
      </trkpt>
      <trkpt lat="47.95862" lon="-2.60786">
        <ele>84.187703</ele>
        <time>2022-12-13T16:30:31.885Z</time>
      </trkpt>
      <trkpt lat="47.95871" lon="-2.60772">
        <ele>84.149239</ele>
        <time>2022-12-13T16:30:34.902Z</time>
      </trkpt>
      <trkpt lat="47.95878" lon="-2.60762">
        <ele>84.121008</ele>
        <time>2022-12-13T16:30:36.897Z</time>
      </trkpt>
      <trkpt lat="47.95887" lon="-2.60754">
        <ele>84.092219</ele>
        <time>2022-12-13T16:30:38.894Z</time>
      </trkpt>
      <trkpt lat="47.95896" lon="-2.60747">
        <ele>84.062321</ele>
        <time>2022-12-13T16:30:40.901Z</time>
      </trkpt>
      <trkpt lat="47.95905" lon="-2.60741">
        <ele>84.032733</ele>
        <time>2022-12-13T16:30:42.904Z</time>
      </trkpt>
      <trkpt lat="47.95915" lon="-2.60734">
        <ele>84.000605</ele>
        <time>2022-12-13T16:30:44.900Z</time>
      </trkpt>
      <trkpt lat="47.95925" lon="-2.60729">
        <ele>83.970065</ele>
        <time>2022-12-13T16:30:46.907Z</time>
      </trkpt>
      <trkpt lat="47.95934" lon="-2.60724">
        <ele>83.941054</ele>
        <time>2022-12-13T16:30:48.912Z</time>
      </trkpt>
      <trkpt lat="47.95943" lon="-2.6072">
        <ele>83.914513</ele>
        <time>2022-12-13T16:30:50.911Z</time>
      </trkpt>
      <trkpt lat="47.95954" lon="-2.60713">
        <ele>83.877959</ele>
        <time>2022-12-13T16:30:53.906Z</time>
      </trkpt>
      <trkpt lat="47.95964" lon="-2.60707">
        <ele>83.847947</ele>
        <time>2022-12-13T16:30:56.899Z</time>
      </trkpt>
      <trkpt lat="47.95974" lon="-2.60701">
        <ele>83.815473</ele>
        <time>2022-12-13T16:30:59.910Z</time>
      </trkpt>
      <trkpt lat="47.95985" lon="-2.60694">
        <ele>83.781889</ele>
        <time>2022-12-13T16:31:02.906Z</time>
      </trkpt>
      <trkpt lat="47.95996" lon="-2.60687">
        <ele>83.748718</ele>
        <time>2022-12-13T16:31:05.879Z</time>
      </trkpt>
      <trkpt lat="47.96008" lon="-2.60679">
        <ele>83.712795</ele>
        <time>2022-12-13T16:31:08.894Z</time>
      </trkpt>
      <trkpt lat="47.96017" lon="-2.60673">
        <ele>83.687119</ele>
        <time>2022-12-13T16:31:10.892Z</time>
      </trkpt>
      <trkpt lat="47.96025" lon="-2.60667">
        <ele>83.662259</ele>
        <time>2022-12-13T16:31:12.904Z</time>
      </trkpt>
      <trkpt lat="47.96035" lon="-2.60658">
        <ele>83.62863</ele>
        <time>2022-12-13T16:31:15.879Z</time>
      </trkpt>
      <trkpt lat="47.96046" lon="-2.60648">
        <ele>83.594662</ele>
        <time>2022-12-13T16:31:18.883Z</time>
      </trkpt>
      <trkpt lat="47.96057" lon="-2.6064">
        <ele>83.562859</ele>
        <time>2022-12-13T16:31:21.884Z</time>
      </trkpt>
      <trkpt lat="47.96068" lon="-2.6063">
        <ele>83.526456</ele>
        <time>2022-12-13T16:31:24.913Z</time>
      </trkpt>
      <trkpt lat="47.96079" lon="-2.60621">
        <ele>83.49106</ele>
        <time>2022-12-13T16:31:27.903Z</time>
      </trkpt>
      <trkpt lat="47.96091" lon="-2.60612">
        <ele>83.454936</ele>
        <time>2022-12-13T16:31:30.882Z</time>
      </trkpt>
      <trkpt lat="47.96099" lon="-2.60605">
        <ele>83.430229</ele>
        <time>2022-12-13T16:31:32.894Z</time>
      </trkpt>
      <trkpt lat="47.96107" lon="-2.60598">
        <ele>83.404865</ele>
        <time>2022-12-13T16:31:34.895Z</time>
      </trkpt>
      <trkpt lat="47.96115" lon="-2.6059">
        <ele>83.378035</ele>
        <time>2022-12-13T16:31:36.905Z</time>
      </trkpt>
      <trkpt lat="47.96127" lon="-2.60579">
        <ele>83.340626</ele>
        <time>2022-12-13T16:31:39.899Z</time>
      </trkpt>
      <trkpt lat="47.96134" lon="-2.6057">
        <ele>83.313625</ele>
        <time>2022-12-13T16:31:41.883Z</time>
      </trkpt>
      <trkpt lat="47.96141" lon="-2.6056">
        <ele>83.248087</ele>
        <time>2022-12-13T16:31:43.883Z</time>
      </trkpt>
      <trkpt lat="47.96146" lon="-2.60549">
        <ele>83.181849</ele>
        <time>2022-12-13T16:31:45.882Z</time>
      </trkpt>
      <trkpt lat="47.96152" lon="-2.60531">
        <ele>83.085936</ele>
        <time>2022-12-13T16:31:48.892Z</time>
      </trkpt>
      <trkpt lat="47.96155" lon="-2.60518">
        <ele>83.018908</ele>
        <time>2022-12-13T16:31:50.893Z</time>
      </trkpt>
      <trkpt lat="47.96157" lon="-2.60501">
        <ele>82.932632</ele>
        <time>2022-12-13T16:31:53.880Z</time>
      </trkpt>
      <trkpt lat="47.96158" lon="-2.60481">
        <ele>82.839736</ele>
        <time>2022-12-13T16:31:56.905Z</time>
      </trkpt>
      <trkpt lat="47.96158" lon="-2.60468">
        <ele>82.772228</ele>
        <time>2022-12-13T16:31:58.906Z</time>
      </trkpt>
      <trkpt lat="47.96156" lon="-2.60454">
        <ele>82.703373</ele>
        <time>2022-12-13T16:32:00.901Z</time>
      </trkpt>
      <trkpt lat="47.96155" lon="-2.6044">
        <ele>82.63523</ele>
        <time>2022-12-13T16:32:02.904Z</time>
      </trkpt>
      <trkpt lat="47.96153" lon="-2.60425">
        <ele>82.564341</ele>
        <time>2022-12-13T16:32:04.911Z</time>
      </trkpt>
      <trkpt lat="47.96151" lon="-2.60411">
        <ele>82.491895</ele>
        <time>2022-12-13T16:32:06.900Z</time>
      </trkpt>
      <trkpt lat="47.96149" lon="-2.60396">
        <ele>82.416998</ele>
        <time>2022-12-13T16:32:08.905Z</time>
      </trkpt>
      <trkpt lat="47.96147" lon="-2.6038">
        <ele>82.340674</ele>
        <time>2022-12-13T16:32:10.901Z</time>
      </trkpt>
      <trkpt lat="47.96146" lon="-2.60365">
        <ele>82.265863</ele>
        <time>2022-12-13T16:32:12.901Z</time>
      </trkpt>
      <trkpt lat="47.96143" lon="-2.60351">
        <ele>82.195028</ele>
        <time>2022-12-13T16:32:14.904Z</time>
      </trkpt>
      <trkpt lat="47.9614" lon="-2.60336">
        <ele>82.118536</ele>
        <time>2022-12-13T16:32:16.906Z</time>
      </trkpt>
      <trkpt lat="47.96137" lon="-2.60321">
        <ele>82.046003</ele>
        <time>2022-12-13T16:32:18.896Z</time>
      </trkpt>
      <trkpt lat="47.96134" lon="-2.60309">
        <ele>82.022706</ele>
        <time>2022-12-13T16:32:20.893Z</time>
      </trkpt>
      <trkpt lat="47.96131" lon="-2.60296">
        <ele>82.06021</ele>
        <time>2022-12-13T16:32:22.904Z</time>
      </trkpt>
      <trkpt lat="47.96129" lon="-2.60283">
        <ele>82.099003</ele>
        <time>2022-12-13T16:32:24.899Z</time>
      </trkpt>
      <trkpt lat="47.96126" lon="-2.60268">
        <ele>82.14038</ele>
        <time>2022-12-13T16:32:26.894Z</time>
      </trkpt>
      <trkpt lat="47.96124" lon="-2.60253">
        <ele>82.183427</ele>
        <time>2022-12-13T16:32:28.907Z</time>
      </trkpt>
      <trkpt lat="47.96121" lon="-2.60239">
        <ele>82.224198</ele>
        <time>2022-12-13T16:32:30.914Z</time>
      </trkpt>
      <trkpt lat="47.9612" lon="-2.60224">
        <ele>82.267323</ele>
        <time>2022-12-13T16:32:32.902Z</time>
      </trkpt>
      <trkpt lat="47.96118" lon="-2.60209">
        <ele>82.309964</ele>
        <time>2022-12-13T16:32:34.899Z</time>
      </trkpt>
      <trkpt lat="47.96116" lon="-2.60194">
        <ele>82.350411</ele>
        <time>2022-12-13T16:32:36.905Z</time>
      </trkpt>
      <trkpt lat="47.96114" lon="-2.60176">
        <ele>82.402666</ele>
        <time>2022-12-13T16:32:39.874Z</time>
      </trkpt>
      <trkpt lat="47.96112" lon="-2.60159">
        <ele>82.449987</ele>
        <time>2022-12-13T16:32:42.894Z</time>
      </trkpt>
      <trkpt lat="47.96109" lon="-2.60143">
        <ele>82.496041</ele>
        <time>2022-12-13T16:32:45.882Z</time>
      </trkpt>
      <trkpt lat="47.96106" lon="-2.60125">
        <ele>82.548728</ele>
        <time>2022-12-13T16:32:48.901Z</time>
      </trkpt>
      <trkpt lat="47.96101" lon="-2.60113">
        <ele>82.586991</ele>
        <time>2022-12-13T16:32:50.901Z</time>
      </trkpt>
      <trkpt lat="47.96099" lon="-2.601">
        <ele>82.625151</ele>
        <time>2022-12-13T16:32:52.908Z</time>
      </trkpt>
      <trkpt lat="47.96096" lon="-2.60086">
        <ele>82.664369</ele>
        <time>2022-12-13T16:32:54.906Z</time>
      </trkpt>
      <trkpt lat="47.96092" lon="-2.60073">
        <ele>82.704578</ele>
        <time>2022-12-13T16:32:56.903Z</time>
      </trkpt>
      <trkpt lat="47.96089" lon="-2.6006">
        <ele>82.742078</ele>
        <time>2022-12-13T16:32:58.904Z</time>
      </trkpt>
      <trkpt lat="47.96086" lon="-2.60045">
        <ele>82.868525</ele>
        <time>2022-12-13T16:33:01.921Z</time>
      </trkpt>
      <trkpt lat="47.96083" lon="-2.60031">
        <ele>83.021276</ele>
        <time>2022-12-13T16:33:04.883Z</time>
      </trkpt>
      <trkpt lat="47.96079" lon="-2.60012">
        <ele>83.21951</ele>
        <time>2022-12-13T16:33:07.887Z</time>
      </trkpt>
      <trkpt lat="47.96076" lon="-2.59997">
        <ele>83.375673</ele>
        <time>2022-12-13T16:33:09.904Z</time>
      </trkpt>
      <trkpt lat="47.96072" lon="-2.59983">
        <ele>83.528923</ele>
        <time>2022-12-13T16:33:11.904Z</time>
      </trkpt>
      <trkpt lat="47.96069" lon="-2.59969">
        <ele>83.681221</ele>
        <time>2022-12-13T16:33:13.881Z</time>
      </trkpt>
      <trkpt lat="47.96066" lon="-2.59955">
        <ele>83.830617</ele>
        <time>2022-12-13T16:33:15.884Z</time>
      </trkpt>
      <trkpt lat="47.96062" lon="-2.5994">
        <ele>83.986236</ele>
        <time>2022-12-13T16:33:17.909Z</time>
      </trkpt>
      <trkpt lat="47.96059" lon="-2.59925">
        <ele>84.147392</ele>
        <time>2022-12-13T16:33:19.897Z</time>
      </trkpt>
      <trkpt lat="47.96057" lon="-2.59911">
        <ele>84.293339</ele>
        <time>2022-12-13T16:33:21.896Z</time>
      </trkpt>
      <trkpt lat="47.96055" lon="-2.59892">
        <ele>84.485582</ele>
        <time>2022-12-13T16:33:24.890Z</time>
      </trkpt>
      <trkpt lat="47.96054" lon="-2.59878">
        <ele>84.62612</ele>
        <time>2022-12-13T16:33:26.907Z</time>
      </trkpt>
      <trkpt lat="47.96053" lon="-2.59864">
        <ele>84.769812</ele>
        <time>2022-12-13T16:33:28.911Z</time>
      </trkpt>
      <trkpt lat="47.96052" lon="-2.5985">
        <ele>84.914009</ele>
        <time>2022-12-13T16:33:30.912Z</time>
      </trkpt>
      <trkpt lat="47.96052" lon="-2.59834">
        <ele>85.068533</ele>
        <time>2022-12-13T16:33:32.918Z</time>
      </trkpt>
      <trkpt lat="47.96053" lon="-2.5982">
        <ele>85.214342</ele>
        <time>2022-12-13T16:33:34.904Z</time>
      </trkpt>
      <trkpt lat="47.96053" lon="-2.59805">
        <ele>85.363816</ele>
        <time>2022-12-13T16:33:36.911Z</time>
      </trkpt>
      <trkpt lat="47.96053" lon="-2.59791">
        <ele>85.473496</ele>
        <time>2022-12-13T16:33:38.896Z</time>
      </trkpt>
      <trkpt lat="47.96054" lon="-2.59771">
        <ele>85.49909</ele>
        <time>2022-12-13T16:33:41.892Z</time>
      </trkpt>
      <trkpt lat="47.96055" lon="-2.59754">
        <ele>85.521542</ele>
        <time>2022-12-13T16:33:44.901Z</time>
      </trkpt>
      <trkpt lat="47.96056" lon="-2.59736">
        <ele>85.544783</ele>
        <time>2022-12-13T16:33:47.901Z</time>
      </trkpt>
      <trkpt lat="47.96057" lon="-2.59717">
        <ele>85.568973</ele>
        <time>2022-12-13T16:33:50.904Z</time>
      </trkpt>
      <trkpt lat="47.96057" lon="-2.59698">
        <ele>85.593201</ele>
        <time>2022-12-13T16:33:53.899Z</time>
      </trkpt>
      <trkpt lat="47.96057" lon="-2.59679">
        <ele>85.61834</ele>
        <time>2022-12-13T16:33:56.881Z</time>
      </trkpt>
      <trkpt lat="47.96057" lon="-2.5966">
        <ele>85.643111</ele>
        <time>2022-12-13T16:33:59.892Z</time>
      </trkpt>
      <trkpt lat="47.96055" lon="-2.59642">
        <ele>85.666621</ele>
        <time>2022-12-13T16:34:02.884Z</time>
      </trkpt>
      <trkpt lat="47.96052" lon="-2.59627">
        <ele>85.687345</ele>
        <time>2022-12-13T16:34:05.879Z</time>
      </trkpt>
      <trkpt lat="47.96048" lon="-2.59611">
        <ele>85.708292</ele>
        <time>2022-12-13T16:34:08.905Z</time>
      </trkpt>
      <trkpt lat="47.96044" lon="-2.59594">
        <ele>85.732185</ele>
        <time>2022-12-13T16:34:11.906Z</time>
      </trkpt>
      <trkpt lat="47.9604" lon="-2.59575">
        <ele>85.757456</ele>
        <time>2022-12-13T16:34:14.892Z</time>
      </trkpt>
      <trkpt lat="47.96036" lon="-2.59562">
        <ele>85.776741</ele>
        <time>2022-12-13T16:34:16.913Z</time>
      </trkpt>
      <trkpt lat="47.96031" lon="-2.59543">
        <ele>85.802981</ele>
        <time>2022-12-13T16:34:19.903Z</time>
      </trkpt>
      <trkpt lat="47.96028" lon="-2.5953">
        <ele>85.813815</ele>
        <time>2022-12-13T16:34:21.907Z</time>
      </trkpt>
      <trkpt lat="47.96024" lon="-2.59517">
        <ele>85.807386</ele>
        <time>2022-12-13T16:34:23.905Z</time>
      </trkpt>
      <trkpt lat="47.96021" lon="-2.59504">
        <ele>85.801008</ele>
        <time>2022-12-13T16:34:25.890Z</time>
      </trkpt>
      <trkpt lat="47.96018" lon="-2.59491">
        <ele>85.794635</ele>
        <time>2022-12-13T16:34:27.885Z</time>
      </trkpt>
      <trkpt lat="47.96015" lon="-2.59477">
        <ele>85.787868</ele>
        <time>2022-12-13T16:34:29.900Z</time>
      </trkpt>
      <trkpt lat="47.96013" lon="-2.59463">
        <ele>85.78121</ele>
        <time>2022-12-13T16:34:31.903Z</time>
      </trkpt>
      <trkpt lat="47.9601" lon="-2.59449">
        <ele>85.774523</ele>
        <time>2022-12-13T16:34:33.893Z</time>
      </trkpt>
      <trkpt lat="47.96009" lon="-2.59435">
        <ele>85.767913</ele>
        <time>2022-12-13T16:34:35.880Z</time>
      </trkpt>
      <trkpt lat="47.96009" lon="-2.5942">
        <ele>85.761351</ele>
        <time>2022-12-13T16:34:37.894Z</time>
      </trkpt>
      <trkpt lat="47.96008" lon="-2.59406">
        <ele>85.754871</ele>
        <time>2022-12-13T16:34:39.889Z</time>
      </trkpt>
      <trkpt lat="47.96009" lon="-2.59387">
        <ele>85.746094</ele>
        <time>2022-12-13T16:34:42.899Z</time>
      </trkpt>
      <trkpt lat="47.96009" lon="-2.59371">
        <ele>85.738684</ele>
        <time>2022-12-13T16:34:45.889Z</time>
      </trkpt>
      <trkpt lat="47.96009" lon="-2.59356">
        <ele>85.731525</ele>
        <time>2022-12-13T16:34:49.901Z</time>
      </trkpt>
      <trkpt lat="47.9601" lon="-2.59341">
        <ele>85.724446</ele>
        <time>2022-12-13T16:34:53.886Z</time>
      </trkpt>
      <trkpt lat="47.9601" lon="-2.59324">
        <ele>85.716685</ele>
        <time>2022-12-13T16:34:57.903Z</time>
      </trkpt>
      <trkpt lat="47.9601" lon="-2.59307">
        <ele>85.709105</ele>
        <time>2022-12-13T16:35:00.907Z</time>
      </trkpt>
      <trkpt lat="47.96011" lon="-2.59288">
        <ele>85.700312</ele>
        <time>2022-12-13T16:35:03.892Z</time>
      </trkpt>
      <trkpt lat="47.96011" lon="-2.59269">
        <ele>85.68706</ele>
        <time>2022-12-13T16:35:06.904Z</time>
      </trkpt>
      <trkpt lat="47.96012" lon="-2.59251">
        <ele>85.439804</ele>
        <time>2022-12-13T16:35:09.901Z</time>
      </trkpt>
      <trkpt lat="47.96012" lon="-2.59233">
        <ele>85.198104</ele>
        <time>2022-12-13T16:35:12.905Z</time>
      </trkpt>
      <trkpt lat="47.96012" lon="-2.59214">
        <ele>84.944392</ele>
        <time>2022-12-13T16:35:15.882Z</time>
      </trkpt>
      <trkpt lat="47.96013" lon="-2.59196">
        <ele>84.709027</ele>
        <time>2022-12-13T16:35:18.900Z</time>
      </trkpt>
      <trkpt lat="47.96013" lon="-2.59178">
        <ele>84.461546</ele>
        <time>2022-12-13T16:35:21.893Z</time>
      </trkpt>
      <trkpt lat="47.96014" lon="-2.59164">
        <ele>84.279818</ele>
        <time>2022-12-13T16:35:23.877Z</time>
      </trkpt>
      <trkpt lat="47.96014" lon="-2.59144">
        <ele>84.016832</ele>
        <time>2022-12-13T16:35:26.895Z</time>
      </trkpt>
      <trkpt lat="47.96013" lon="-2.59127">
        <ele>83.778201</ele>
        <time>2022-12-13T16:35:29.897Z</time>
      </trkpt>
      <trkpt lat="47.9601" lon="-2.59113">
        <ele>83.591465</ele>
        <time>2022-12-13T16:35:31.910Z</time>
      </trkpt>
      <trkpt lat="47.96006" lon="-2.59095">
        <ele>83.331276</ele>
        <time>2022-12-13T16:35:34.891Z</time>
      </trkpt>
      <trkpt lat="47.95999" lon="-2.59077">
        <ele>83.064487</ele>
        <time>2022-12-13T16:35:37.882Z</time>
      </trkpt>
      <trkpt lat="47.95993" lon="-2.59065">
        <ele>82.855636</ele>
        <time>2022-12-13T16:35:39.879Z</time>
      </trkpt>
      <trkpt lat="47.95986" lon="-2.59053">
        <ele>82.645782</ele>
        <time>2022-12-13T16:35:41.884Z</time>
      </trkpt>
      <trkpt lat="47.9598" lon="-2.59042">
        <ele>82.455879</ele>
        <time>2022-12-13T16:35:43.902Z</time>
      </trkpt>
      <trkpt lat="47.95973" lon="-2.5903">
        <ele>82.242699</ele>
        <time>2022-12-13T16:35:45.882Z</time>
      </trkpt>
      <trkpt lat="47.95966" lon="-2.59019">
        <ele>82.073031</ele>
        <time>2022-12-13T16:35:47.908Z</time>
      </trkpt>
      <trkpt lat="47.9596" lon="-2.59009">
        <ele>81.963314</ele>
        <time>2022-12-13T16:35:49.914Z</time>
      </trkpt>
      <trkpt lat="47.95951" lon="-2.58994">
        <ele>81.803486</ele>
        <time>2022-12-13T16:35:52.895Z</time>
      </trkpt>
      <trkpt lat="47.95944" lon="-2.58984">
        <ele>81.693824</ele>
        <time>2022-12-13T16:35:54.908Z</time>
      </trkpt>
      <trkpt lat="47.95937" lon="-2.58973">
        <ele>81.577976</ele>
        <time>2022-12-13T16:35:56.894Z</time>
      </trkpt>
      <trkpt lat="47.9593" lon="-2.58961">
        <ele>81.453646</ele>
        <time>2022-12-13T16:35:58.919Z</time>
      </trkpt>
      <trkpt lat="47.95923" lon="-2.58948">
        <ele>81.332785</ele>
        <time>2022-12-13T16:36:00.908Z</time>
      </trkpt>
      <trkpt lat="47.95917" lon="-2.58936">
        <ele>81.209482</ele>
        <time>2022-12-13T16:36:02.892Z</time>
      </trkpt>
      <trkpt lat="47.95912" lon="-2.58924">
        <ele>81.104431</ele>
        <time>2022-12-13T16:36:04.904Z</time>
      </trkpt>
      <trkpt lat="47.95907" lon="-2.58912">
        <ele>80.992972</ele>
        <time>2022-12-13T16:36:06.906Z</time>
      </trkpt>
      <trkpt lat="47.95903" lon="-2.58895">
        <ele>80.852094</ele>
        <time>2022-12-13T16:36:09.891Z</time>
      </trkpt>
      <trkpt lat="47.95899" lon="-2.58878">
        <ele>80.714878</ele>
        <time>2022-12-13T16:36:12.888Z</time>
      </trkpt>
      <trkpt lat="47.95896" lon="-2.58859">
        <ele>80.560167</ele>
        <time>2022-12-13T16:36:15.881Z</time>
      </trkpt>
      <trkpt lat="47.95894" lon="-2.58845">
        <ele>80.450707</ele>
        <time>2022-12-13T16:36:17.904Z</time>
      </trkpt>
      <trkpt lat="47.95892" lon="-2.58831">
        <ele>80.340925</ele>
        <time>2022-12-13T16:36:19.906Z</time>
      </trkpt>
      <trkpt lat="47.95889" lon="-2.58815">
        <ele>80.207178</ele>
        <time>2022-12-13T16:36:22.902Z</time>
      </trkpt>
      <trkpt lat="47.95883" lon="-2.58797">
        <ele>80.057707</ele>
        <time>2022-12-13T16:36:25.883Z</time>
      </trkpt>
      <trkpt lat="47.95878" lon="-2.58782">
        <ele>80.283998</ele>
        <time>2022-12-13T16:36:28.912Z</time>
      </trkpt>
      <trkpt lat="47.95873" lon="-2.58766">
        <ele>80.630903</ele>
        <time>2022-12-13T16:36:31.884Z</time>
      </trkpt>
      <trkpt lat="47.95869" lon="-2.58754">
        <ele>80.907123</ele>
        <time>2022-12-13T16:36:34.905Z</time>
      </trkpt>
      <trkpt lat="47.95864" lon="-2.5874">
        <ele>81.226776</ele>
        <time>2022-12-13T16:36:36.911Z</time>
      </trkpt>
      <trkpt lat="47.95858" lon="-2.58723">
        <ele>81.617511</ele>
        <time>2022-12-13T16:36:39.908Z</time>
      </trkpt>
      <trkpt lat="47.95853" lon="-2.58711">
        <ele>81.892802</ele>
        <time>2022-12-13T16:36:41.908Z</time>
      </trkpt>
      <trkpt lat="47.95849" lon="-2.58698">
        <ele>82.172575</ele>
        <time>2022-12-13T16:36:43.904Z</time>
      </trkpt>
      <trkpt lat="47.95845" lon="-2.58686">
        <ele>82.443972</ele>
        <time>2022-12-13T16:36:45.883Z</time>
      </trkpt>
      <trkpt lat="47.9584" lon="-2.58674">
        <ele>82.727704</ele>
        <time>2022-12-13T16:36:47.903Z</time>
      </trkpt>
      <trkpt lat="47.95836" lon="-2.58662">
        <ele>83.002544</ele>
        <time>2022-12-13T16:36:49.894Z</time>
      </trkpt>
      <trkpt lat="47.95829" lon="-2.58644">
        <ele>83.414396</ele>
        <time>2022-12-13T16:36:52.913Z</time>
      </trkpt>
      <trkpt lat="47.95825" lon="-2.58632">
        <ele>83.68706</ele>
        <time>2022-12-13T16:36:54.909Z</time>
      </trkpt>
      <trkpt lat="47.95821" lon="-2.58619">
        <ele>83.958458</ele>
        <time>2022-12-13T16:36:56.900Z</time>
      </trkpt>
      <trkpt lat="47.95816" lon="-2.58606">
        <ele>84.252384</ele>
        <time>2022-12-13T16:36:58.905Z</time>
      </trkpt>
      <trkpt lat="47.95812" lon="-2.58593">
        <ele>84.55408</ele>
        <time>2022-12-13T16:37:00.898Z</time>
      </trkpt>
      <trkpt lat="47.95805" lon="-2.58576">
        <ele>84.959053</ele>
        <time>2022-12-13T16:37:03.907Z</time>
      </trkpt>
      <trkpt lat="47.958" lon="-2.58563">
        <ele>85.247322</ele>
        <time>2022-12-13T16:37:05.884Z</time>
      </trkpt>
      <trkpt lat="47.95796" lon="-2.58548">
        <ele>85.32672</ele>
        <time>2022-12-13T16:37:07.906Z</time>
      </trkpt>
      <trkpt lat="47.95791" lon="-2.58537">
        <ele>85.192505</ele>
        <time>2022-12-13T16:37:09.908Z</time>
      </trkpt>
      <trkpt lat="47.95787" lon="-2.58524">
        <ele>85.057365</ele>
        <time>2022-12-13T16:37:11.912Z</time>
      </trkpt>
      <trkpt lat="47.95782" lon="-2.58511">
        <ele>84.913302</ele>
        <time>2022-12-13T16:37:13.902Z</time>
      </trkpt>
      <trkpt lat="47.95776" lon="-2.58501">
        <ele>84.782465</ele>
        <time>2022-12-13T16:37:15.880Z</time>
      </trkpt>
      <trkpt lat="47.95769" lon="-2.58491">
        <ele>84.638089</ele>
        <time>2022-12-13T16:37:18.893Z</time>
      </trkpt>
      <trkpt lat="47.95761" lon="-2.58477">
        <ele>84.464681</ele>
        <time>2022-12-13T16:37:21.904Z</time>
      </trkpt>
      <trkpt lat="47.95753" lon="-2.58463">
        <ele>84.290197</ele>
        <time>2022-12-13T16:37:24.886Z</time>
      </trkpt>
      <trkpt lat="47.95747" lon="-2.58452">
        <ele>84.150839</ele>
        <time>2022-12-13T16:37:26.901Z</time>
      </trkpt>
      <trkpt lat="47.95741" lon="-2.5844">
        <ele>84.005766</ele>
        <time>2022-12-13T16:37:28.902Z</time>
      </trkpt>
      <trkpt lat="47.95735" lon="-2.5843">
        <ele>83.872044</ele>
        <time>2022-12-13T16:37:30.914Z</time>
      </trkpt>
      <trkpt lat="47.95728" lon="-2.58417">
        <ele>83.718684</ele>
        <time>2022-12-13T16:37:32.916Z</time>
      </trkpt>
      <trkpt lat="47.95721" lon="-2.58406">
        <ele>83.572902</ele>
        <time>2022-12-13T16:37:34.894Z</time>
      </trkpt>
      <trkpt lat="47.95715" lon="-2.58395">
        <ele>83.430682</ele>
        <time>2022-12-13T16:37:36.901Z</time>
      </trkpt>
      <trkpt lat="47.95706" lon="-2.58381">
        <ele>83.242834</ele>
        <time>2022-12-13T16:37:39.892Z</time>
      </trkpt>
      <trkpt lat="47.95697" lon="-2.58366">
        <ele>83.054273</ele>
        <time>2022-12-13T16:37:42.909Z</time>
      </trkpt>
      <trkpt lat="47.9569" lon="-2.58352">
        <ele>82.872863</ele>
        <time>2022-12-13T16:37:45.888Z</time>
      </trkpt>
      <trkpt lat="47.95681" lon="-2.58337">
        <ele>82.746371</ele>
        <time>2022-12-13T16:37:48.906Z</time>
      </trkpt>
      <trkpt lat="47.95672" lon="-2.58322">
        <ele>82.651096</ele>
        <time>2022-12-13T16:37:51.908Z</time>
      </trkpt>
      <trkpt lat="47.95665" lon="-2.58312">
        <ele>82.580633</ele>
        <time>2022-12-13T16:37:53.911Z</time>
      </trkpt>
      <trkpt lat="47.95659" lon="-2.58302">
        <ele>82.514883</ele>
        <time>2022-12-13T16:37:55.884Z</time>
      </trkpt>
      <trkpt lat="47.95652" lon="-2.58292">
        <ele>82.448137</ele>
        <time>2022-12-13T16:37:57.900Z</time>
      </trkpt>
      <trkpt lat="47.95644" lon="-2.58278">
        <ele>82.358891</ele>
        <time>2022-12-13T16:38:00.914Z</time>
      </trkpt>
      <trkpt lat="47.95636" lon="-2.58266">
        <ele>82.276763</ele>
        <time>2022-12-13T16:38:03.920Z</time>
      </trkpt>
      <trkpt lat="47.95628" lon="-2.58253">
        <ele>82.191611</ele>
        <time>2022-12-13T16:38:06.905Z</time>
      </trkpt>
      <trkpt lat="47.95619" lon="-2.58239">
        <ele>82.099497</ele>
        <time>2022-12-13T16:38:09.904Z</time>
      </trkpt>
      <trkpt lat="47.9561" lon="-2.58225">
        <ele>82.009904</ele>
        <time>2022-12-13T16:38:12.900Z</time>
      </trkpt>
      <trkpt lat="47.95601" lon="-2.58211">
        <ele>81.917095</ele>
        <time>2022-12-13T16:38:15.877Z</time>
      </trkpt>
      <trkpt lat="47.95592" lon="-2.58197">
        <ele>81.822302</ele>
        <time>2022-12-13T16:38:18.911Z</time>
      </trkpt>
      <trkpt lat="47.95586" lon="-2.58187">
        <ele>81.757381</ele>
        <time>2022-12-13T16:38:20.905Z</time>
      </trkpt>
      <trkpt lat="47.9558" lon="-2.58177">
        <ele>81.69013</ele>
        <time>2022-12-13T16:38:22.903Z</time>
      </trkpt>
      <trkpt lat="47.95573" lon="-2.58167">
        <ele>81.625062</ele>
        <time>2022-12-13T16:38:24.902Z</time>
      </trkpt>
      <trkpt lat="47.95564" lon="-2.58153">
        <ele>81.532948</ele>
        <time>2022-12-13T16:38:27.891Z</time>
      </trkpt>
      <trkpt lat="47.95555" lon="-2.58138">
        <ele>81.484996</ele>
        <time>2022-12-13T16:38:30.895Z</time>
      </trkpt>
      <trkpt lat="47.95546" lon="-2.58123">
        <ele>81.445799</ele>
        <time>2022-12-13T16:38:33.893Z</time>
      </trkpt>
      <trkpt lat="47.95537" lon="-2.58109">
        <ele>81.406955</ele>
        <time>2022-12-13T16:38:36.911Z</time>
      </trkpt>
      <trkpt lat="47.95531" lon="-2.58098">
        <ele>81.379887</ele>
        <time>2022-12-13T16:38:38.903Z</time>
      </trkpt>
      <trkpt lat="47.95524" lon="-2.58087">
        <ele>81.35064</ele>
        <time>2022-12-13T16:38:40.914Z</time>
      </trkpt>
      <trkpt lat="47.95518" lon="-2.58076">
        <ele>81.32174</ele>
        <time>2022-12-13T16:38:42.911Z</time>
      </trkpt>
      <trkpt lat="47.95511" lon="-2.58065">
        <ele>81.293584</ele>
        <time>2022-12-13T16:38:44.904Z</time>
      </trkpt>
      <trkpt lat="47.95504" lon="-2.58055">
        <ele>81.264545</ele>
        <time>2022-12-13T16:38:46.908Z</time>
      </trkpt>
      <trkpt lat="47.95498" lon="-2.58045">
        <ele>81.237701</ele>
        <time>2022-12-13T16:38:48.908Z</time>
      </trkpt>
      <trkpt lat="47.95488" lon="-2.5803">
        <ele>81.198929</ele>
        <time>2022-12-13T16:38:51.889Z</time>
      </trkpt>
      <trkpt lat="47.95482" lon="-2.5802">
        <ele>81.172676</ele>
        <time>2022-12-13T16:38:53.900Z</time>
      </trkpt>
      <trkpt lat="47.95476" lon="-2.5801">
        <ele>81.144466</ele>
        <time>2022-12-13T16:38:55.892Z</time>
      </trkpt>
      <trkpt lat="47.95469" lon="-2.58">
        <ele>81.116269</ele>
        <time>2022-12-13T16:38:57.910Z</time>
      </trkpt>
      <trkpt lat="47.95462" lon="-2.57989">
        <ele>81.087483</ele>
        <time>2022-12-13T16:38:59.917Z</time>
      </trkpt>
      <trkpt lat="47.95456" lon="-2.57977">
        <ele>81.058209</ele>
        <time>2022-12-13T16:39:01.888Z</time>
      </trkpt>
      <trkpt lat="47.95449" lon="-2.57967">
        <ele>81.028412</ele>
        <time>2022-12-13T16:39:03.886Z</time>
      </trkpt>
      <trkpt lat="47.95442" lon="-2.57956">
        <ele>81.000796</ele>
        <time>2022-12-13T16:39:05.878Z</time>
      </trkpt>
      <trkpt lat="47.95436" lon="-2.57947">
        <ele>80.949912</ele>
        <time>2022-12-13T16:39:07.898Z</time>
      </trkpt>
      <trkpt lat="47.95427" lon="-2.57934">
        <ele>80.875019</ele>
        <time>2022-12-13T16:39:10.900Z</time>
      </trkpt>
      <trkpt lat="47.9542" lon="-2.57923">
        <ele>80.808104</ele>
        <time>2022-12-13T16:39:13.904Z</time>
      </trkpt>
      <trkpt lat="47.95414" lon="-2.57912">
        <ele>80.748504</ele>
        <time>2022-12-13T16:39:16.902Z</time>
      </trkpt>
      <trkpt lat="47.95407" lon="-2.57901">
        <ele>80.685684</ele>
        <time>2022-12-13T16:39:19.896Z</time>
      </trkpt>
      <trkpt lat="47.954" lon="-2.57885">
        <ele>80.605717</ele>
        <time>2022-12-13T16:39:22.920Z</time>
      </trkpt>
      <trkpt lat="47.95393" lon="-2.57869">
        <ele>80.526514</ele>
        <time>2022-12-13T16:39:25.881Z</time>
      </trkpt>
      <trkpt lat="47.95388" lon="-2.57855">
        <ele>80.456465</ele>
        <time>2022-12-13T16:39:28.888Z</time>
      </trkpt>
      <trkpt lat="47.95383" lon="-2.57842">
        <ele>80.394847</ele>
        <time>2022-12-13T16:39:30.901Z</time>
      </trkpt>
      <trkpt lat="47.95379" lon="-2.57825">
        <ele>80.320034</ele>
        <time>2022-12-13T16:39:33.908Z</time>
      </trkpt>
      <trkpt lat="47.95375" lon="-2.57806">
        <ele>80.238842</ele>
        <time>2022-12-13T16:39:36.884Z</time>
      </trkpt>
      <trkpt lat="47.95373" lon="-2.57793">
        <ele>80.17958</ele>
        <time>2022-12-13T16:39:38.907Z</time>
      </trkpt>
      <trkpt lat="47.9537" lon="-2.57779">
        <ele>80.11988</ele>
        <time>2022-12-13T16:39:40.913Z</time>
      </trkpt>
      <trkpt lat="47.95367" lon="-2.57766">
        <ele>80.059793</ele>
        <time>2022-12-13T16:39:42.880Z</time>
      </trkpt>
      <trkpt lat="47.95365" lon="-2.57752">
        <ele>80.002563</ele>
        <time>2022-12-13T16:39:44.904Z</time>
      </trkpt>
      <trkpt lat="47.95362" lon="-2.57738">
        <ele>79.940145</ele>
        <time>2022-12-13T16:39:46.896Z</time>
      </trkpt>
      <trkpt lat="47.95359" lon="-2.57725">
        <ele>79.882448</ele>
        <time>2022-12-13T16:39:48.904Z</time>
      </trkpt>
      <trkpt lat="47.95356" lon="-2.57711">
        <ele>79.894389</ele>
        <time>2022-12-13T16:39:50.902Z</time>
      </trkpt>
      <trkpt lat="47.95354" lon="-2.57695">
        <ele>79.933205</ele>
        <time>2022-12-13T16:39:53.894Z</time>
      </trkpt>
      <trkpt lat="47.95351" lon="-2.57679">
        <ele>79.970847</ele>
        <time>2022-12-13T16:39:56.900Z</time>
      </trkpt>
      <trkpt lat="47.95349" lon="-2.57664">
        <ele>80.005183</ele>
        <time>2022-12-13T16:39:59.905Z</time>
      </trkpt>
      <trkpt lat="47.95346" lon="-2.57648">
        <ele>80.044513</ele>
        <time>2022-12-13T16:40:02.890Z</time>
      </trkpt>
      <trkpt lat="47.95343" lon="-2.57634">
        <ele>80.078001</ele>
        <time>2022-12-13T16:40:05.881Z</time>
      </trkpt>
      <trkpt lat="47.9534" lon="-2.5762">
        <ele>80.111783</ele>
        <time>2022-12-13T16:40:08.892Z</time>
      </trkpt>
      <trkpt lat="47.95334" lon="-2.57606">
        <ele>80.149822</ele>
        <time>2022-12-13T16:40:12.885Z</time>
      </trkpt>
      <trkpt lat="47.95331" lon="-2.57591">
        <ele>80.184246</ele>
        <time>2022-12-13T16:40:15.879Z</time>
      </trkpt>
      <trkpt lat="47.95328" lon="-2.57575">
        <ele>80.223464</ele>
        <time>2022-12-13T16:40:19.901Z</time>
      </trkpt>
      <trkpt lat="47.95325" lon="-2.57559">
        <ele>80.261219</ele>
        <time>2022-12-13T16:40:23.895Z</time>
      </trkpt>
      <trkpt lat="47.95321" lon="-2.57543">
        <ele>80.300492</ele>
        <time>2022-12-13T16:40:27.898Z</time>
      </trkpt>
      <trkpt lat="47.95328" lon="-2.57532">
        <ele>80.336599</ele>
        <time>2022-12-13T16:40:32.899Z</time>
      </trkpt>
      <trkpt lat="47.95337" lon="-2.57525">
        <ele>80.369258</ele>
        <time>2022-12-13T16:40:36.889Z</time>
      </trkpt>
      <trkpt lat="47.95338" lon="-2.5751">
        <ele>80.403436</ele>
        <time>2022-12-13T16:40:40.896Z</time>
      </trkpt>
      <trkpt lat="47.95335" lon="-2.57497">
        <ele>80.436228</ele>
        <time>2022-12-13T16:40:43.900Z</time>
      </trkpt>
      <trkpt lat="47.95329" lon="-2.57484">
        <ele>80.472511</ele>
        <time>2022-12-13T16:40:47.898Z</time>
      </trkpt>
      <trkpt lat="47.95321" lon="-2.57475">
        <ele>80.537093</ele>
        <time>2022-12-13T16:40:59.891Z</time>
      </trkpt>
      <trkpt lat="47.95313" lon="-2.57479">
        <ele>80.624985</ele>
        <time>2022-12-13T16:41:13.903Z</time>
      </trkpt>
      <trkpt lat="47.95306" lon="-2.57469">
        <ele>80.710948</ele>
        <time>2022-12-13T16:41:27.885Z</time>
      </trkpt>
      <trkpt lat="47.95303" lon="-2.57453">
        <ele>80.817478</ele>
        <time>2022-12-13T16:41:31.883Z</time>
      </trkpt>
      <trkpt lat="47.953" lon="-2.57436">
        <ele>80.933874</ele>
        <time>2022-12-13T16:41:34.898Z</time>
      </trkpt>
      <trkpt lat="47.95299" lon="-2.57421">
        <ele>81.02605</ele>
        <time>2022-12-13T16:41:36.883Z</time>
      </trkpt>
      <trkpt lat="47.95298" lon="-2.57408">
        <ele>81.113165</ele>
        <time>2022-12-13T16:41:38.894Z</time>
      </trkpt>
      <trkpt lat="47.95299" lon="-2.57389">
        <ele>81.233012</ele>
        <time>2022-12-13T16:41:41.901Z</time>
      </trkpt>
      <trkpt lat="47.95301" lon="-2.57371">
        <ele>81.349242</ele>
        <time>2022-12-13T16:41:44.883Z</time>
      </trkpt>
      <trkpt lat="47.95305" lon="-2.57355">
        <ele>81.455984</ele>
        <time>2022-12-13T16:41:47.885Z</time>
      </trkpt>
      <trkpt lat="47.95308" lon="-2.57342">
        <ele>81.544569</ele>
        <time>2022-12-13T16:41:50.885Z</time>
      </trkpt>
      <trkpt lat="47.95312" lon="-2.57327">
        <ele>81.649211</ele>
        <time>2022-12-13T16:41:53.893Z</time>
      </trkpt>
      <trkpt lat="47.95316" lon="-2.57309">
        <ele>81.769311</ele>
        <time>2022-12-13T16:41:56.908Z</time>
      </trkpt>
      <trkpt lat="47.95319" lon="-2.57292">
        <ele>81.883745</ele>
        <time>2022-12-13T16:41:59.899Z</time>
      </trkpt>
      <trkpt lat="47.95321" lon="-2.57276">
        <ele>81.98677</ele>
        <time>2022-12-13T16:42:02.896Z</time>
      </trkpt>
      <trkpt lat="47.95322" lon="-2.57258">
        <ele>82.102854</ele>
        <time>2022-12-13T16:42:05.883Z</time>
      </trkpt>
      <trkpt lat="47.95323" lon="-2.5724">
        <ele>82.213771</ele>
        <time>2022-12-13T16:42:08.904Z</time>
      </trkpt>
      <trkpt lat="47.95325" lon="-2.57222">
        <ele>82.292137</ele>
        <time>2022-12-13T16:42:11.916Z</time>
      </trkpt>
      <trkpt lat="47.95327" lon="-2.57208">
        <ele>82.351358</ele>
        <time>2022-12-13T16:42:13.906Z</time>
      </trkpt>
      <trkpt lat="47.95328" lon="-2.57193">
        <ele>82.414816</ele>
        <time>2022-12-13T16:42:15.886Z</time>
      </trkpt>
      <trkpt lat="47.95329" lon="-2.57179">
        <ele>82.47825</ele>
        <time>2022-12-13T16:42:17.916Z</time>
      </trkpt>
      <trkpt lat="47.95331" lon="-2.57164">
        <ele>82.540927</ele>
        <time>2022-12-13T16:42:19.917Z</time>
      </trkpt>
      <trkpt lat="47.95331" lon="-2.57149">
        <ele>82.604543</ele>
        <time>2022-12-13T16:42:21.919Z</time>
      </trkpt>
      <trkpt lat="47.95331" lon="-2.57134">
        <ele>82.668158</ele>
        <time>2022-12-13T16:42:23.915Z</time>
      </trkpt>
      <trkpt lat="47.95333" lon="-2.5712">
        <ele>82.729721</ele>
        <time>2022-12-13T16:42:25.877Z</time>
      </trkpt>
      <trkpt lat="47.95334" lon="-2.57101">
        <ele>82.809805</ele>
        <time>2022-12-13T16:42:28.908Z</time>
      </trkpt>
      <trkpt lat="47.95337" lon="-2.57083">
        <ele>82.887862</ele>
        <time>2022-12-13T16:42:31.911Z</time>
      </trkpt>
      <trkpt lat="47.95339" lon="-2.57064">
        <ele>82.969592</ele>
        <time>2022-12-13T16:42:34.894Z</time>
      </trkpt>
      <trkpt lat="47.95342" lon="-2.57047">
        <ele>83.045247</ele>
        <time>2022-12-13T16:42:37.890Z</time>
      </trkpt>
      <trkpt lat="47.95346" lon="-2.57029">
        <ele>83.129188</ele>
        <time>2022-12-13T16:42:40.906Z</time>
      </trkpt>
      <trkpt lat="47.95349" lon="-2.57015">
        <ele>83.189478</ele>
        <time>2022-12-13T16:42:42.897Z</time>
      </trkpt>
      <trkpt lat="47.95352" lon="-2.57001">
        <ele>83.2514</ele>
        <time>2022-12-13T16:42:44.907Z</time>
      </trkpt>
      <trkpt lat="47.95355" lon="-2.56988">
        <ele>83.31169</ele>
        <time>2022-12-13T16:42:46.905Z</time>
      </trkpt>
      <trkpt lat="47.95357" lon="-2.56974">
        <ele>83.359975</ele>
        <time>2022-12-13T16:42:48.894Z</time>
      </trkpt>
      <trkpt lat="47.9536" lon="-2.56961">
        <ele>83.386143</ele>
        <time>2022-12-13T16:42:50.889Z</time>
      </trkpt>
      <trkpt lat="47.95363" lon="-2.56942">
        <ele>83.42227</ele>
        <time>2022-12-13T16:42:53.898Z</time>
      </trkpt>
      <trkpt lat="47.95365" lon="-2.56924">
        <ele>83.457165</ele>
        <time>2022-12-13T16:42:56.903Z</time>
      </trkpt>
      <trkpt lat="47.95367" lon="-2.56911">
        <ele>83.482914</ele>
        <time>2022-12-13T16:42:58.912Z</time>
      </trkpt>
      <trkpt lat="47.95367" lon="-2.5689">
        <ele>83.521325</ele>
        <time>2022-12-13T16:43:01.916Z</time>
      </trkpt>
      <trkpt lat="47.95367" lon="-2.56876">
        <ele>83.547622</ele>
        <time>2022-12-13T16:43:03.915Z</time>
      </trkpt>
      <trkpt lat="47.95368" lon="-2.56862">
        <ele>83.574143</ele>
        <time>2022-12-13T16:43:05.884Z</time>
      </trkpt>
      <trkpt lat="47.95368" lon="-2.56849">
        <ele>83.600255</ele>
        <time>2022-12-13T16:43:07.889Z</time>
      </trkpt>
      <trkpt lat="47.95368" lon="-2.56835">
        <ele>83.626375</ele>
        <time>2022-12-13T16:43:09.886Z</time>
      </trkpt>
      <trkpt lat="47.95368" lon="-2.56817">
        <ele>83.659481</ele>
        <time>2022-12-13T16:43:12.895Z</time>
      </trkpt>
      <trkpt lat="47.95368" lon="-2.56802">
        <ele>83.688626</ele>
        <time>2022-12-13T16:43:15.887Z</time>
      </trkpt>
      <trkpt lat="47.95368" lon="-2.56785">
        <ele>83.720219</ele>
        <time>2022-12-13T16:43:18.909Z</time>
      </trkpt>
      <trkpt lat="47.95369" lon="-2.56769">
        <ele>83.751444</ele>
        <time>2022-12-13T16:43:21.888Z</time>
      </trkpt>
      <trkpt lat="47.95369" lon="-2.56754">
        <ele>83.778722</ele>
        <time>2022-12-13T16:43:24.907Z</time>
      </trkpt>
      <trkpt lat="47.95369" lon="-2.56741">
        <ele>83.804463</ele>
        <time>2022-12-13T16:43:27.889Z</time>
      </trkpt>
      <trkpt lat="47.95369" lon="-2.56726">
        <ele>83.833041</ele>
        <time>2022-12-13T16:43:30.917Z</time>
      </trkpt>
      <trkpt lat="47.95369" lon="-2.56709">
        <ele>83.824764</ele>
        <time>2022-12-13T16:43:33.897Z</time>
      </trkpt>
      <trkpt lat="47.9537" lon="-2.56693">
        <ele>83.68529</ele>
        <time>2022-12-13T16:43:36.912Z</time>
      </trkpt>
      <trkpt lat="47.95372" lon="-2.56678">
        <ele>83.554838</ele>
        <time>2022-12-13T16:43:39.912Z</time>
      </trkpt>
      <trkpt lat="47.95375" lon="-2.56664">
        <ele>83.430714</ele>
        <time>2022-12-13T16:43:42.903Z</time>
      </trkpt>
      <trkpt lat="47.95378" lon="-2.56648">
        <ele>83.283881</ele>
        <time>2022-12-13T16:43:46.893Z</time>
      </trkpt>
      <trkpt lat="47.95382" lon="-2.56631">
        <ele>83.131341</ele>
        <time>2022-12-13T16:43:50.909Z</time>
      </trkpt>
      <trkpt lat="47.95386" lon="-2.56618">
        <ele>83.006836</ele>
        <time>2022-12-13T16:43:54.896Z</time>
      </trkpt>
      <trkpt lat="47.95389" lon="-2.56603">
        <ele>82.876698</ele>
        <time>2022-12-13T16:43:59.912Z</time>
      </trkpt>
      <trkpt lat="47.95393" lon="-2.5659">
        <ele>82.757468</ele>
        <time>2022-12-13T16:44:03.885Z</time>
      </trkpt>
      <trkpt lat="47.95396" lon="-2.56578">
        <ele>82.637048</ele>
        <time>2022-12-13T16:44:08.911Z</time>
      </trkpt>
      <trkpt lat="47.95401" lon="-2.56566">
        <ele>82.521282</ele>
        <time>2022-12-13T16:44:25.888Z</time>
      </trkpt>
      <trkpt lat="47.95402" lon="-2.56552">
        <ele>82.397267</ele>
        <time>2022-12-13T16:44:34.901Z</time>
      </trkpt>
      <trkpt lat="47.95402" lon="-2.56536">
        <ele>82.257937</ele>
        <time>2022-12-13T16:44:39.899Z</time>
      </trkpt>
      <trkpt lat="47.95404" lon="-2.56518">
        <ele>82.105029</ele>
        <time>2022-12-13T16:44:43.900Z</time>
      </trkpt>
      <trkpt lat="47.95405" lon="-2.56503">
        <ele>81.971324</ele>
        <time>2022-12-13T16:44:46.905Z</time>
      </trkpt>
      <trkpt lat="47.95404" lon="-2.56487">
        <ele>81.831782</ele>
        <time>2022-12-13T16:44:49.893Z</time>
      </trkpt>
      <trkpt lat="47.95402" lon="-2.56471">
        <ele>81.689923</ele>
        <time>2022-12-13T16:44:52.895Z</time>
      </trkpt>
      <trkpt lat="47.95399" lon="-2.56454">
        <ele>81.552251</ele>
        <time>2022-12-13T16:44:55.889Z</time>
      </trkpt>
      <trkpt lat="47.95396" lon="-2.56437">
        <ele>81.679611</ele>
        <time>2022-12-13T16:44:58.899Z</time>
      </trkpt>
      <trkpt lat="47.95394" lon="-2.5642">
        <ele>81.80256</ele>
        <time>2022-12-13T16:45:01.889Z</time>
      </trkpt>
      <trkpt lat="47.95391" lon="-2.56405">
        <ele>81.918883</ele>
        <time>2022-12-13T16:45:04.909Z</time>
      </trkpt>
      <trkpt lat="47.95389" lon="-2.5639">
        <ele>82.027507</ele>
        <time>2022-12-13T16:45:07.917Z</time>
      </trkpt>
      <trkpt lat="47.95386" lon="-2.56375">
        <ele>82.144533</ele>
        <time>2022-12-13T16:45:10.885Z</time>
      </trkpt>
      <trkpt lat="47.95384" lon="-2.5636">
        <ele>82.259083</ele>
        <time>2022-12-13T16:45:13.904Z</time>
      </trkpt>
      <trkpt lat="47.95381" lon="-2.56343">
        <ele>82.382729</ele>
        <time>2022-12-13T16:45:16.883Z</time>
      </trkpt>
      <trkpt lat="47.95378" lon="-2.56327">
        <ele>82.506375</ele>
        <time>2022-12-13T16:45:19.904Z</time>
      </trkpt>
      <trkpt lat="47.95376" lon="-2.56312">
        <ele>82.613875</ele>
        <time>2022-12-13T16:45:22.909Z</time>
      </trkpt>
      <trkpt lat="47.95374" lon="-2.56297">
        <ele>82.728678</ele>
        <time>2022-12-13T16:45:25.883Z</time>
      </trkpt>
      <trkpt lat="47.9537" lon="-2.5628">
        <ele>82.857311</ele>
        <time>2022-12-13T16:45:28.909Z</time>
      </trkpt>
      <trkpt lat="47.95368" lon="-2.56262">
        <ele>82.989404</ele>
        <time>2022-12-13T16:45:31.890Z</time>
      </trkpt>
      <trkpt lat="47.95365" lon="-2.56245">
        <ele>83.117728</ele>
        <time>2022-12-13T16:45:34.900Z</time>
      </trkpt>
      <trkpt lat="47.95363" lon="-2.56232">
        <ele>83.219715</ele>
        <time>2022-12-13T16:45:37.904Z</time>
      </trkpt>
      <trkpt lat="47.95359" lon="-2.56217">
        <ele>83.332041</ele>
        <time>2022-12-13T16:45:40.904Z</time>
      </trkpt>
      <trkpt lat="47.95354" lon="-2.56202">
        <ele>83.457454</ele>
        <time>2022-12-13T16:45:43.888Z</time>
      </trkpt>
      <trkpt lat="47.95349" lon="-2.56187">
        <ele>83.458531</ele>
        <time>2022-12-13T16:45:46.904Z</time>
      </trkpt>
      <trkpt lat="47.95344" lon="-2.56173">
        <ele>83.383898</ele>
        <time>2022-12-13T16:45:49.886Z</time>
      </trkpt>
      <trkpt lat="47.95338" lon="-2.56157">
        <ele>83.301232</ele>
        <time>2022-12-13T16:45:52.891Z</time>
      </trkpt>
      <trkpt lat="47.95332" lon="-2.56141">
        <ele>83.217357</ele>
        <time>2022-12-13T16:45:55.885Z</time>
      </trkpt>
      <trkpt lat="47.95326" lon="-2.56125">
        <ele>83.130119</ele>
        <time>2022-12-13T16:45:58.899Z</time>
      </trkpt>
      <trkpt lat="47.95319" lon="-2.56109">
        <ele>83.040778</ele>
        <time>2022-12-13T16:46:01.893Z</time>
      </trkpt>
      <trkpt lat="47.95311" lon="-2.56094">
        <ele>82.955029</ele>
        <time>2022-12-13T16:46:04.905Z</time>
      </trkpt>
      <trkpt lat="47.95303" lon="-2.56081">
        <ele>82.873653</ele>
        <time>2022-12-13T16:46:07.913Z</time>
      </trkpt>
      <trkpt lat="47.95295" lon="-2.56068">
        <ele>82.789503</ele>
        <time>2022-12-13T16:46:10.907Z</time>
      </trkpt>
      <trkpt lat="47.95284" lon="-2.56056">
        <ele>82.69923</ele>
        <time>2022-12-13T16:46:13.889Z</time>
      </trkpt>
      <trkpt lat="47.95273" lon="-2.56046">
        <ele>82.610247</ele>
        <time>2022-12-13T16:46:16.904Z</time>
      </trkpt>
      <trkpt lat="47.95264" lon="-2.56035">
        <ele>82.529581</ele>
        <time>2022-12-13T16:46:19.907Z</time>
      </trkpt>
      <trkpt lat="47.95256" lon="-2.56026">
        <ele>82.460836</ele>
        <time>2022-12-13T16:46:22.898Z</time>
      </trkpt>
      <trkpt lat="47.95247" lon="-2.56015">
        <ele>82.378837</ele>
        <time>2022-12-13T16:46:26.915Z</time>
      </trkpt>
      <trkpt lat="47.95238" lon="-2.56004">
        <ele>82.302764</ele>
        <time>2022-12-13T16:46:29.911Z</time>
      </trkpt>
      <trkpt lat="47.9523" lon="-2.55993">
        <ele>82.212577</ele>
        <time>2022-12-13T16:46:32.904Z</time>
      </trkpt>
      <trkpt lat="47.95222" lon="-2.5598">
        <ele>82.116642</ele>
        <time>2022-12-13T16:46:35.888Z</time>
      </trkpt>
      <trkpt lat="47.95217" lon="-2.55964">
        <ele>82.015672</ele>
        <time>2022-12-13T16:46:38.894Z</time>
      </trkpt>
      <trkpt lat="47.95214" lon="-2.55946">
        <ele>81.912929</ele>
        <time>2022-12-13T16:46:41.880Z</time>
      </trkpt>
      <trkpt lat="47.95211" lon="-2.55928">
        <ele>81.802578</ele>
        <time>2022-12-13T16:46:44.897Z</time>
      </trkpt>
      <trkpt lat="47.95208" lon="-2.55909">
        <ele>81.692094</ele>
        <time>2022-12-13T16:46:47.897Z</time>
      </trkpt>
      <trkpt lat="47.95205" lon="-2.55891">
        <ele>81.588312</ele>
        <time>2022-12-13T16:46:50.907Z</time>
      </trkpt>
      <trkpt lat="47.95203" lon="-2.55877">
        <ele>81.504079</ele>
        <time>2022-12-13T16:46:52.908Z</time>
      </trkpt>
      <trkpt lat="47.95199" lon="-2.55859">
        <ele>81.399004</ele>
        <time>2022-12-13T16:46:55.886Z</time>
      </trkpt>
      <trkpt lat="47.95196" lon="-2.55841">
        <ele>81.290634</ele>
        <time>2022-12-13T16:46:58.902Z</time>
      </trkpt>
      <trkpt lat="47.95194" lon="-2.55823">
        <ele>81.18815</ele>
        <time>2022-12-13T16:47:01.900Z</time>
      </trkpt>
      <trkpt lat="47.95192" lon="-2.55806">
        <ele>81.089945</ele>
        <time>2022-12-13T16:47:04.887Z</time>
      </trkpt>
      <trkpt lat="47.95189" lon="-2.55791">
        <ele>80.997784</ele>
        <time>2022-12-13T16:47:07.909Z</time>
      </trkpt>
      <trkpt lat="47.95186" lon="-2.55778">
        <ele>80.920835</ele>
        <time>2022-12-13T16:47:10.914Z</time>
      </trkpt>
      <trkpt lat="47.95185" lon="-2.55764">
        <ele>80.84044</ele>
        <time>2022-12-13T16:47:13.908Z</time>
      </trkpt>
      <trkpt lat="47.95183" lon="-2.55748">
        <ele>80.748421</ele>
        <time>2022-12-13T16:47:16.910Z</time>
      </trkpt>
      <trkpt lat="47.9518" lon="-2.55729">
        <ele>80.630225</ele>
        <time>2022-12-13T16:47:19.906Z</time>
      </trkpt>
      <trkpt lat="47.95178" lon="-2.55716">
        <ele>80.548599</ele>
        <time>2022-12-13T16:47:21.897Z</time>
      </trkpt>
      <trkpt lat="47.95175" lon="-2.55696">
        <ele>80.424548</ele>
        <time>2022-12-13T16:47:24.895Z</time>
      </trkpt>
      <trkpt lat="47.95173" lon="-2.55677">
        <ele>80.302014</ele>
        <time>2022-12-13T16:47:27.889Z</time>
      </trkpt>
      <trkpt lat="47.95173" lon="-2.55658">
        <ele>80.188769</ele>
        <time>2022-12-13T16:47:30.886Z</time>
      </trkpt>
      <trkpt lat="47.95176" lon="-2.55642">
        <ele>80.08919</ele>
        <time>2022-12-13T16:47:33.896Z</time>
      </trkpt>
      <trkpt lat="47.95182" lon="-2.55629">
        <ele>79.98699</ele>
        <time>2022-12-13T16:47:37.888Z</time>
      </trkpt>
      <trkpt lat="47.95189" lon="-2.55618">
        <ele>79.897823</ele>
        <time>2022-12-13T16:47:41.906Z</time>
      </trkpt>
      <trkpt lat="47.95197" lon="-2.55606">
        <ele>79.790271</ele>
        <time>2022-12-13T16:47:46.909Z</time>
      </trkpt>
      <trkpt lat="47.95206" lon="-2.55593">
        <ele>79.679093</ele>
        <time>2022-12-13T16:47:50.900Z</time>
      </trkpt>
      <trkpt lat="47.95213" lon="-2.55581">
        <ele>79.582604</ele>
        <time>2022-12-13T16:47:53.900Z</time>
      </trkpt>
      <trkpt lat="47.9522" lon="-2.55569">
        <ele>79.485819</ele>
        <time>2022-12-13T16:47:56.915Z</time>
      </trkpt>
      <trkpt lat="47.95225" lon="-2.55557">
        <ele>79.395726</ele>
        <time>2022-12-13T16:47:59.898Z</time>
      </trkpt>
      <trkpt lat="47.9523" lon="-2.55539">
        <ele>79.278935</ele>
        <time>2022-12-13T16:48:02.903Z</time>
      </trkpt>
      <trkpt lat="47.95235" lon="-2.5552">
        <ele>79.155045</ele>
        <time>2022-12-13T16:48:05.894Z</time>
      </trkpt>
      <trkpt lat="47.95237" lon="-2.55507">
        <ele>79.120052</ele>
        <time>2022-12-13T16:48:07.894Z</time>
      </trkpt>
      <trkpt lat="47.95241" lon="-2.55489">
        <ele>79.315489</ele>
        <time>2022-12-13T16:48:10.916Z</time>
      </trkpt>
      <trkpt lat="47.95244" lon="-2.55472">
        <ele>79.498694</ele>
        <time>2022-12-13T16:48:13.897Z</time>
      </trkpt>
      <trkpt lat="47.95247" lon="-2.55456">
        <ele>79.66326</ele>
        <time>2022-12-13T16:48:16.912Z</time>
      </trkpt>
      <trkpt lat="47.95251" lon="-2.55439">
        <ele>79.852806</ele>
        <time>2022-12-13T16:48:19.912Z</time>
      </trkpt>
      <trkpt lat="47.95255" lon="-2.55422">
        <ele>80.041371</ele>
        <time>2022-12-13T16:48:22.908Z</time>
      </trkpt>
      <trkpt lat="47.95258" lon="-2.55404">
        <ele>80.230354</ele>
        <time>2022-12-13T16:48:25.887Z</time>
      </trkpt>
      <trkpt lat="47.95259" lon="-2.55389">
        <ele>80.378257</ele>
        <time>2022-12-13T16:48:28.899Z</time>
      </trkpt>
      <trkpt lat="47.95262" lon="-2.55372">
        <ele>80.562446</ele>
        <time>2022-12-13T16:48:32.912Z</time>
      </trkpt>
      <trkpt lat="47.95264" lon="-2.55356">
        <ele>80.727262</ele>
        <time>2022-12-13T16:48:35.886Z</time>
      </trkpt>
      <trkpt lat="47.95267" lon="-2.55343">
        <ele>80.870492</ele>
        <time>2022-12-13T16:48:38.895Z</time>
      </trkpt>
      <trkpt lat="47.95271" lon="-2.55328">
        <ele>81.034709</ele>
        <time>2022-12-13T16:48:43.892Z</time>
      </trkpt>
      <trkpt lat="47.95274" lon="-2.55316">
        <ele>81.174568</ele>
        <time>2022-12-13T16:48:47.901Z</time>
      </trkpt>
      <trkpt lat="47.95275" lon="-2.553">
        <ele>81.339551</ele>
        <time>2022-12-13T16:48:51.911Z</time>
      </trkpt>
      <trkpt lat="47.95277" lon="-2.55283">
        <ele>81.511413</ele>
        <time>2022-12-13T16:48:55.883Z</time>
      </trkpt>
      <trkpt lat="47.95278" lon="-2.5527">
        <ele>81.651997</ele>
        <time>2022-12-13T16:48:58.897Z</time>
      </trkpt>
      <trkpt lat="47.95279" lon="-2.55256">
        <ele>81.795645</ele>
        <time>2022-12-13T16:49:02.892Z</time>
      </trkpt>
      <trkpt lat="47.9528" lon="-2.55241">
        <ele>82.098332</ele>
        <time>2022-12-13T16:49:07.906Z</time>
      </trkpt>
      <trkpt lat="47.95282" lon="-2.55226">
        <ele>82.503658</ele>
        <time>2022-12-13T16:49:11.907Z</time>
      </trkpt>
      <trkpt lat="47.95283" lon="-2.55209">
        <ele>82.942567</ele>
        <time>2022-12-13T16:49:15.888Z</time>
      </trkpt>
      <trkpt lat="47.95283" lon="-2.55193">
        <ele>83.360592</ele>
        <time>2022-12-13T16:49:19.912Z</time>
      </trkpt>
      <trkpt lat="47.95283" lon="-2.55179">
        <ele>83.718576</ele>
        <time>2022-12-13T16:49:24.898Z</time>
      </trkpt>
      <trkpt lat="47.95284" lon="-2.55164">
        <ele>84.118326</ele>
        <time>2022-12-13T16:49:30.899Z</time>
      </trkpt>
      <trkpt lat="47.95282" lon="-2.55157">
        <ele>84.293417</ele>
        <time>2022-12-13T16:49:50.659Z</time>
      </trkpt>
      <trkpt lat="47.96473" lon="-2.54374">
        <ele>122.663269</ele>
        <time>2022-12-13T17:40:54.005Z</time>
      </trkpt>
      <trkpt lat="47.96458" lon="-2.54347">
        <ele>120.816636</ele>
        <time>2022-12-13T17:41:58.910Z</time>
      </trkpt>
      <trkpt lat="47.9645" lon="-2.54342">
        <ele>120.09207</ele>
        <time>2022-12-13T17:42:02.931Z</time>
      </trkpt>
      <trkpt lat="47.96441" lon="-2.54336">
        <ele>119.38186</ele>
        <time>2022-12-13T17:42:06.917Z</time>
      </trkpt>
      <trkpt lat="47.96433" lon="-2.54328">
        <ele>118.617594</ele>
        <time>2022-12-13T17:42:11.906Z</time>
      </trkpt>
      <trkpt lat="47.96431" lon="-2.54313">
        <ele>117.833456</ele>
        <time>2022-12-13T17:42:16.907Z</time>
      </trkpt>
      <trkpt lat="47.96433" lon="-2.54298">
        <ele>116.98681</ele>
        <time>2022-12-13T17:42:21.907Z</time>
      </trkpt>
      <trkpt lat="47.96436" lon="-2.54284">
        <ele>116.330885</ele>
        <time>2022-12-13T17:42:25.921Z</time>
      </trkpt>
      <trkpt lat="47.96437" lon="-2.54269">
        <ele>115.694853</ele>
        <time>2022-12-13T17:42:30.918Z</time>
      </trkpt>
      <trkpt lat="47.9643" lon="-2.54256">
        <ele>114.985359</ele>
        <time>2022-12-13T17:42:34.899Z</time>
      </trkpt>
      <trkpt lat="47.9642" lon="-2.54249">
        <ele>114.273733</ele>
        <time>2022-12-13T17:42:38.924Z</time>
      </trkpt>
      <trkpt lat="47.96409" lon="-2.54244">
        <ele>113.549543</ele>
        <time>2022-12-13T17:42:42.904Z</time>
      </trkpt>
      <trkpt lat="47.96397" lon="-2.54241">
        <ele>112.807651</ele>
        <time>2022-12-13T17:42:46.902Z</time>
      </trkpt>
      <trkpt lat="47.96388" lon="-2.54235">
        <ele>112.165627</ele>
        <time>2022-12-13T17:42:49.924Z</time>
      </trkpt>
      <trkpt lat="47.96377" lon="-2.54228">
        <ele>111.430281</ele>
        <time>2022-12-13T17:42:53.911Z</time>
      </trkpt>
      <trkpt lat="47.96369" lon="-2.54221">
        <ele>110.806726</ele>
        <time>2022-12-13T17:42:57.907Z</time>
      </trkpt>
      <trkpt lat="47.96358" lon="-2.54213">
        <ele>110.058833</ele>
        <time>2022-12-13T17:43:01.919Z</time>
      </trkpt>
      <trkpt lat="47.96349" lon="-2.54206">
        <ele>109.396541</ele>
        <time>2022-12-13T17:43:04.908Z</time>
      </trkpt>
      <trkpt lat="47.9634" lon="-2.54199">
        <ele>108.730371</ele>
        <time>2022-12-13T17:43:07.909Z</time>
      </trkpt>
      <trkpt lat="47.96331" lon="-2.5419">
        <ele>108.040146</ele>
        <time>2022-12-13T17:43:10.920Z</time>
      </trkpt>
      <trkpt lat="47.96322" lon="-2.54181">
        <ele>107.392992</ele>
        <time>2022-12-13T17:43:13.907Z</time>
      </trkpt>
      <trkpt lat="47.96315" lon="-2.54173">
        <ele>106.803679</ele>
        <time>2022-12-13T17:43:16.925Z</time>
      </trkpt>
      <trkpt lat="47.96306" lon="-2.54163">
        <ele>106.092326</ele>
        <time>2022-12-13T17:43:20.898Z</time>
      </trkpt>
      <trkpt lat="47.96298" lon="-2.54151">
        <ele>105.376965</ele>
        <time>2022-12-13T17:43:24.914Z</time>
      </trkpt>
      <trkpt lat="47.9629" lon="-2.5414">
        <ele>104.970284</ele>
        <time>2022-12-13T17:43:28.919Z</time>
      </trkpt>
      <trkpt lat="47.96281" lon="-2.54134">
        <ele>104.631571</ele>
        <time>2022-12-13T17:43:31.910Z</time>
      </trkpt>
      <trkpt lat="47.96271" lon="-2.5413">
        <ele>104.246731</ele>
        <time>2022-12-13T17:43:34.924Z</time>
      </trkpt>
      <trkpt lat="47.96261" lon="-2.54124">
        <ele>103.869346</ele>
        <time>2022-12-13T17:43:37.916Z</time>
      </trkpt>
      <trkpt lat="47.96255" lon="-2.54109">
        <ele>103.458871</ele>
        <time>2022-12-13T17:43:40.922Z</time>
      </trkpt>
      <trkpt lat="47.96249" lon="-2.5409">
        <ele>102.955037</ele>
        <time>2022-12-13T17:43:43.915Z</time>
      </trkpt>
      <trkpt lat="47.96244" lon="-2.54076">
        <ele>102.583016</ele>
        <time>2022-12-13T17:43:45.926Z</time>
      </trkpt>
      <trkpt lat="47.96239" lon="-2.54061">
        <ele>102.187065</ele>
        <time>2022-12-13T17:43:47.923Z</time>
      </trkpt>
      <trkpt lat="47.96235" lon="-2.54046">
        <ele>101.786811</ele>
        <time>2022-12-13T17:43:49.921Z</time>
      </trkpt>
      <trkpt lat="47.96229" lon="-2.54029">
        <ele>101.352484</ele>
        <time>2022-12-13T17:43:51.909Z</time>
      </trkpt>
      <trkpt lat="47.96225" lon="-2.54014">
        <ele>100.959988</ele>
        <time>2022-12-13T17:43:53.900Z</time>
      </trkpt>
      <trkpt lat="47.96221" lon="-2.54">
        <ele>100.587825</ele>
        <time>2022-12-13T17:43:55.919Z</time>
      </trkpt>
      <trkpt lat="47.96218" lon="-2.53986">
        <ele>100.233242</ele>
        <time>2022-12-13T17:43:57.919Z</time>
      </trkpt>
      <trkpt lat="47.96214" lon="-2.53972">
        <ele>99.86787</ele>
        <time>2022-12-13T17:43:59.903Z</time>
      </trkpt>
      <trkpt lat="47.9621" lon="-2.53959">
        <ele>99.525626</ele>
        <time>2022-12-13T17:44:01.924Z</time>
      </trkpt>
      <trkpt lat="47.96206" lon="-2.53944">
        <ele>99.147713</ele>
        <time>2022-12-13T17:44:04.922Z</time>
      </trkpt>
      <trkpt lat="47.96196" lon="-2.53936">
        <ele>98.817698</ele>
        <time>2022-12-13T17:44:06.912Z</time>
      </trkpt>
      <trkpt lat="47.96187" lon="-2.53927">
        <ele>98.549428</ele>
        <time>2022-12-13T17:44:11.917Z</time>
      </trkpt>
      <trkpt lat="47.96181" lon="-2.53938">
        <ele>98.316006</ele>
        <time>2022-12-13T17:44:32.902Z</time>
      </trkpt>
      <trkpt lat="47.96169" lon="-2.53946">
        <ele>97.996664</ele>
        <time>2022-12-13T17:44:38.900Z</time>
      </trkpt>
      <trkpt lat="47.96162" lon="-2.53956">
        <ele>97.748494</ele>
        <time>2022-12-13T17:44:40.919Z</time>
      </trkpt>
      <trkpt lat="47.96152" lon="-2.53966">
        <ele>97.447708</ele>
        <time>2022-12-13T17:44:43.907Z</time>
      </trkpt>
      <trkpt lat="47.96142" lon="-2.53976">
        <ele>97.150037</ele>
        <time>2022-12-13T17:44:46.925Z</time>
      </trkpt>
      <trkpt lat="47.96133" lon="-2.53986">
        <ele>96.858913</ele>
        <time>2022-12-13T17:44:49.925Z</time>
      </trkpt>
      <trkpt lat="47.96126" lon="-2.53997">
        <ele>96.603073</ele>
        <time>2022-12-13T17:44:52.929Z</time>
      </trkpt>
      <trkpt lat="47.9612" lon="-2.54008">
        <ele>96.368154</ele>
        <time>2022-12-13T17:44:55.922Z</time>
      </trkpt>
      <trkpt lat="47.96113" lon="-2.54019">
        <ele>96.1136</ele>
        <time>2022-12-13T17:44:59.915Z</time>
      </trkpt>
      <trkpt lat="47.96112" lon="-2.54042">
        <ele>95.733861</ele>
        <time>2022-12-13T17:45:49.911Z</time>
      </trkpt>
      <trkpt lat="47.96117" lon="-2.54056">
        <ele>95.481196</ele>
        <time>2022-12-13T17:45:53.922Z</time>
      </trkpt>
      <trkpt lat="47.96121" lon="-2.54071">
        <ele>95.206605</ele>
        <time>2022-12-13T17:45:57.922Z</time>
      </trkpt>
      <trkpt lat="47.96124" lon="-2.54084">
        <ele>94.969181</ele>
        <time>2022-12-13T17:46:01.911Z</time>
      </trkpt>
      <trkpt lat="47.96128" lon="-2.541">
        <ele>94.699165</ele>
        <time>2022-12-13T17:46:06.928Z</time>
      </trkpt>
      <trkpt lat="47.9613" lon="-2.54116">
        <ele>94.510361</ele>
        <time>2022-12-13T17:46:10.918Z</time>
      </trkpt>
      <trkpt lat="47.96131" lon="-2.5413">
        <ele>94.855436</ele>
        <time>2022-12-13T17:46:13.907Z</time>
      </trkpt>
      <trkpt lat="47.96131" lon="-2.54144">
        <ele>95.209783</ele>
        <time>2022-12-13T17:46:16.916Z</time>
      </trkpt>
      <trkpt lat="47.96131" lon="-2.54158">
        <ele>95.549209</ele>
        <time>2022-12-13T17:46:19.910Z</time>
      </trkpt>
      <trkpt lat="47.9613" lon="-2.54172">
        <ele>95.901701</ele>
        <time>2022-12-13T17:46:23.908Z</time>
      </trkpt>
      <trkpt lat="47.9613" lon="-2.54186">
        <ele>96.246558</ele>
        <time>2022-12-13T17:46:28.920Z</time>
      </trkpt>
      <trkpt lat="47.9613" lon="-2.54199">
        <ele>96.58152</ele>
        <time>2022-12-13T17:46:33.910Z</time>
      </trkpt>
      <trkpt lat="47.96127" lon="-2.54214">
        <ele>96.96562</ele>
        <time>2022-12-13T17:46:38.918Z</time>
      </trkpt>
      <trkpt lat="47.96123" lon="-2.54227">
        <ele>97.32386</ele>
        <time>2022-12-13T17:46:43.925Z</time>
      </trkpt>
      <trkpt lat="47.96116" lon="-2.54236">
        <ele>97.657958</ele>
        <time>2022-12-13T17:46:51.901Z</time>
      </trkpt>
      <trkpt lat="47.96105" lon="-2.54259">
        <ele>98.365118</ele>
        <time>2022-12-13T17:47:19.905Z</time>
      </trkpt>
      <trkpt lat="47.96101" lon="-2.54271">
        <ele>98.708239</ele>
        <time>2022-12-13T17:47:23.909Z</time>
      </trkpt>
      <trkpt lat="47.96096" lon="-2.54286">
        <ele>99.120598</ele>
        <time>2022-12-13T17:47:28.922Z</time>
      </trkpt>
      <trkpt lat="47.96092" lon="-2.54299">
        <ele>99.476934</ele>
        <time>2022-12-13T17:47:32.910Z</time>
      </trkpt>
      <trkpt lat="47.96087" lon="-2.54314">
        <ele>99.891625</ele>
        <time>2022-12-13T17:47:37.929Z</time>
      </trkpt>
      <trkpt lat="47.96081" lon="-2.54326">
        <ele>100.249904</ele>
        <time>2022-12-13T17:47:41.899Z</time>
      </trkpt>
      <trkpt lat="47.96076" lon="-2.54339">
        <ele>100.612755</ele>
        <time>2022-12-13T17:47:45.927Z</time>
      </trkpt>
      <trkpt lat="47.9607" lon="-2.54351">
        <ele>100.993776</ele>
        <time>2022-12-13T17:47:49.909Z</time>
      </trkpt>
      <trkpt lat="47.96065" lon="-2.54363">
        <ele>101.122854</ele>
        <time>2022-12-13T17:47:53.908Z</time>
      </trkpt>
      <trkpt lat="47.9606" lon="-2.54378">
        <ele>101.141709</ele>
        <time>2022-12-13T17:47:58.931Z</time>
      </trkpt>
      <trkpt lat="47.96055" lon="-2.54391">
        <ele>101.159517</ele>
        <time>2022-12-13T17:48:02.921Z</time>
      </trkpt>
      <trkpt lat="47.96048" lon="-2.54405">
        <ele>101.178907</ele>
        <time>2022-12-13T17:48:06.923Z</time>
      </trkpt>
      <trkpt lat="47.96042" lon="-2.54417">
        <ele>101.195047</ele>
        <time>2022-12-13T17:48:09.899Z</time>
      </trkpt>
      <trkpt lat="47.96037" lon="-2.54429">
        <ele>101.212706</ele>
        <time>2022-12-13T17:48:12.921Z</time>
      </trkpt>
      <trkpt lat="47.96031" lon="-2.54443">
        <ele>101.231695</ele>
        <time>2022-12-13T17:48:15.937Z</time>
      </trkpt>
      <trkpt lat="47.96024" lon="-2.54456">
        <ele>101.250346</ele>
        <time>2022-12-13T17:48:18.930Z</time>
      </trkpt>
      <trkpt lat="47.96017" lon="-2.54467">
        <ele>101.267317</ele>
        <time>2022-12-13T17:48:21.929Z</time>
      </trkpt>
      <trkpt lat="47.96011" lon="-2.54478">
        <ele>101.283064</ele>
        <time>2022-12-13T17:48:24.922Z</time>
      </trkpt>
      <trkpt lat="47.96003" lon="-2.54488">
        <ele>101.300806</ele>
        <time>2022-12-13T17:48:27.909Z</time>
      </trkpt>
      <trkpt lat="47.95994" lon="-2.54498">
        <ele>101.320833</ele>
        <time>2022-12-13T17:48:30.906Z</time>
      </trkpt>
      <trkpt lat="47.95983" lon="-2.54509">
        <ele>101.34257</ele>
        <time>2022-12-13T17:48:33.902Z</time>
      </trkpt>
      <trkpt lat="47.95972" lon="-2.54519">
        <ele>101.364423</ele>
        <time>2022-12-13T17:48:36.908Z</time>
      </trkpt>
      <trkpt lat="47.95961" lon="-2.54529">
        <ele>101.386716</ele>
        <time>2022-12-13T17:48:39.898Z</time>
      </trkpt>
      <trkpt lat="47.95954" lon="-2.54536">
        <ele>101.402071</ele>
        <time>2022-12-13T17:48:41.914Z</time>
      </trkpt>
      <trkpt lat="47.95943" lon="-2.54546">
        <ele>101.509317</ele>
        <time>2022-12-13T17:48:44.917Z</time>
      </trkpt>
      <trkpt lat="47.95934" lon="-2.54554">
        <ele>101.848353</ele>
        <time>2022-12-13T17:48:47.912Z</time>
      </trkpt>
      <trkpt lat="47.9593" lon="-2.54567">
        <ele>102.187386</ele>
        <time>2022-12-13T17:48:51.924Z</time>
      </trkpt>
      <trkpt lat="47.95924" lon="-2.54578">
        <ele>102.491687</ele>
        <time>2022-12-13T17:48:55.922Z</time>
      </trkpt>
      <trkpt lat="47.95916" lon="-2.54583">
        <ele>102.79977</ele>
        <time>2022-12-13T17:48:58.897Z</time>
      </trkpt>
      <trkpt lat="47.95906" lon="-2.54586">
        <ele>103.140719</ele>
        <time>2022-12-13T17:49:01.917Z</time>
      </trkpt>
      <trkpt lat="47.95895" lon="-2.5459">
        <ele>103.503317</ele>
        <time>2022-12-13T17:49:04.917Z</time>
      </trkpt>
      <trkpt lat="47.95885" lon="-2.54595">
        <ele>103.871023</ele>
        <time>2022-12-13T17:49:07.913Z</time>
      </trkpt>
      <trkpt lat="47.95875" lon="-2.54602">
        <ele>104.230752</ele>
        <time>2022-12-13T17:49:10.922Z</time>
      </trkpt>
      <trkpt lat="47.95867" lon="-2.54607">
        <ele>104.538974</ele>
        <time>2022-12-13T17:49:13.922Z</time>
      </trkpt>
      <trkpt lat="47.95856" lon="-2.54614">
        <ele>104.919904</ele>
        <time>2022-12-13T17:49:17.914Z</time>
      </trkpt>
      <trkpt lat="47.95847" lon="-2.54619">
        <ele>105.248399</ele>
        <time>2022-12-13T17:49:20.900Z</time>
      </trkpt>
      <trkpt lat="47.95837" lon="-2.54625">
        <ele>105.605074</ele>
        <time>2022-12-13T17:49:23.916Z</time>
      </trkpt>
      <trkpt lat="47.95827" lon="-2.5463">
        <ele>105.977409</ele>
        <time>2022-12-13T17:49:26.912Z</time>
      </trkpt>
      <trkpt lat="47.95816" lon="-2.54637">
        <ele>106.3538</ele>
        <time>2022-12-13T17:49:29.916Z</time>
      </trkpt>
      <trkpt lat="47.95806" lon="-2.54644">
        <ele>106.740727</ele>
        <time>2022-12-13T17:49:32.915Z</time>
      </trkpt>
      <trkpt lat="47.95795" lon="-2.5465">
        <ele>107.126311</ele>
        <time>2022-12-13T17:49:35.908Z</time>
      </trkpt>
      <trkpt lat="47.95785" lon="-2.54655">
        <ele>107.468574</ele>
        <time>2022-12-13T17:49:38.901Z</time>
      </trkpt>
      <trkpt lat="47.95775" lon="-2.54658">
        <ele>107.658792</ele>
        <time>2022-12-13T17:49:41.909Z</time>
      </trkpt>
      <trkpt lat="47.95766" lon="-2.5466">
        <ele>107.844494</ele>
        <time>2022-12-13T17:49:44.924Z</time>
      </trkpt>
      <trkpt lat="47.95755" lon="-2.54663">
        <ele>108.070012</ele>
        <time>2022-12-13T17:49:48.922Z</time>
      </trkpt>
      <trkpt lat="47.95745" lon="-2.54664">
        <ele>108.280841</ele>
        <time>2022-12-13T17:49:52.916Z</time>
      </trkpt>
      <trkpt lat="47.95733" lon="-2.54664">
        <ele>108.521717</ele>
        <time>2022-12-13T17:49:56.915Z</time>
      </trkpt>
      <trkpt lat="47.95721" lon="-2.54665">
        <ele>108.756859</ele>
        <time>2022-12-13T17:50:00.915Z</time>
      </trkpt>
      <trkpt lat="47.95711" lon="-2.54665">
        <ele>108.971298</ele>
        <time>2022-12-13T17:50:04.915Z</time>
      </trkpt>
      <trkpt lat="47.95699" lon="-2.54667">
        <ele>109.207685</ele>
        <time>2022-12-13T17:50:08.931Z</time>
      </trkpt>
      <trkpt lat="47.95689" lon="-2.54672">
        <ele>109.417037</ele>
        <time>2022-12-13T17:50:12.920Z</time>
      </trkpt>
      <trkpt lat="47.95679" lon="-2.54679">
        <ele>109.643451</ele>
        <time>2022-12-13T17:50:16.898Z</time>
      </trkpt>
      <trkpt lat="47.95669" lon="-2.54688">
        <ele>109.876232</ele>
        <time>2022-12-13T17:50:20.920Z</time>
      </trkpt>
      <trkpt lat="47.9566" lon="-2.54697">
        <ele>110.108472</ele>
        <time>2022-12-13T17:50:24.914Z</time>
      </trkpt>
      <trkpt lat="47.9565" lon="-2.54706">
        <ele>110.342948</ele>
        <time>2022-12-13T17:50:28.898Z</time>
      </trkpt>
      <trkpt lat="47.95642" lon="-2.54717">
        <ele>110.558421</ele>
        <time>2022-12-13T17:50:33.916Z</time>
      </trkpt>
      <trkpt lat="47.95634" lon="-2.54727">
        <ele>110.772696</ele>
        <time>2022-12-13T17:50:39.909Z</time>
      </trkpt>
      <trkpt lat="47.95626" lon="-2.54735">
        <ele>110.964292</ele>
        <time>2022-12-13T17:50:44.914Z</time>
      </trkpt>
      <trkpt lat="47.95618" lon="-2.54741">
        <ele>111.080565</ele>
        <time>2022-12-13T17:50:52.900Z</time>
      </trkpt>
      <trkpt lat="47.95611" lon="-2.54751">
        <ele>111.092015</ele>
        <time>2022-12-13T17:51:12.899Z</time>
      </trkpt>
      <trkpt lat="47.95603" lon="-2.5476">
        <ele>111.104805</ele>
        <time>2022-12-13T17:51:22.903Z</time>
      </trkpt>
      <trkpt lat="47.95592" lon="-2.54763">
        <ele>111.118465</ele>
        <time>2022-12-13T17:51:28.908Z</time>
      </trkpt>
      <trkpt lat="47.95583" lon="-2.54764">
        <ele>111.130011</ele>
        <time>2022-12-13T17:51:32.906Z</time>
      </trkpt>
      <trkpt lat="47.95573" lon="-2.54765">
        <ele>111.142047</ele>
        <time>2022-12-13T17:51:37.902Z</time>
      </trkpt>
      <trkpt lat="47.95564" lon="-2.54766">
        <ele>111.153357</ele>
        <time>2022-12-13T17:51:41.911Z</time>
      </trkpt>
      <trkpt lat="47.95555" lon="-2.54767">
        <ele>111.165541</ele>
        <time>2022-12-13T17:51:45.917Z</time>
      </trkpt>
      <trkpt lat="47.95544" lon="-2.54763">
        <ele>111.178963</ele>
        <time>2022-12-13T17:51:49.919Z</time>
      </trkpt>
      <trkpt lat="47.95535" lon="-2.54758">
        <ele>111.191043</ele>
        <time>2022-12-13T17:51:53.916Z</time>
      </trkpt>
      <trkpt lat="47.95525" lon="-2.54759">
        <ele>111.204321</ele>
        <time>2022-12-13T17:51:57.926Z</time>
      </trkpt>
      <trkpt lat="47.95514" lon="-2.54758">
        <ele>111.216997</ele>
        <time>2022-12-13T17:52:01.902Z</time>
      </trkpt>
      <trkpt lat="47.95503" lon="-2.54757">
        <ele>111.230904</ele>
        <time>2022-12-13T17:52:06.922Z</time>
      </trkpt>
      <trkpt lat="47.95494" lon="-2.54756">
        <ele>111.242339</ele>
        <time>2022-12-13T17:52:10.898Z</time>
      </trkpt>
      <trkpt lat="47.95485" lon="-2.54755">
        <ele>111.253991</ele>
        <time>2022-12-13T17:52:14.925Z</time>
      </trkpt>
      <trkpt lat="47.95475" lon="-2.54755">
        <ele>111.265888</ele>
        <time>2022-12-13T17:52:18.919Z</time>
      </trkpt>
      <trkpt lat="47.95466" lon="-2.54754">
        <ele>111.278053</ele>
        <time>2022-12-13T17:52:22.900Z</time>
      </trkpt>
      <trkpt lat="47.95456" lon="-2.54753">
        <ele>111.289834</ele>
        <time>2022-12-13T17:52:26.916Z</time>
      </trkpt>
      <trkpt lat="47.95447" lon="-2.54757">
        <ele>111.25319</ele>
        <time>2022-12-13T17:52:30.926Z</time>
      </trkpt>
      <trkpt lat="47.95436" lon="-2.54757">
        <ele>110.54455</ele>
        <time>2022-12-13T17:52:34.897Z</time>
      </trkpt>
      <trkpt lat="47.95425" lon="-2.54756">
        <ele>109.879633</ele>
        <time>2022-12-13T17:52:38.910Z</time>
      </trkpt>
      <trkpt lat="47.95416" lon="-2.54754">
        <ele>109.297287</ele>
        <time>2022-12-13T17:52:41.900Z</time>
      </trkpt>
      <trkpt lat="47.95406" lon="-2.54754">
        <ele>108.677446</ele>
        <time>2022-12-13T17:52:45.919Z</time>
      </trkpt>
      <trkpt lat="47.95399" lon="-2.54763">
        <ele>108.061617</ele>
        <time>2022-12-13T17:52:49.904Z</time>
      </trkpt>
      <trkpt lat="47.95388" lon="-2.54765">
        <ele>107.394732</ele>
        <time>2022-12-13T17:52:54.910Z</time>
      </trkpt>
      <trkpt lat="47.95379" lon="-2.54764">
        <ele>106.797296</ele>
        <time>2022-12-13T17:52:58.897Z</time>
      </trkpt>
      <trkpt lat="47.95369" lon="-2.54764">
        <ele>106.190029</ele>
        <time>2022-12-13T17:53:02.898Z</time>
      </trkpt>
      <trkpt lat="47.95359" lon="-2.54766">
        <ele>105.547687</ele>
        <time>2022-12-13T17:53:07.904Z</time>
      </trkpt>
      <trkpt lat="47.95356" lon="-2.54781">
        <ele>104.867707</ele>
        <time>2022-12-13T17:53:12.898Z</time>
      </trkpt>
      <trkpt lat="47.95349" lon="-2.5479">
        <ele>104.269414</ele>
        <time>2022-12-13T17:53:16.902Z</time>
      </trkpt>
      <trkpt lat="47.9534" lon="-2.54792">
        <ele>103.691273</ele>
        <time>2022-12-13T17:53:20.916Z</time>
      </trkpt>
      <trkpt lat="47.95331" lon="-2.54793">
        <ele>103.106422</ele>
        <time>2022-12-13T17:53:28.901Z</time>
      </trkpt>
      <trkpt lat="47.95327" lon="-2.5478">
        <ele>102.519238</ele>
        <time>2022-12-13T17:54:03.900Z</time>
      </trkpt>
      <trkpt lat="47.95327" lon="-2.54765">
        <ele>101.896473</ele>
        <time>2022-12-13T17:54:07.919Z</time>
      </trkpt>
      <trkpt lat="47.95322" lon="-2.54751">
        <ele>101.196064</ele>
        <time>2022-12-13T17:54:11.923Z</time>
      </trkpt>
      <trkpt lat="47.9532" lon="-2.54735">
        <ele>100.510823</ele>
        <time>2022-12-13T17:54:15.918Z</time>
      </trkpt>
      <trkpt lat="47.9532" lon="-2.54718">
        <ele>99.835497</ele>
        <time>2022-12-13T17:54:19.916Z</time>
      </trkpt>
      <trkpt lat="47.95321" lon="-2.54704">
        <ele>99.318216</ele>
        <time>2022-12-13T17:54:22.924Z</time>
      </trkpt>
      <trkpt lat="47.95318" lon="-2.5469">
        <ele>98.81409</ele>
        <time>2022-12-13T17:54:25.915Z</time>
      </trkpt>
      <trkpt lat="47.95317" lon="-2.54675">
        <ele>98.295562</ele>
        <time>2022-12-13T17:54:28.905Z</time>
      </trkpt>
      <trkpt lat="47.95315" lon="-2.5466">
        <ele>97.784199</ele>
        <time>2022-12-13T17:54:31.899Z</time>
      </trkpt>
      <trkpt lat="47.95313" lon="-2.54646">
        <ele>97.276696</ele>
        <time>2022-12-13T17:54:34.926Z</time>
      </trkpt>
      <trkpt lat="47.95311" lon="-2.54633">
        <ele>96.808744</ele>
        <time>2022-12-13T17:54:37.900Z</time>
      </trkpt>
      <trkpt lat="47.9531" lon="-2.54617">
        <ele>96.236462</ele>
        <time>2022-12-13T17:54:41.898Z</time>
      </trkpt>
      <trkpt lat="47.95309" lon="-2.54601">
        <ele>95.700262</ele>
        <time>2022-12-13T17:54:45.930Z</time>
      </trkpt>
      <trkpt lat="47.95306" lon="-2.54584">
        <ele>95.092915</ele>
        <time>2022-12-13T17:54:49.913Z</time>
      </trkpt>
      <trkpt lat="47.95301" lon="-2.54567">
        <ele>94.448209</ele>
        <time>2022-12-13T17:54:52.896Z</time>
      </trkpt>
      <trkpt lat="47.95298" lon="-2.54553">
        <ele>93.918908</ele>
        <time>2022-12-13T17:54:54.920Z</time>
      </trkpt>
      <trkpt lat="47.95294" lon="-2.54538">
        <ele>93.390018</ele>
        <time>2022-12-13T17:54:56.925Z</time>
      </trkpt>
      <trkpt lat="47.9529" lon="-2.54521">
        <ele>92.744243</ele>
        <time>2022-12-13T17:54:59.928Z</time>
      </trkpt>
      <trkpt lat="47.95286" lon="-2.54506">
        <ele>92.178798</ele>
        <time>2022-12-13T17:55:02.911Z</time>
      </trkpt>
      <trkpt lat="47.95282" lon="-2.54492">
        <ele>91.651844</ele>
        <time>2022-12-13T17:55:05.908Z</time>
      </trkpt>
      <trkpt lat="47.95271" lon="-2.54488">
        <ele>91.088023</ele>
        <time>2022-12-13T17:55:10.924Z</time>
      </trkpt>
      <trkpt lat="47.95262" lon="-2.54493">
        <ele>90.560301</ele>
        <time>2022-12-13T17:55:14.914Z</time>
      </trkpt>
      <trkpt lat="47.95252" lon="-2.54498">
        <ele>89.940195</ele>
        <time>2022-12-13T17:55:17.898Z</time>
      </trkpt>
      <trkpt lat="47.95243" lon="-2.54503">
        <ele>89.291344</ele>
        <time>2022-12-13T17:55:20.909Z</time>
      </trkpt>
      <trkpt lat="47.95233" lon="-2.54509">
        <ele>88.648567</ele>
        <time>2022-12-13T17:55:23.912Z</time>
      </trkpt>
      <trkpt lat="47.95223" lon="-2.54513">
        <ele>87.993711</ele>
        <time>2022-12-13T17:55:26.918Z</time>
      </trkpt>
      <trkpt lat="47.95213" lon="-2.54519">
        <ele>87.324851</ele>
        <time>2022-12-13T17:55:29.901Z</time>
      </trkpt>
      <trkpt lat="47.95202" lon="-2.54525">
        <ele>86.533456</ele>
        <time>2022-12-13T17:55:32.897Z</time>
      </trkpt>
      <trkpt lat="47.9519" lon="-2.54532">
        <ele>85.736136</ele>
        <time>2022-12-13T17:55:35.898Z</time>
      </trkpt>
      <trkpt lat="47.95179" lon="-2.54538">
        <ele>84.986922</ele>
        <time>2022-12-13T17:55:38.905Z</time>
      </trkpt>
      <trkpt lat="47.95168" lon="-2.54542">
        <ele>84.311587</ele>
        <time>2022-12-13T17:55:41.898Z</time>
      </trkpt>
      <trkpt lat="47.95158" lon="-2.54546">
        <ele>83.636654</ele>
        <time>2022-12-13T17:55:44.899Z</time>
      </trkpt>
      <trkpt lat="47.95147" lon="-2.54552">
        <ele>82.936827</ele>
        <time>2022-12-13T17:55:48.915Z</time>
      </trkpt>
      <trkpt lat="47.95139" lon="-2.54558">
        <ele>82.327285</ele>
        <time>2022-12-13T17:55:52.904Z</time>
      </trkpt>
      <trkpt lat="47.95132" lon="-2.54567">
        <ele>81.75129</ele>
        <time>2022-12-13T17:55:56.929Z</time>
      </trkpt>
      <trkpt lat="47.95125" lon="-2.54581">
        <ele>81.02847</ele>
        <time>2022-12-13T17:56:00.928Z</time>
      </trkpt>
      <trkpt lat="47.95122" lon="-2.54594">
        <ele>80.45592</ele>
        <time>2022-12-13T17:56:03.899Z</time>
      </trkpt>
      <trkpt lat="47.95108" lon="-2.54593">
        <ele>79.567005</ele>
        <time>2022-12-13T17:56:47.933Z</time>
      </trkpt>
      <trkpt lat="47.95099" lon="-2.54587">
        <ele>79.116106</ele>
        <time>2022-12-13T17:56:54.906Z</time>
      </trkpt>
      <trkpt lat="47.95092" lon="-2.54578">
        <ele>78.842038</ele>
        <time>2022-12-13T17:57:00.900Z</time>
      </trkpt>
      <trkpt lat="47.95084" lon="-2.54569">
        <ele>78.529512</ele>
        <time>2022-12-13T17:57:04.931Z</time>
      </trkpt>
      <trkpt lat="47.95077" lon="-2.5456">
        <ele>78.255197</ele>
        <time>2022-12-13T17:57:07.929Z</time>
      </trkpt>
      <trkpt lat="47.95069" lon="-2.54551">
        <ele>77.965731</ele>
        <time>2022-12-13T17:57:10.928Z</time>
      </trkpt>
      <trkpt lat="47.9506" lon="-2.54541">
        <ele>77.624574</ele>
        <time>2022-12-13T17:57:14.950Z</time>
      </trkpt>
      <trkpt lat="47.95052" lon="-2.54532">
        <ele>77.326469</ele>
        <time>2022-12-13T17:57:18.928Z</time>
      </trkpt>
      <trkpt lat="47.95043" lon="-2.54524">
        <ele>77.006153</ele>
        <time>2022-12-13T17:57:23.904Z</time>
      </trkpt>
      <trkpt lat="47.95028" lon="-2.54509">
        <ele>76.460232</ele>
        <time>2022-12-13T17:59:12.922Z</time>
      </trkpt>
      <trkpt lat="47.9502" lon="-2.545">
        <ele>76.160772</ele>
        <time>2022-12-13T17:59:16.924Z</time>
      </trkpt>
      <trkpt lat="47.95011" lon="-2.5449">
        <ele>75.835123</ele>
        <time>2022-12-13T17:59:20.928Z</time>
      </trkpt>
      <trkpt lat="47.95005" lon="-2.5448">
        <ele>75.549709</ele>
        <time>2022-12-13T17:59:23.927Z</time>
      </trkpt>
      <trkpt lat="47.94998" lon="-2.54471">
        <ele>75.27995</ele>
        <time>2022-12-13T17:59:26.930Z</time>
      </trkpt>
      <trkpt lat="47.9499" lon="-2.54463">
        <ele>74.995258</ele>
        <time>2022-12-13T17:59:29.913Z</time>
      </trkpt>
      <trkpt lat="47.94982" lon="-2.54453">
        <ele>74.668136</ele>
        <time>2022-12-13T17:59:32.913Z</time>
      </trkpt>
      <trkpt lat="47.94972" lon="-2.54442">
        <ele>74.295793</ele>
        <time>2022-12-13T17:59:35.928Z</time>
      </trkpt>
      <trkpt lat="47.94962" lon="-2.5443">
        <ele>73.919778</ele>
        <time>2022-12-13T17:59:38.932Z</time>
      </trkpt>
      <trkpt lat="47.94952" lon="-2.54419">
        <ele>73.919552</ele>
        <time>2022-12-13T17:59:41.903Z</time>
      </trkpt>
      <trkpt lat="47.94942" lon="-2.54408">
        <ele>73.983462</ele>
        <time>2022-12-13T17:59:44.923Z</time>
      </trkpt>
      <trkpt lat="47.94931" lon="-2.54397">
        <ele>74.047282</ele>
        <time>2022-12-13T17:59:47.923Z</time>
      </trkpt>
      <trkpt lat="47.94922" lon="-2.54387">
        <ele>74.108</ele>
        <time>2022-12-13T17:59:50.901Z</time>
      </trkpt>
      <trkpt lat="47.94912" lon="-2.54379">
        <ele>74.166454</ele>
        <time>2022-12-13T17:59:53.918Z</time>
      </trkpt>
      <trkpt lat="47.94902" lon="-2.54372">
        <ele>74.218303</ele>
        <time>2022-12-13T17:59:56.929Z</time>
      </trkpt>
      <trkpt lat="47.94892" lon="-2.54365">
        <ele>74.27751</ele>
        <time>2022-12-13T17:59:59.906Z</time>
      </trkpt>
      <trkpt lat="47.9488" lon="-2.54358">
        <ele>74.343202</ele>
        <time>2022-12-13T18:00:02.929Z</time>
      </trkpt>
      <trkpt lat="47.94869" lon="-2.5435">
        <ele>74.404078</ele>
        <time>2022-12-13T18:00:05.925Z</time>
      </trkpt>
      <trkpt lat="47.94859" lon="-2.54343">
        <ele>74.460926</ele>
        <time>2022-12-13T18:00:08.929Z</time>
      </trkpt>
      <trkpt lat="47.94849" lon="-2.54337">
        <ele>74.513282</ele>
        <time>2022-12-13T18:00:11.923Z</time>
      </trkpt>
      <trkpt lat="47.94839" lon="-2.5433">
        <ele>74.571558</ele>
        <time>2022-12-13T18:00:14.940Z</time>
      </trkpt>
      <trkpt lat="47.94828" lon="-2.54322">
        <ele>74.63134</ele>
        <time>2022-12-13T18:00:17.925Z</time>
      </trkpt>
      <trkpt lat="47.94816" lon="-2.54314">
        <ele>74.700371</ele>
        <time>2022-12-13T18:00:20.923Z</time>
      </trkpt>
      <trkpt lat="47.94805" lon="-2.54305">
        <ele>74.766015</ele>
        <time>2022-12-13T18:00:23.932Z</time>
      </trkpt>
      <trkpt lat="47.94793" lon="-2.54297">
        <ele>74.716205</ele>
        <time>2022-12-13T18:00:26.928Z</time>
      </trkpt>
      <trkpt lat="47.94782" lon="-2.54289">
        <ele>74.632474</ele>
        <time>2022-12-13T18:00:29.909Z</time>
      </trkpt>
      <trkpt lat="47.94771" lon="-2.54282">
        <ele>74.55267</ele>
        <time>2022-12-13T18:00:32.910Z</time>
      </trkpt>
      <trkpt lat="47.9476" lon="-2.54276">
        <ele>74.476278</ele>
        <time>2022-12-13T18:00:35.900Z</time>
      </trkpt>
      <trkpt lat="47.94748" lon="-2.54271">
        <ele>74.394735</ele>
        <time>2022-12-13T18:00:38.904Z</time>
      </trkpt>
      <trkpt lat="47.94738" lon="-2.54264">
        <ele>74.322161</ele>
        <time>2022-12-13T18:00:41.901Z</time>
      </trkpt>
      <trkpt lat="47.94729" lon="-2.54257">
        <ele>74.257584</ele>
        <time>2022-12-13T18:00:44.928Z</time>
      </trkpt>
      <trkpt lat="47.94721" lon="-2.54251">
        <ele>74.193626</ele>
        <time>2022-12-13T18:00:47.905Z</time>
      </trkpt>
      <trkpt lat="47.94711" lon="-2.54243">
        <ele>74.124293</ele>
        <time>2022-12-13T18:00:50.902Z</time>
      </trkpt>
      <trkpt lat="47.94703" lon="-2.54237">
        <ele>74.058563</ele>
        <time>2022-12-13T18:00:53.906Z</time>
      </trkpt>
      <trkpt lat="47.94693" lon="-2.5423">
        <ele>73.990661</ele>
        <time>2022-12-13T18:00:56.923Z</time>
      </trkpt>
      <trkpt lat="47.94686" lon="-2.54223">
        <ele>73.930691</ele>
        <time>2022-12-13T18:00:58.924Z</time>
      </trkpt>
      <trkpt lat="47.94677" lon="-2.54215">
        <ele>73.862204</ele>
        <time>2022-12-13T18:01:01.911Z</time>
      </trkpt>
      <trkpt lat="47.94666" lon="-2.54208">
        <ele>73.786802</ele>
        <time>2022-12-13T18:01:04.928Z</time>
      </trkpt>
      <trkpt lat="47.94656" lon="-2.54201">
        <ele>73.710664</ele>
        <time>2022-12-13T18:01:07.928Z</time>
      </trkpt>
      <trkpt lat="47.94647" lon="-2.54194">
        <ele>73.646906</ele>
        <time>2022-12-13T18:01:09.922Z</time>
      </trkpt>
      <trkpt lat="47.94635" lon="-2.54184">
        <ele>73.684953</ele>
        <time>2022-12-13T18:01:12.900Z</time>
      </trkpt>
      <trkpt lat="47.94627" lon="-2.54177">
        <ele>73.850483</ele>
        <time>2022-12-13T18:01:14.899Z</time>
      </trkpt>
      <trkpt lat="47.94619" lon="-2.5417">
        <ele>74.0085</ele>
        <time>2022-12-13T18:01:16.903Z</time>
      </trkpt>
      <trkpt lat="47.94609" lon="-2.54162">
        <ele>74.192362</ele>
        <time>2022-12-13T18:01:19.899Z</time>
      </trkpt>
      <trkpt lat="47.94598" lon="-2.54152">
        <ele>74.418082</ele>
        <time>2022-12-13T18:01:22.910Z</time>
      </trkpt>
      <trkpt lat="47.94586" lon="-2.54143">
        <ele>74.645847</ele>
        <time>2022-12-13T18:01:25.902Z</time>
      </trkpt>
      <trkpt lat="47.94576" lon="-2.54134">
        <ele>74.852196</ele>
        <time>2022-12-13T18:01:28.919Z</time>
      </trkpt>
      <trkpt lat="47.94565" lon="-2.54124">
        <ele>75.072637</ele>
        <time>2022-12-13T18:01:31.928Z</time>
      </trkpt>
      <trkpt lat="47.94555" lon="-2.54116">
        <ele>75.266623</ele>
        <time>2022-12-13T18:01:34.923Z</time>
      </trkpt>
      <trkpt lat="47.94545" lon="-2.54107">
        <ele>75.465337</ele>
        <time>2022-12-13T18:01:37.919Z</time>
      </trkpt>
      <trkpt lat="47.94535" lon="-2.54097">
        <ele>75.682253</ele>
        <time>2022-12-13T18:01:40.921Z</time>
      </trkpt>
      <trkpt lat="47.94525" lon="-2.5409">
        <ele>75.865335</ele>
        <time>2022-12-13T18:01:43.917Z</time>
      </trkpt>
      <trkpt lat="47.94515" lon="-2.54084">
        <ele>76.04446</ele>
        <time>2022-12-13T18:01:46.904Z</time>
      </trkpt>
      <trkpt lat="47.94506" lon="-2.54076">
        <ele>76.225694</ele>
        <time>2022-12-13T18:01:49.905Z</time>
      </trkpt>
      <trkpt lat="47.94496" lon="-2.54069">
        <ele>76.418016</ele>
        <time>2022-12-13T18:01:52.921Z</time>
      </trkpt>
      <trkpt lat="47.94486" lon="-2.54062">
        <ele>76.601669</ele>
        <time>2022-12-13T18:01:54.922Z</time>
      </trkpt>
      <trkpt lat="47.94477" lon="-2.54055">
        <ele>76.63414</ele>
        <time>2022-12-13T18:01:56.924Z</time>
      </trkpt>
      <trkpt lat="47.94468" lon="-2.54049">
        <ele>76.559349</ele>
        <time>2022-12-13T18:01:58.924Z</time>
      </trkpt>
      <trkpt lat="47.94458" lon="-2.54042">
        <ele>76.476509</ele>
        <time>2022-12-13T18:02:01.928Z</time>
      </trkpt>
      <trkpt lat="47.94448" lon="-2.54036">
        <ele>76.396992</ele>
        <time>2022-12-13T18:02:04.911Z</time>
      </trkpt>
      <trkpt lat="47.94437" lon="-2.54029">
        <ele>76.299594</ele>
        <time>2022-12-13T18:02:07.925Z</time>
      </trkpt>
      <trkpt lat="47.94425" lon="-2.54023">
        <ele>76.207786</ele>
        <time>2022-12-13T18:02:10.907Z</time>
      </trkpt>
      <trkpt lat="47.94412" lon="-2.54018">
        <ele>76.105559</ele>
        <time>2022-12-13T18:02:13.916Z</time>
      </trkpt>
      <trkpt lat="47.94403" lon="-2.54013">
        <ele>76.026029</ele>
        <time>2022-12-13T18:02:15.915Z</time>
      </trkpt>
      <trkpt lat="47.94393" lon="-2.54009">
        <ele>75.953101</ele>
        <time>2022-12-13T18:02:17.907Z</time>
      </trkpt>
      <trkpt lat="47.94384" lon="-2.54005">
        <ele>75.877822</ele>
        <time>2022-12-13T18:02:19.921Z</time>
      </trkpt>
      <trkpt lat="47.94372" lon="-2.54001">
        <ele>75.783348</ele>
        <time>2022-12-13T18:02:22.894Z</time>
      </trkpt>
      <trkpt lat="47.94362" lon="-2.54">
        <ele>75.705848</ele>
        <time>2022-12-13T18:02:25.917Z</time>
      </trkpt>
      <trkpt lat="47.9435" lon="-2.53998">
        <ele>75.618564</ele>
        <time>2022-12-13T18:02:28.925Z</time>
      </trkpt>
      <trkpt lat="47.94339" lon="-2.53996">
        <ele>75.534657</ele>
        <time>2022-12-13T18:02:31.919Z</time>
      </trkpt>
      <trkpt lat="47.94328" lon="-2.53994">
        <ele>75.449169</ele>
        <time>2022-12-13T18:02:34.912Z</time>
      </trkpt>
      <trkpt lat="47.94316" lon="-2.53991">
        <ele>75.353775</ele>
        <time>2022-12-13T18:02:37.920Z</time>
      </trkpt>
      <trkpt lat="47.94307" lon="-2.53988">
        <ele>75.247989</ele>
        <time>2022-12-13T18:02:39.924Z</time>
      </trkpt>
      <trkpt lat="47.94295" lon="-2.53984">
        <ele>75.003689</ele>
        <time>2022-12-13T18:02:42.908Z</time>
      </trkpt>
      <trkpt lat="47.94285" lon="-2.53979">
        <ele>74.78197</ele>
        <time>2022-12-13T18:02:44.922Z</time>
      </trkpt>
      <trkpt lat="47.94273" lon="-2.53973">
        <ele>74.525851</ele>
        <time>2022-12-13T18:02:47.925Z</time>
      </trkpt>
      <trkpt lat="47.94263" lon="-2.5397">
        <ele>74.337535</ele>
        <time>2022-12-13T18:02:49.902Z</time>
      </trkpt>
      <trkpt lat="47.94251" lon="-2.53965">
        <ele>74.08421</ele>
        <time>2022-12-13T18:02:52.920Z</time>
      </trkpt>
      <trkpt lat="47.94238" lon="-2.5396">
        <ele>73.805317</ele>
        <time>2022-12-13T18:02:55.926Z</time>
      </trkpt>
      <trkpt lat="47.94225" lon="-2.53955">
        <ele>73.544172</ele>
        <time>2022-12-13T18:02:58.917Z</time>
      </trkpt>
      <trkpt lat="47.94216" lon="-2.53951">
        <ele>73.355857</ele>
        <time>2022-12-13T18:03:00.899Z</time>
      </trkpt>
      <trkpt lat="47.94204" lon="-2.53945">
        <ele>73.103546</ele>
        <time>2022-12-13T18:03:03.900Z</time>
      </trkpt>
      <trkpt lat="47.94195" lon="-2.53941">
        <ele>72.919798</ele>
        <time>2022-12-13T18:03:05.927Z</time>
      </trkpt>
      <trkpt lat="47.94187" lon="-2.53937">
        <ele>72.739205</ele>
        <time>2022-12-13T18:03:07.921Z</time>
      </trkpt>
      <trkpt lat="47.94174" lon="-2.53932">
        <ele>72.482272</ele>
        <time>2022-12-13T18:03:10.925Z</time>
      </trkpt>
      <trkpt lat="47.94163" lon="-2.53928">
        <ele>72.25447</ele>
        <time>2022-12-13T18:03:13.905Z</time>
      </trkpt>
      <trkpt lat="47.94153" lon="-2.53923">
        <ele>72.042443</ele>
        <time>2022-12-13T18:03:16.928Z</time>
      </trkpt>
      <trkpt lat="47.94143" lon="-2.53919">
        <ele>71.833418</ele>
        <time>2022-12-13T18:03:19.926Z</time>
      </trkpt>
      <trkpt lat="47.94132" lon="-2.53914">
        <ele>71.736397</ele>
        <time>2022-12-13T18:03:22.927Z</time>
      </trkpt>
      <trkpt lat="47.94121" lon="-2.53908">
        <ele>71.801392</ele>
        <time>2022-12-13T18:03:25.921Z</time>
      </trkpt>
      <trkpt lat="47.9411" lon="-2.53903">
        <ele>71.862483</ele>
        <time>2022-12-13T18:03:28.927Z</time>
      </trkpt>
      <trkpt lat="47.94099" lon="-2.53897">
        <ele>71.923542</ele>
        <time>2022-12-13T18:03:31.927Z</time>
      </trkpt>
      <trkpt lat="47.94089" lon="-2.53892">
        <ele>71.978865</ele>
        <time>2022-12-13T18:03:34.915Z</time>
      </trkpt>
      <trkpt lat="47.94078" lon="-2.53886">
        <ele>72.041203</ele>
        <time>2022-12-13T18:03:37.929Z</time>
      </trkpt>
      <trkpt lat="47.94067" lon="-2.53881">
        <ele>72.102775</ele>
        <time>2022-12-13T18:03:40.929Z</time>
      </trkpt>
      <trkpt lat="47.94056" lon="-2.53876">
        <ele>72.168</ele>
        <time>2022-12-13T18:03:43.912Z</time>
      </trkpt>
      <trkpt lat="47.94044" lon="-2.53869">
        <ele>72.234474</ele>
        <time>2022-12-13T18:03:46.901Z</time>
      </trkpt>
      <trkpt lat="47.94032" lon="-2.53863">
        <ele>72.304341</ele>
        <time>2022-12-13T18:03:49.927Z</time>
      </trkpt>
      <trkpt lat="47.94021" lon="-2.53857">
        <ele>72.368205</ele>
        <time>2022-12-13T18:03:52.919Z</time>
      </trkpt>
      <trkpt lat="47.94009" lon="-2.53853">
        <ele>72.430417</ele>
        <time>2022-12-13T18:03:55.920Z</time>
      </trkpt>
      <trkpt lat="47.93997" lon="-2.53848">
        <ele>72.498277</ele>
        <time>2022-12-13T18:03:58.922Z</time>
      </trkpt>
      <trkpt lat="47.93986" lon="-2.53844">
        <ele>72.562474</ele>
        <time>2022-12-13T18:04:01.926Z</time>
      </trkpt>
      <trkpt lat="47.93973" lon="-2.53841">
        <ele>72.631971</ele>
        <time>2022-12-13T18:04:04.912Z</time>
      </trkpt>
      <trkpt lat="47.93961" lon="-2.53838">
        <ele>72.671024</ele>
        <time>2022-12-13T18:04:07.913Z</time>
      </trkpt>
      <trkpt lat="47.93948" lon="-2.53836">
        <ele>72.663087</ele>
        <time>2022-12-13T18:04:10.921Z</time>
      </trkpt>
      <trkpt lat="47.93936" lon="-2.53835">
        <ele>72.654929</ele>
        <time>2022-12-13T18:04:13.907Z</time>
      </trkpt>
      <trkpt lat="47.93922" lon="-2.53834">
        <ele>72.646525</ele>
        <time>2022-12-13T18:04:16.926Z</time>
      </trkpt>
      <trkpt lat="47.93909" lon="-2.53833">
        <ele>72.6383</ele>
        <time>2022-12-13T18:04:19.918Z</time>
      </trkpt>
      <trkpt lat="47.93896" lon="-2.53831">
        <ele>72.63019</ele>
        <time>2022-12-13T18:04:22.904Z</time>
      </trkpt>
      <trkpt lat="47.93883" lon="-2.53828">
        <ele>72.621553</ele>
        <time>2022-12-13T18:04:25.928Z</time>
      </trkpt>
      <trkpt lat="47.93874" lon="-2.53827">
        <ele>72.615726</ele>
        <time>2022-12-13T18:04:27.922Z</time>
      </trkpt>
      <trkpt lat="47.93864" lon="-2.53822">
        <ele>72.609132</ele>
        <time>2022-12-13T18:04:29.928Z</time>
      </trkpt>
      <trkpt lat="47.93854" lon="-2.53819">
        <ele>72.603016</ele>
        <time>2022-12-13T18:04:31.903Z</time>
      </trkpt>
      <trkpt lat="47.93845" lon="-2.53815">
        <ele>72.596919</ele>
        <time>2022-12-13T18:04:33.928Z</time>
      </trkpt>
      <trkpt lat="47.93835" lon="-2.53808">
        <ele>72.589797</ele>
        <time>2022-12-13T18:04:36.915Z</time>
      </trkpt>
      <trkpt lat="47.93824" lon="-2.538">
        <ele>72.582015</ele>
        <time>2022-12-13T18:04:39.918Z</time>
      </trkpt>
      <trkpt lat="47.93813" lon="-2.53789">
        <ele>72.57386</ele>
        <time>2022-12-13T18:04:42.920Z</time>
      </trkpt>
      <trkpt lat="47.93803" lon="-2.53778">
        <ele>72.565638</ele>
        <time>2022-12-13T18:04:45.929Z</time>
      </trkpt>
      <trkpt lat="47.93795" lon="-2.5377">
        <ele>72.561109</ele>
        <time>2022-12-13T18:04:47.924Z</time>
      </trkpt>
      <trkpt lat="47.93784" lon="-2.53759">
        <ele>72.590689</ele>
        <time>2022-12-13T18:04:50.929Z</time>
      </trkpt>
      <trkpt lat="47.93774" lon="-2.53748">
        <ele>72.618847</ele>
        <time>2022-12-13T18:04:53.911Z</time>
      </trkpt>
      <trkpt lat="47.93765" lon="-2.53738">
        <ele>72.644459</ele>
        <time>2022-12-13T18:04:56.923Z</time>
      </trkpt>
      <trkpt lat="47.93755" lon="-2.53728">
        <ele>72.671055</ele>
        <time>2022-12-13T18:04:59.925Z</time>
      </trkpt>
      <trkpt lat="47.93746" lon="-2.53718">
        <ele>72.697744</ele>
        <time>2022-12-13T18:05:02.924Z</time>
      </trkpt>
      <trkpt lat="47.93737" lon="-2.53709">
        <ele>72.7222</ele>
        <time>2022-12-13T18:05:05.909Z</time>
      </trkpt>
      <trkpt lat="47.93727" lon="-2.53699">
        <ele>72.747541</ele>
        <time>2022-12-13T18:05:08.916Z</time>
      </trkpt>
      <trkpt lat="47.93717" lon="-2.5369">
        <ele>72.774909</ele>
        <time>2022-12-13T18:05:11.923Z</time>
      </trkpt>
      <trkpt lat="47.93707" lon="-2.53678">
        <ele>72.804671</ele>
        <time>2022-12-13T18:05:14.919Z</time>
      </trkpt>
      <trkpt lat="47.93696" lon="-2.53668">
        <ele>72.833414</ele>
        <time>2022-12-13T18:05:17.927Z</time>
      </trkpt>
      <trkpt lat="47.93687" lon="-2.53658">
        <ele>72.857853</ele>
        <time>2022-12-13T18:05:20.928Z</time>
      </trkpt>
      <trkpt lat="47.93677" lon="-2.53649">
        <ele>72.885107</ele>
        <time>2022-12-13T18:05:23.930Z</time>
      </trkpt>
      <trkpt lat="47.93666" lon="-2.53638">
        <ele>72.913523</ele>
        <time>2022-12-13T18:05:26.915Z</time>
      </trkpt>
      <trkpt lat="47.93659" lon="-2.5363">
        <ele>72.933974</ele>
        <time>2022-12-13T18:05:28.926Z</time>
      </trkpt>
      <trkpt lat="47.93651" lon="-2.53623">
        <ele>72.954881</ele>
        <time>2022-12-13T18:05:30.908Z</time>
      </trkpt>
      <trkpt lat="47.93641" lon="-2.53611">
        <ele>73.056284</ele>
        <time>2022-12-13T18:05:33.923Z</time>
      </trkpt>
      <trkpt lat="47.93631" lon="-2.536">
        <ele>73.21178</ele>
        <time>2022-12-13T18:05:36.925Z</time>
      </trkpt>
      <trkpt lat="47.93622" lon="-2.5359">
        <ele>73.35012</ele>
        <time>2022-12-13T18:05:39.921Z</time>
      </trkpt>
      <trkpt lat="47.93613" lon="-2.53581">
        <ele>73.482379</ele>
        <time>2022-12-13T18:05:42.929Z</time>
      </trkpt>
      <trkpt lat="47.93605" lon="-2.53572">
        <ele>73.596243</ele>
        <time>2022-12-13T18:05:45.925Z</time>
      </trkpt>
      <trkpt lat="47.93596" lon="-2.53563">
        <ele>73.726644</ele>
        <time>2022-12-13T18:05:49.924Z</time>
      </trkpt>
      <trkpt lat="47.93588" lon="-2.53555">
        <ele>73.841271</ele>
        <time>2022-12-13T18:05:53.899Z</time>
      </trkpt>
      <trkpt lat="47.93581" lon="-2.53548">
        <ele>73.95197</ele>
        <time>2022-12-13T18:05:58.904Z</time>
      </trkpt>
      <trkpt lat="47.93571" lon="-2.53542">
        <ele>74.076194</ele>
        <time>2022-12-13T18:06:03.911Z</time>
      </trkpt>
      <trkpt lat="47.93565" lon="-2.5353">
        <ele>74.197001</ele>
        <time>2022-12-13T18:06:17.906Z</time>
      </trkpt>
      <trkpt lat="47.93556" lon="-2.53523">
        <ele>74.32476</ele>
        <time>2022-12-13T18:06:22.918Z</time>
      </trkpt>
      <trkpt lat="47.93548" lon="-2.53515">
        <ele>74.436661</ele>
        <time>2022-12-13T18:06:29.907Z</time>
      </trkpt>
      <trkpt lat="47.9354" lon="-2.53506">
        <ele>74.559232</ele>
        <time>2022-12-13T18:06:33.926Z</time>
      </trkpt>
      <trkpt lat="47.93532" lon="-2.53494">
        <ele>74.696748</ele>
        <time>2022-12-13T18:06:37.928Z</time>
      </trkpt>
      <trkpt lat="47.93527" lon="-2.53481">
        <ele>74.820543</ele>
        <time>2022-12-13T18:06:41.899Z</time>
      </trkpt>
      <trkpt lat="47.93522" lon="-2.53465">
        <ele>74.960807</ele>
        <time>2022-12-13T18:06:45.902Z</time>
      </trkpt>
      <trkpt lat="47.93518" lon="-2.5345">
        <ele>75.088848</ele>
        <time>2022-12-13T18:06:49.919Z</time>
      </trkpt>
      <trkpt lat="47.93516" lon="-2.53435">
        <ele>75.15822</ele>
        <time>2022-12-13T18:06:52.915Z</time>
      </trkpt>
      <trkpt lat="47.93513" lon="-2.53419">
        <ele>75.189793</ele>
        <time>2022-12-13T18:06:55.904Z</time>
      </trkpt>
      <trkpt lat="47.93511" lon="-2.53405">
        <ele>75.217644</ele>
        <time>2022-12-13T18:06:58.910Z</time>
      </trkpt>
      <trkpt lat="47.93508" lon="-2.53388">
        <ele>75.25027</ele>
        <time>2022-12-13T18:07:01.920Z</time>
      </trkpt>
      <trkpt lat="47.93503" lon="-2.53372">
        <ele>75.283338</ele>
        <time>2022-12-13T18:07:04.905Z</time>
      </trkpt>
      <trkpt lat="47.93498" lon="-2.53356">
        <ele>75.317551</ele>
        <time>2022-12-13T18:07:07.912Z</time>
      </trkpt>
      <trkpt lat="47.93495" lon="-2.5334">
        <ele>75.34876</ele>
        <time>2022-12-13T18:07:10.912Z</time>
      </trkpt>
      <trkpt lat="47.93491" lon="-2.53323">
        <ele>75.384408</ele>
        <time>2022-12-13T18:07:13.929Z</time>
      </trkpt>
      <trkpt lat="47.93485" lon="-2.53306">
        <ele>75.420435</ele>
        <time>2022-12-13T18:07:16.906Z</time>
      </trkpt>
      <trkpt lat="47.93479" lon="-2.53291">
        <ele>75.452572</ele>
        <time>2022-12-13T18:07:19.913Z</time>
      </trkpt>
      <trkpt lat="47.93472" lon="-2.53276">
        <ele>75.488383</ele>
        <time>2022-12-13T18:07:22.926Z</time>
      </trkpt>
      <trkpt lat="47.93463" lon="-2.53264">
        <ele>75.522301</ele>
        <time>2022-12-13T18:07:25.926Z</time>
      </trkpt>
      <trkpt lat="47.93452" lon="-2.53254">
        <ele>75.557942</ele>
        <time>2022-12-13T18:07:28.919Z</time>
      </trkpt>
      <trkpt lat="47.93441" lon="-2.53243">
        <ele>75.59545</ele>
        <time>2022-12-13T18:07:31.927Z</time>
      </trkpt>
      <trkpt lat="47.93431" lon="-2.53234">
        <ele>75.628176</ele>
        <time>2022-12-13T18:07:34.922Z</time>
      </trkpt>
      <trkpt lat="47.93423" lon="-2.53225">
        <ele>75.63874</ele>
        <time>2022-12-13T18:07:37.922Z</time>
      </trkpt>
      <trkpt lat="47.93414" lon="-2.53218">
        <ele>75.595651</ele>
        <time>2022-12-13T18:07:40.922Z</time>
      </trkpt>
      <trkpt lat="47.93405" lon="-2.53211">
        <ele>75.550454</ele>
        <time>2022-12-13T18:07:43.921Z</time>
      </trkpt>
      <trkpt lat="47.93396" lon="-2.53203">
        <ele>75.501446</ele>
        <time>2022-12-13T18:07:46.923Z</time>
      </trkpt>
      <trkpt lat="47.93386" lon="-2.53194">
        <ele>75.449969</ele>
        <time>2022-12-13T18:07:49.925Z</time>
      </trkpt>
      <trkpt lat="47.93376" lon="-2.53185">
        <ele>75.397259</ele>
        <time>2022-12-13T18:07:52.937Z</time>
      </trkpt>
      <trkpt lat="47.93367" lon="-2.53175">
        <ele>75.347002</ele>
        <time>2022-12-13T18:07:55.925Z</time>
      </trkpt>
      <trkpt lat="47.9336" lon="-2.53164">
        <ele>75.3007</ele>
        <time>2022-12-13T18:07:58.925Z</time>
      </trkpt>
      <trkpt lat="47.93354" lon="-2.53154">
        <ele>75.259757</ele>
        <time>2022-12-13T18:08:01.901Z</time>
      </trkpt>
      <trkpt lat="47.93348" lon="-2.53143">
        <ele>75.217946</ele>
        <time>2022-12-13T18:08:04.901Z</time>
      </trkpt>
      <trkpt lat="47.93342" lon="-2.5313">
        <ele>75.170389</ele>
        <time>2022-12-13T18:08:07.923Z</time>
      </trkpt>
      <trkpt lat="47.93337" lon="-2.53117">
        <ele>75.124802</ele>
        <time>2022-12-13T18:08:10.924Z</time>
      </trkpt>
      <trkpt lat="47.93332" lon="-2.53102">
        <ele>75.075164</ele>
        <time>2022-12-13T18:08:13.924Z</time>
      </trkpt>
      <trkpt lat="47.93326" lon="-2.53086">
        <ele>75.020062</ele>
        <time>2022-12-13T18:08:16.924Z</time>
      </trkpt>
      <trkpt lat="47.9332" lon="-2.53071">
        <ele>74.966908</ele>
        <time>2022-12-13T18:08:19.919Z</time>
      </trkpt>
      <trkpt lat="47.93313" lon="-2.53056">
        <ele>74.910625</ele>
        <time>2022-12-13T18:08:22.909Z</time>
      </trkpt>
      <trkpt lat="47.93307" lon="-2.5304">
        <ele>74.857867</ele>
        <time>2022-12-13T18:08:25.904Z</time>
      </trkpt>
      <trkpt lat="47.93301" lon="-2.53024">
        <ele>74.687963</ele>
        <time>2022-12-13T18:08:28.921Z</time>
      </trkpt>
      <trkpt lat="47.93294" lon="-2.53009">
        <ele>74.473684</ele>
        <time>2022-12-13T18:08:31.917Z</time>
      </trkpt>
      <trkpt lat="47.93287" lon="-2.52994">
        <ele>74.262313</ele>
        <time>2022-12-13T18:08:34.924Z</time>
      </trkpt>
      <trkpt lat="47.93281" lon="-2.52979">
        <ele>74.054823</ele>
        <time>2022-12-13T18:08:37.924Z</time>
      </trkpt>
      <trkpt lat="47.93274" lon="-2.52963">
        <ele>73.834329</ele>
        <time>2022-12-13T18:08:40.922Z</time>
      </trkpt>
      <trkpt lat="47.93268" lon="-2.52949">
        <ele>73.642322</ele>
        <time>2022-12-13T18:08:43.923Z</time>
      </trkpt>
      <trkpt lat="47.93261" lon="-2.52936">
        <ele>73.444368</ele>
        <time>2022-12-13T18:08:46.928Z</time>
      </trkpt>
      <trkpt lat="47.93254" lon="-2.52922">
        <ele>73.231865</ele>
        <time>2022-12-13T18:08:49.904Z</time>
      </trkpt>
      <trkpt lat="47.93246" lon="-2.52908">
        <ele>73.023266</ele>
        <time>2022-12-13T18:08:52.929Z</time>
      </trkpt>
      <trkpt lat="47.93236" lon="-2.52896">
        <ele>72.807337</ele>
        <time>2022-12-13T18:08:55.928Z</time>
      </trkpt>
      <trkpt lat="47.93227" lon="-2.52885">
        <ele>72.592331</ele>
        <time>2022-12-13T18:08:58.927Z</time>
      </trkpt>
      <trkpt lat="47.93218" lon="-2.52875">
        <ele>72.397542</ele>
        <time>2022-12-13T18:09:01.928Z</time>
      </trkpt>
      <trkpt lat="47.93209" lon="-2.52866">
        <ele>72.215912</ele>
        <time>2022-12-13T18:09:04.927Z</time>
      </trkpt>
      <trkpt lat="47.932" lon="-2.52858">
        <ele>72.030089</ele>
        <time>2022-12-13T18:09:07.927Z</time>
      </trkpt>
      <trkpt lat="47.9319" lon="-2.52851">
        <ele>71.837171</ele>
        <time>2022-12-13T18:09:10.922Z</time>
      </trkpt>
      <trkpt lat="47.9318" lon="-2.52843">
        <ele>71.694465</ele>
        <time>2022-12-13T18:09:13.931Z</time>
      </trkpt>
      <trkpt lat="47.93172" lon="-2.52836">
        <ele>71.657786</ele>
        <time>2022-12-13T18:09:16.926Z</time>
      </trkpt>
      <trkpt lat="47.93164" lon="-2.52831">
        <ele>71.619754</ele>
        <time>2022-12-13T18:09:19.908Z</time>
      </trkpt>
      <trkpt lat="47.93154" lon="-2.52824">
        <ele>71.575188</ele>
        <time>2022-12-13T18:09:22.930Z</time>
      </trkpt>
      <trkpt lat="47.93143" lon="-2.52815">
        <ele>71.526322</ele>
        <time>2022-12-13T18:09:25.920Z</time>
      </trkpt>
      <trkpt lat="47.93132" lon="-2.52807">
        <ele>71.476254</ele>
        <time>2022-12-13T18:09:28.934Z</time>
      </trkpt>
      <trkpt lat="47.93124" lon="-2.52796">
        <ele>71.430697</ele>
        <time>2022-12-13T18:09:31.919Z</time>
      </trkpt>
      <trkpt lat="47.93117" lon="-2.52785">
        <ele>71.388381</ele>
        <time>2022-12-13T18:09:34.925Z</time>
      </trkpt>
      <trkpt lat="47.93111" lon="-2.52773">
        <ele>71.347965</ele>
        <time>2022-12-13T18:09:37.925Z</time>
      </trkpt>
      <trkpt lat="47.93106" lon="-2.52757">
        <ele>71.300998</ele>
        <time>2022-12-13T18:09:40.917Z</time>
      </trkpt>
      <trkpt lat="47.93102" lon="-2.52742">
        <ele>71.257387</ele>
        <time>2022-12-13T18:09:43.928Z</time>
      </trkpt>
      <trkpt lat="47.93099" lon="-2.52729">
        <ele>71.219877</ele>
        <time>2022-12-13T18:09:46.933Z</time>
      </trkpt>
      <trkpt lat="47.93098" lon="-2.52713">
        <ele>71.177153</ele>
        <time>2022-12-13T18:09:49.904Z</time>
      </trkpt>
      <trkpt lat="47.93097" lon="-2.52695">
        <ele>71.126244</ele>
        <time>2022-12-13T18:09:52.927Z</time>
      </trkpt>
      <trkpt lat="47.93095" lon="-2.52675">
        <ele>71.071733</ele>
        <time>2022-12-13T18:09:55.927Z</time>
      </trkpt>
      <trkpt lat="47.93095" lon="-2.52656">
        <ele>71.019647</ele>
        <time>2022-12-13T18:09:58.908Z</time>
      </trkpt>
      <trkpt lat="47.93095" lon="-2.52638">
        <ele>71.001471</ele>
        <time>2022-12-13T18:10:01.929Z</time>
      </trkpt>
      <trkpt lat="47.93096" lon="-2.5262">
        <ele>71.167394</ele>
        <time>2022-12-13T18:10:04.928Z</time>
      </trkpt>
      <trkpt lat="47.93098" lon="-2.52603">
        <ele>71.32543</ele>
        <time>2022-12-13T18:10:07.927Z</time>
      </trkpt>
      <trkpt lat="47.93101" lon="-2.52587">
        <ele>71.474495</ele>
        <time>2022-12-13T18:10:10.927Z</time>
      </trkpt>
      <trkpt lat="47.93104" lon="-2.52571">
        <ele>71.630971</ele>
        <time>2022-12-13T18:10:13.927Z</time>
      </trkpt>
      <trkpt lat="47.93107" lon="-2.52552">
        <ele>71.80853</ele>
        <time>2022-12-13T18:10:16.928Z</time>
      </trkpt>
      <trkpt lat="47.9311" lon="-2.52534">
        <ele>71.975372</ele>
        <time>2022-12-13T18:10:19.929Z</time>
      </trkpt>
      <trkpt lat="47.93111" lon="-2.52515">
        <ele>72.149702</ele>
        <time>2022-12-13T18:10:22.927Z</time>
      </trkpt>
      <trkpt lat="47.93113" lon="-2.52497">
        <ele>72.312072</ele>
        <time>2022-12-13T18:10:25.930Z</time>
      </trkpt>
      <trkpt lat="47.93114" lon="-2.5248">
        <ele>72.473435</ele>
        <time>2022-12-13T18:10:28.933Z</time>
      </trkpt>
      <trkpt lat="47.93114" lon="-2.5246">
        <ele>72.654489</ele>
        <time>2022-12-13T18:10:31.927Z</time>
      </trkpt>
      <trkpt lat="47.93114" lon="-2.5244">
        <ele>72.832759</ele>
        <time>2022-12-13T18:10:34.927Z</time>
      </trkpt>
      <trkpt lat="47.93113" lon="-2.52421">
        <ele>73.008711</ele>
        <time>2022-12-13T18:10:37.928Z</time>
      </trkpt>
      <trkpt lat="47.93113" lon="-2.52402">
        <ele>73.18899</ele>
        <time>2022-12-13T18:10:40.927Z</time>
      </trkpt>
      <trkpt lat="47.93112" lon="-2.52382">
        <ele>73.370183</ele>
        <time>2022-12-13T18:10:43.935Z</time>
      </trkpt>
      <trkpt lat="47.9311" lon="-2.52363">
        <ele>73.317114</ele>
        <time>2022-12-13T18:10:46.933Z</time>
      </trkpt>
      <trkpt lat="47.93109" lon="-2.52345">
        <ele>73.138222</ele>
        <time>2022-12-13T18:10:49.909Z</time>
      </trkpt>
      <trkpt lat="47.93107" lon="-2.52326">
        <ele>72.954085</ele>
        <time>2022-12-13T18:10:52.903Z</time>
      </trkpt>
      <trkpt lat="47.93106" lon="-2.52308">
        <ele>72.781031</ele>
        <time>2022-12-13T18:10:55.927Z</time>
      </trkpt>
      <trkpt lat="47.93103" lon="-2.5229">
        <ele>72.604387</ele>
        <time>2022-12-13T18:10:58.912Z</time>
      </trkpt>
      <trkpt lat="47.93101" lon="-2.52271">
        <ele>72.422753</ele>
        <time>2022-12-13T18:11:01.911Z</time>
      </trkpt>
      <trkpt lat="47.931" lon="-2.52254">
        <ele>72.253286</ele>
        <time>2022-12-13T18:11:04.919Z</time>
      </trkpt>
      <trkpt lat="47.93099" lon="-2.52237">
        <ele>72.094499</ele>
        <time>2022-12-13T18:11:07.924Z</time>
      </trkpt>
      <trkpt lat="47.93099" lon="-2.52222">
        <ele>71.946249</ele>
        <time>2022-12-13T18:11:10.912Z</time>
      </trkpt>
      <trkpt lat="47.93099" lon="-2.52204">
        <ele>71.773964</ele>
        <time>2022-12-13T18:11:13.916Z</time>
      </trkpt>
      <trkpt lat="47.931" lon="-2.52186">
        <ele>71.599541</ele>
        <time>2022-12-13T18:11:16.916Z</time>
      </trkpt>
      <trkpt lat="47.93101" lon="-2.52168">
        <ele>71.427731</ele>
        <time>2022-12-13T18:11:19.930Z</time>
      </trkpt>
      <trkpt lat="47.93103" lon="-2.52151">
        <ele>71.25551</ele>
        <time>2022-12-13T18:11:22.916Z</time>
      </trkpt>
      <trkpt lat="47.93105" lon="-2.52134">
        <ele>71.091027</ele>
        <time>2022-12-13T18:11:25.927Z</time>
      </trkpt>
      <trkpt lat="47.93107" lon="-2.52116">
        <ele>70.918157</ele>
        <time>2022-12-13T18:11:28.923Z</time>
      </trkpt>
      <trkpt lat="47.9311" lon="-2.52098">
        <ele>70.958557</ele>
        <time>2022-12-13T18:11:31.924Z</time>
      </trkpt>
      <trkpt lat="47.93112" lon="-2.52079">
        <ele>71.153572</ele>
        <time>2022-12-13T18:11:34.917Z</time>
      </trkpt>
      <trkpt lat="47.93114" lon="-2.52064">
        <ele>71.302243</ele>
        <time>2022-12-13T18:11:36.914Z</time>
      </trkpt>
      <trkpt lat="47.93116" lon="-2.5205">
        <ele>71.447165</ele>
        <time>2022-12-13T18:11:38.925Z</time>
      </trkpt>
      <trkpt lat="47.93117" lon="-2.52036">
        <ele>71.580841</ele>
        <time>2022-12-13T18:11:40.927Z</time>
      </trkpt>
      <trkpt lat="47.93118" lon="-2.52021">
        <ele>71.733355</ele>
        <time>2022-12-13T18:11:42.924Z</time>
      </trkpt>
      <trkpt lat="47.93119" lon="-2.52006">
        <ele>71.880111</ele>
        <time>2022-12-13T18:11:44.924Z</time>
      </trkpt>
      <trkpt lat="47.9312" lon="-2.51992">
        <ele>72.026508</ele>
        <time>2022-12-13T18:11:46.922Z</time>
      </trkpt>
      <trkpt lat="47.93122" lon="-2.51978">
        <ele>72.163117</ele>
        <time>2022-12-13T18:11:48.930Z</time>
      </trkpt>
      <trkpt lat="47.93123" lon="-2.51958">
        <ele>72.366366</ele>
        <time>2022-12-13T18:11:51.919Z</time>
      </trkpt>
      <trkpt lat="47.93125" lon="-2.51939">
        <ele>72.558319</ele>
        <time>2022-12-13T18:11:54.906Z</time>
      </trkpt>
      <trkpt lat="47.93125" lon="-2.51922">
        <ele>72.719901</ele>
        <time>2022-12-13T18:11:57.908Z</time>
      </trkpt>
      <trkpt lat="47.93125" lon="-2.51906">
        <ele>72.879583</ele>
        <time>2022-12-13T18:12:00.920Z</time>
      </trkpt>
      <trkpt lat="47.93124" lon="-2.5189">
        <ele>73.038606</ele>
        <time>2022-12-13T18:12:03.903Z</time>
      </trkpt>
      <trkpt lat="47.93122" lon="-2.51874">
        <ele>73.198551</ele>
        <time>2022-12-13T18:12:06.917Z</time>
      </trkpt>
      <trkpt lat="47.93119" lon="-2.5186">
        <ele>73.345274</ele>
        <time>2022-12-13T18:12:09.910Z</time>
      </trkpt>
      <trkpt lat="47.93118" lon="-2.51844">
        <ele>73.50305</ele>
        <time>2022-12-13T18:12:13.928Z</time>
      </trkpt>
      <trkpt lat="47.93115" lon="-2.51829">
        <ele>73.493327</ele>
        <time>2022-12-13T18:12:18.925Z</time>
      </trkpt>
      <trkpt lat="47.93113" lon="-2.51815">
        <ele>73.479647</ele>
        <time>2022-12-13T18:12:22.909Z</time>
      </trkpt>
      <trkpt lat="47.93111" lon="-2.51798">
        <ele>73.462538</ele>
        <time>2022-12-13T18:12:27.914Z</time>
      </trkpt>
      <trkpt lat="47.93108" lon="-2.51785">
        <ele>73.448601</ele>
        <time>2022-12-13T18:12:30.938Z</time>
      </trkpt>
      <trkpt lat="47.93106" lon="-2.5177">
        <ele>73.433636</ele>
        <time>2022-12-13T18:12:33.903Z</time>
      </trkpt>
      <trkpt lat="47.93102" lon="-2.51753">
        <ele>73.415798</ele>
        <time>2022-12-13T18:12:36.912Z</time>
      </trkpt>
      <trkpt lat="47.93099" lon="-2.51735">
        <ele>73.397425</ele>
        <time>2022-12-13T18:12:39.928Z</time>
      </trkpt>
      <trkpt lat="47.93095" lon="-2.51716">
        <ele>73.377613</ele>
        <time>2022-12-13T18:12:42.915Z</time>
      </trkpt>
      <trkpt lat="47.93093" lon="-2.51695">
        <ele>73.356902</ele>
        <time>2022-12-13T18:12:45.923Z</time>
      </trkpt>
      <trkpt lat="47.93091" lon="-2.5168">
        <ele>73.34162</ele>
        <time>2022-12-13T18:12:47.927Z</time>
      </trkpt>
      <trkpt lat="47.93088" lon="-2.51662">
        <ele>73.323209</ele>
        <time>2022-12-13T18:12:50.899Z</time>
      </trkpt>
      <trkpt lat="47.93084" lon="-2.51645">
        <ele>73.30534</ele>
        <time>2022-12-13T18:12:53.924Z</time>
      </trkpt>
      <trkpt lat="47.93081" lon="-2.51631">
        <ele>73.290335</ele>
        <time>2022-12-13T18:12:56.923Z</time>
      </trkpt>
      <trkpt lat="47.93078" lon="-2.51613">
        <ele>73.272559</ele>
        <time>2022-12-13T18:12:59.914Z</time>
      </trkpt>
      <trkpt lat="47.93074" lon="-2.51597">
        <ele>73.255069</ele>
        <time>2022-12-13T18:13:02.913Z</time>
      </trkpt>
      <trkpt lat="47.9307" lon="-2.51581">
        <ele>73.126778</ele>
        <time>2022-12-13T18:13:05.924Z</time>
      </trkpt>
      <trkpt lat="47.93063" lon="-2.51565">
        <ele>72.693634</ele>
        <time>2022-12-13T18:13:08.917Z</time>
      </trkpt>
      <trkpt lat="47.93056" lon="-2.51549">
        <ele>72.235103</ele>
        <time>2022-12-13T18:13:11.912Z</time>
      </trkpt>
      <trkpt lat="47.93049" lon="-2.51534">
        <ele>71.78859</ele>
        <time>2022-12-13T18:13:14.919Z</time>
      </trkpt>
      <trkpt lat="47.93043" lon="-2.51523">
        <ele>71.453803</ele>
        <time>2022-12-13T18:13:17.925Z</time>
      </trkpt>
      <trkpt lat="47.93036" lon="-2.51509">
        <ele>71.021466</ele>
        <time>2022-12-13T18:13:21.920Z</time>
      </trkpt>
      <trkpt lat="47.9303" lon="-2.51498">
        <ele>70.675832</ele>
        <time>2022-12-13T18:13:24.920Z</time>
      </trkpt>
      <trkpt lat="47.93023" lon="-2.51486">
        <ele>70.301835</ele>
        <time>2022-12-13T18:13:27.928Z</time>
      </trkpt>
      <trkpt lat="47.93016" lon="-2.51472">
        <ele>69.876178</ele>
        <time>2022-12-13T18:13:30.905Z</time>
      </trkpt>
      <trkpt lat="47.93007" lon="-2.51457">
        <ele>69.400656</ele>
        <time>2022-12-13T18:13:33.920Z</time>
      </trkpt>
      <trkpt lat="47.92999" lon="-2.51443">
        <ele>68.959873</ele>
        <time>2022-12-13T18:13:36.926Z</time>
      </trkpt>
      <trkpt lat="47.92991" lon="-2.51429">
        <ele>68.512875</ele>
        <time>2022-12-13T18:13:39.904Z</time>
      </trkpt>
      <trkpt lat="47.92983" lon="-2.51414">
        <ele>68.058051</ele>
        <time>2022-12-13T18:13:42.929Z</time>
      </trkpt>
      <trkpt lat="47.92977" lon="-2.51403">
        <ele>67.73153</ele>
        <time>2022-12-13T18:13:44.928Z</time>
      </trkpt>
      <trkpt lat="47.92969" lon="-2.5139">
        <ele>67.293672</ele>
        <time>2022-12-13T18:13:47.913Z</time>
      </trkpt>
      <trkpt lat="47.92962" lon="-2.51376">
        <ele>66.881139</ele>
        <time>2022-12-13T18:13:50.927Z</time>
      </trkpt>
      <trkpt lat="47.92955" lon="-2.51364">
        <ele>66.832623</ele>
        <time>2022-12-13T18:13:53.915Z</time>
      </trkpt>
      <trkpt lat="47.92947" lon="-2.51349">
        <ele>66.878172</ele>
        <time>2022-12-13T18:13:56.930Z</time>
      </trkpt>
      <trkpt lat="47.92939" lon="-2.51333">
        <ele>66.925184</ele>
        <time>2022-12-13T18:13:59.916Z</time>
      </trkpt>
      <trkpt lat="47.92931" lon="-2.51319">
        <ele>66.970917</ele>
        <time>2022-12-13T18:14:02.918Z</time>
      </trkpt>
      <trkpt lat="47.92924" lon="-2.51307">
        <ele>67.010081</ele>
        <time>2022-12-13T18:14:05.929Z</time>
      </trkpt>
      <trkpt lat="47.92916" lon="-2.51295">
        <ele>67.050978</ele>
        <time>2022-12-13T18:14:09.904Z</time>
      </trkpt>
      <trkpt lat="47.92909" lon="-2.51286">
        <ele>67.084577</ele>
        <time>2022-12-13T18:14:14.926Z</time>
      </trkpt>
      <trkpt lat="47.92899" lon="-2.51277">
        <ele>67.125229</ele>
        <time>2022-12-13T18:14:19.908Z</time>
      </trkpt>
      <trkpt lat="47.92892" lon="-2.51269">
        <ele>67.160121</ele>
        <time>2022-12-13T18:14:29.928Z</time>
      </trkpt>
      <trkpt lat="47.92891" lon="-2.51254">
        <ele>67.194502</ele>
        <time>2022-12-13T18:14:38.910Z</time>
      </trkpt>
      <trkpt lat="47.92887" lon="-2.51242">
        <ele>67.228541</ele>
        <time>2022-12-13T18:14:49.905Z</time>
      </trkpt>
      <trkpt lat="47.92877" lon="-2.51219">
        <ele>67.29591</ele>
        <time>2022-12-13T18:15:38.931Z</time>
      </trkpt>
      <trkpt lat="47.92871" lon="-2.51205">
        <ele>67.335326</ele>
        <time>2022-12-13T18:15:42.932Z</time>
      </trkpt>
      <trkpt lat="47.92864" lon="-2.51193">
        <ele>67.373295</ele>
        <time>2022-12-13T18:15:46.932Z</time>
      </trkpt>
      <trkpt lat="47.92859" lon="-2.5118">
        <ele>67.410462</ele>
        <time>2022-12-13T18:15:49.915Z</time>
      </trkpt>
      <trkpt lat="47.92853" lon="-2.51167">
        <ele>67.448079</ele>
        <time>2022-12-13T18:15:52.907Z</time>
      </trkpt>
      <trkpt lat="47.92847" lon="-2.51153">
        <ele>67.649795</ele>
        <time>2022-12-13T18:15:55.910Z</time>
      </trkpt>
      <trkpt lat="47.92841" lon="-2.51138">
        <ele>67.87824</ele>
        <time>2022-12-13T18:15:58.931Z</time>
      </trkpt>
      <trkpt lat="47.92834" lon="-2.51122">
        <ele>68.120731</ele>
        <time>2022-12-13T18:16:01.925Z</time>
      </trkpt>
      <trkpt lat="47.92827" lon="-2.51107">
        <ele>68.351336</ele>
        <time>2022-12-13T18:16:04.924Z</time>
      </trkpt>
      <trkpt lat="47.92821" lon="-2.51092">
        <ele>68.575755</ele>
        <time>2022-12-13T18:16:07.927Z</time>
      </trkpt>
      <trkpt lat="47.92815" lon="-2.51077">
        <ele>68.802179</ele>
        <time>2022-12-13T18:16:10.924Z</time>
      </trkpt>
      <trkpt lat="47.92808" lon="-2.51061">
        <ele>69.043686</ele>
        <time>2022-12-13T18:16:13.925Z</time>
      </trkpt>
      <trkpt lat="47.92803" lon="-2.51045">
        <ele>69.273963</ele>
        <time>2022-12-13T18:16:16.920Z</time>
      </trkpt>
      <trkpt lat="47.92798" lon="-2.51028">
        <ele>69.504413</ele>
        <time>2022-12-13T18:16:19.925Z</time>
      </trkpt>
      <trkpt lat="47.92792" lon="-2.51011">
        <ele>69.741911</ele>
        <time>2022-12-13T18:16:22.924Z</time>
      </trkpt>
      <trkpt lat="47.92787" lon="-2.50994">
        <ele>69.982886</ele>
        <time>2022-12-13T18:16:25.929Z</time>
      </trkpt>
      <trkpt lat="47.92783" lon="-2.50977">
        <ele>70.217234</ele>
        <time>2022-12-13T18:16:28.930Z</time>
      </trkpt>
      <trkpt lat="47.92778" lon="-2.5096">
        <ele>70.455288</ele>
        <time>2022-12-13T18:16:31.926Z</time>
      </trkpt>
      <trkpt lat="47.92774" lon="-2.50943">
        <ele>70.688894</ele>
        <time>2022-12-13T18:16:34.952Z</time>
      </trkpt>
      <trkpt lat="47.9277" lon="-2.50927">
        <ele>70.882647</ele>
        <time>2022-12-13T18:16:37.924Z</time>
      </trkpt>
      <trkpt lat="47.92767" lon="-2.50913">
        <ele>70.854402</ele>
        <time>2022-12-13T18:16:40.905Z</time>
      </trkpt>
      <trkpt lat="47.92763" lon="-2.50898">
        <ele>70.823484</ele>
        <time>2022-12-13T18:16:43.911Z</time>
      </trkpt>
      <trkpt lat="47.92759" lon="-2.5088">
        <ele>70.789941</ele>
        <time>2022-12-13T18:16:46.924Z</time>
      </trkpt>
      <trkpt lat="47.92756" lon="-2.50862">
        <ele>70.754101</ele>
        <time>2022-12-13T18:16:49.932Z</time>
      </trkpt>
      <trkpt lat="47.92752" lon="-2.50844">
        <ele>70.719669</ele>
        <time>2022-12-13T18:16:52.917Z</time>
      </trkpt>
      <trkpt lat="47.9275" lon="-2.50828">
        <ele>70.68817</ele>
        <time>2022-12-13T18:16:55.920Z</time>
      </trkpt>
      <trkpt lat="47.92747" lon="-2.50811">
        <ele>70.656618</ele>
        <time>2022-12-13T18:16:58.920Z</time>
      </trkpt>
      <trkpt lat="47.92745" lon="-2.50795">
        <ele>70.624882</ele>
        <time>2022-12-13T18:17:01.932Z</time>
      </trkpt>
      <trkpt lat="47.92743" lon="-2.50776">
        <ele>70.589385</ele>
        <time>2022-12-13T18:17:04.931Z</time>
      </trkpt>
      <trkpt lat="47.92742" lon="-2.50758">
        <ele>70.556653</ele>
        <time>2022-12-13T18:17:07.930Z</time>
      </trkpt>
      <trkpt lat="47.9274" lon="-2.50741">
        <ele>70.523285</ele>
        <time>2022-12-13T18:17:10.926Z</time>
      </trkpt>
      <trkpt lat="47.92739" lon="-2.50727">
        <ele>70.498002</ele>
        <time>2022-12-13T18:17:12.928Z</time>
      </trkpt>
      <trkpt lat="47.92738" lon="-2.50713">
        <ele>70.472349</ele>
        <time>2022-12-13T18:17:14.927Z</time>
      </trkpt>
      <trkpt lat="47.92736" lon="-2.50696">
        <ele>70.440084</ele>
        <time>2022-12-13T18:17:17.925Z</time>
      </trkpt>
      <trkpt lat="47.92733" lon="-2.5068">
        <ele>70.409139</ele>
        <time>2022-12-13T18:17:20.926Z</time>
      </trkpt>
      <trkpt lat="47.92729" lon="-2.50664">
        <ele>70.382645</ele>
        <time>2022-12-13T18:17:23.926Z</time>
      </trkpt>
      <trkpt lat="47.92723" lon="-2.50648">
        <ele>70.373202</ele>
        <time>2022-12-13T18:17:26.922Z</time>
      </trkpt>
      <trkpt lat="47.92718" lon="-2.50631">
        <ele>70.363566</ele>
        <time>2022-12-13T18:17:29.928Z</time>
      </trkpt>
      <trkpt lat="47.92712" lon="-2.50613">
        <ele>70.353713</ele>
        <time>2022-12-13T18:17:32.927Z</time>
      </trkpt>
      <trkpt lat="47.92706" lon="-2.50597">
        <ele>70.343842</ele>
        <time>2022-12-13T18:17:35.926Z</time>
      </trkpt>
      <trkpt lat="47.92698" lon="-2.50581">
        <ele>70.333863</ele>
        <time>2022-12-13T18:17:38.911Z</time>
      </trkpt>
      <trkpt lat="47.92691" lon="-2.50566">
        <ele>70.324518</ele>
        <time>2022-12-13T18:17:41.902Z</time>
      </trkpt>
      <trkpt lat="47.92684" lon="-2.50552">
        <ele>70.315894</ele>
        <time>2022-12-13T18:17:44.930Z</time>
      </trkpt>
      <trkpt lat="47.92677" lon="-2.50539">
        <ele>70.306872</ele>
        <time>2022-12-13T18:17:47.930Z</time>
      </trkpt>
      <trkpt lat="47.92668" lon="-2.50526">
        <ele>70.297552</ele>
        <time>2022-12-13T18:17:50.928Z</time>
      </trkpt>
      <trkpt lat="47.92659" lon="-2.50512">
        <ele>70.287962</ele>
        <time>2022-12-13T18:17:53.904Z</time>
      </trkpt>
      <trkpt lat="47.92649" lon="-2.505">
        <ele>70.278293</ele>
        <time>2022-12-13T18:17:56.929Z</time>
      </trkpt>
      <trkpt lat="47.9264" lon="-2.50488">
        <ele>70.268493</ele>
        <time>2022-12-13T18:17:59.904Z</time>
      </trkpt>
      <trkpt lat="47.92629" lon="-2.50475">
        <ele>70.258171</ele>
        <time>2022-12-13T18:18:02.927Z</time>
      </trkpt>
      <trkpt lat="47.92621" lon="-2.50466">
        <ele>70.250651</ele>
        <time>2022-12-13T18:18:04.926Z</time>
      </trkpt>
      <trkpt lat="47.92615" lon="-2.50456">
        <ele>70.269052</ele>
        <time>2022-12-13T18:18:06.925Z</time>
      </trkpt>
      <trkpt lat="47.92609" lon="-2.50445">
        <ele>70.309109</ele>
        <time>2022-12-13T18:18:08.931Z</time>
      </trkpt>
      <trkpt lat="47.92602" lon="-2.50436">
        <ele>70.348632</ele>
        <time>2022-12-13T18:18:10.929Z</time>
      </trkpt>
      <trkpt lat="47.92595" lon="-2.50421">
        <ele>70.400225</ele>
        <time>2022-12-13T18:18:13.920Z</time>
      </trkpt>
      <trkpt lat="47.92587" lon="-2.50408">
        <ele>70.449652</ele>
        <time>2022-12-13T18:18:16.930Z</time>
      </trkpt>
      <trkpt lat="47.92579" lon="-2.50394">
        <ele>70.499012</ele>
        <time>2022-12-13T18:18:19.908Z</time>
      </trkpt>
      <trkpt lat="47.92572" lon="-2.50381">
        <ele>70.548944</ele>
        <time>2022-12-13T18:18:22.910Z</time>
      </trkpt>
      <trkpt lat="47.92563" lon="-2.50367">
        <ele>70.599477</ele>
        <time>2022-12-13T18:18:25.928Z</time>
      </trkpt>
      <trkpt lat="47.92557" lon="-2.50356">
        <ele>70.642814</ele>
        <time>2022-12-13T18:18:28.927Z</time>
      </trkpt>
      <trkpt lat="47.92549" lon="-2.50345">
        <ele>70.686573</ele>
        <time>2022-12-13T18:18:31.917Z</time>
      </trkpt>
      <trkpt lat="47.92541" lon="-2.50332">
        <ele>70.738172</ele>
        <time>2022-12-13T18:18:35.906Z</time>
      </trkpt>
      <trkpt lat="47.92534" lon="-2.50322">
        <ele>70.776203</ele>
        <time>2022-12-13T18:18:37.925Z</time>
      </trkpt>
      <trkpt lat="47.92524" lon="-2.50309">
        <ele>70.833576</ele>
        <time>2022-12-13T18:18:40.925Z</time>
      </trkpt>
      <trkpt lat="47.92514" lon="-2.50298">
        <ele>70.883782</ele>
        <time>2022-12-13T18:18:43.908Z</time>
      </trkpt>
      <trkpt lat="47.92508" lon="-2.50288">
        <ele>70.922696</ele>
        <time>2022-12-13T18:18:46.914Z</time>
      </trkpt>
      <trkpt lat="47.925" lon="-2.5028">
        <ele>70.962824</ele>
        <time>2022-12-13T18:18:49.912Z</time>
      </trkpt>
      <trkpt lat="47.92492" lon="-2.50269">
        <ele>70.981648</ele>
        <time>2022-12-13T18:18:52.924Z</time>
      </trkpt>
      <trkpt lat="47.92483" lon="-2.50258">
        <ele>70.846057</ele>
        <time>2022-12-13T18:18:55.903Z</time>
      </trkpt>
      <trkpt lat="47.92474" lon="-2.50246">
        <ele>70.702454</ele>
        <time>2022-12-13T18:18:58.929Z</time>
      </trkpt>
      <trkpt lat="47.92467" lon="-2.50234">
        <ele>70.583505</ele>
        <time>2022-12-13T18:19:01.928Z</time>
      </trkpt>
      <trkpt lat="47.92456" lon="-2.50225">
        <ele>70.437081</ele>
        <time>2022-12-13T18:19:04.926Z</time>
      </trkpt>
      <trkpt lat="47.92448" lon="-2.50217">
        <ele>70.320914</ele>
        <time>2022-12-13T18:19:07.928Z</time>
      </trkpt>
      <trkpt lat="47.92438" lon="-2.50209">
        <ele>70.191459</ele>
        <time>2022-12-13T18:19:10.916Z</time>
      </trkpt>
      <trkpt lat="47.92429" lon="-2.50199">
        <ele>70.057561</ele>
        <time>2022-12-13T18:19:13.930Z</time>
      </trkpt>
      <trkpt lat="47.92419" lon="-2.5019">
        <ele>69.913007</ele>
        <time>2022-12-13T18:19:16.904Z</time>
      </trkpt>
      <trkpt lat="47.92408" lon="-2.5018">
        <ele>69.77127</ele>
        <time>2022-12-13T18:19:19.928Z</time>
      </trkpt>
      <trkpt lat="47.92399" lon="-2.50173">
        <ele>69.646711</ele>
        <time>2022-12-13T18:19:22.943Z</time>
      </trkpt>
      <trkpt lat="47.92389" lon="-2.50164">
        <ele>69.512957</ele>
        <time>2022-12-13T18:19:25.925Z</time>
      </trkpt>
      <trkpt lat="47.92378" lon="-2.50155">
        <ele>69.366264</ele>
        <time>2022-12-13T18:19:28.927Z</time>
      </trkpt>
      <trkpt lat="47.92366" lon="-2.50147">
        <ele>69.213708</ele>
        <time>2022-12-13T18:19:31.916Z</time>
      </trkpt>
      <trkpt lat="47.92355" lon="-2.50139">
        <ele>69.065939</ele>
        <time>2022-12-13T18:19:34.925Z</time>
      </trkpt>
      <trkpt lat="47.92344" lon="-2.50133">
        <ele>68.92635</ele>
        <time>2022-12-13T18:19:37.924Z</time>
      </trkpt>
      <trkpt lat="47.92334" lon="-2.50128">
        <ele>68.909045</ele>
        <time>2022-12-13T18:19:40.928Z</time>
      </trkpt>
      <trkpt lat="47.92324" lon="-2.50123">
        <ele>68.933777</ele>
        <time>2022-12-13T18:19:43.929Z</time>
      </trkpt>
      <trkpt lat="47.92314" lon="-2.50117">
        <ele>68.959114</ele>
        <time>2022-12-13T18:19:46.940Z</time>
      </trkpt>
      <trkpt lat="47.92304" lon="-2.50109">
        <ele>68.9866</ele>
        <time>2022-12-13T18:19:49.906Z</time>
      </trkpt>
      <trkpt lat="47.92293" lon="-2.50098">
        <ele>69.016773</ele>
        <time>2022-12-13T18:19:52.909Z</time>
      </trkpt>
      <trkpt lat="47.92286" lon="-2.50089">
        <ele>69.03803</ele>
        <time>2022-12-13T18:19:54.906Z</time>
      </trkpt>
      <trkpt lat="47.92278" lon="-2.50074">
        <ele>69.069191</ele>
        <time>2022-12-13T18:19:57.927Z</time>
      </trkpt>
      <trkpt lat="47.92273" lon="-2.50061">
        <ele>69.092216</ele>
        <time>2022-12-13T18:19:59.903Z</time>
      </trkpt>
      <trkpt lat="47.92269" lon="-2.50048">
        <ele>69.114747</ele>
        <time>2022-12-13T18:20:01.901Z</time>
      </trkpt>
      <trkpt lat="47.92264" lon="-2.50029">
        <ele>69.145274</ele>
        <time>2022-12-13T18:20:04.911Z</time>
      </trkpt>
      <trkpt lat="47.92262" lon="-2.50015">
        <ele>69.167738</ele>
        <time>2022-12-13T18:20:06.916Z</time>
      </trkpt>
      <trkpt lat="47.92262" lon="-2.50001">
        <ele>69.189665</ele>
        <time>2022-12-13T18:20:08.930Z</time>
      </trkpt>
      <trkpt lat="47.92263" lon="-2.49983">
        <ele>69.217918</ele>
        <time>2022-12-13T18:20:11.928Z</time>
      </trkpt>
      <trkpt lat="47.92265" lon="-2.49965">
        <ele>69.246889</ele>
        <time>2022-12-13T18:20:14.928Z</time>
      </trkpt>
      <trkpt lat="47.92268" lon="-2.49949">
        <ele>69.272154</ele>
        <time>2022-12-13T18:20:17.919Z</time>
      </trkpt>
      <trkpt lat="47.92273" lon="-2.49934">
        <ele>69.2983</ele>
        <time>2022-12-13T18:20:20.934Z</time>
      </trkpt>
      <trkpt lat="47.92278" lon="-2.49918">
        <ele>69.30388</ele>
        <time>2022-12-13T18:20:23.930Z</time>
      </trkpt>
      <trkpt lat="47.92284" lon="-2.49902">
        <ele>69.287665</ele>
        <time>2022-12-13T18:20:26.930Z</time>
      </trkpt>
      <trkpt lat="47.9229" lon="-2.49885">
        <ele>69.270715</ele>
        <time>2022-12-13T18:20:29.908Z</time>
      </trkpt>
      <trkpt lat="47.92298" lon="-2.49868">
        <ele>69.253357</ele>
        <time>2022-12-13T18:20:32.914Z</time>
      </trkpt>
      <trkpt lat="47.92303" lon="-2.49857">
        <ele>69.241424</ele>
        <time>2022-12-13T18:20:34.930Z</time>
      </trkpt>
      <trkpt lat="47.92309" lon="-2.49847">
        <ele>69.229244</ele>
        <time>2022-12-13T18:20:36.929Z</time>
      </trkpt>
      <trkpt lat="47.92319" lon="-2.49834">
        <ele>69.213064</ele>
        <time>2022-12-13T18:20:39.928Z</time>
      </trkpt>
      <trkpt lat="47.92329" lon="-2.49823">
        <ele>69.196882</ele>
        <time>2022-12-13T18:20:42.933Z</time>
      </trkpt>
      <trkpt lat="47.92338" lon="-2.49814">
        <ele>69.182874</ele>
        <time>2022-12-13T18:20:45.908Z</time>
      </trkpt>
      <trkpt lat="47.92347" lon="-2.49803">
        <ele>69.167835</ele>
        <time>2022-12-13T18:20:48.928Z</time>
      </trkpt>
      <trkpt lat="47.92355" lon="-2.49791">
        <ele>69.153177</ele>
        <time>2022-12-13T18:20:51.928Z</time>
      </trkpt>
      <trkpt lat="47.92358" lon="-2.49775">
        <ele>69.138663</ele>
        <time>2022-12-13T18:20:54.931Z</time>
      </trkpt>
      <trkpt lat="47.92361" lon="-2.49761">
        <ele>69.126083</ele>
        <time>2022-12-13T18:20:57.930Z</time>
      </trkpt>
      <trkpt lat="47.92364" lon="-2.49744">
        <ele>69.111107</ele>
        <time>2022-12-13T18:21:01.930Z</time>
      </trkpt>
      <trkpt lat="47.92368" lon="-2.49729">
        <ele>69.096932</ele>
        <time>2022-12-13T18:21:06.930Z</time>
      </trkpt>
      <trkpt lat="47.92372" lon="-2.49715">
        <ele>69.083546</ele>
        <time>2022-12-13T18:21:10.929Z</time>
      </trkpt>
      <trkpt lat="47.92376" lon="-2.49702">
        <ele>69.111117</ele>
        <time>2022-12-13T18:21:13.934Z</time>
      </trkpt>
      <trkpt lat="47.9238" lon="-2.49687">
        <ele>69.170745</ele>
        <time>2022-12-13T18:21:16.933Z</time>
      </trkpt>
      <trkpt lat="47.92384" lon="-2.49672">
        <ele>69.232585</ele>
        <time>2022-12-13T18:21:19.932Z</time>
      </trkpt>
      <trkpt lat="47.92388" lon="-2.49656">
        <ele>69.294648</ele>
        <time>2022-12-13T18:21:22.928Z</time>
      </trkpt>
      <trkpt lat="47.92391" lon="-2.4964">
        <ele>69.35849</ele>
        <time>2022-12-13T18:21:25.938Z</time>
      </trkpt>
      <trkpt lat="47.92394" lon="-2.49625">
        <ele>69.417665</ele>
        <time>2022-12-13T18:21:28.924Z</time>
      </trkpt>
      <trkpt lat="47.92396" lon="-2.49609">
        <ele>69.476778</ele>
        <time>2022-12-13T18:21:31.928Z</time>
      </trkpt>
      <trkpt lat="47.92397" lon="-2.49593">
        <ele>69.536687</ele>
        <time>2022-12-13T18:21:34.930Z</time>
      </trkpt>
      <trkpt lat="47.92396" lon="-2.49577">
        <ele>69.598188</ele>
        <time>2022-12-13T18:21:37.907Z</time>
      </trkpt>
      <trkpt lat="47.92396" lon="-2.49561">
        <ele>69.658124</ele>
        <time>2022-12-13T18:21:40.924Z</time>
      </trkpt>
      <trkpt lat="47.92394" lon="-2.49547">
        <ele>69.711663</ele>
        <time>2022-12-13T18:21:43.925Z</time>
      </trkpt>
      <trkpt lat="47.92391" lon="-2.49531">
        <ele>69.775035</ele>
        <time>2022-12-13T18:21:46.913Z</time>
      </trkpt>
      <trkpt lat="47.92387" lon="-2.49515">
        <ele>69.839607</ele>
        <time>2022-12-13T18:21:49.928Z</time>
      </trkpt>
      <trkpt lat="47.92381" lon="-2.49499">
        <ele>69.905867</ele>
        <time>2022-12-13T18:21:52.922Z</time>
      </trkpt>
      <trkpt lat="47.92374" lon="-2.49482">
        <ele>69.979208</ele>
        <time>2022-12-13T18:21:55.929Z</time>
      </trkpt>
      <trkpt lat="47.92369" lon="-2.49471">
        <ele>70.030795</ele>
        <time>2022-12-13T18:21:57.930Z</time>
      </trkpt>
      <trkpt lat="47.92362" lon="-2.49454">
        <ele>70.089948</ele>
        <time>2022-12-13T18:22:00.931Z</time>
      </trkpt>
      <trkpt lat="47.92356" lon="-2.49437">
        <ele>70.113433</ele>
        <time>2022-12-13T18:22:03.920Z</time>
      </trkpt>
      <trkpt lat="47.9235" lon="-2.49422">
        <ele>70.13557</ele>
        <time>2022-12-13T18:22:06.926Z</time>
      </trkpt>
      <trkpt lat="47.92343" lon="-2.49407">
        <ele>70.156864</ele>
        <time>2022-12-13T18:22:09.927Z</time>
      </trkpt>
      <trkpt lat="47.92336" lon="-2.49393">
        <ele>70.178897</ele>
        <time>2022-12-13T18:22:12.926Z</time>
      </trkpt>
      <trkpt lat="47.92329" lon="-2.49377">
        <ele>70.201625</ele>
        <time>2022-12-13T18:22:15.927Z</time>
      </trkpt>
      <trkpt lat="47.92322" lon="-2.49362">
        <ele>70.224547</ele>
        <time>2022-12-13T18:22:18.929Z</time>
      </trkpt>
      <trkpt lat="47.92316" lon="-2.49345">
        <ele>70.248295</ele>
        <time>2022-12-13T18:22:21.902Z</time>
      </trkpt>
      <trkpt lat="47.92308" lon="-2.49329">
        <ele>70.272848</ele>
        <time>2022-12-13T18:22:24.928Z</time>
      </trkpt>
      <trkpt lat="47.923" lon="-2.49313">
        <ele>70.296718</ele>
        <time>2022-12-13T18:22:27.929Z</time>
      </trkpt>
      <trkpt lat="47.92293" lon="-2.49299">
        <ele>70.318861</ele>
        <time>2022-12-13T18:22:30.927Z</time>
      </trkpt>
      <trkpt lat="47.92286" lon="-2.49285">
        <ele>70.339247</ele>
        <time>2022-12-13T18:22:33.929Z</time>
      </trkpt>
      <trkpt lat="47.92279" lon="-2.49272">
        <ele>70.359777</ele>
        <time>2022-12-13T18:22:36.927Z</time>
      </trkpt>
      <trkpt lat="47.92271" lon="-2.49257">
        <ele>70.384346</ele>
        <time>2022-12-13T18:22:39.931Z</time>
      </trkpt>
      <trkpt lat="47.92265" lon="-2.49247">
        <ele>70.401057</ele>
        <time>2022-12-13T18:22:41.908Z</time>
      </trkpt>
      <trkpt lat="47.92256" lon="-2.49232">
        <ele>70.460563</ele>
        <time>2022-12-13T18:22:44.936Z</time>
      </trkpt>
      <trkpt lat="47.92247" lon="-2.4922">
        <ele>70.538134</ele>
        <time>2022-12-13T18:22:47.928Z</time>
      </trkpt>
      <trkpt lat="47.92239" lon="-2.49207">
        <ele>70.619451</ele>
        <time>2022-12-13T18:22:50.928Z</time>
      </trkpt>
      <trkpt lat="47.9223" lon="-2.49193">
        <ele>70.704003</ele>
        <time>2022-12-13T18:22:53.921Z</time>
      </trkpt>
      <trkpt lat="47.92223" lon="-2.49184">
        <ele>70.764264</ele>
        <time>2022-12-13T18:22:55.923Z</time>
      </trkpt>
      <trkpt lat="47.92217" lon="-2.49174">
        <ele>70.825</ele>
        <time>2022-12-13T18:22:57.904Z</time>
      </trkpt>
      <trkpt lat="47.92209" lon="-2.49165">
        <ele>70.88979</ele>
        <time>2022-12-13T18:22:59.940Z</time>
      </trkpt>
      <trkpt lat="47.92202" lon="-2.49157">
        <ele>70.949512</ele>
        <time>2022-12-13T18:23:01.926Z</time>
      </trkpt>
      <trkpt lat="47.92194" lon="-2.4915">
        <ele>71.012253</ele>
        <time>2022-12-13T18:23:03.930Z</time>
      </trkpt>
      <trkpt lat="47.92186" lon="-2.49143">
        <ele>71.074387</ele>
        <time>2022-12-13T18:23:05.927Z</time>
      </trkpt>
      <trkpt lat="47.92178" lon="-2.49135">
        <ele>71.136963</ele>
        <time>2022-12-13T18:23:07.926Z</time>
      </trkpt>
      <trkpt lat="47.92166" lon="-2.49124">
        <ele>71.226015</ele>
        <time>2022-12-13T18:23:10.923Z</time>
      </trkpt>
      <trkpt lat="47.92158" lon="-2.49117">
        <ele>71.290751</ele>
        <time>2022-12-13T18:23:12.931Z</time>
      </trkpt>
      <trkpt lat="47.92146" lon="-2.49107">
        <ele>71.379704</ele>
        <time>2022-12-13T18:23:15.929Z</time>
      </trkpt>
      <trkpt lat="47.92138" lon="-2.49101">
        <ele>71.441972</ele>
        <time>2022-12-13T18:23:17.926Z</time>
      </trkpt>
      <trkpt lat="47.92127" lon="-2.4909">
        <ele>71.52775</ele>
        <time>2022-12-13T18:23:20.907Z</time>
      </trkpt>
      <trkpt lat="47.92119" lon="-2.49083">
        <ele>71.587614</ele>
        <time>2022-12-13T18:23:22.907Z</time>
      </trkpt>
      <trkpt lat="47.92109" lon="-2.49072">
        <ele>71.834972</ele>
        <time>2022-12-13T18:23:25.920Z</time>
      </trkpt>
      <trkpt lat="47.921" lon="-2.49059">
        <ele>72.112876</ele>
        <time>2022-12-13T18:23:28.914Z</time>
      </trkpt>
      <trkpt lat="47.92093" lon="-2.49047">
        <ele>72.363171</ele>
        <time>2022-12-13T18:23:31.906Z</time>
      </trkpt>
      <trkpt lat="47.92087" lon="-2.49034">
        <ele>72.614817</ele>
        <time>2022-12-13T18:23:34.917Z</time>
      </trkpt>
      <trkpt lat="47.92081" lon="-2.49019">
        <ele>72.873645</ele>
        <time>2022-12-13T18:23:37.904Z</time>
      </trkpt>
      <trkpt lat="47.92076" lon="-2.49004">
        <ele>73.146</ele>
        <time>2022-12-13T18:23:40.929Z</time>
      </trkpt>
      <trkpt lat="47.92071" lon="-2.48988">
        <ele>73.412482</ele>
        <time>2022-12-13T18:23:43.906Z</time>
      </trkpt>
      <trkpt lat="47.92065" lon="-2.48972">
        <ele>73.695452</ele>
        <time>2022-12-13T18:23:46.926Z</time>
      </trkpt>
      <trkpt lat="47.92059" lon="-2.48954">
        <ele>73.992506</ele>
        <time>2022-12-13T18:23:49.925Z</time>
      </trkpt>
      <trkpt lat="47.92054" lon="-2.48937">
        <ele>74.293357</ele>
        <time>2022-12-13T18:23:52.912Z</time>
      </trkpt>
      <trkpt lat="47.92048" lon="-2.48919">
        <ele>74.596614</ele>
        <time>2022-12-13T18:23:55.911Z</time>
      </trkpt>
      <trkpt lat="47.92042" lon="-2.48901">
        <ele>74.897953</ele>
        <time>2022-12-13T18:23:58.907Z</time>
      </trkpt>
      <trkpt lat="47.92038" lon="-2.48889">
        <ele>75.108985</ele>
        <time>2022-12-13T18:24:00.898Z</time>
      </trkpt>
      <trkpt lat="47.92033" lon="-2.48877">
        <ele>75.325706</ele>
        <time>2022-12-13T18:24:02.911Z</time>
      </trkpt>
      <trkpt lat="47.92028" lon="-2.48859">
        <ele>75.619544</ele>
        <time>2022-12-13T18:24:05.926Z</time>
      </trkpt>
      <trkpt lat="47.92023" lon="-2.48843">
        <ele>75.645536</ele>
        <time>2022-12-13T18:24:08.923Z</time>
      </trkpt>
      <trkpt lat="47.92016" lon="-2.48828">
        <ele>75.508923</ele>
        <time>2022-12-13T18:24:11.925Z</time>
      </trkpt>
      <trkpt lat="47.92009" lon="-2.48813">
        <ele>75.361925</ele>
        <time>2022-12-13T18:24:14.928Z</time>
      </trkpt>
      <trkpt lat="47.92" lon="-2.48797">
        <ele>75.20878</ele>
        <time>2022-12-13T18:24:17.923Z</time>
      </trkpt>
      <trkpt lat="47.91992" lon="-2.48785">
        <ele>75.074108</ele>
        <time>2022-12-13T18:24:20.910Z</time>
      </trkpt>
      <trkpt lat="47.91983" lon="-2.48775">
        <ele>74.947496</ele>
        <time>2022-12-13T18:24:23.934Z</time>
      </trkpt>
      <trkpt lat="47.91973" lon="-2.48764">
        <ele>74.804618</ele>
        <time>2022-12-13T18:24:26.915Z</time>
      </trkpt>
      <trkpt lat="47.91964" lon="-2.48753">
        <ele>74.668145</ele>
        <time>2022-12-13T18:24:29.924Z</time>
      </trkpt>
      <trkpt lat="47.91955" lon="-2.48741">
        <ele>74.532426</ele>
        <time>2022-12-13T18:24:32.915Z</time>
      </trkpt>
      <trkpt lat="47.91945" lon="-2.48731">
        <ele>74.398703</ele>
        <time>2022-12-13T18:24:35.913Z</time>
      </trkpt>
      <trkpt lat="47.91936" lon="-2.48721">
        <ele>74.270051</ele>
        <time>2022-12-13T18:24:38.920Z</time>
      </trkpt>
      <trkpt lat="47.91926" lon="-2.48711">
        <ele>74.127048</ele>
        <time>2022-12-13T18:24:41.920Z</time>
      </trkpt>
      <trkpt lat="47.91918" lon="-2.48703">
        <ele>74.023185</ele>
        <time>2022-12-13T18:24:43.931Z</time>
      </trkpt>
      <trkpt lat="47.91911" lon="-2.48695">
        <ele>73.920259</ele>
        <time>2022-12-13T18:24:45.907Z</time>
      </trkpt>
      <trkpt lat="47.91902" lon="-2.48685">
        <ele>73.787348</ele>
        <time>2022-12-13T18:24:48.909Z</time>
      </trkpt>
      <trkpt lat="47.91892" lon="-2.48676">
        <ele>73.654619</ele>
        <time>2022-12-13T18:24:51.932Z</time>
      </trkpt>
      <trkpt lat="47.91882" lon="-2.48664">
        <ele>73.454163</ele>
        <time>2022-12-13T18:24:54.921Z</time>
      </trkpt>
      <trkpt lat="47.91872" lon="-2.48653">
        <ele>73.258191</ele>
        <time>2022-12-13T18:24:57.933Z</time>
      </trkpt>
      <trkpt lat="47.91862" lon="-2.48641">
        <ele>73.06273</ele>
        <time>2022-12-13T18:25:00.926Z</time>
      </trkpt>
      <trkpt lat="47.91852" lon="-2.48629">
        <ele>72.862922</ele>
        <time>2022-12-13T18:25:03.932Z</time>
      </trkpt>
      <trkpt lat="47.91842" lon="-2.48617">
        <ele>72.668549</ele>
        <time>2022-12-13T18:25:06.932Z</time>
      </trkpt>
      <trkpt lat="47.91834" lon="-2.48606">
        <ele>72.50303</ele>
        <time>2022-12-13T18:25:09.909Z</time>
      </trkpt>
      <trkpt lat="47.91826" lon="-2.48595">
        <ele>72.335324</ele>
        <time>2022-12-13T18:25:12.926Z</time>
      </trkpt>
      <trkpt lat="47.91817" lon="-2.48585">
        <ele>72.159751</ele>
        <time>2022-12-13T18:25:15.932Z</time>
      </trkpt>
      <trkpt lat="47.91808" lon="-2.48575">
        <ele>71.98663</ele>
        <time>2022-12-13T18:25:18.930Z</time>
      </trkpt>
      <trkpt lat="47.91799" lon="-2.48564">
        <ele>71.806727</ele>
        <time>2022-12-13T18:25:21.909Z</time>
      </trkpt>
      <trkpt lat="47.91788" lon="-2.48553">
        <ele>71.603307</ele>
        <time>2022-12-13T18:25:24.911Z</time>
      </trkpt>
      <trkpt lat="47.91778" lon="-2.48541">
        <ele>71.404698</ele>
        <time>2022-12-13T18:25:27.926Z</time>
      </trkpt>
      <trkpt lat="47.91769" lon="-2.48528">
        <ele>71.207688</ele>
        <time>2022-12-13T18:25:30.923Z</time>
      </trkpt>
      <trkpt lat="47.91759" lon="-2.48514">
        <ele>71.006426</ele>
        <time>2022-12-13T18:25:33.930Z</time>
      </trkpt>
      <trkpt lat="47.91751" lon="-2.48501">
        <ele>70.889891</ele>
        <time>2022-12-13T18:25:36.927Z</time>
      </trkpt>
      <trkpt lat="47.91743" lon="-2.48489">
        <ele>70.882616</ele>
        <time>2022-12-13T18:25:39.930Z</time>
      </trkpt>
      <trkpt lat="47.91736" lon="-2.48476">
        <ele>70.875525</ele>
        <time>2022-12-13T18:25:42.923Z</time>
      </trkpt>
      <trkpt lat="47.91728" lon="-2.48462">
        <ele>70.867554</ele>
        <time>2022-12-13T18:25:45.919Z</time>
      </trkpt>
      <trkpt lat="47.91719" lon="-2.48446">
        <ele>70.859259</ele>
        <time>2022-12-13T18:25:48.928Z</time>
      </trkpt>
      <trkpt lat="47.91713" lon="-2.48435">
        <ele>70.853144</ele>
        <time>2022-12-13T18:25:50.930Z</time>
      </trkpt>
      <trkpt lat="47.91704" lon="-2.48422">
        <ele>70.845006</ele>
        <time>2022-12-13T18:25:53.911Z</time>
      </trkpt>
      <trkpt lat="47.91697" lon="-2.48412">
        <ele>70.838865</ele>
        <time>2022-12-13T18:25:55.906Z</time>
      </trkpt>
      <trkpt lat="47.91687" lon="-2.48397">
        <ele>70.830086</ele>
        <time>2022-12-13T18:25:58.910Z</time>
      </trkpt>
      <trkpt lat="47.91677" lon="-2.48385">
        <ele>70.821766</ele>
        <time>2022-12-13T18:26:01.918Z</time>
      </trkpt>
      <trkpt lat="47.91667" lon="-2.48374">
        <ele>70.814409</ele>
        <time>2022-12-13T18:26:04.919Z</time>
      </trkpt>
      <trkpt lat="47.91657" lon="-2.48364">
        <ele>70.806694</ele>
        <time>2022-12-13T18:26:07.899Z</time>
      </trkpt>
      <trkpt lat="47.91646" lon="-2.48354">
        <ele>70.798722</ele>
        <time>2022-12-13T18:26:10.909Z</time>
      </trkpt>
      <trkpt lat="47.91636" lon="-2.48346">
        <ele>70.791526</ele>
        <time>2022-12-13T18:26:13.904Z</time>
      </trkpt>
      <trkpt lat="47.91628" lon="-2.4834">
        <ele>70.785728</ele>
        <time>2022-12-13T18:26:16.907Z</time>
      </trkpt>
      <trkpt lat="47.9162" lon="-2.48333">
        <ele>70.779911</ele>
        <time>2022-12-13T18:26:19.914Z</time>
      </trkpt>
      <trkpt lat="47.91612" lon="-2.48327">
        <ele>70.761238</ele>
        <time>2022-12-13T18:26:22.914Z</time>
      </trkpt>
      <trkpt lat="47.91603" lon="-2.4832">
        <ele>70.739061</ele>
        <time>2022-12-13T18:26:25.908Z</time>
      </trkpt>
      <trkpt lat="47.91591" lon="-2.48312">
        <ele>70.710894</ele>
        <time>2022-12-13T18:26:28.928Z</time>
      </trkpt>
      <trkpt lat="47.91579" lon="-2.48304">
        <ele>70.682527</ele>
        <time>2022-12-13T18:26:31.903Z</time>
      </trkpt>
      <trkpt lat="47.91571" lon="-2.48298">
        <ele>70.662694</ele>
        <time>2022-12-13T18:26:33.919Z</time>
      </trkpt>
      <trkpt lat="47.91562" lon="-2.48292">
        <ele>70.640316</ele>
        <time>2022-12-13T18:26:36.928Z</time>
      </trkpt>
      <trkpt lat="47.91551" lon="-2.48287">
        <ele>70.616813</ele>
        <time>2022-12-13T18:26:39.926Z</time>
      </trkpt>
      <trkpt lat="47.91541" lon="-2.4828">
        <ele>70.591926</ele>
        <time>2022-12-13T18:26:42.919Z</time>
      </trkpt>
      <trkpt lat="47.9153" lon="-2.48274">
        <ele>70.565933</ele>
        <time>2022-12-13T18:26:45.907Z</time>
      </trkpt>
      <trkpt lat="47.9152" lon="-2.48268">
        <ele>70.54393</ele>
        <time>2022-12-13T18:26:48.927Z</time>
      </trkpt>
      <trkpt lat="47.91511" lon="-2.48263">
        <ele>70.522865</ele>
        <time>2022-12-13T18:26:50.928Z</time>
      </trkpt>
      <trkpt lat="47.91499" lon="-2.48256">
        <ele>70.494937</ele>
        <time>2022-12-13T18:26:53.929Z</time>
      </trkpt>
      <trkpt lat="47.9149" lon="-2.48249">
        <ele>70.472056</ele>
        <time>2022-12-13T18:26:56.928Z</time>
      </trkpt>
      <trkpt lat="47.91479" lon="-2.48243">
        <ele>70.446711</ele>
        <time>2022-12-13T18:26:59.927Z</time>
      </trkpt>
      <trkpt lat="47.9147" lon="-2.48239">
        <ele>70.426971</ele>
        <time>2022-12-13T18:27:01.927Z</time>
      </trkpt>
      <trkpt lat="47.91461" lon="-2.48236">
        <ele>70.407231</ele>
        <time>2022-12-13T18:27:03.902Z</time>
      </trkpt>
      <trkpt lat="47.9145" lon="-2.4823">
        <ele>70.286925</ele>
        <time>2022-12-13T18:27:06.902Z</time>
      </trkpt>
      <trkpt lat="47.91437" lon="-2.48225">
        <ele>69.900706</ele>
        <time>2022-12-13T18:27:09.898Z</time>
      </trkpt>
      <trkpt lat="47.91425" lon="-2.48219">
        <ele>69.549483</ele>
        <time>2022-12-13T18:27:12.903Z</time>
      </trkpt>
      <trkpt lat="47.91416" lon="-2.48214">
        <ele>69.255459</ele>
        <time>2022-12-13T18:27:15.929Z</time>
      </trkpt>
      <trkpt lat="47.91406" lon="-2.48208">
        <ele>68.96546</ele>
        <time>2022-12-13T18:27:18.925Z</time>
      </trkpt>
      <trkpt lat="47.91396" lon="-2.48201">
        <ele>68.636889</ele>
        <time>2022-12-13T18:27:21.905Z</time>
      </trkpt>
      <trkpt lat="47.91382" lon="-2.48197">
        <ele>68.238076</ele>
        <time>2022-12-13T18:27:24.903Z</time>
      </trkpt>
      <trkpt lat="47.91369" lon="-2.48191">
        <ele>67.855125</ele>
        <time>2022-12-13T18:27:27.927Z</time>
      </trkpt>
      <trkpt lat="47.9136" lon="-2.48186">
        <ele>67.578833</ele>
        <time>2022-12-13T18:27:29.901Z</time>
      </trkpt>
      <trkpt lat="47.91348" lon="-2.4818">
        <ele>67.216317</ele>
        <time>2022-12-13T18:27:32.928Z</time>
      </trkpt>
      <trkpt lat="47.91336" lon="-2.48175">
        <ele>66.845928</ele>
        <time>2022-12-13T18:27:35.927Z</time>
      </trkpt>
      <trkpt lat="47.91325" lon="-2.4817">
        <ele>66.508146</ele>
        <time>2022-12-13T18:27:38.940Z</time>
      </trkpt>
      <trkpt lat="47.91312" lon="-2.48166">
        <ele>66.138561</ele>
        <time>2022-12-13T18:27:41.906Z</time>
      </trkpt>
      <trkpt lat="47.91299" lon="-2.48161">
        <ele>65.758897</ele>
        <time>2022-12-13T18:27:44.930Z</time>
      </trkpt>
      <trkpt lat="47.9129" lon="-2.48159">
        <ele>65.496539</ele>
        <time>2022-12-13T18:27:46.903Z</time>
      </trkpt>
      <trkpt lat="47.91278" lon="-2.48155">
        <ele>65.151645</ele>
        <time>2022-12-13T18:27:49.904Z</time>
      </trkpt>
      <trkpt lat="47.91268" lon="-2.4815">
        <ele>64.858618</ele>
        <time>2022-12-13T18:27:52.930Z</time>
      </trkpt>
      <trkpt lat="47.91258" lon="-2.48146">
        <ele>64.590639</ele>
        <time>2022-12-13T18:27:55.928Z</time>
      </trkpt>
      <trkpt lat="47.91248" lon="-2.4814">
        <ele>64.303985</ele>
        <time>2022-12-13T18:27:58.907Z</time>
      </trkpt>
      <trkpt lat="47.91237" lon="-2.4814">
        <ele>64.010083</ele>
        <time>2022-12-13T18:28:01.903Z</time>
      </trkpt>
      <trkpt lat="47.91225" lon="-2.48144">
        <ele>63.692774</ele>
        <time>2022-12-13T18:28:04.905Z</time>
      </trkpt>
      <trkpt lat="47.91212" lon="-2.48144">
        <ele>63.347997</ele>
        <time>2022-12-13T18:28:07.910Z</time>
      </trkpt>
      <trkpt lat="47.912" lon="-2.48144">
        <ele>63.024469</ele>
        <time>2022-12-13T18:28:10.908Z</time>
      </trkpt>
      <trkpt lat="47.91188" lon="-2.48143">
        <ele>62.682406</ele>
        <time>2022-12-13T18:28:13.927Z</time>
      </trkpt>
      <trkpt lat="47.91175" lon="-2.48142">
        <ele>62.358006</ele>
        <time>2022-12-13T18:28:16.907Z</time>
      </trkpt>
      <trkpt lat="47.91163" lon="-2.48139">
        <ele>62.012863</ele>
        <time>2022-12-13T18:28:19.928Z</time>
      </trkpt>
      <trkpt lat="47.91151" lon="-2.48139">
        <ele>61.710866</ele>
        <time>2022-12-13T18:28:22.932Z</time>
      </trkpt>
      <trkpt lat="47.91141" lon="-2.48139">
        <ele>61.435667</ele>
        <time>2022-12-13T18:28:25.905Z</time>
      </trkpt>
      <trkpt lat="47.9113" lon="-2.48139">
        <ele>61.133623</ele>
        <time>2022-12-13T18:28:28.930Z</time>
      </trkpt>
      <trkpt lat="47.91117" lon="-2.48141">
        <ele>60.789573</ele>
        <time>2022-12-13T18:28:31.923Z</time>
      </trkpt>
      <trkpt lat="47.91105" lon="-2.48143">
        <ele>60.473003</ele>
        <time>2022-12-13T18:28:34.929Z</time>
      </trkpt>
      <trkpt lat="47.91093" lon="-2.48144">
        <ele>60.633533</ele>
        <time>2022-12-13T18:28:37.927Z</time>
      </trkpt>
      <trkpt lat="47.91082" lon="-2.48145">
        <ele>60.861763</ele>
        <time>2022-12-13T18:28:40.921Z</time>
      </trkpt>
      <trkpt lat="47.91069" lon="-2.48144">
        <ele>61.125956</ele>
        <time>2022-12-13T18:28:43.910Z</time>
      </trkpt>
      <trkpt lat="47.91056" lon="-2.48144">
        <ele>61.390149</ele>
        <time>2022-12-13T18:28:46.930Z</time>
      </trkpt>
      <trkpt lat="47.91043" lon="-2.48144">
        <ele>61.648215</ele>
        <time>2022-12-13T18:28:49.930Z</time>
      </trkpt>
      <trkpt lat="47.91034" lon="-2.48144">
        <ele>61.831641</ele>
        <time>2022-12-13T18:28:51.926Z</time>
      </trkpt>
      <trkpt lat="47.91023" lon="-2.48143">
        <ele>62.059787</ele>
        <time>2022-12-13T18:28:54.909Z</time>
      </trkpt>
      <trkpt lat="47.91014" lon="-2.48143">
        <ele>62.243371</ele>
        <time>2022-12-13T18:28:56.911Z</time>
      </trkpt>
      <trkpt lat="47.91001" lon="-2.4814">
        <ele>62.493562</ele>
        <time>2022-12-13T18:28:59.909Z</time>
      </trkpt>
      <trkpt lat="47.90992" lon="-2.48134">
        <ele>62.702819</ele>
        <time>2022-12-13T18:29:02.916Z</time>
      </trkpt>
      <trkpt lat="47.90982" lon="-2.48125">
        <ele>62.94346</ele>
        <time>2022-12-13T18:29:05.902Z</time>
      </trkpt>
      <trkpt lat="47.90974" lon="-2.48117">
        <ele>63.125297</ele>
        <time>2022-12-13T18:29:07.926Z</time>
      </trkpt>
      <trkpt lat="47.90964" lon="-2.48105">
        <ele>63.379267</ele>
        <time>2022-12-13T18:29:10.905Z</time>
      </trkpt>
      <trkpt lat="47.90957" lon="-2.48096">
        <ele>63.574505</ele>
        <time>2022-12-13T18:29:12.909Z</time>
      </trkpt>
      <trkpt lat="47.9095" lon="-2.48084">
        <ele>63.784733</ele>
        <time>2022-12-13T18:29:14.927Z</time>
      </trkpt>
      <trkpt lat="47.90944" lon="-2.48068">
        <ele>64.039801</ele>
        <time>2022-12-13T18:29:17.914Z</time>
      </trkpt>
      <trkpt lat="47.90938" lon="-2.48052">
        <ele>64.398699</ele>
        <time>2022-12-13T18:29:20.919Z</time>
      </trkpt>
      <trkpt lat="47.90932" lon="-2.48038">
        <ele>64.713579</ele>
        <time>2022-12-13T18:29:23.929Z</time>
      </trkpt>
      <trkpt lat="47.90926" lon="-2.48023">
        <ele>65.066196</ele>
        <time>2022-12-13T18:29:26.914Z</time>
      </trkpt>
      <trkpt lat="47.90919" lon="-2.48007">
        <ele>65.461687</ele>
        <time>2022-12-13T18:29:29.924Z</time>
      </trkpt>
      <trkpt lat="47.90914" lon="-2.47995">
        <ele>65.731698</ele>
        <time>2022-12-13T18:29:31.912Z</time>
      </trkpt>
      <trkpt lat="47.90909" lon="-2.47983">
        <ele>66.018669</ele>
        <time>2022-12-13T18:29:33.904Z</time>
      </trkpt>
      <trkpt lat="47.90905" lon="-2.47971">
        <ele>66.290843</ele>
        <time>2022-12-13T18:29:35.930Z</time>
      </trkpt>
      <trkpt lat="47.90899" lon="-2.47953">
        <ele>66.683769</ele>
        <time>2022-12-13T18:29:38.928Z</time>
      </trkpt>
      <trkpt lat="47.90891" lon="-2.47939">
        <ele>67.041638</ele>
        <time>2022-12-13T18:29:41.904Z</time>
      </trkpt>
      <trkpt lat="47.90884" lon="-2.47924">
        <ele>67.413973</ele>
        <time>2022-12-13T18:29:44.909Z</time>
      </trkpt>
      <trkpt lat="47.90878" lon="-2.47913">
        <ele>67.694331</ele>
        <time>2022-12-13T18:29:46.926Z</time>
      </trkpt>
      <trkpt lat="47.9087" lon="-2.47902">
        <ele>68.028794</ele>
        <time>2022-12-13T18:29:49.917Z</time>
      </trkpt>
      <trkpt lat="47.9086" lon="-2.4789">
        <ele>68.398149</ele>
        <time>2022-12-13T18:29:52.913Z</time>
      </trkpt>
      <trkpt lat="47.90851" lon="-2.47877">
        <ele>68.777721</ele>
        <time>2022-12-13T18:29:55.927Z</time>
      </trkpt>
      <trkpt lat="47.90842" lon="-2.47864">
        <ele>69.153536</ele>
        <time>2022-12-13T18:29:58.916Z</time>
      </trkpt>
      <trkpt lat="47.90833" lon="-2.47851">
        <ele>69.446648</ele>
        <time>2022-12-13T18:30:01.921Z</time>
      </trkpt>
      <trkpt lat="47.90826" lon="-2.4784">
        <ele>69.584264</ele>
        <time>2022-12-13T18:30:04.928Z</time>
      </trkpt>
      <trkpt lat="47.9082" lon="-2.4783">
        <ele>69.705755</ele>
        <time>2022-12-13T18:30:07.927Z</time>
      </trkpt>
      <trkpt lat="47.90814" lon="-2.4782">
        <ele>69.83555</ele>
        <time>2022-12-13T18:30:10.919Z</time>
      </trkpt>
      <trkpt lat="47.90807" lon="-2.47808">
        <ele>69.974776</ele>
        <time>2022-12-13T18:30:13.907Z</time>
      </trkpt>
      <trkpt lat="47.90801" lon="-2.47796">
        <ele>70.1132</ele>
        <time>2022-12-13T18:30:16.927Z</time>
      </trkpt>
      <trkpt lat="47.90793" lon="-2.47783">
        <ele>70.272661</ele>
        <time>2022-12-13T18:30:19.928Z</time>
      </trkpt>
      <trkpt lat="47.90784" lon="-2.47769">
        <ele>70.441813</ele>
        <time>2022-12-13T18:30:22.925Z</time>
      </trkpt>
      <trkpt lat="47.90777" lon="-2.47756">
        <ele>70.595901</ele>
        <time>2022-12-13T18:30:25.927Z</time>
      </trkpt>
      <trkpt lat="47.90771" lon="-2.47743">
        <ele>70.737039</ele>
        <time>2022-12-13T18:30:28.930Z</time>
      </trkpt>
      <trkpt lat="47.90767" lon="-2.47728">
        <ele>70.884929</ele>
        <time>2022-12-13T18:30:31.928Z</time>
      </trkpt>
      <trkpt lat="47.90767" lon="-2.47709">
        <ele>71.052079</ele>
        <time>2022-12-13T18:30:34.904Z</time>
      </trkpt>
      <trkpt lat="47.90768" lon="-2.47696">
        <ele>71.177638</ele>
        <time>2022-12-13T18:30:36.925Z</time>
      </trkpt>
      <trkpt lat="47.90771" lon="-2.47677">
        <ele>71.353759</ele>
        <time>2022-12-13T18:30:39.928Z</time>
      </trkpt>
      <trkpt lat="47.90773" lon="-2.47658">
        <ele>71.521502</ele>
        <time>2022-12-13T18:30:42.929Z</time>
      </trkpt>
      <trkpt lat="47.90775" lon="-2.4764">
        <ele>71.687716</ele>
        <time>2022-12-13T18:30:45.908Z</time>
      </trkpt>
      <trkpt lat="47.90778" lon="-2.47621">
        <ele>71.876563</ele>
        <time>2022-12-13T18:30:48.924Z</time>
      </trkpt>
      <trkpt lat="47.90779" lon="-2.47608">
        <ele>72.040571</ele>
        <time>2022-12-13T18:30:50.922Z</time>
      </trkpt>
      <trkpt lat="47.9078" lon="-2.47588">
        <ele>72.281544</ele>
        <time>2022-12-13T18:30:53.910Z</time>
      </trkpt>
      <trkpt lat="47.90778" lon="-2.47571">
        <ele>72.498595</ele>
        <time>2022-12-13T18:30:56.926Z</time>
      </trkpt>
      <trkpt lat="47.90774" lon="-2.47558">
        <ele>72.670569</ele>
        <time>2022-12-13T18:30:59.927Z</time>
      </trkpt>
      <trkpt lat="47.90769" lon="-2.47547">
        <ele>72.839336</ele>
        <time>2022-12-13T18:31:02.931Z</time>
      </trkpt>
      <trkpt lat="47.90759" lon="-2.47536">
        <ele>73.054514</ele>
        <time>2022-12-13T18:31:06.925Z</time>
      </trkpt>
      <trkpt lat="47.9075" lon="-2.47525">
        <ele>73.26067</ele>
        <time>2022-12-13T18:31:09.927Z</time>
      </trkpt>
      <trkpt lat="47.90742" lon="-2.47516">
        <ele>73.454409</ele>
        <time>2022-12-13T18:31:12.900Z</time>
      </trkpt>
      <trkpt lat="47.90732" lon="-2.47506">
        <ele>73.664387</ele>
        <time>2022-12-13T18:31:16.908Z</time>
      </trkpt>
      <trkpt lat="47.90724" lon="-2.47499">
        <ele>73.847452</ele>
        <time>2022-12-13T18:31:19.925Z</time>
      </trkpt>
      <trkpt lat="47.90715" lon="-2.47491">
        <ele>74.031903</ele>
        <time>2022-12-13T18:31:22.922Z</time>
      </trkpt>
      <trkpt lat="47.90707" lon="-2.47483">
        <ele>74.21238</ele>
        <time>2022-12-13T18:31:25.907Z</time>
      </trkpt>
      <trkpt lat="47.90696" lon="-2.47475">
        <ele>74.433051</ele>
        <time>2022-12-13T18:31:29.927Z</time>
      </trkpt>
      <trkpt lat="47.90687" lon="-2.47466">
        <ele>74.62409</ele>
        <time>2022-12-13T18:31:32.928Z</time>
      </trkpt>
      <trkpt lat="47.90678" lon="-2.47456">
        <ele>74.835386</ele>
        <time>2022-12-13T18:31:35.917Z</time>
      </trkpt>
      <trkpt lat="47.90669" lon="-2.47447">
        <ele>75.024022</ele>
        <time>2022-12-13T18:31:38.929Z</time>
      </trkpt>
      <trkpt lat="47.9066" lon="-2.47438">
        <ele>75.0484</ele>
        <time>2022-12-13T18:31:42.924Z</time>
      </trkpt>
      <trkpt lat="47.90652" lon="-2.47431">
        <ele>74.977253</ele>
        <time>2022-12-13T18:31:45.930Z</time>
      </trkpt>
      <trkpt lat="47.90643" lon="-2.47422">
        <ele>74.893352</ele>
        <time>2022-12-13T18:31:48.909Z</time>
      </trkpt>
      <trkpt lat="47.90634" lon="-2.47413">
        <ele>74.80738</ele>
        <time>2022-12-13T18:31:51.928Z</time>
      </trkpt>
      <trkpt lat="47.90623" lon="-2.47403">
        <ele>74.708889</ele>
        <time>2022-12-13T18:31:54.927Z</time>
      </trkpt>
      <trkpt lat="47.90615" lon="-2.47394">
        <ele>74.627097</ele>
        <time>2022-12-13T18:31:56.926Z</time>
      </trkpt>
      <trkpt lat="47.90606" lon="-2.47381">
        <ele>74.529927</ele>
        <time>2022-12-13T18:31:59.928Z</time>
      </trkpt>
      <trkpt lat="47.90595" lon="-2.47371">
        <ele>74.433027</ele>
        <time>2022-12-13T18:32:02.911Z</time>
      </trkpt>
      <trkpt lat="47.90586" lon="-2.4736">
        <ele>74.341866</ele>
        <time>2022-12-13T18:32:05.924Z</time>
      </trkpt>
      <trkpt lat="47.90577" lon="-2.47349">
        <ele>74.253196</ele>
        <time>2022-12-13T18:32:08.926Z</time>
      </trkpt>
      <trkpt lat="47.90567" lon="-2.4734">
        <ele>74.161</ele>
        <time>2022-12-13T18:32:11.929Z</time>
      </trkpt>
      <trkpt lat="47.90557" lon="-2.47329">
        <ele>74.061277</ele>
        <time>2022-12-13T18:32:14.926Z</time>
      </trkpt>
      <trkpt lat="47.9055" lon="-2.47321">
        <ele>73.990745</ele>
        <time>2022-12-13T18:32:16.929Z</time>
      </trkpt>
      <trkpt lat="47.90541" lon="-2.47307">
        <ele>73.891727</ele>
        <time>2022-12-13T18:32:19.926Z</time>
      </trkpt>
      <trkpt lat="47.90534" lon="-2.47293">
        <ele>73.801907</ele>
        <time>2022-12-13T18:32:22.909Z</time>
      </trkpt>
      <trkpt lat="47.90528" lon="-2.47278">
        <ele>73.709553</ele>
        <time>2022-12-13T18:32:25.928Z</time>
      </trkpt>
      <trkpt lat="47.90524" lon="-2.47262">
        <ele>73.460361</ele>
        <time>2022-12-13T18:32:28.913Z</time>
      </trkpt>
      <trkpt lat="47.90521" lon="-2.47247">
        <ele>73.218806</ele>
        <time>2022-12-13T18:32:31.907Z</time>
      </trkpt>
      <trkpt lat="47.90519" lon="-2.47234">
        <ele>73.004602</ele>
        <time>2022-12-13T18:32:34.929Z</time>
      </trkpt>
      <trkpt lat="47.90516" lon="-2.47221">
        <ele>72.784518</ele>
        <time>2022-12-13T18:32:38.928Z</time>
      </trkpt>
      <trkpt lat="47.90513" lon="-2.47205">
        <ele>72.524749</ele>
        <time>2022-12-13T18:32:42.909Z</time>
      </trkpt>
      <trkpt lat="47.90509" lon="-2.47189">
        <ele>72.261435</ele>
        <time>2022-12-13T18:32:45.922Z</time>
      </trkpt>
      <trkpt lat="47.90504" lon="-2.47175">
        <ele>72.009926</ele>
        <time>2022-12-13T18:32:48.930Z</time>
      </trkpt>
      <trkpt lat="47.90498" lon="-2.47162">
        <ele>71.766908</ele>
        <time>2022-12-13T18:32:51.925Z</time>
      </trkpt>
      <trkpt lat="47.90493" lon="-2.47152">
        <ele>71.555893</ele>
        <time>2022-12-13T18:32:54.923Z</time>
      </trkpt>
      <trkpt lat="47.90483" lon="-2.4714">
        <ele>71.269862</ele>
        <time>2022-12-13T18:32:58.914Z</time>
      </trkpt>
      <trkpt lat="47.90474" lon="-2.4713">
        <ele>71.001882</ele>
        <time>2022-12-13T18:33:02.908Z</time>
      </trkpt>
      <trkpt lat="47.90465" lon="-2.47119">
        <ele>70.731888</ele>
        <time>2022-12-13T18:33:06.919Z</time>
      </trkpt>
      <trkpt lat="47.90457" lon="-2.47111">
        <ele>70.494642</ele>
        <time>2022-12-13T18:33:10.910Z</time>
      </trkpt>
      <trkpt lat="47.90443" lon="-2.47094">
        <ele>70.073768</ele>
        <time>2022-12-13T18:36:08.011Z</time>
      </trkpt>
      <trkpt lat="47.90433" lon="-2.47085">
        <ele>69.800134</ele>
        <time>2022-12-13T18:36:11.922Z</time>
      </trkpt>
      <trkpt lat="47.90425" lon="-2.47075">
        <ele>69.557545</ele>
        <time>2022-12-13T18:36:14.907Z</time>
      </trkpt>
      <trkpt lat="47.90417" lon="-2.47068">
        <ele>69.418225</ele>
        <time>2022-12-13T18:36:17.909Z</time>
      </trkpt>
      <trkpt lat="47.90409" lon="-2.4706">
        <ele>69.323109</ele>
        <time>2022-12-13T18:36:20.924Z</time>
      </trkpt>
      <trkpt lat="47.90401" lon="-2.47052">
        <ele>69.232995</ele>
        <time>2022-12-13T18:36:23.912Z</time>
      </trkpt>
      <trkpt lat="47.90392" lon="-2.47043">
        <ele>69.124951</ele>
        <time>2022-12-13T18:36:27.924Z</time>
      </trkpt>
      <trkpt lat="47.90382" lon="-2.47033">
        <ele>69.004679</ele>
        <time>2022-12-13T18:36:31.909Z</time>
      </trkpt>
      <trkpt lat="47.90373" lon="-2.47026">
        <ele>68.905692</ele>
        <time>2022-12-13T18:36:34.930Z</time>
      </trkpt>
      <trkpt lat="47.90356" lon="-2.47013">
        <ele>68.718586</ele>
        <time>2022-12-13T18:37:40.007Z</time>
      </trkpt>
      <trkpt lat="47.90345" lon="-2.47005">
        <ele>68.5959</ele>
        <time>2022-12-13T18:37:43.922Z</time>
      </trkpt>
      <trkpt lat="47.90335" lon="-2.47002">
        <ele>68.493871</ele>
        <time>2022-12-13T18:37:46.904Z</time>
      </trkpt>
      <trkpt lat="47.90323" lon="-2.46998">
        <ele>68.375955</ele>
        <time>2022-12-13T18:37:49.908Z</time>
      </trkpt>
      <trkpt lat="47.90312" lon="-2.46996">
        <ele>68.264978</ele>
        <time>2022-12-13T18:37:52.913Z</time>
      </trkpt>
      <trkpt lat="47.90302" lon="-2.46993">
        <ele>68.162151</ele>
        <time>2022-12-13T18:37:55.910Z</time>
      </trkpt>
      <trkpt lat="47.90292" lon="-2.46991">
        <ele>68.062605</ele>
        <time>2022-12-13T18:37:58.913Z</time>
      </trkpt>
      <trkpt lat="47.90283" lon="-2.46988">
        <ele>67.965984</ele>
        <time>2022-12-13T18:38:01.918Z</time>
      </trkpt>
      <trkpt lat="47.90271" lon="-2.46985">
        <ele>67.851111</ele>
        <time>2022-12-13T18:38:05.927Z</time>
      </trkpt>
      <trkpt lat="47.90261" lon="-2.46982">
        <ele>67.742909</ele>
        <time>2022-12-13T18:38:09.906Z</time>
      </trkpt>
      <trkpt lat="47.90252" lon="-2.46977">
        <ele>67.698575</ele>
        <time>2022-12-13T18:38:12.920Z</time>
      </trkpt>
      <trkpt lat="47.90242" lon="-2.46969">
        <ele>67.700726</ele>
        <time>2022-12-13T18:38:15.903Z</time>
      </trkpt>
      <trkpt lat="47.90234" lon="-2.46959">
        <ele>67.70279</ele>
        <time>2022-12-13T18:38:18.913Z</time>
      </trkpt>
      <trkpt lat="47.90227" lon="-2.46946">
        <ele>67.704996</ele>
        <time>2022-12-13T18:38:21.918Z</time>
      </trkpt>
      <trkpt lat="47.90221" lon="-2.4693">
        <ele>67.707348</ele>
        <time>2022-12-13T18:38:24.911Z</time>
      </trkpt>
      <trkpt lat="47.90216" lon="-2.46912">
        <ele>67.709879</ele>
        <time>2022-12-13T18:38:27.903Z</time>
      </trkpt>
      <trkpt lat="47.90211" lon="-2.46896">
        <ele>67.71218</ele>
        <time>2022-12-13T18:38:30.913Z</time>
      </trkpt>
      <trkpt lat="47.90208" lon="-2.46881">
        <ele>67.714272</ele>
        <time>2022-12-13T18:38:33.908Z</time>
      </trkpt>
      <trkpt lat="47.90204" lon="-2.46865">
        <ele>67.716519</ele>
        <time>2022-12-13T18:38:36.915Z</time>
      </trkpt>
      <trkpt lat="47.902" lon="-2.4685">
        <ele>67.718605</ele>
        <time>2022-12-13T18:38:39.916Z</time>
      </trkpt>
      <trkpt lat="47.90196" lon="-2.46834">
        <ele>67.720747</ele>
        <time>2022-12-13T18:38:42.912Z</time>
      </trkpt>
      <trkpt lat="47.90192" lon="-2.46822">
        <ele>67.722579</ele>
        <time>2022-12-13T18:38:44.908Z</time>
      </trkpt>
      <trkpt lat="47.90188" lon="-2.46803">
        <ele>67.725116</ele>
        <time>2022-12-13T18:38:47.906Z</time>
      </trkpt>
      <trkpt lat="47.90184" lon="-2.46786">
        <ele>67.727553</ele>
        <time>2022-12-13T18:38:50.910Z</time>
      </trkpt>
      <trkpt lat="47.9018" lon="-2.46769">
        <ele>67.72988</ele>
        <time>2022-12-13T18:38:53.922Z</time>
      </trkpt>
      <trkpt lat="47.90176" lon="-2.46751">
        <ele>67.732332</ele>
        <time>2022-12-13T18:38:56.912Z</time>
      </trkpt>
      <trkpt lat="47.90169" lon="-2.46734">
        <ele>67.985555</ele>
        <time>2022-12-13T18:38:59.912Z</time>
      </trkpt>
      <trkpt lat="47.90163" lon="-2.46724">
        <ele>68.195966</ele>
        <time>2022-12-13T18:39:01.916Z</time>
      </trkpt>
      <trkpt lat="47.90155" lon="-2.46709">
        <ele>68.477799</ele>
        <time>2022-12-13T18:39:04.913Z</time>
      </trkpt>
      <trkpt lat="47.90147" lon="-2.46696">
        <ele>68.740231</ele>
        <time>2022-12-13T18:39:07.910Z</time>
      </trkpt>
      <trkpt lat="47.90138" lon="-2.46684">
        <ele>69.023013</ele>
        <time>2022-12-13T18:39:10.907Z</time>
      </trkpt>
      <trkpt lat="47.90128" lon="-2.46673">
        <ele>69.302571</ele>
        <time>2022-12-13T18:39:13.911Z</time>
      </trkpt>
      <trkpt lat="47.90118" lon="-2.46664">
        <ele>69.564573</ele>
        <time>2022-12-13T18:39:16.916Z</time>
      </trkpt>
      <trkpt lat="47.90109" lon="-2.46655">
        <ele>69.814822</ele>
        <time>2022-12-13T18:39:19.918Z</time>
      </trkpt>
      <trkpt lat="47.901" lon="-2.46647">
        <ele>70.052597</ele>
        <time>2022-12-13T18:39:22.913Z</time>
      </trkpt>
      <trkpt lat="47.90089" lon="-2.46637">
        <ele>70.325067</ele>
        <time>2022-12-13T18:39:25.910Z</time>
      </trkpt>
      <trkpt lat="47.90079" lon="-2.46628">
        <ele>70.592888</ele>
        <time>2022-12-13T18:39:28.907Z</time>
      </trkpt>
      <trkpt lat="47.90071" lon="-2.46621">
        <ele>70.809379</ele>
        <time>2022-12-13T18:39:30.909Z</time>
      </trkpt>
      <trkpt lat="47.90062" lon="-2.46612">
        <ele>71.05557</ele>
        <time>2022-12-13T18:39:33.926Z</time>
      </trkpt>
      <trkpt lat="47.90052" lon="-2.46603">
        <ele>71.307705</ele>
        <time>2022-12-13T18:39:36.910Z</time>
      </trkpt>
      <trkpt lat="47.90045" lon="-2.46592">
        <ele>71.548187</ele>
        <time>2022-12-13T18:39:39.917Z</time>
      </trkpt>
      <trkpt lat="47.90037" lon="-2.46583">
        <ele>71.766521</ele>
        <time>2022-12-13T18:39:42.904Z</time>
      </trkpt>
      <trkpt lat="47.90029" lon="-2.46572">
        <ele>71.570485</ele>
        <time>2022-12-13T18:39:45.916Z</time>
      </trkpt>
      <trkpt lat="47.90021" lon="-2.4656">
        <ele>71.324544</ele>
        <time>2022-12-13T18:39:48.908Z</time>
      </trkpt>
      <trkpt lat="47.90013" lon="-2.46548">
        <ele>71.086546</ele>
        <time>2022-12-13T18:39:51.922Z</time>
      </trkpt>
      <trkpt lat="47.90008" lon="-2.46535">
        <ele>70.869838</ele>
        <time>2022-12-13T18:39:54.913Z</time>
      </trkpt>
      <trkpt lat="47.90001" lon="-2.4652">
        <ele>70.618874</ele>
        <time>2022-12-13T18:39:58.913Z</time>
      </trkpt>
      <trkpt lat="47.89997" lon="-2.46505">
        <ele>70.385875</ele>
        <time>2022-12-13T18:40:01.906Z</time>
      </trkpt>
      <trkpt lat="47.89992" lon="-2.46487">
        <ele>70.10276</ele>
        <time>2022-12-13T18:40:04.910Z</time>
      </trkpt>
      <trkpt lat="47.89988" lon="-2.4647">
        <ele>69.847312</ele>
        <time>2022-12-13T18:40:07.915Z</time>
      </trkpt>
      <trkpt lat="47.89984" lon="-2.46453">
        <ele>69.60121</ele>
        <time>2022-12-13T18:40:10.911Z</time>
      </trkpt>
      <trkpt lat="47.89982" lon="-2.46437">
        <ele>69.375376</ele>
        <time>2022-12-13T18:40:13.920Z</time>
      </trkpt>
      <trkpt lat="47.8998" lon="-2.4642">
        <ele>69.124704</ele>
        <time>2022-12-13T18:40:16.916Z</time>
      </trkpt>
      <trkpt lat="47.89977" lon="-2.46399">
        <ele>68.814722</ele>
        <time>2022-12-13T18:40:19.910Z</time>
      </trkpt>
      <trkpt lat="47.89976" lon="-2.4638">
        <ele>68.554558</ele>
        <time>2022-12-13T18:40:22.911Z</time>
      </trkpt>
      <trkpt lat="47.89975" lon="-2.46366">
        <ele>68.345063</ele>
        <time>2022-12-13T18:40:24.911Z</time>
      </trkpt>
      <trkpt lat="47.89975" lon="-2.46346">
        <ele>68.066513</ele>
        <time>2022-12-13T18:40:27.920Z</time>
      </trkpt>
      <trkpt lat="47.89975" lon="-2.46329">
        <ele>68.047016</ele>
        <time>2022-12-13T18:40:30.910Z</time>
      </trkpt>
      <trkpt lat="47.89977" lon="-2.46314">
        <ele>68.147442</ele>
        <time>2022-12-13T18:40:33.921Z</time>
      </trkpt>
      <trkpt lat="47.89979" lon="-2.463">
        <ele>68.237507</ele>
        <time>2022-12-13T18:40:36.910Z</time>
      </trkpt>
      <trkpt lat="47.89981" lon="-2.46285">
        <ele>68.343416</ele>
        <time>2022-12-13T18:40:40.920Z</time>
      </trkpt>
      <trkpt lat="47.89984" lon="-2.46269">
        <ele>68.447566</ele>
        <time>2022-12-13T18:40:45.906Z</time>
      </trkpt>
      <trkpt lat="47.89988" lon="-2.46256">
        <ele>68.542091</ele>
        <time>2022-12-13T18:41:00.912Z</time>
      </trkpt>
      <trkpt lat="47.8999" lon="-2.46242">
        <ele>68.637962</ele>
        <time>2022-12-13T18:41:10.915Z</time>
      </trkpt>
      <trkpt lat="47.89993" lon="-2.46229">
        <ele>68.727023</ele>
        <time>2022-12-13T18:41:23.914Z</time>
      </trkpt>
      <trkpt lat="47.89994" lon="-2.46216">
        <ele>68.8169</ele>
        <time>2022-12-13T18:41:35.910Z</time>
      </trkpt>
      <trkpt lat="47.89978" lon="-2.46205">
        <ele>68.99429</ele>
        <time>2022-12-13T18:42:23.056Z</time>
      </trkpt>
      <trkpt lat="47.89967" lon="-2.46201">
        <ele>69.107653</ele>
        <time>2022-12-13T18:42:26.919Z</time>
      </trkpt>
      <trkpt lat="47.89957" lon="-2.46197">
        <ele>69.202796</ele>
        <time>2022-12-13T18:42:29.921Z</time>
      </trkpt>
      <trkpt lat="47.89947" lon="-2.46192">
        <ele>69.310371</ele>
        <time>2022-12-13T18:42:33.930Z</time>
      </trkpt>
      <trkpt lat="47.89937" lon="-2.46189">
        <ele>69.409129</ele>
        <time>2022-12-13T18:42:36.909Z</time>
      </trkpt>
      <trkpt lat="47.89926" lon="-2.46185">
        <ele>69.518871</ele>
        <time>2022-12-13T18:42:39.919Z</time>
      </trkpt>
      <trkpt lat="47.89916" lon="-2.4618">
        <ele>69.626082</ele>
        <time>2022-12-13T18:42:42.910Z</time>
      </trkpt>
      <trkpt lat="47.89905" lon="-2.46178">
        <ele>69.732257</ele>
        <time>2022-12-13T18:42:45.907Z</time>
      </trkpt>
      <trkpt lat="47.89894" lon="-2.46175">
        <ele>69.553618</ele>
        <time>2022-12-13T18:42:48.914Z</time>
      </trkpt>
      <trkpt lat="47.89881" lon="-2.4617">
        <ele>69.314424</ele>
        <time>2022-12-13T18:42:51.911Z</time>
      </trkpt>
      <trkpt lat="47.89869" lon="-2.46168">
        <ele>69.093091</ele>
        <time>2022-12-13T18:42:54.917Z</time>
      </trkpt>
      <trkpt lat="47.89856" lon="-2.46168">
        <ele>68.865612</ele>
        <time>2022-12-13T18:42:57.910Z</time>
      </trkpt>
      <trkpt lat="47.89843" lon="-2.46169">
        <ele>68.632185</ele>
        <time>2022-12-13T18:43:00.916Z</time>
      </trkpt>
      <trkpt lat="47.8983" lon="-2.46173">
        <ele>68.395022</ele>
        <time>2022-12-13T18:43:03.926Z</time>
      </trkpt>
      <trkpt lat="47.89818" lon="-2.46177">
        <ele>68.173966</ele>
        <time>2022-12-13T18:43:06.916Z</time>
      </trkpt>
      <trkpt lat="47.89807" lon="-2.46184">
        <ele>67.963354</ele>
        <time>2022-12-13T18:43:09.907Z</time>
      </trkpt>
      <trkpt lat="47.89797" lon="-2.4619">
        <ele>67.756111</ele>
        <time>2022-12-13T18:43:12.918Z</time>
      </trkpt>
      <trkpt lat="47.89786" lon="-2.46196">
        <ele>67.553721</ele>
        <time>2022-12-13T18:43:15.917Z</time>
      </trkpt>
      <trkpt lat="47.89776" lon="-2.46203">
        <ele>67.354155</ele>
        <time>2022-12-13T18:43:18.921Z</time>
      </trkpt>
      <trkpt lat="47.89766" lon="-2.46209">
        <ele>67.159556</ele>
        <time>2022-12-13T18:43:21.905Z</time>
      </trkpt>
      <trkpt lat="47.89757" lon="-2.46216">
        <ele>66.97035</ele>
        <time>2022-12-13T18:43:24.912Z</time>
      </trkpt>
      <trkpt lat="47.89747" lon="-2.46222">
        <ele>66.783619</ele>
        <time>2022-12-13T18:43:27.929Z</time>
      </trkpt>
      <trkpt lat="47.89738" lon="-2.46226">
        <ele>66.608537</ele>
        <time>2022-12-13T18:43:30.926Z</time>
      </trkpt>
      <trkpt lat="47.89729" lon="-2.46231">
        <ele>66.548513</ele>
        <time>2022-12-13T18:43:34.910Z</time>
      </trkpt>
      <trkpt lat="47.8972" lon="-2.46237">
        <ele>66.685592</ele>
        <time>2022-12-13T18:43:38.919Z</time>
      </trkpt>
      <trkpt lat="47.8971" lon="-2.46243">
        <ele>66.828648</ele>
        <time>2022-12-13T18:43:42.918Z</time>
      </trkpt>
      <trkpt lat="47.89701" lon="-2.4625">
        <ele>66.968625</ele>
        <time>2022-12-13T18:43:46.910Z</time>
      </trkpt>
      <trkpt lat="47.89692" lon="-2.46254">
        <ele>67.099948</ele>
        <time>2022-12-13T18:43:49.910Z</time>
      </trkpt>
      <trkpt lat="47.89684" lon="-2.46259">
        <ele>67.226133</ele>
        <time>2022-12-13T18:43:52.929Z</time>
      </trkpt>
      <trkpt lat="47.89676" lon="-2.46264">
        <ele>67.352696</ele>
        <time>2022-12-13T18:43:55.920Z</time>
      </trkpt>
      <trkpt lat="47.89667" lon="-2.46268">
        <ele>67.481198</ele>
        <time>2022-12-13T18:43:58.916Z</time>
      </trkpt>
      <trkpt lat="47.89659" lon="-2.46275">
        <ele>67.610633</ele>
        <time>2022-12-13T18:44:01.916Z</time>
      </trkpt>
      <trkpt lat="47.89648" lon="-2.46281">
        <ele>67.775778</ele>
        <time>2022-12-13T18:44:04.912Z</time>
      </trkpt>
      <trkpt lat="47.89639" lon="-2.46287">
        <ele>67.910806</ele>
        <time>2022-12-13T18:44:07.913Z</time>
      </trkpt>
      <trkpt lat="47.89628" lon="-2.46292">
        <ele>68.071687</ele>
        <time>2022-12-13T18:44:10.918Z</time>
      </trkpt>
      <trkpt lat="47.89617" lon="-2.46298">
        <ele>68.238049</ele>
        <time>2022-12-13T18:44:13.911Z</time>
      </trkpt>
      <trkpt lat="47.89606" lon="-2.46303">
        <ele>68.389092</ele>
        <time>2022-12-13T18:44:16.908Z</time>
      </trkpt>
      <trkpt lat="47.89598" lon="-2.46308">
        <ele>68.51601</ele>
        <time>2022-12-13T18:44:19.914Z</time>
      </trkpt>
      <trkpt lat="47.89587" lon="-2.46314">
        <ele>68.672593</ele>
        <time>2022-12-13T18:44:22.907Z</time>
      </trkpt>
      <trkpt lat="47.89578" lon="-2.46319">
        <ele>68.814495</ele>
        <time>2022-12-13T18:44:25.906Z</time>
      </trkpt>
      <trkpt lat="47.8957" lon="-2.46325">
        <ele>68.941239</ele>
        <time>2022-12-13T18:44:28.920Z</time>
      </trkpt>
      <trkpt lat="47.8956" lon="-2.4633">
        <ele>69.001763</ele>
        <time>2022-12-13T18:44:31.920Z</time>
      </trkpt>
      <trkpt lat="47.8955" lon="-2.46336">
        <ele>68.992468</ele>
        <time>2022-12-13T18:44:34.905Z</time>
      </trkpt>
      <trkpt lat="47.8954" lon="-2.46341">
        <ele>68.98364</ele>
        <time>2022-12-13T18:44:37.920Z</time>
      </trkpt>
      <trkpt lat="47.89531" lon="-2.46349">
        <ele>68.97416</ele>
        <time>2022-12-13T18:44:40.907Z</time>
      </trkpt>
      <trkpt lat="47.89521" lon="-2.46357">
        <ele>68.964739</ele>
        <time>2022-12-13T18:44:43.920Z</time>
      </trkpt>
      <trkpt lat="47.8951" lon="-2.46363">
        <ele>68.954847</ele>
        <time>2022-12-13T18:44:46.907Z</time>
      </trkpt>
      <trkpt lat="47.895" lon="-2.46369">
        <ele>68.945314</ele>
        <time>2022-12-13T18:44:49.918Z</time>
      </trkpt>
      <trkpt lat="47.89489" lon="-2.46376">
        <ele>68.935331</ele>
        <time>2022-12-13T18:44:52.921Z</time>
      </trkpt>
      <trkpt lat="47.8948" lon="-2.46382">
        <ele>68.926786</ele>
        <time>2022-12-13T18:44:55.909Z</time>
      </trkpt>
      <trkpt lat="47.89468" lon="-2.46388">
        <ele>68.915586</ele>
        <time>2022-12-13T18:44:59.914Z</time>
      </trkpt>
      <trkpt lat="47.89458" lon="-2.46395">
        <ele>68.906158</ele>
        <time>2022-12-13T18:45:02.915Z</time>
      </trkpt>
      <trkpt lat="47.89447" lon="-2.46401">
        <ele>68.896085</ele>
        <time>2022-12-13T18:45:05.908Z</time>
      </trkpt>
      <trkpt lat="47.89437" lon="-2.46407">
        <ele>68.886896</ele>
        <time>2022-12-13T18:45:08.923Z</time>
      </trkpt>
      <trkpt lat="47.89426" lon="-2.46413">
        <ele>68.87689</ele>
        <time>2022-12-13T18:45:11.921Z</time>
      </trkpt>
      <trkpt lat="47.89416" lon="-2.46421">
        <ele>68.867462</ele>
        <time>2022-12-13T18:45:14.913Z</time>
      </trkpt>
      <trkpt lat="47.89407" lon="-2.46426">
        <ele>68.859337</ele>
        <time>2022-12-13T18:45:17.919Z</time>
      </trkpt>
      <trkpt lat="47.89399" lon="-2.46431">
        <ele>68.85132</ele>
        <time>2022-12-13T18:45:20.920Z</time>
      </trkpt>
      <trkpt lat="47.8939" lon="-2.46439">
        <ele>68.8391</ele>
        <time>2022-12-13T18:45:23.914Z</time>
      </trkpt>
      <trkpt lat="47.89381" lon="-2.46449">
        <ele>68.826325</ele>
        <time>2022-12-13T18:45:26.917Z</time>
      </trkpt>
      <trkpt lat="47.89374" lon="-2.46461">
        <ele>68.813673</ele>
        <time>2022-12-13T18:45:29.923Z</time>
      </trkpt>
      <trkpt lat="47.89369" lon="-2.46475">
        <ele>68.801253</ele>
        <time>2022-12-13T18:45:32.916Z</time>
      </trkpt>
      <trkpt lat="47.89365" lon="-2.46488">
        <ele>68.78995</ele>
        <time>2022-12-13T18:45:35.921Z</time>
      </trkpt>
      <trkpt lat="47.89361" lon="-2.46502">
        <ele>68.77815</ele>
        <time>2022-12-13T18:45:38.915Z</time>
      </trkpt>
      <trkpt lat="47.89357" lon="-2.46518">
        <ele>68.764762</ele>
        <time>2022-12-13T18:45:42.913Z</time>
      </trkpt>
      <trkpt lat="47.89353" lon="-2.46533">
        <ele>68.752243</ele>
        <time>2022-12-13T18:45:46.914Z</time>
      </trkpt>
      <trkpt lat="47.8935" lon="-2.46547">
        <ele>68.741083</ele>
        <time>2022-12-13T18:45:49.920Z</time>
      </trkpt>
      <trkpt lat="47.89348" lon="-2.46563">
        <ele>68.727765</ele>
        <time>2022-12-13T18:45:53.912Z</time>
      </trkpt>
      <trkpt lat="47.89344" lon="-2.46579">
        <ele>68.714995</ele>
        <time>2022-12-13T18:45:57.949Z</time>
      </trkpt>
      <trkpt lat="47.89342" lon="-2.46594">
        <ele>68.702903</ele>
        <time>2022-12-13T18:46:00.918Z</time>
      </trkpt>
      <trkpt lat="47.89339" lon="-2.46608">
        <ele>68.69103</ele>
        <time>2022-12-13T18:46:03.932Z</time>
      </trkpt>
      <trkpt lat="47.89333" lon="-2.46622">
        <ele>68.678668</ele>
        <time>2022-12-13T18:46:06.915Z</time>
      </trkpt>
      <trkpt lat="47.8933" lon="-2.46635">
        <ele>68.667146</ele>
        <time>2022-12-13T18:46:10.912Z</time>
      </trkpt>
      <trkpt lat="47.89326" lon="-2.46652">
        <ele>68.653604</ele>
        <time>2022-12-13T18:46:14.928Z</time>
      </trkpt>
      <trkpt lat="47.89323" lon="-2.46666">
        <ele>68.689255</ele>
        <time>2022-12-13T18:46:17.912Z</time>
      </trkpt>
      <trkpt lat="47.89319" lon="-2.46682">
        <ele>69.866549</ele>
        <time>2022-12-13T18:46:21.924Z</time>
      </trkpt>
      <trkpt lat="47.89314" lon="-2.46694">
        <ele>70.805931</ele>
        <time>2022-12-13T18:46:26.921Z</time>
      </trkpt>
      <trkpt lat="47.89312" lon="-2.46709">
        <ele>71.88456</ele>
        <time>2022-12-13T18:46:31.911Z</time>
      </trkpt>
      <trkpt lat="47.89309" lon="-2.46724">
        <ele>72.942392</ele>
        <time>2022-12-13T18:46:37.908Z</time>
      </trkpt>
      <trkpt lat="47.89307" lon="-2.4674">
        <ele>74.05598</ele>
        <time>2022-12-13T18:46:43.910Z</time>
      </trkpt>
      <trkpt lat="47.89305" lon="-2.46754">
        <ele>75.004962</ele>
        <time>2022-12-13T18:46:49.933Z</time>
      </trkpt>
      <trkpt lat="47.89302" lon="-2.46767">
        <ele>76.007938</ele>
        <time>2022-12-13T18:46:54.909Z</time>
      </trkpt>
      <trkpt lat="47.89303" lon="-2.46782">
        <ele>77.046479</ele>
        <time>2022-12-13T18:47:01.911Z</time>
      </trkpt>
      <trkpt lat="47.893" lon="-2.46795">
        <ele>78.016461</ele>
        <time>2022-12-13T18:47:07.906Z</time>
      </trkpt>
      <trkpt lat="47.89295" lon="-2.46808">
        <ele>78.976577</ele>
        <time>2022-12-13T18:47:12.919Z</time>
      </trkpt>
      <trkpt lat="47.89291" lon="-2.4682">
        <ele>79.929194</ele>
        <time>2022-12-13T18:47:18.948Z</time>
      </trkpt>
      <trkpt lat="47.89287" lon="-2.46833">
        <ele>80.906135</ele>
        <time>2022-12-13T18:47:24.908Z</time>
      </trkpt>
      <trkpt lat="47.89281" lon="-2.46844">
        <ele>81.883161</ele>
        <time>2022-12-13T18:47:30.918Z</time>
      </trkpt>
      <trkpt lat="47.89273" lon="-2.46851">
        <ele>82.80216</ele>
        <time>2022-12-13T18:47:35.917Z</time>
      </trkpt>
      <trkpt lat="47.89263" lon="-2.46851">
        <ele>83.835631</ele>
        <time>2022-12-13T18:47:41.908Z</time>
      </trkpt>
      <trkpt lat="47.89254" lon="-2.46847">
        <ele>84.761154</ele>
        <time>2022-12-13T18:47:46.910Z</time>
      </trkpt>
      <trkpt lat="47.89247" lon="-2.46839">
        <ele>85.720916</ele>
        <time>2022-12-13T18:47:53.910Z</time>
      </trkpt>
      <trkpt lat="47.89246" lon="-2.46825">
        <ele>86.697235</ele>
        <time>2022-12-13T18:47:59.907Z</time>
      </trkpt>
      <trkpt lat="47.89245" lon="-2.46811">
        <ele>87.043098</ele>
        <time>2022-12-13T18:48:05.912Z</time>
      </trkpt>
      <trkpt lat="47.89245" lon="-2.46796">
        <ele>87.043098</ele>
        <time>2022-12-13T18:48:11.912Z</time>
      </trkpt>
      <trkpt lat="47.89246" lon="-2.46783">
        <ele>87.043098</ele>
        <time>2022-12-13T18:48:16.932Z</time>
      </trkpt>
      <trkpt lat="47.89245" lon="-2.46767">
        <ele>87.043098</ele>
        <time>2022-12-13T18:48:22.913Z</time>
      </trkpt>
      <trkpt lat="47.89244" lon="-2.46751">
        <ele>87.043098</ele>
        <time>2022-12-13T18:48:29.919Z</time>
      </trkpt>
      <trkpt lat="47.89245" lon="-2.46737">
        <ele>87.043098</ele>
        <time>2022-12-13T18:48:36.919Z</time>
      </trkpt>
      <trkpt lat="47.89242" lon="-2.46723">
        <ele>87.043098</ele>
        <time>2022-12-13T18:48:42.916Z</time>
      </trkpt>
      <trkpt lat="47.89241" lon="-2.46709">
        <ele>87.043098</ele>
        <time>2022-12-13T18:48:47.909Z</time>
      </trkpt>
      <trkpt lat="47.8924" lon="-2.46693">
        <ele>87.043098</ele>
        <time>2022-12-13T18:48:53.910Z</time>
      </trkpt>
      <trkpt lat="47.89237" lon="-2.46679">
        <ele>87.043098</ele>
        <time>2022-12-13T18:48:59.922Z</time>
      </trkpt>
      <trkpt lat="47.89229" lon="-2.46668">
        <ele>87.043098</ele>
        <time>2022-12-13T18:49:06.909Z</time>
      </trkpt>
      <trkpt lat="47.8922" lon="-2.46662">
        <ele>87.043098</ele>
        <time>2022-12-13T18:49:11.903Z</time>
      </trkpt>
      <trkpt lat="47.89216" lon="-2.4666">
        <ele>87.043098</ele>
        <time>2022-12-13T18:49:37.614Z</time>
        <extensions>
          <visugpx:TrkExtension xmlns:visugpx="https://www.visugpx.com/editgpx/">
            <visugpx:node>1</visugpx:node>
            </visugpx:TrkExtension>
        </extensions>
      </trkpt>
    </trkseg>
  </trk>
</gpx>